<?xml version="1.0" encoding="UTF-8" standalone="no" ?>
<gpx xmlns="http://www.topografix.com/GPX/1/1" xmlns:xsi="http://www.w3.org/2001/XMLSchema-instance" xsi:schemaLocation="http://www.topografix.com/GPX/1/1 http://www.topografix.com/GPX/1/1/gpx.xsd" version="1.1" creator="VisuGPX - https://www.visugpx.com">
  <metadata>
    <name>Balade à St-Cyr, Poleym et Curis</name>
    <desc><![CDATA[Rando-trail-photo-CO faite le 26/10/14]]></desc>
  </metadata>
  <trk>
    <name><![CDATA[2014-10-26T07:31:03Z]]></name>
    <trkseg>
      <trkpt lat="45.8371" lon="4.80585">
        <ele>436</ele>
        <time>2014-10-26T07:31:03Z</time>
      </trkpt>
      <trkpt lat="45.83705" lon="4.80586">
        <ele>436</ele>
        <time>2014-10-26T07:31:07Z</time>
      </trkpt>
      <trkpt lat="45.83696" lon="4.8059">
        <ele>437</ele>
        <time>2014-10-26T07:31:12Z</time>
      </trkpt>
      <trkpt lat="45.83692" lon="4.80592">
        <ele>437</ele>
        <time>2014-10-26T07:31:14Z</time>
      </trkpt>
      <trkpt lat="45.8368" lon="4.80594">
        <ele>438</ele>
        <time>2014-10-26T07:31:19Z</time>
      </trkpt>
      <trkpt lat="45.83676" lon="4.80602">
        <ele>437</ele>
        <time>2014-10-26T07:31:22Z</time>
      </trkpt>
      <trkpt lat="45.83675" lon="4.80603">
        <ele>437</ele>
        <time>2014-10-26T07:31:23Z</time>
      </trkpt>
      <trkpt lat="45.83666" lon="4.80607">
        <ele>439</ele>
        <time>2014-10-26T07:32:29Z</time>
      </trkpt>
      <trkpt lat="45.83668" lon="4.80612">
        <ele>436</ele>
        <time>2014-10-26T07:32:31Z</time>
      </trkpt>
      <trkpt lat="45.8367" lon="4.80623">
        <ele>434</ele>
        <time>2014-10-26T07:32:34Z</time>
      </trkpt>
      <trkpt lat="45.83671" lon="4.80627">
        <ele>434</ele>
        <time>2014-10-26T07:32:35Z</time>
      </trkpt>
      <trkpt lat="45.83673" lon="4.8064">
        <ele>432</ele>
        <time>2014-10-26T07:32:38Z</time>
      </trkpt>
      <trkpt lat="45.83673" lon="4.80644">
        <ele>431</ele>
        <time>2014-10-26T07:32:39Z</time>
      </trkpt>
      <trkpt lat="45.83675" lon="4.80664">
        <ele>429</ele>
        <time>2014-10-26T07:32:44Z</time>
      </trkpt>
      <trkpt lat="45.83675" lon="4.80667">
        <ele>426</ele>
        <time>2014-10-26T07:32:45Z</time>
      </trkpt>
      <trkpt lat="45.83678" lon="4.80681">
        <ele>424</ele>
        <time>2014-10-26T07:32:49Z</time>
      </trkpt>
      <trkpt lat="45.83679" lon="4.80685">
        <ele>424</ele>
        <time>2014-10-26T07:32:50Z</time>
      </trkpt>
      <trkpt lat="45.83678" lon="4.80692">
        <ele>423</ele>
        <time>2014-10-26T07:32:52Z</time>
      </trkpt>
      <trkpt lat="45.83678" lon="4.80697">
        <ele>423</ele>
        <time>2014-10-26T07:32:53Z</time>
      </trkpt>
      <trkpt lat="45.83678" lon="4.807">
        <ele>423</ele>
        <time>2014-10-26T07:32:54Z</time>
      </trkpt>
      <trkpt lat="45.83682" lon="4.80717">
        <ele>422</ele>
        <time>2014-10-26T07:32:58Z</time>
      </trkpt>
      <trkpt lat="45.83683" lon="4.80735">
        <ele>421</ele>
        <time>2014-10-26T07:33:02Z</time>
      </trkpt>
      <trkpt lat="45.83683" lon="4.80744">
        <ele>420</ele>
        <time>2014-10-26T07:33:04Z</time>
      </trkpt>
      <trkpt lat="45.83685" lon="4.80755">
        <ele>416</ele>
        <time>2014-10-26T07:33:07Z</time>
      </trkpt>
      <trkpt lat="45.8369" lon="4.80758">
        <ele>416</ele>
        <time>2014-10-26T07:33:10Z</time>
      </trkpt>
      <trkpt lat="45.83692" lon="4.80758">
        <ele>416</ele>
        <time>2014-10-26T07:33:11Z</time>
      </trkpt>
      <trkpt lat="45.83694" lon="4.80758">
        <ele>416</ele>
        <time>2014-10-26T07:33:12Z</time>
      </trkpt>
      <trkpt lat="45.83699" lon="4.8076">
        <ele>415</ele>
        <time>2014-10-26T07:33:14Z</time>
      </trkpt>
      <trkpt lat="45.83705" lon="4.80765">
        <ele>415</ele>
        <time>2014-10-26T07:33:17Z</time>
      </trkpt>
      <trkpt lat="45.8371" lon="4.80772">
        <ele>415</ele>
        <time>2014-10-26T07:33:20Z</time>
      </trkpt>
      <trkpt lat="45.83714" lon="4.80777">
        <ele>414</ele>
        <time>2014-10-26T07:33:22Z</time>
      </trkpt>
      <trkpt lat="45.83724" lon="4.8079">
        <ele>414</ele>
        <time>2014-10-26T07:33:27Z</time>
      </trkpt>
      <trkpt lat="45.83726" lon="4.80792">
        <ele>414</ele>
        <time>2014-10-26T07:33:28Z</time>
      </trkpt>
      <trkpt lat="45.83732" lon="4.80798">
        <ele>413</ele>
        <time>2014-10-26T07:33:31Z</time>
      </trkpt>
      <trkpt lat="45.83734" lon="4.80801">
        <ele>413</ele>
        <time>2014-10-26T07:33:32Z</time>
      </trkpt>
      <trkpt lat="45.8374" lon="4.80808">
        <ele>412</ele>
        <time>2014-10-26T07:33:35Z</time>
      </trkpt>
      <trkpt lat="45.83742" lon="4.80811">
        <ele>412</ele>
        <time>2014-10-26T07:33:36Z</time>
      </trkpt>
      <trkpt lat="45.83754" lon="4.80822">
        <ele>414</ele>
        <time>2014-10-26T07:33:41Z</time>
      </trkpt>
      <trkpt lat="45.83756" lon="4.80824">
        <ele>414</ele>
        <time>2014-10-26T07:33:42Z</time>
      </trkpt>
      <trkpt lat="45.83765" lon="4.80838">
        <ele>409</ele>
        <time>2014-10-26T07:33:48Z</time>
      </trkpt>
      <trkpt lat="45.83769" lon="4.80845">
        <ele>409</ele>
        <time>2014-10-26T07:33:51Z</time>
      </trkpt>
      <trkpt lat="45.83771" lon="4.80855">
        <ele>409</ele>
        <time>2014-10-26T07:33:54Z</time>
      </trkpt>
      <trkpt lat="45.83774" lon="4.80863">
        <ele>409</ele>
        <time>2014-10-26T07:33:57Z</time>
      </trkpt>
      <trkpt lat="45.83777" lon="4.80868">
        <ele>409</ele>
        <time>2014-10-26T07:33:59Z</time>
      </trkpt>
      <trkpt lat="45.83778" lon="4.80871">
        <ele>409</ele>
        <time>2014-10-26T07:34:00Z</time>
      </trkpt>
      <trkpt lat="45.83784" lon="4.80881">
        <ele>408</ele>
        <time>2014-10-26T07:34:04Z</time>
      </trkpt>
      <trkpt lat="45.83789" lon="4.8089">
        <ele>408</ele>
        <time>2014-10-26T07:34:08Z</time>
      </trkpt>
      <trkpt lat="45.83791" lon="4.8089">
        <ele>408</ele>
        <time>2014-10-26T07:34:09Z</time>
      </trkpt>
      <trkpt lat="45.83796" lon="4.80893">
        <ele>408</ele>
        <time>2014-10-26T07:34:11Z</time>
      </trkpt>
      <trkpt lat="45.83806" lon="4.80896">
        <ele>408</ele>
        <time>2014-10-26T07:34:15Z</time>
      </trkpt>
      <trkpt lat="45.83809" lon="4.80898">
        <ele>408</ele>
        <time>2014-10-26T07:34:17Z</time>
      </trkpt>
      <trkpt lat="45.83812" lon="4.80901">
        <ele>407</ele>
        <time>2014-10-26T07:34:19Z</time>
      </trkpt>
      <trkpt lat="45.83813" lon="4.80903">
        <ele>407</ele>
        <time>2014-10-26T07:34:20Z</time>
      </trkpt>
      <trkpt lat="45.83816" lon="4.80905">
        <ele>407</ele>
        <time>2014-10-26T07:34:22Z</time>
      </trkpt>
      <trkpt lat="45.83823" lon="4.80906">
        <ele>406</ele>
        <time>2014-10-26T07:34:25Z</time>
      </trkpt>
      <trkpt lat="45.83828" lon="4.80906">
        <ele>406</ele>
        <time>2014-10-26T07:34:27Z</time>
      </trkpt>
      <trkpt lat="45.83836" lon="4.80906">
        <ele>410</ele>
        <time>2014-10-26T07:34:30Z</time>
      </trkpt>
      <trkpt lat="45.83847" lon="4.80907">
        <ele>412</ele>
        <time>2014-10-26T07:34:35Z</time>
      </trkpt>
      <trkpt lat="45.83848" lon="4.80907">
        <ele>412</ele>
        <time>2014-10-26T07:34:36Z</time>
      </trkpt>
      <trkpt lat="45.83857" lon="4.80907">
        <ele>414</ele>
        <time>2014-10-26T07:34:40Z</time>
      </trkpt>
      <trkpt lat="45.83866" lon="4.8091">
        <ele>416</ele>
        <time>2014-10-26T07:34:45Z</time>
      </trkpt>
      <trkpt lat="45.83876" lon="4.80913">
        <ele>417</ele>
        <time>2014-10-26T07:34:49Z</time>
      </trkpt>
      <trkpt lat="45.83879" lon="4.80912">
        <ele>418</ele>
        <time>2014-10-26T07:34:50Z</time>
      </trkpt>
      <trkpt lat="45.83886" lon="4.80912">
        <ele>418</ele>
        <time>2014-10-26T07:34:53Z</time>
      </trkpt>
      <trkpt lat="45.83891" lon="4.80911">
        <ele>419</ele>
        <time>2014-10-26T07:34:55Z</time>
      </trkpt>
      <trkpt lat="45.83904" lon="4.80909">
        <ele>419</ele>
        <time>2014-10-26T07:35:01Z</time>
      </trkpt>
      <trkpt lat="45.83906" lon="4.8091">
        <ele>419</ele>
        <time>2014-10-26T07:35:02Z</time>
      </trkpt>
      <trkpt lat="45.83911" lon="4.80918">
        <ele>417</ele>
        <time>2014-10-26T07:35:05Z</time>
      </trkpt>
      <trkpt lat="45.83912" lon="4.80929">
        <ele>415</ele>
        <time>2014-10-26T07:35:10Z</time>
      </trkpt>
      <trkpt lat="45.83911" lon="4.80935">
        <ele>414</ele>
        <time>2014-10-26T07:35:12Z</time>
      </trkpt>
      <trkpt lat="45.83912" lon="4.80951">
        <ele>412</ele>
        <time>2014-10-26T07:35:18Z</time>
      </trkpt>
      <trkpt lat="45.83911" lon="4.80961">
        <ele>412</ele>
        <time>2014-10-26T07:35:21Z</time>
      </trkpt>
      <trkpt lat="45.8391" lon="4.80971">
        <ele>413</ele>
        <time>2014-10-26T07:35:24Z</time>
      </trkpt>
      <trkpt lat="45.83907" lon="4.80989">
        <ele>414</ele>
        <time>2014-10-26T07:35:29Z</time>
      </trkpt>
      <trkpt lat="45.83906" lon="4.81002">
        <ele>414</ele>
        <time>2014-10-26T07:35:33Z</time>
      </trkpt>
      <trkpt lat="45.83902" lon="4.8101">
        <ele>411</ele>
        <time>2014-10-26T07:35:38Z</time>
      </trkpt>
      <trkpt lat="45.83901" lon="4.81011">
        <ele>410</ele>
        <time>2014-10-26T07:35:39Z</time>
      </trkpt>
      <trkpt lat="45.839" lon="4.81009">
        <ele>410</ele>
        <time>2014-10-26T07:35:41Z</time>
      </trkpt>
      <trkpt lat="45.83898" lon="4.81008">
        <ele>410</ele>
        <time>2014-10-26T07:35:43Z</time>
      </trkpt>
      <trkpt lat="45.83891" lon="4.81011">
        <ele>407</ele>
        <time>2014-10-26T07:35:48Z</time>
      </trkpt>
      <trkpt lat="45.83886" lon="4.81014">
        <ele>405</ele>
        <time>2014-10-26T07:35:53Z</time>
      </trkpt>
      <trkpt lat="45.83883" lon="4.81013">
        <ele>405</ele>
        <time>2014-10-26T07:35:55Z</time>
      </trkpt>
      <trkpt lat="45.83881" lon="4.81013">
        <ele>404</ele>
        <time>2014-10-26T07:35:58Z</time>
      </trkpt>
      <trkpt lat="45.83878" lon="4.81013">
        <ele>403</ele>
        <time>2014-10-26T07:36:03Z</time>
      </trkpt>
      <trkpt lat="45.83877" lon="4.81012">
        <ele>403</ele>
        <time>2014-10-26T07:36:04Z</time>
      </trkpt>
      <trkpt lat="45.83877" lon="4.81005">
        <ele>403</ele>
        <time>2014-10-26T07:36:08Z</time>
      </trkpt>
      <trkpt lat="45.83875" lon="4.81006">
        <ele>403</ele>
        <time>2014-10-26T07:36:13Z</time>
      </trkpt>
      <trkpt lat="45.83873" lon="4.81008">
        <ele>402</ele>
        <time>2014-10-26T07:36:15Z</time>
      </trkpt>
      <trkpt lat="45.8387" lon="4.81009">
        <ele>401</ele>
        <time>2014-10-26T07:36:18Z</time>
      </trkpt>
      <trkpt lat="45.8387" lon="4.8101">
        <ele>401</ele>
        <time>2014-10-26T07:36:19Z</time>
      </trkpt>
      <trkpt lat="45.83871" lon="4.81008">
        <ele>402</ele>
        <time>2014-10-26T07:36:22Z</time>
      </trkpt>
      <trkpt lat="45.83869" lon="4.81007">
        <ele>401</ele>
        <time>2014-10-26T07:36:24Z</time>
      </trkpt>
      <trkpt lat="45.83867" lon="4.81005">
        <ele>400</ele>
        <time>2014-10-26T07:36:29Z</time>
      </trkpt>
      <trkpt lat="45.83867" lon="4.81">
        <ele>401</ele>
        <time>2014-10-26T07:36:33Z</time>
      </trkpt>
      <trkpt lat="45.83869" lon="4.81003">
        <ele>401</ele>
        <time>2014-10-26T07:36:42Z</time>
      </trkpt>
      <trkpt lat="45.83869" lon="4.81004">
        <ele>401</ele>
        <time>2014-10-26T07:36:43Z</time>
      </trkpt>
      <trkpt lat="45.83867" lon="4.81007">
        <ele>400</ele>
        <time>2014-10-26T07:36:46Z</time>
      </trkpt>
      <trkpt lat="45.83864" lon="4.8101">
        <ele>400</ele>
        <time>2014-10-26T07:36:49Z</time>
      </trkpt>
      <trkpt lat="45.83862" lon="4.8101">
        <ele>399</ele>
        <time>2014-10-26T07:36:51Z</time>
      </trkpt>
      <trkpt lat="45.83858" lon="4.8101">
        <ele>398</ele>
        <time>2014-10-26T07:36:53Z</time>
      </trkpt>
      <trkpt lat="45.83855" lon="4.81012">
        <ele>398</ele>
        <time>2014-10-26T07:36:55Z</time>
      </trkpt>
      <trkpt lat="45.83854" lon="4.81013">
        <ele>397</ele>
        <time>2014-10-26T07:36:56Z</time>
      </trkpt>
      <trkpt lat="45.8385" lon="4.81018">
        <ele>397</ele>
        <time>2014-10-26T07:36:59Z</time>
      </trkpt>
      <trkpt lat="45.83849" lon="4.8102">
        <ele>397</ele>
        <time>2014-10-26T07:37:00Z</time>
      </trkpt>
      <trkpt lat="45.83842" lon="4.81021">
        <ele>396</ele>
        <time>2014-10-26T07:37:04Z</time>
      </trkpt>
      <trkpt lat="45.83841" lon="4.81021">
        <ele>396</ele>
        <time>2014-10-26T07:37:05Z</time>
      </trkpt>
      <trkpt lat="45.83839" lon="4.8102">
        <ele>395</ele>
        <time>2014-10-26T07:37:08Z</time>
      </trkpt>
      <trkpt lat="45.83839" lon="4.81021">
        <ele>395</ele>
        <time>2014-10-26T07:37:10Z</time>
      </trkpt>
      <trkpt lat="45.83838" lon="4.81019">
        <ele>395</ele>
        <time>2014-10-26T07:37:15Z</time>
      </trkpt>
      <trkpt lat="45.83839" lon="4.81021">
        <ele>395</ele>
        <time>2014-10-26T07:37:18Z</time>
      </trkpt>
      <trkpt lat="45.8384" lon="4.81026">
        <ele>396</ele>
        <time>2014-10-26T07:37:20Z</time>
      </trkpt>
      <trkpt lat="45.8384" lon="4.81034">
        <ele>396</ele>
        <time>2014-10-26T07:37:24Z</time>
      </trkpt>
      <trkpt lat="45.8384" lon="4.81035">
        <ele>396</ele>
        <time>2014-10-26T07:37:25Z</time>
      </trkpt>
      <trkpt lat="45.83842" lon="4.81041">
        <ele>396</ele>
        <time>2014-10-26T07:37:30Z</time>
      </trkpt>
      <trkpt lat="45.83845" lon="4.81044">
        <ele>396</ele>
        <time>2014-10-26T07:38:15Z</time>
      </trkpt>
      <trkpt lat="45.83844" lon="4.81044">
        <ele>396</ele>
        <time>2014-10-26T07:38:21Z</time>
      </trkpt>
      <trkpt lat="45.83848" lon="4.81032">
        <ele>397</ele>
        <time>2014-10-26T07:38:57Z</time>
      </trkpt>
      <trkpt lat="45.83846" lon="4.81031">
        <ele>397</ele>
        <time>2014-10-26T07:39:00Z</time>
      </trkpt>
      <trkpt lat="45.83844" lon="4.81025">
        <ele>396</ele>
        <time>2014-10-26T07:39:04Z</time>
      </trkpt>
      <trkpt lat="45.83842" lon="4.81022">
        <ele>396</ele>
        <time>2014-10-26T07:39:06Z</time>
      </trkpt>
      <trkpt lat="45.8384" lon="4.81013">
        <ele>395</ele>
        <time>2014-10-26T07:39:12Z</time>
      </trkpt>
      <trkpt lat="45.83836" lon="4.81015">
        <ele>394</ele>
        <time>2014-10-26T07:39:24Z</time>
      </trkpt>
      <trkpt lat="45.83839" lon="4.81006">
        <ele>393</ele>
        <time>2014-10-26T07:39:45Z</time>
      </trkpt>
      <trkpt lat="45.83841" lon="4.81006">
        <ele>394</ele>
        <time>2014-10-26T07:39:48Z</time>
      </trkpt>
      <trkpt lat="45.83841" lon="4.81006">
        <ele>394</ele>
        <time>2014-10-26T07:39:49Z</time>
      </trkpt>
      <trkpt lat="45.83843" lon="4.81004">
        <ele>394</ele>
        <time>2014-10-26T07:39:52Z</time>
      </trkpt>
      <trkpt lat="45.83845" lon="4.81004">
        <ele>395</ele>
        <time>2014-10-26T07:39:54Z</time>
      </trkpt>
      <trkpt lat="45.83848" lon="4.81005">
        <ele>395</ele>
        <time>2014-10-26T07:39:58Z</time>
      </trkpt>
      <trkpt lat="45.8385" lon="4.81006">
        <ele>396</ele>
        <time>2014-10-26T07:40:00Z</time>
      </trkpt>
      <trkpt lat="45.8385" lon="4.81006">
        <ele>396</ele>
        <time>2014-10-26T07:40:01Z</time>
      </trkpt>
      <trkpt lat="45.83855" lon="4.81004">
        <ele>397</ele>
        <time>2014-10-26T07:40:08Z</time>
      </trkpt>
      <trkpt lat="45.83856" lon="4.81005">
        <ele>398</ele>
        <time>2014-10-26T07:40:09Z</time>
      </trkpt>
      <trkpt lat="45.83856" lon="4.8101">
        <ele>398</ele>
        <time>2014-10-26T07:40:14Z</time>
      </trkpt>
      <trkpt lat="45.83855" lon="4.81011">
        <ele>398</ele>
        <time>2014-10-26T07:40:15Z</time>
      </trkpt>
      <trkpt lat="45.83857" lon="4.81002">
        <ele>398</ele>
        <time>2014-10-26T07:40:37Z</time>
      </trkpt>
      <trkpt lat="45.83858" lon="4.81001">
        <ele>398</ele>
        <time>2014-10-26T07:40:38Z</time>
      </trkpt>
      <trkpt lat="45.83861" lon="4.81">
        <ele>403</ele>
        <time>2014-10-26T07:40:41Z</time>
      </trkpt>
      <trkpt lat="45.83865" lon="4.80999">
        <ele>404</ele>
        <time>2014-10-26T07:40:46Z</time>
      </trkpt>
      <trkpt lat="45.83869" lon="4.80996">
        <ele>406</ele>
        <time>2014-10-26T07:40:51Z</time>
      </trkpt>
      <trkpt lat="45.83876" lon="4.80994">
        <ele>407</ele>
        <time>2014-10-26T07:40:58Z</time>
      </trkpt>
      <trkpt lat="45.83878" lon="4.80991">
        <ele>408</ele>
        <time>2014-10-26T07:41:01Z</time>
      </trkpt>
      <trkpt lat="45.8388" lon="4.80987">
        <ele>408</ele>
        <time>2014-10-26T07:41:04Z</time>
      </trkpt>
      <trkpt lat="45.83884" lon="4.80985">
        <ele>409</ele>
        <time>2014-10-26T07:41:08Z</time>
      </trkpt>
      <trkpt lat="45.83885" lon="4.80984">
        <ele>410</ele>
        <time>2014-10-26T07:41:09Z</time>
      </trkpt>
      <trkpt lat="45.83889" lon="4.80982">
        <ele>410</ele>
        <time>2014-10-26T07:41:14Z</time>
      </trkpt>
      <trkpt lat="45.83895" lon="4.80983">
        <ele>412</ele>
        <time>2014-10-26T07:41:19Z</time>
      </trkpt>
      <trkpt lat="45.83897" lon="4.80983">
        <ele>412</ele>
        <time>2014-10-26T07:41:21Z</time>
      </trkpt>
      <trkpt lat="45.83899" lon="4.80983">
        <ele>412</ele>
        <time>2014-10-26T07:41:23Z</time>
      </trkpt>
      <trkpt lat="45.83904" lon="4.80981">
        <ele>413</ele>
        <time>2014-10-26T07:41:30Z</time>
      </trkpt>
      <trkpt lat="45.83911" lon="4.80975">
        <ele>413</ele>
        <time>2014-10-26T07:41:38Z</time>
      </trkpt>
      <trkpt lat="45.83913" lon="4.80972">
        <ele>413</ele>
        <time>2014-10-26T07:41:41Z</time>
      </trkpt>
      <trkpt lat="45.83915" lon="4.80971">
        <ele>413</ele>
        <time>2014-10-26T07:41:43Z</time>
      </trkpt>
      <trkpt lat="45.83916" lon="4.80971">
        <ele>413</ele>
        <time>2014-10-26T07:41:44Z</time>
      </trkpt>
      <trkpt lat="45.83917" lon="4.80969">
        <ele>426</ele>
        <time>2014-10-26T07:41:46Z</time>
      </trkpt>
      <trkpt lat="45.83919" lon="4.80967">
        <ele>427</ele>
        <time>2014-10-26T07:41:48Z</time>
      </trkpt>
      <trkpt lat="45.83922" lon="4.80964">
        <ele>427</ele>
        <time>2014-10-26T07:41:51Z</time>
      </trkpt>
      <trkpt lat="45.83923" lon="4.80963">
        <ele>427</ele>
        <time>2014-10-26T07:41:52Z</time>
      </trkpt>
      <trkpt lat="45.83928" lon="4.80961">
        <ele>427</ele>
        <time>2014-10-26T07:41:56Z</time>
      </trkpt>
      <trkpt lat="45.83932" lon="4.8096">
        <ele>428</ele>
        <time>2014-10-26T07:42:00Z</time>
      </trkpt>
      <trkpt lat="45.83936" lon="4.80962">
        <ele>428</ele>
        <time>2014-10-26T07:42:03Z</time>
      </trkpt>
      <trkpt lat="45.83937" lon="4.80962">
        <ele>428</ele>
        <time>2014-10-26T07:42:04Z</time>
      </trkpt>
      <trkpt lat="45.83938" lon="4.8097">
        <ele>428</ele>
        <time>2014-10-26T07:42:09Z</time>
      </trkpt>
      <trkpt lat="45.83938" lon="4.80976">
        <ele>428</ele>
        <time>2014-10-26T07:42:15Z</time>
      </trkpt>
      <trkpt lat="45.83937" lon="4.80977">
        <ele>428</ele>
        <time>2014-10-26T07:42:16Z</time>
      </trkpt>
      <trkpt lat="45.83937" lon="4.8098">
        <ele>428</ele>
        <time>2014-10-26T07:42:18Z</time>
      </trkpt>
      <trkpt lat="45.83937" lon="4.80984">
        <ele>427</ele>
        <time>2014-10-26T07:42:20Z</time>
      </trkpt>
      <trkpt lat="45.83938" lon="4.80985">
        <ele>427</ele>
        <time>2014-10-26T07:42:21Z</time>
      </trkpt>
      <trkpt lat="45.83938" lon="4.80991">
        <ele>427</ele>
        <time>2014-10-26T07:42:25Z</time>
      </trkpt>
      <trkpt lat="45.83937" lon="4.80994">
        <ele>427</ele>
        <time>2014-10-26T07:42:27Z</time>
      </trkpt>
      <trkpt lat="45.83938" lon="4.81">
        <ele>426</ele>
        <time>2014-10-26T07:42:31Z</time>
      </trkpt>
      <trkpt lat="45.83939" lon="4.81005">
        <ele>427</ele>
        <time>2014-10-26T07:42:34Z</time>
      </trkpt>
      <trkpt lat="45.8394" lon="4.81011">
        <ele>427</ele>
        <time>2014-10-26T07:42:38Z</time>
      </trkpt>
      <trkpt lat="45.8394" lon="4.81012">
        <ele>427</ele>
        <time>2014-10-26T07:42:40Z</time>
      </trkpt>
      <trkpt lat="45.83939" lon="4.81033">
        <ele>428</ele>
        <time>2014-10-26T07:44:13Z</time>
      </trkpt>
      <trkpt lat="45.83939" lon="4.81035">
        <ele>428</ele>
        <time>2014-10-26T07:44:14Z</time>
      </trkpt>
      <trkpt lat="45.83941" lon="4.81048">
        <ele>428</ele>
        <time>2014-10-26T07:44:19Z</time>
      </trkpt>
      <trkpt lat="45.83944" lon="4.81059">
        <ele>428</ele>
        <time>2014-10-26T07:44:23Z</time>
      </trkpt>
      <trkpt lat="45.83948" lon="4.81075">
        <ele>428</ele>
        <time>2014-10-26T07:44:28Z</time>
      </trkpt>
      <trkpt lat="45.83951" lon="4.81087">
        <ele>425</ele>
        <time>2014-10-26T07:44:31Z</time>
      </trkpt>
      <trkpt lat="45.83953" lon="4.81094">
        <ele>426</ele>
        <time>2014-10-26T07:44:33Z</time>
      </trkpt>
      <trkpt lat="45.8396" lon="4.81111">
        <ele>426</ele>
        <time>2014-10-26T07:44:40Z</time>
      </trkpt>
      <trkpt lat="45.83963" lon="4.81126">
        <ele>426</ele>
        <time>2014-10-26T07:44:45Z</time>
      </trkpt>
      <trkpt lat="45.83966" lon="4.81135">
        <ele>426</ele>
        <time>2014-10-26T07:44:48Z</time>
      </trkpt>
      <trkpt lat="45.83968" lon="4.81141">
        <ele>427</ele>
        <time>2014-10-26T07:44:50Z</time>
      </trkpt>
      <trkpt lat="45.83972" lon="4.81153">
        <ele>427</ele>
        <time>2014-10-26T07:44:54Z</time>
      </trkpt>
      <trkpt lat="45.83974" lon="4.8116">
        <ele>428</ele>
        <time>2014-10-26T07:44:56Z</time>
      </trkpt>
      <trkpt lat="45.83978" lon="4.81166">
        <ele>429</ele>
        <time>2014-10-26T07:44:58Z</time>
      </trkpt>
      <trkpt lat="45.83983" lon="4.81182">
        <ele>424</ele>
        <time>2014-10-26T07:45:03Z</time>
      </trkpt>
      <trkpt lat="45.83984" lon="4.81186">
        <ele>423</ele>
        <time>2014-10-26T07:45:04Z</time>
      </trkpt>
      <trkpt lat="45.83985" lon="4.81188">
        <ele>423</ele>
        <time>2014-10-26T07:45:05Z</time>
      </trkpt>
      <trkpt lat="45.83985" lon="4.81191">
        <ele>422</ele>
        <time>2014-10-26T07:45:08Z</time>
      </trkpt>
      <trkpt lat="45.83986" lon="4.81193">
        <ele>422</ele>
        <time>2014-10-26T07:45:11Z</time>
      </trkpt>
      <trkpt lat="45.83988" lon="4.81198">
        <ele>422</ele>
        <time>2014-10-26T07:45:13Z</time>
      </trkpt>
      <trkpt lat="45.83991" lon="4.81203">
        <ele>421</ele>
        <time>2014-10-26T07:45:15Z</time>
      </trkpt>
      <trkpt lat="45.83995" lon="4.81211">
        <ele>421</ele>
        <time>2014-10-26T07:45:18Z</time>
      </trkpt>
      <trkpt lat="45.84" lon="4.8122">
        <ele>431</ele>
        <time>2014-10-26T07:45:22Z</time>
      </trkpt>
      <trkpt lat="45.84004" lon="4.81224">
        <ele>431</ele>
        <time>2014-10-26T07:45:24Z</time>
      </trkpt>
      <trkpt lat="45.84008" lon="4.81226">
        <ele>431</ele>
        <time>2014-10-26T07:45:26Z</time>
      </trkpt>
      <trkpt lat="45.84009" lon="4.81227">
        <ele>431</ele>
        <time>2014-10-26T07:45:27Z</time>
      </trkpt>
      <trkpt lat="45.84018" lon="4.81236">
        <ele>430</ele>
        <time>2014-10-26T07:45:31Z</time>
      </trkpt>
      <trkpt lat="45.8402" lon="4.81238">
        <ele>430</ele>
        <time>2014-10-26T07:45:32Z</time>
      </trkpt>
      <trkpt lat="45.84029" lon="4.81243">
        <ele>431</ele>
        <time>2014-10-26T07:45:36Z</time>
      </trkpt>
      <trkpt lat="45.84038" lon="4.81244">
        <ele>432</ele>
        <time>2014-10-26T07:45:40Z</time>
      </trkpt>
      <trkpt lat="45.84041" lon="4.81244">
        <ele>432</ele>
        <time>2014-10-26T07:45:41Z</time>
      </trkpt>
      <trkpt lat="45.8405" lon="4.81246">
        <ele>432</ele>
        <time>2014-10-26T07:45:45Z</time>
      </trkpt>
      <trkpt lat="45.84059" lon="4.81247">
        <ele>433</ele>
        <time>2014-10-26T07:45:49Z</time>
      </trkpt>
      <trkpt lat="45.84064" lon="4.81248">
        <ele>433</ele>
        <time>2014-10-26T07:45:51Z</time>
      </trkpt>
      <trkpt lat="45.84069" lon="4.81248">
        <ele>433</ele>
        <time>2014-10-26T07:45:53Z</time>
      </trkpt>
      <trkpt lat="45.84077" lon="4.81251">
        <ele>429</ele>
        <time>2014-10-26T07:45:56Z</time>
      </trkpt>
      <trkpt lat="45.8409" lon="4.81253">
        <ele>430</ele>
        <time>2014-10-26T07:46:01Z</time>
      </trkpt>
      <trkpt lat="45.84096" lon="4.81254">
        <ele>429</ele>
        <time>2014-10-26T07:46:03Z</time>
      </trkpt>
      <trkpt lat="45.84104" lon="4.81255">
        <ele>427</ele>
        <time>2014-10-26T07:46:06Z</time>
      </trkpt>
      <trkpt lat="45.84115" lon="4.81255">
        <ele>426</ele>
        <time>2014-10-26T07:46:10Z</time>
      </trkpt>
      <trkpt lat="45.84125" lon="4.81252">
        <ele>426</ele>
        <time>2014-10-26T07:46:14Z</time>
      </trkpt>
      <trkpt lat="45.84134" lon="4.81251">
        <ele>426</ele>
        <time>2014-10-26T07:46:17Z</time>
      </trkpt>
      <trkpt lat="45.84137" lon="4.81251">
        <ele>426</ele>
        <time>2014-10-26T07:46:18Z</time>
      </trkpt>
      <trkpt lat="45.84148" lon="4.81248">
        <ele>433</ele>
        <time>2014-10-26T07:46:22Z</time>
      </trkpt>
      <trkpt lat="45.84151" lon="4.81248">
        <ele>432</ele>
        <time>2014-10-26T07:46:23Z</time>
      </trkpt>
      <trkpt lat="45.84154" lon="4.81247">
        <ele>432</ele>
        <time>2014-10-26T07:46:24Z</time>
      </trkpt>
      <trkpt lat="45.84166" lon="4.81245">
        <ele>430</ele>
        <time>2014-10-26T07:46:28Z</time>
      </trkpt>
      <trkpt lat="45.84174" lon="4.81241">
        <ele>430</ele>
        <time>2014-10-26T07:46:32Z</time>
      </trkpt>
      <trkpt lat="45.84181" lon="4.81239">
        <ele>431</ele>
        <time>2014-10-26T07:46:34Z</time>
      </trkpt>
      <trkpt lat="45.84193" lon="4.81238">
        <ele>431</ele>
        <time>2014-10-26T07:46:39Z</time>
      </trkpt>
      <trkpt lat="45.84196" lon="4.81238">
        <ele>431</ele>
        <time>2014-10-26T07:46:40Z</time>
      </trkpt>
      <trkpt lat="45.84212" lon="4.81235">
        <ele>430</ele>
        <time>2014-10-26T07:46:46Z</time>
      </trkpt>
      <trkpt lat="45.84214" lon="4.81235">
        <ele>430</ele>
        <time>2014-10-26T07:46:47Z</time>
      </trkpt>
      <trkpt lat="45.84225" lon="4.81236">
        <ele>430</ele>
        <time>2014-10-26T07:46:51Z</time>
      </trkpt>
      <trkpt lat="45.84226" lon="4.81237">
        <ele>429</ele>
        <time>2014-10-26T07:46:52Z</time>
      </trkpt>
      <trkpt lat="45.84231" lon="4.81241">
        <ele>429</ele>
        <time>2014-10-26T07:46:54Z</time>
      </trkpt>
      <trkpt lat="45.84235" lon="4.81244">
        <ele>428</ele>
        <time>2014-10-26T07:46:56Z</time>
      </trkpt>
      <trkpt lat="45.84241" lon="4.81247">
        <ele>427</ele>
        <time>2014-10-26T07:46:58Z</time>
      </trkpt>
      <trkpt lat="45.84247" lon="4.81249">
        <ele>425</ele>
        <time>2014-10-26T07:47:01Z</time>
      </trkpt>
      <trkpt lat="45.84252" lon="4.81251">
        <ele>424</ele>
        <time>2014-10-26T07:47:03Z</time>
      </trkpt>
      <trkpt lat="45.84265" lon="4.81257">
        <ele>423</ele>
        <time>2014-10-26T07:47:09Z</time>
      </trkpt>
      <trkpt lat="45.84267" lon="4.81258">
        <ele>422</ele>
        <time>2014-10-26T07:47:10Z</time>
      </trkpt>
      <trkpt lat="45.84277" lon="4.81262">
        <ele>422</ele>
        <time>2014-10-26T07:47:14Z</time>
      </trkpt>
      <trkpt lat="45.84286" lon="4.81267">
        <ele>422</ele>
        <time>2014-10-26T07:47:18Z</time>
      </trkpt>
      <trkpt lat="45.84288" lon="4.81269">
        <ele>422</ele>
        <time>2014-10-26T07:47:19Z</time>
      </trkpt>
      <trkpt lat="45.84299" lon="4.81275">
        <ele>422</ele>
        <time>2014-10-26T07:47:24Z</time>
      </trkpt>
      <trkpt lat="45.84303" lon="4.81275">
        <ele>422</ele>
        <time>2014-10-26T07:47:26Z</time>
      </trkpt>
      <trkpt lat="45.84311" lon="4.81274">
        <ele>422</ele>
        <time>2014-10-26T07:47:30Z</time>
      </trkpt>
      <trkpt lat="45.84317" lon="4.81263">
        <ele>423</ele>
        <time>2014-10-26T07:47:34Z</time>
      </trkpt>
      <trkpt lat="45.8432" lon="4.81256">
        <ele>424</ele>
        <time>2014-10-26T07:47:37Z</time>
      </trkpt>
      <trkpt lat="45.84325" lon="4.81241">
        <ele>427</ele>
        <time>2014-10-26T07:47:44Z</time>
      </trkpt>
      <trkpt lat="45.84326" lon="4.81239">
        <ele>427</ele>
        <time>2014-10-26T07:47:45Z</time>
      </trkpt>
      <trkpt lat="45.84329" lon="4.81227">
        <ele>428</ele>
        <time>2014-10-26T07:47:49Z</time>
      </trkpt>
      <trkpt lat="45.84332" lon="4.81216">
        <ele>429</ele>
        <time>2014-10-26T07:47:54Z</time>
      </trkpt>
      <trkpt lat="45.84333" lon="4.81214">
        <ele>429</ele>
        <time>2014-10-26T07:47:55Z</time>
      </trkpt>
      <trkpt lat="45.84334" lon="4.81204">
        <ele>427</ele>
        <time>2014-10-26T07:47:58Z</time>
      </trkpt>
      <trkpt lat="45.84335" lon="4.81203">
        <ele>427</ele>
        <time>2014-10-26T07:47:59Z</time>
      </trkpt>
      <trkpt lat="45.8434" lon="4.81195">
        <ele>428</ele>
        <time>2014-10-26T07:48:04Z</time>
      </trkpt>
      <trkpt lat="45.84341" lon="4.81192">
        <ele>428</ele>
        <time>2014-10-26T07:48:06Z</time>
      </trkpt>
      <trkpt lat="45.84342" lon="4.81187">
        <ele>428</ele>
        <time>2014-10-26T07:48:08Z</time>
      </trkpt>
      <trkpt lat="45.84343" lon="4.81186">
        <ele>429</ele>
        <time>2014-10-26T07:48:09Z</time>
      </trkpt>
      <trkpt lat="45.84343" lon="4.8118">
        <ele>429</ele>
        <time>2014-10-26T07:48:12Z</time>
      </trkpt>
      <trkpt lat="45.84343" lon="4.81177">
        <ele>430</ele>
        <time>2014-10-26T07:48:13Z</time>
      </trkpt>
      <trkpt lat="45.84342" lon="4.8117">
        <ele>431</ele>
        <time>2014-10-26T07:48:15Z</time>
      </trkpt>
      <trkpt lat="45.84342" lon="4.81163">
        <ele>434</ele>
        <time>2014-10-26T07:48:18Z</time>
      </trkpt>
      <trkpt lat="45.84343" lon="4.8116">
        <ele>434</ele>
        <time>2014-10-26T07:48:19Z</time>
      </trkpt>
      <trkpt lat="45.84344" lon="4.81154">
        <ele>434</ele>
        <time>2014-10-26T07:48:22Z</time>
      </trkpt>
      <trkpt lat="45.84344" lon="4.81153">
        <ele>434</ele>
        <time>2014-10-26T07:48:23Z</time>
      </trkpt>
      <trkpt lat="45.84345" lon="4.8114">
        <ele>434</ele>
        <time>2014-10-26T07:48:29Z</time>
      </trkpt>
      <trkpt lat="45.84345" lon="4.81138">
        <ele>434</ele>
        <time>2014-10-26T07:48:30Z</time>
      </trkpt>
      <trkpt lat="45.84346" lon="4.81132">
        <ele>435</ele>
        <time>2014-10-26T07:48:33Z</time>
      </trkpt>
      <trkpt lat="45.84347" lon="4.81125">
        <ele>435</ele>
        <time>2014-10-26T07:48:36Z</time>
      </trkpt>
      <trkpt lat="45.84348" lon="4.81118">
        <ele>435</ele>
        <time>2014-10-26T07:48:40Z</time>
      </trkpt>
      <trkpt lat="45.84349" lon="4.81116">
        <ele>435</ele>
        <time>2014-10-26T07:48:42Z</time>
      </trkpt>
      <trkpt lat="45.84351" lon="4.81113">
        <ele>436</ele>
        <time>2014-10-26T07:48:45Z</time>
      </trkpt>
      <trkpt lat="45.84354" lon="4.81109">
        <ele>436</ele>
        <time>2014-10-26T07:48:50Z</time>
      </trkpt>
      <trkpt lat="45.84354" lon="4.81109">
        <ele>436</ele>
        <time>2014-10-26T07:48:51Z</time>
      </trkpt>
      <trkpt lat="45.84355" lon="4.81108">
        <ele>436</ele>
        <time>2014-10-26T07:48:52Z</time>
      </trkpt>
      <trkpt lat="45.84358" lon="4.81105">
        <ele>436</ele>
        <time>2014-10-26T07:48:56Z</time>
      </trkpt>
      <trkpt lat="45.84359" lon="4.81103">
        <ele>436</ele>
        <time>2014-10-26T07:48:57Z</time>
      </trkpt>
      <trkpt lat="45.84362" lon="4.81096">
        <ele>436</ele>
        <time>2014-10-26T07:49:03Z</time>
      </trkpt>
      <trkpt lat="45.84362" lon="4.81095">
        <ele>436</ele>
        <time>2014-10-26T07:49:04Z</time>
      </trkpt>
      <trkpt lat="45.84363" lon="4.81093">
        <ele>436</ele>
        <time>2014-10-26T07:49:06Z</time>
      </trkpt>
      <trkpt lat="45.84364" lon="4.81091">
        <ele>436</ele>
        <time>2014-10-26T07:49:08Z</time>
      </trkpt>
      <trkpt lat="45.84368" lon="4.81081">
        <ele>442</ele>
        <time>2014-10-26T07:49:15Z</time>
      </trkpt>
      <trkpt lat="45.84369" lon="4.81078">
        <ele>442</ele>
        <time>2014-10-26T07:49:17Z</time>
      </trkpt>
      <trkpt lat="45.84369" lon="4.81077">
        <ele>442</ele>
        <time>2014-10-26T07:49:18Z</time>
      </trkpt>
      <trkpt lat="45.84371" lon="4.8107">
        <ele>442</ele>
        <time>2014-10-26T07:49:24Z</time>
      </trkpt>
      <trkpt lat="45.84373" lon="4.81061">
        <ele>443</ele>
        <time>2014-10-26T07:49:29Z</time>
      </trkpt>
      <trkpt lat="45.84374" lon="4.81057">
        <ele>443</ele>
        <time>2014-10-26T07:49:31Z</time>
      </trkpt>
      <trkpt lat="45.84375" lon="4.81054">
        <ele>443</ele>
        <time>2014-10-26T07:49:33Z</time>
      </trkpt>
      <trkpt lat="45.84377" lon="4.81046">
        <ele>444</ele>
        <time>2014-10-26T07:49:37Z</time>
      </trkpt>
      <trkpt lat="45.84378" lon="4.81044">
        <ele>444</ele>
        <time>2014-10-26T07:49:38Z</time>
      </trkpt>
      <trkpt lat="45.84378" lon="4.81043">
        <ele>444</ele>
        <time>2014-10-26T07:49:39Z</time>
      </trkpt>
      <trkpt lat="45.84381" lon="4.81035">
        <ele>444</ele>
        <time>2014-10-26T07:49:43Z</time>
      </trkpt>
      <trkpt lat="45.84383" lon="4.81026">
        <ele>445</ele>
        <time>2014-10-26T07:49:48Z</time>
      </trkpt>
      <trkpt lat="45.84384" lon="4.81022">
        <ele>445</ele>
        <time>2014-10-26T07:49:50Z</time>
      </trkpt>
      <trkpt lat="45.84385" lon="4.8102">
        <ele>445</ele>
        <time>2014-10-26T07:49:51Z</time>
      </trkpt>
      <trkpt lat="45.84385" lon="4.81019">
        <ele>445</ele>
        <time>2014-10-26T07:49:52Z</time>
      </trkpt>
      <trkpt lat="45.84386" lon="4.81016">
        <ele>445</ele>
        <time>2014-10-26T07:49:54Z</time>
      </trkpt>
      <trkpt lat="45.84387" lon="4.81012">
        <ele>446</ele>
        <time>2014-10-26T07:49:56Z</time>
      </trkpt>
      <trkpt lat="45.84388" lon="4.81009">
        <ele>446</ele>
        <time>2014-10-26T07:49:58Z</time>
      </trkpt>
      <trkpt lat="45.84388" lon="4.81006">
        <ele>446</ele>
        <time>2014-10-26T07:50:00Z</time>
      </trkpt>
      <trkpt lat="45.84389" lon="4.81004">
        <ele>446</ele>
        <time>2014-10-26T07:50:01Z</time>
      </trkpt>
      <trkpt lat="45.84391" lon="4.80993">
        <ele>452</ele>
        <time>2014-10-26T07:50:06Z</time>
      </trkpt>
      <trkpt lat="45.84392" lon="4.8099">
        <ele>452</ele>
        <time>2014-10-26T07:50:08Z</time>
      </trkpt>
      <trkpt lat="45.84394" lon="4.80984">
        <ele>452</ele>
        <time>2014-10-26T07:50:11Z</time>
      </trkpt>
      <trkpt lat="45.84397" lon="4.80979">
        <ele>452</ele>
        <time>2014-10-26T07:50:14Z</time>
      </trkpt>
      <trkpt lat="45.84399" lon="4.8097">
        <ele>453</ele>
        <time>2014-10-26T07:50:19Z</time>
      </trkpt>
      <trkpt lat="45.84399" lon="4.80969">
        <ele>453</ele>
        <time>2014-10-26T07:50:20Z</time>
      </trkpt>
      <trkpt lat="45.844" lon="4.80965">
        <ele>453</ele>
        <time>2014-10-26T07:50:22Z</time>
      </trkpt>
      <trkpt lat="45.844" lon="4.80954">
        <ele>454</ele>
        <time>2014-10-26T07:50:26Z</time>
      </trkpt>
      <trkpt lat="45.84401" lon="4.80952">
        <ele>454</ele>
        <time>2014-10-26T07:50:27Z</time>
      </trkpt>
      <trkpt lat="45.84402" lon="4.80946">
        <ele>455</ele>
        <time>2014-10-26T07:50:29Z</time>
      </trkpt>
      <trkpt lat="45.84403" lon="4.80943">
        <ele>455</ele>
        <time>2014-10-26T07:50:30Z</time>
      </trkpt>
      <trkpt lat="45.84407" lon="4.80937">
        <ele>456</ele>
        <time>2014-10-26T07:50:33Z</time>
      </trkpt>
      <trkpt lat="45.84409" lon="4.80932">
        <ele>456</ele>
        <time>2014-10-26T07:50:35Z</time>
      </trkpt>
      <trkpt lat="45.84411" lon="4.80927">
        <ele>457</ele>
        <time>2014-10-26T07:50:37Z</time>
      </trkpt>
      <trkpt lat="45.84413" lon="4.80922">
        <ele>457</ele>
        <time>2014-10-26T07:50:39Z</time>
      </trkpt>
      <trkpt lat="45.84413" lon="4.8092">
        <ele>457</ele>
        <time>2014-10-26T07:50:40Z</time>
      </trkpt>
      <trkpt lat="45.84414" lon="4.80914">
        <ele>459</ele>
        <time>2014-10-26T07:50:42Z</time>
      </trkpt>
      <trkpt lat="45.84417" lon="4.80906">
        <ele>458</ele>
        <time>2014-10-26T07:50:45Z</time>
      </trkpt>
      <trkpt lat="45.84418" lon="4.80904">
        <ele>458</ele>
        <time>2014-10-26T07:50:46Z</time>
      </trkpt>
      <trkpt lat="45.8442" lon="4.80896">
        <ele>458</ele>
        <time>2014-10-26T07:50:49Z</time>
      </trkpt>
      <trkpt lat="45.8442" lon="4.80891">
        <ele>459</ele>
        <time>2014-10-26T07:50:51Z</time>
      </trkpt>
      <trkpt lat="45.84423" lon="4.80878">
        <ele>459</ele>
        <time>2014-10-26T07:50:57Z</time>
      </trkpt>
      <trkpt lat="45.84423" lon="4.8087">
        <ele>460</ele>
        <time>2014-10-26T07:51:01Z</time>
      </trkpt>
      <trkpt lat="45.84425" lon="4.80867">
        <ele>460</ele>
        <time>2014-10-26T07:51:03Z</time>
      </trkpt>
      <trkpt lat="45.84426" lon="4.80865">
        <ele>460</ele>
        <time>2014-10-26T07:51:04Z</time>
      </trkpt>
      <trkpt lat="45.84427" lon="4.80856">
        <ele>460</ele>
        <time>2014-10-26T07:51:08Z</time>
      </trkpt>
      <trkpt lat="45.84427" lon="4.80853">
        <ele>461</ele>
        <time>2014-10-26T07:51:09Z</time>
      </trkpt>
      <trkpt lat="45.84428" lon="4.80848">
        <ele>461</ele>
        <time>2014-10-26T07:51:12Z</time>
      </trkpt>
      <trkpt lat="45.84428" lon="4.80845">
        <ele>461</ele>
        <time>2014-10-26T07:51:14Z</time>
      </trkpt>
      <trkpt lat="45.84428" lon="4.80842">
        <ele>462</ele>
        <time>2014-10-26T07:51:16Z</time>
      </trkpt>
      <trkpt lat="45.84428" lon="4.80839">
        <ele>462</ele>
        <time>2014-10-26T07:51:18Z</time>
      </trkpt>
      <trkpt lat="45.84427" lon="4.80834">
        <ele>462</ele>
        <time>2014-10-26T07:51:22Z</time>
      </trkpt>
      <trkpt lat="45.84426" lon="4.80833">
        <ele>465</ele>
        <time>2014-10-26T07:51:23Z</time>
      </trkpt>
      <trkpt lat="45.84425" lon="4.80829">
        <ele>465</ele>
        <time>2014-10-26T07:51:27Z</time>
      </trkpt>
      <trkpt lat="45.84425" lon="4.80827">
        <ele>465</ele>
        <time>2014-10-26T07:51:28Z</time>
      </trkpt>
      <trkpt lat="45.84425" lon="4.80821">
        <ele>466</ele>
        <time>2014-10-26T07:51:31Z</time>
      </trkpt>
      <trkpt lat="45.84425" lon="4.8082">
        <ele>466</ele>
        <time>2014-10-26T07:51:32Z</time>
      </trkpt>
      <trkpt lat="45.84425" lon="4.80818">
        <ele>466</ele>
        <time>2014-10-26T07:51:33Z</time>
      </trkpt>
      <trkpt lat="45.84425" lon="4.80818">
        <ele>466</ele>
        <time>2014-10-26T07:51:34Z</time>
      </trkpt>
      <trkpt lat="45.84424" lon="4.80811">
        <ele>466</ele>
        <time>2014-10-26T07:51:39Z</time>
      </trkpt>
      <trkpt lat="45.84424" lon="4.80805">
        <ele>467</ele>
        <time>2014-10-26T07:51:42Z</time>
      </trkpt>
      <trkpt lat="45.84423" lon="4.80802">
        <ele>467</ele>
        <time>2014-10-26T07:51:44Z</time>
      </trkpt>
      <trkpt lat="45.84422" lon="4.80795">
        <ele>468</ele>
        <time>2014-10-26T07:51:48Z</time>
      </trkpt>
      <trkpt lat="45.84421" lon="4.80793">
        <ele>468</ele>
        <time>2014-10-26T07:51:49Z</time>
      </trkpt>
      <trkpt lat="45.8442" lon="4.80785">
        <ele>469</ele>
        <time>2014-10-26T07:51:55Z</time>
      </trkpt>
      <trkpt lat="45.8442" lon="4.80783">
        <ele>469</ele>
        <time>2014-10-26T07:51:56Z</time>
      </trkpt>
      <trkpt lat="45.84419" lon="4.80777">
        <ele>470</ele>
        <time>2014-10-26T07:52:00Z</time>
      </trkpt>
      <trkpt lat="45.84418" lon="4.80769">
        <ele>471</ele>
        <time>2014-10-26T07:52:04Z</time>
      </trkpt>
      <trkpt lat="45.84418" lon="4.80767">
        <ele>471</ele>
        <time>2014-10-26T07:52:05Z</time>
      </trkpt>
      <trkpt lat="45.84418" lon="4.80759">
        <ele>473</ele>
        <time>2014-10-26T07:52:09Z</time>
      </trkpt>
      <trkpt lat="45.84419" lon="4.80754">
        <ele>474</ele>
        <time>2014-10-26T07:52:12Z</time>
      </trkpt>
      <trkpt lat="45.84419" lon="4.80744">
        <ele>476</ele>
        <time>2014-10-26T07:52:18Z</time>
      </trkpt>
      <trkpt lat="45.84419" lon="4.80741">
        <ele>476</ele>
        <time>2014-10-26T07:52:19Z</time>
      </trkpt>
      <trkpt lat="45.84419" lon="4.8074">
        <ele>476</ele>
        <time>2014-10-26T07:52:20Z</time>
      </trkpt>
      <trkpt lat="45.8442" lon="4.80734">
        <ele>476</ele>
        <time>2014-10-26T07:52:24Z</time>
      </trkpt>
      <trkpt lat="45.8442" lon="4.80727">
        <ele>477</ele>
        <time>2014-10-26T07:52:28Z</time>
      </trkpt>
      <trkpt lat="45.8442" lon="4.80723">
        <ele>477</ele>
        <time>2014-10-26T07:52:31Z</time>
      </trkpt>
      <trkpt lat="45.84418" lon="4.80715">
        <ele>478</ele>
        <time>2014-10-26T07:52:36Z</time>
      </trkpt>
      <trkpt lat="45.84418" lon="4.80713">
        <ele>478</ele>
        <time>2014-10-26T07:52:37Z</time>
      </trkpt>
      <trkpt lat="45.84417" lon="4.80704">
        <ele>479</ele>
        <time>2014-10-26T07:52:42Z</time>
      </trkpt>
      <trkpt lat="45.84417" lon="4.807">
        <ele>480</ele>
        <time>2014-10-26T07:52:44Z</time>
      </trkpt>
      <trkpt lat="45.84418" lon="4.80693">
        <ele>480</ele>
        <time>2014-10-26T07:52:48Z</time>
      </trkpt>
      <trkpt lat="45.84419" lon="4.80687">
        <ele>481</ele>
        <time>2014-10-26T07:52:51Z</time>
      </trkpt>
      <trkpt lat="45.84419" lon="4.80682">
        <ele>482</ele>
        <time>2014-10-26T07:52:54Z</time>
      </trkpt>
      <trkpt lat="45.8442" lon="4.80679">
        <ele>483</ele>
        <time>2014-10-26T07:52:55Z</time>
      </trkpt>
      <trkpt lat="45.8442" lon="4.80678">
        <ele>483</ele>
        <time>2014-10-26T07:52:56Z</time>
      </trkpt>
      <trkpt lat="45.84422" lon="4.80671">
        <ele>484</ele>
        <time>2014-10-26T07:53:00Z</time>
      </trkpt>
      <trkpt lat="45.84423" lon="4.80669">
        <ele>484</ele>
        <time>2014-10-26T07:53:01Z</time>
      </trkpt>
      <trkpt lat="45.84423" lon="4.80661">
        <ele>487</ele>
        <time>2014-10-26T07:53:06Z</time>
      </trkpt>
      <trkpt lat="45.84423" lon="4.8066">
        <ele>487</ele>
        <time>2014-10-26T07:53:07Z</time>
      </trkpt>
      <trkpt lat="45.84425" lon="4.80653">
        <ele>487</ele>
        <time>2014-10-26T07:53:11Z</time>
      </trkpt>
      <trkpt lat="45.84429" lon="4.80643">
        <ele>488</ele>
        <time>2014-10-26T07:53:18Z</time>
      </trkpt>
      <trkpt lat="45.84431" lon="4.80638">
        <ele>488</ele>
        <time>2014-10-26T07:53:21Z</time>
      </trkpt>
      <trkpt lat="45.84431" lon="4.80637">
        <ele>489</ele>
        <time>2014-10-26T07:53:22Z</time>
      </trkpt>
      <trkpt lat="45.84435" lon="4.80631">
        <ele>489</ele>
        <time>2014-10-26T07:53:26Z</time>
      </trkpt>
      <trkpt lat="45.84437" lon="4.8063">
        <ele>489</ele>
        <time>2014-10-26T07:53:29Z</time>
      </trkpt>
      <trkpt lat="45.84442" lon="4.80629">
        <ele>489</ele>
        <time>2014-10-26T07:53:34Z</time>
      </trkpt>
      <trkpt lat="45.84447" lon="4.80628">
        <ele>489</ele>
        <time>2014-10-26T07:53:39Z</time>
      </trkpt>
      <trkpt lat="45.84448" lon="4.80628">
        <ele>489</ele>
        <time>2014-10-26T07:53:40Z</time>
      </trkpt>
      <trkpt lat="45.84451" lon="4.80628">
        <ele>489</ele>
        <time>2014-10-26T07:53:41Z</time>
      </trkpt>
      <trkpt lat="45.84455" lon="4.80627">
        <ele>489</ele>
        <time>2014-10-26T07:53:43Z</time>
      </trkpt>
      <trkpt lat="45.84462" lon="4.80615">
        <ele>489</ele>
        <time>2014-10-26T07:53:48Z</time>
      </trkpt>
      <trkpt lat="45.84467" lon="4.8061">
        <ele>490</ele>
        <time>2014-10-26T07:53:50Z</time>
      </trkpt>
      <trkpt lat="45.84469" lon="4.80608">
        <ele>490</ele>
        <time>2014-10-26T07:53:52Z</time>
      </trkpt>
      <trkpt lat="45.84472" lon="4.80606">
        <ele>490</ele>
        <time>2014-10-26T07:53:54Z</time>
      </trkpt>
      <trkpt lat="45.84479" lon="4.806">
        <ele>490</ele>
        <time>2014-10-26T07:53:57Z</time>
      </trkpt>
      <trkpt lat="45.84484" lon="4.80598">
        <ele>490</ele>
        <time>2014-10-26T07:53:59Z</time>
      </trkpt>
      <trkpt lat="45.84492" lon="4.80595">
        <ele>491</ele>
        <time>2014-10-26T07:54:02Z</time>
      </trkpt>
      <trkpt lat="45.84503" lon="4.80587">
        <ele>492</ele>
        <time>2014-10-26T07:54:06Z</time>
      </trkpt>
      <trkpt lat="45.84515" lon="4.8058">
        <ele>496</ele>
        <time>2014-10-26T07:54:11Z</time>
      </trkpt>
      <trkpt lat="45.8452" lon="4.80576">
        <ele>497</ele>
        <time>2014-10-26T07:54:14Z</time>
      </trkpt>
      <trkpt lat="45.84526" lon="4.80573">
        <ele>498</ele>
        <time>2014-10-26T07:54:16Z</time>
      </trkpt>
      <trkpt lat="45.84536" lon="4.80563">
        <ele>499</ele>
        <time>2014-10-26T07:54:20Z</time>
      </trkpt>
      <trkpt lat="45.84544" lon="4.80558">
        <ele>499</ele>
        <time>2014-10-26T07:54:24Z</time>
      </trkpt>
      <trkpt lat="45.84547" lon="4.80558">
        <ele>499</ele>
        <time>2014-10-26T07:54:25Z</time>
      </trkpt>
      <trkpt lat="45.84554" lon="4.80558">
        <ele>499</ele>
        <time>2014-10-26T07:54:28Z</time>
      </trkpt>
      <trkpt lat="45.84556" lon="4.80559">
        <ele>499</ele>
        <time>2014-10-26T07:54:29Z</time>
      </trkpt>
      <trkpt lat="45.84564" lon="4.80564">
        <ele>498</ele>
        <time>2014-10-26T07:54:33Z</time>
      </trkpt>
      <trkpt lat="45.84569" lon="4.80573">
        <ele>497</ele>
        <time>2014-10-26T07:54:36Z</time>
      </trkpt>
      <trkpt lat="45.84573" lon="4.80578">
        <ele>496</ele>
        <time>2014-10-26T07:54:38Z</time>
      </trkpt>
      <trkpt lat="45.84577" lon="4.80594">
        <ele>492</ele>
        <time>2014-10-26T07:54:43Z</time>
      </trkpt>
      <trkpt lat="45.84577" lon="4.80597">
        <ele>491</ele>
        <time>2014-10-26T07:54:44Z</time>
      </trkpt>
      <trkpt lat="45.84579" lon="4.80608">
        <ele>490</ele>
        <time>2014-10-26T07:54:49Z</time>
      </trkpt>
      <trkpt lat="45.84586" lon="4.80621">
        <ele>492</ele>
        <time>2014-10-26T07:54:54Z</time>
      </trkpt>
      <trkpt lat="45.84593" lon="4.80629">
        <ele>491</ele>
        <time>2014-10-26T07:54:59Z</time>
      </trkpt>
      <trkpt lat="45.84603" lon="4.80635">
        <ele>491</ele>
        <time>2014-10-26T07:55:04Z</time>
      </trkpt>
      <trkpt lat="45.84605" lon="4.80636">
        <ele>491</ele>
        <time>2014-10-26T07:55:05Z</time>
      </trkpt>
      <trkpt lat="45.84606" lon="4.80636">
        <ele>491</ele>
        <time>2014-10-26T07:55:06Z</time>
      </trkpt>
      <trkpt lat="45.84614" lon="4.80637">
        <ele>491</ele>
        <time>2014-10-26T07:55:10Z</time>
      </trkpt>
      <trkpt lat="45.84623" lon="4.80637">
        <ele>492</ele>
        <time>2014-10-26T07:55:14Z</time>
      </trkpt>
      <trkpt lat="45.84625" lon="4.80637">
        <ele>492</ele>
        <time>2014-10-26T07:55:15Z</time>
      </trkpt>
      <trkpt lat="45.84639" lon="4.80638">
        <ele>492</ele>
        <time>2014-10-26T07:55:21Z</time>
      </trkpt>
      <trkpt lat="45.84641" lon="4.80639">
        <ele>492</ele>
        <time>2014-10-26T07:55:22Z</time>
      </trkpt>
      <trkpt lat="45.84653" lon="4.80644">
        <ele>492</ele>
        <time>2014-10-26T07:55:27Z</time>
      </trkpt>
      <trkpt lat="45.8466" lon="4.80645">
        <ele>492</ele>
        <time>2014-10-26T07:55:31Z</time>
      </trkpt>
      <trkpt lat="45.84663" lon="4.80646">
        <ele>492</ele>
        <time>2014-10-26T07:55:32Z</time>
      </trkpt>
      <trkpt lat="45.84665" lon="4.80646">
        <ele>492</ele>
        <time>2014-10-26T07:55:33Z</time>
      </trkpt>
      <trkpt lat="45.84675" lon="4.80649">
        <ele>494</ele>
        <time>2014-10-26T07:55:38Z</time>
      </trkpt>
      <trkpt lat="45.84678" lon="4.8065">
        <ele>494</ele>
        <time>2014-10-26T07:55:39Z</time>
      </trkpt>
      <trkpt lat="45.84689" lon="4.80649">
        <ele>494</ele>
        <time>2014-10-26T07:55:43Z</time>
      </trkpt>
      <trkpt lat="45.84698" lon="4.8065">
        <ele>494</ele>
        <time>2014-10-26T07:55:46Z</time>
      </trkpt>
      <trkpt lat="45.84705" lon="4.80651">
        <ele>494</ele>
        <time>2014-10-26T07:55:49Z</time>
      </trkpt>
      <trkpt lat="45.84717" lon="4.80648">
        <ele>494</ele>
        <time>2014-10-26T07:55:54Z</time>
      </trkpt>
      <trkpt lat="45.84722" lon="4.80648">
        <ele>494</ele>
        <time>2014-10-26T07:55:56Z</time>
      </trkpt>
      <trkpt lat="45.84734" lon="4.80642">
        <ele>494</ele>
        <time>2014-10-26T07:56:02Z</time>
      </trkpt>
      <trkpt lat="45.84737" lon="4.80641">
        <ele>494</ele>
        <time>2014-10-26T07:56:03Z</time>
      </trkpt>
      <trkpt lat="45.84749" lon="4.80635">
        <ele>495</ele>
        <time>2014-10-26T07:56:08Z</time>
      </trkpt>
      <trkpt lat="45.84754" lon="4.80635">
        <ele>496</ele>
        <time>2014-10-26T07:56:10Z</time>
      </trkpt>
      <trkpt lat="45.84763" lon="4.80633">
        <ele>496</ele>
        <time>2014-10-26T07:56:14Z</time>
      </trkpt>
      <trkpt lat="45.84773" lon="4.80632">
        <ele>497</ele>
        <time>2014-10-26T07:56:18Z</time>
      </trkpt>
      <trkpt lat="45.84778" lon="4.80631">
        <ele>497</ele>
        <time>2014-10-26T07:56:20Z</time>
      </trkpt>
      <trkpt lat="45.84792" lon="4.80631">
        <ele>497</ele>
        <time>2014-10-26T07:56:26Z</time>
      </trkpt>
      <trkpt lat="45.84795" lon="4.80631">
        <ele>497</ele>
        <time>2014-10-26T07:56:27Z</time>
      </trkpt>
      <trkpt lat="45.84802" lon="4.80632">
        <ele>497</ele>
        <time>2014-10-26T07:56:30Z</time>
      </trkpt>
      <trkpt lat="45.84807" lon="4.80633">
        <ele>497</ele>
        <time>2014-10-26T07:56:32Z</time>
      </trkpt>
      <trkpt lat="45.8481" lon="4.80634">
        <ele>497</ele>
        <time>2014-10-26T07:56:33Z</time>
      </trkpt>
      <trkpt lat="45.84818" lon="4.80635">
        <ele>497</ele>
        <time>2014-10-26T07:56:36Z</time>
      </trkpt>
      <trkpt lat="45.84829" lon="4.80639">
        <ele>497</ele>
        <time>2014-10-26T07:56:40Z</time>
      </trkpt>
      <trkpt lat="45.84831" lon="4.8064">
        <ele>497</ele>
        <time>2014-10-26T07:56:41Z</time>
      </trkpt>
      <trkpt lat="45.84847" lon="4.80644">
        <ele>496</ele>
        <time>2014-10-26T07:56:47Z</time>
      </trkpt>
      <trkpt lat="45.8485" lon="4.80645">
        <ele>496</ele>
        <time>2014-10-26T07:56:48Z</time>
      </trkpt>
      <trkpt lat="45.84866" lon="4.8065">
        <ele>497</ele>
        <time>2014-10-26T07:56:54Z</time>
      </trkpt>
      <trkpt lat="45.84877" lon="4.80653">
        <ele>497</ele>
        <time>2014-10-26T07:56:59Z</time>
      </trkpt>
      <trkpt lat="45.84885" lon="4.80657">
        <ele>497</ele>
        <time>2014-10-26T07:57:03Z</time>
      </trkpt>
      <trkpt lat="45.84893" lon="4.8066">
        <ele>497</ele>
        <time>2014-10-26T07:57:06Z</time>
      </trkpt>
      <trkpt lat="45.84904" lon="4.80665">
        <ele>496</ele>
        <time>2014-10-26T07:57:11Z</time>
      </trkpt>
      <trkpt lat="45.84915" lon="4.80668">
        <ele>496</ele>
        <time>2014-10-26T07:57:16Z</time>
      </trkpt>
      <trkpt lat="45.84923" lon="4.80669">
        <ele>494</ele>
        <time>2014-10-26T07:57:20Z</time>
      </trkpt>
      <trkpt lat="45.84926" lon="4.80669">
        <ele>493</ele>
        <time>2014-10-26T07:57:21Z</time>
      </trkpt>
      <trkpt lat="45.84931" lon="4.80669">
        <ele>492</ele>
        <time>2014-10-26T07:57:24Z</time>
      </trkpt>
      <trkpt lat="45.84933" lon="4.80669">
        <ele>492</ele>
        <time>2014-10-26T07:57:25Z</time>
      </trkpt>
      <trkpt lat="45.84934" lon="4.8067">
        <ele>491</ele>
        <time>2014-10-26T07:57:26Z</time>
      </trkpt>
      <trkpt lat="45.84941" lon="4.8067">
        <ele>490</ele>
        <time>2014-10-26T07:57:32Z</time>
      </trkpt>
      <trkpt lat="45.84943" lon="4.8067">
        <ele>490</ele>
        <time>2014-10-26T07:57:33Z</time>
      </trkpt>
      <trkpt lat="45.84944" lon="4.8067">
        <ele>490</ele>
        <time>2014-10-26T07:57:34Z</time>
      </trkpt>
      <trkpt lat="45.84946" lon="4.80671">
        <ele>489</ele>
        <time>2014-10-26T07:57:36Z</time>
      </trkpt>
      <trkpt lat="45.84947" lon="4.80671">
        <ele>489</ele>
        <time>2014-10-26T07:57:38Z</time>
      </trkpt>
      <trkpt lat="45.84948" lon="4.80672">
        <ele>489</ele>
        <time>2014-10-26T07:57:39Z</time>
      </trkpt>
      <trkpt lat="45.84954" lon="4.80677">
        <ele>488</ele>
        <time>2014-10-26T07:57:44Z</time>
      </trkpt>
      <trkpt lat="45.84953" lon="4.80677">
        <ele>488</ele>
        <time>2014-10-26T07:57:45Z</time>
      </trkpt>
      <trkpt lat="45.84949" lon="4.80669">
        <ele>489</ele>
        <time>2014-10-26T07:57:52Z</time>
      </trkpt>
      <trkpt lat="45.84948" lon="4.80668">
        <ele>489</ele>
        <time>2014-10-26T07:57:53Z</time>
      </trkpt>
      <trkpt lat="45.84942" lon="4.80665">
        <ele>487</ele>
        <time>2014-10-26T07:57:58Z</time>
      </trkpt>
      <trkpt lat="45.84942" lon="4.8066">
        <ele>487</ele>
        <time>2014-10-26T07:58:02Z</time>
      </trkpt>
      <trkpt lat="45.84943" lon="4.80659">
        <ele>487</ele>
        <time>2014-10-26T07:58:03Z</time>
      </trkpt>
      <trkpt lat="45.84945" lon="4.80655">
        <ele>486</ele>
        <time>2014-10-26T07:58:06Z</time>
      </trkpt>
      <trkpt lat="45.84947" lon="4.80656">
        <ele>486</ele>
        <time>2014-10-26T07:58:08Z</time>
      </trkpt>
      <trkpt lat="45.8495" lon="4.80654">
        <ele>485</ele>
        <time>2014-10-26T07:58:14Z</time>
      </trkpt>
      <trkpt lat="45.8495" lon="4.80654">
        <ele>485</ele>
        <time>2014-10-26T07:58:15Z</time>
      </trkpt>
      <trkpt lat="45.84955" lon="4.80652">
        <ele>484</ele>
        <time>2014-10-26T07:58:20Z</time>
      </trkpt>
      <trkpt lat="45.84956" lon="4.80652">
        <ele>484</ele>
        <time>2014-10-26T07:58:21Z</time>
      </trkpt>
      <trkpt lat="45.84957" lon="4.8065">
        <ele>484</ele>
        <time>2014-10-26T07:58:23Z</time>
      </trkpt>
      <trkpt lat="45.84957" lon="4.80648">
        <ele>483</ele>
        <time>2014-10-26T07:58:25Z</time>
      </trkpt>
      <trkpt lat="45.84958" lon="4.80646">
        <ele>483</ele>
        <time>2014-10-26T07:58:27Z</time>
      </trkpt>
      <trkpt lat="45.84959" lon="4.80646">
        <ele>483</ele>
        <time>2014-10-26T07:58:29Z</time>
      </trkpt>
      <trkpt lat="45.84963" lon="4.80651">
        <ele>483</ele>
        <time>2014-10-26T07:58:34Z</time>
      </trkpt>
      <trkpt lat="45.84966" lon="4.80644">
        <ele>482</ele>
        <time>2014-10-26T07:58:38Z</time>
      </trkpt>
      <trkpt lat="45.84969" lon="4.80635">
        <ele>481</ele>
        <time>2014-10-26T07:58:41Z</time>
      </trkpt>
      <trkpt lat="45.8497" lon="4.80632">
        <ele>481</ele>
        <time>2014-10-26T07:58:42Z</time>
      </trkpt>
      <trkpt lat="45.8497" lon="4.80628">
        <ele>481</ele>
        <time>2014-10-26T07:58:43Z</time>
      </trkpt>
      <trkpt lat="45.8497" lon="4.80623">
        <ele>480</ele>
        <time>2014-10-26T07:58:44Z</time>
      </trkpt>
      <trkpt lat="45.84968" lon="4.80614">
        <ele>480</ele>
        <time>2014-10-26T07:58:46Z</time>
      </trkpt>
      <trkpt lat="45.84966" lon="4.80602">
        <ele>479</ele>
        <time>2014-10-26T07:58:49Z</time>
      </trkpt>
      <trkpt lat="45.84966" lon="4.80599">
        <ele>479</ele>
        <time>2014-10-26T07:58:50Z</time>
      </trkpt>
      <trkpt lat="45.84965" lon="4.80587">
        <ele>479</ele>
        <time>2014-10-26T07:58:54Z</time>
      </trkpt>
      <trkpt lat="45.84964" lon="4.80585">
        <ele>479</ele>
        <time>2014-10-26T07:58:55Z</time>
      </trkpt>
      <trkpt lat="45.84961" lon="4.80577">
        <ele>473</ele>
        <time>2014-10-26T07:58:57Z</time>
      </trkpt>
      <trkpt lat="45.8496" lon="4.80573">
        <ele>474</ele>
        <time>2014-10-26T07:58:58Z</time>
      </trkpt>
      <trkpt lat="45.84959" lon="4.80567">
        <ele>474</ele>
        <time>2014-10-26T07:58:59Z</time>
      </trkpt>
      <trkpt lat="45.84957" lon="4.80551">
        <ele>473</ele>
        <time>2014-10-26T07:59:03Z</time>
      </trkpt>
      <trkpt lat="45.84957" lon="4.80549">
        <ele>473</ele>
        <time>2014-10-26T07:59:04Z</time>
      </trkpt>
      <trkpt lat="45.84955" lon="4.80537">
        <ele>472</ele>
        <time>2014-10-26T07:59:07Z</time>
      </trkpt>
      <trkpt lat="45.84954" lon="4.80522">
        <ele>472</ele>
        <time>2014-10-26T07:59:10Z</time>
      </trkpt>
      <trkpt lat="45.84954" lon="4.80517">
        <ele>471</ele>
        <time>2014-10-26T07:59:11Z</time>
      </trkpt>
      <trkpt lat="45.84951" lon="4.80504">
        <ele>472</ele>
        <time>2014-10-26T07:59:15Z</time>
      </trkpt>
      <trkpt lat="45.84949" lon="4.80499">
        <ele>463</ele>
        <time>2014-10-26T07:59:16Z</time>
      </trkpt>
      <trkpt lat="45.84944" lon="4.80485">
        <ele>463</ele>
        <time>2014-10-26T07:59:19Z</time>
      </trkpt>
      <trkpt lat="45.84942" lon="4.80478">
        <ele>463</ele>
        <time>2014-10-26T07:59:21Z</time>
      </trkpt>
      <trkpt lat="45.8494" lon="4.80475">
        <ele>463</ele>
        <time>2014-10-26T07:59:22Z</time>
      </trkpt>
      <trkpt lat="45.84934" lon="4.80462">
        <ele>461</ele>
        <time>2014-10-26T07:59:25Z</time>
      </trkpt>
      <trkpt lat="45.84932" lon="4.8045">
        <ele>460</ele>
        <time>2014-10-26T07:59:28Z</time>
      </trkpt>
      <trkpt lat="45.8493" lon="4.80447">
        <ele>460</ele>
        <time>2014-10-26T07:59:29Z</time>
      </trkpt>
      <trkpt lat="45.84928" lon="4.80441">
        <ele>459</ele>
        <time>2014-10-26T07:59:31Z</time>
      </trkpt>
      <trkpt lat="45.84924" lon="4.80433">
        <ele>460</ele>
        <time>2014-10-26T07:59:33Z</time>
      </trkpt>
      <trkpt lat="45.84923" lon="4.80425">
        <ele>460</ele>
        <time>2014-10-26T07:59:35Z</time>
      </trkpt>
      <trkpt lat="45.84923" lon="4.80423">
        <ele>460</ele>
        <time>2014-10-26T07:59:36Z</time>
      </trkpt>
      <trkpt lat="45.84926" lon="4.80422">
        <ele>460</ele>
        <time>2014-10-26T07:59:37Z</time>
      </trkpt>
      <trkpt lat="45.8493" lon="4.8043">
        <ele>459</ele>
        <time>2014-10-26T07:59:40Z</time>
      </trkpt>
      <trkpt lat="45.84931" lon="4.80433">
        <ele>459</ele>
        <time>2014-10-26T07:59:41Z</time>
      </trkpt>
      <trkpt lat="45.84934" lon="4.8044">
        <ele>459</ele>
        <time>2014-10-26T07:59:43Z</time>
      </trkpt>
      <trkpt lat="45.84937" lon="4.80447">
        <ele>459</ele>
        <time>2014-10-26T07:59:45Z</time>
      </trkpt>
      <trkpt lat="45.84943" lon="4.80458">
        <ele>459</ele>
        <time>2014-10-26T07:59:50Z</time>
      </trkpt>
      <trkpt lat="45.84946" lon="4.80461">
        <ele>459</ele>
        <time>2014-10-26T07:59:52Z</time>
      </trkpt>
      <trkpt lat="45.84954" lon="4.80469">
        <ele>458</ele>
        <time>2014-10-26T07:59:55Z</time>
      </trkpt>
      <trkpt lat="45.8496" lon="4.80475">
        <ele>457</ele>
        <time>2014-10-26T07:59:57Z</time>
      </trkpt>
      <trkpt lat="45.84968" lon="4.80485">
        <ele>456</ele>
        <time>2014-10-26T08:00:00Z</time>
      </trkpt>
      <trkpt lat="45.84975" lon="4.80494">
        <ele>454</ele>
        <time>2014-10-26T08:00:03Z</time>
      </trkpt>
      <trkpt lat="45.84983" lon="4.80502">
        <ele>460</ele>
        <time>2014-10-26T08:00:06Z</time>
      </trkpt>
      <trkpt lat="45.84991" lon="4.80512">
        <ele>458</ele>
        <time>2014-10-26T08:00:10Z</time>
      </trkpt>
      <trkpt lat="45.84994" lon="4.80514">
        <ele>458</ele>
        <time>2014-10-26T08:00:11Z</time>
      </trkpt>
      <trkpt lat="45.85004" lon="4.80532">
        <ele>441</ele>
        <time>2014-10-26T08:00:17Z</time>
      </trkpt>
      <trkpt lat="45.85011" lon="4.80549">
        <ele>441</ele>
        <time>2014-10-26T08:00:22Z</time>
      </trkpt>
      <trkpt lat="45.85013" lon="4.80555">
        <ele>442</ele>
        <time>2014-10-26T08:00:24Z</time>
      </trkpt>
      <trkpt lat="45.85018" lon="4.80565">
        <ele>444</ele>
        <time>2014-10-26T08:00:28Z</time>
      </trkpt>
      <trkpt lat="45.85023" lon="4.80578">
        <ele>444</ele>
        <time>2014-10-26T08:00:33Z</time>
      </trkpt>
      <trkpt lat="45.85025" lon="4.8058">
        <ele>443</ele>
        <time>2014-10-26T08:00:34Z</time>
      </trkpt>
      <trkpt lat="45.85032" lon="4.80597">
        <ele>449</ele>
        <time>2014-10-26T08:00:39Z</time>
      </trkpt>
      <trkpt lat="45.85034" lon="4.80601">
        <ele>449</ele>
        <time>2014-10-26T08:00:40Z</time>
      </trkpt>
      <trkpt lat="45.85039" lon="4.80612">
        <ele>448</ele>
        <time>2014-10-26T08:00:44Z</time>
      </trkpt>
      <trkpt lat="45.85045" lon="4.80624">
        <ele>447</ele>
        <time>2014-10-26T08:00:48Z</time>
      </trkpt>
      <trkpt lat="45.85054" lon="4.80637">
        <ele>446</ele>
        <time>2014-10-26T08:00:53Z</time>
      </trkpt>
      <trkpt lat="45.85059" lon="4.80642">
        <ele>445</ele>
        <time>2014-10-26T08:00:55Z</time>
      </trkpt>
      <trkpt lat="45.85067" lon="4.80653">
        <ele>442</ele>
        <time>2014-10-26T08:00:59Z</time>
      </trkpt>
      <trkpt lat="45.85072" lon="4.80663">
        <ele>440</ele>
        <time>2014-10-26T08:01:02Z</time>
      </trkpt>
      <trkpt lat="45.85073" lon="4.8067">
        <ele>445</ele>
        <time>2014-10-26T08:01:04Z</time>
      </trkpt>
      <trkpt lat="45.85076" lon="4.80684">
        <ele>450</ele>
        <time>2014-10-26T08:01:09Z</time>
      </trkpt>
      <trkpt lat="45.85079" lon="4.80691">
        <ele>452</ele>
        <time>2014-10-26T08:01:11Z</time>
      </trkpt>
      <trkpt lat="45.85081" lon="4.80695">
        <ele>453</ele>
        <time>2014-10-26T08:01:13Z</time>
      </trkpt>
      <trkpt lat="45.85083" lon="4.80698">
        <ele>454</ele>
        <time>2014-10-26T08:01:14Z</time>
      </trkpt>
      <trkpt lat="45.85093" lon="4.80711">
        <ele>433</ele>
        <time>2014-10-26T08:01:18Z</time>
      </trkpt>
      <trkpt lat="45.85096" lon="4.80714">
        <ele>433</ele>
        <time>2014-10-26T08:01:19Z</time>
      </trkpt>
      <trkpt lat="45.851" lon="4.80719">
        <ele>434</ele>
        <time>2014-10-26T08:01:21Z</time>
      </trkpt>
      <trkpt lat="45.85104" lon="4.80725">
        <ele>434</ele>
        <time>2014-10-26T08:01:23Z</time>
      </trkpt>
      <trkpt lat="45.8511" lon="4.8073">
        <ele>433</ele>
        <time>2014-10-26T08:01:25Z</time>
      </trkpt>
      <trkpt lat="45.85118" lon="4.80741">
        <ele>432</ele>
        <time>2014-10-26T08:01:29Z</time>
      </trkpt>
      <trkpt lat="45.85124" lon="4.80748">
        <ele>430</ele>
        <time>2014-10-26T08:01:31Z</time>
      </trkpt>
      <trkpt lat="45.8513" lon="4.80757">
        <ele>441</ele>
        <time>2014-10-26T08:01:34Z</time>
      </trkpt>
      <trkpt lat="45.85139" lon="4.8077">
        <ele>440</ele>
        <time>2014-10-26T08:01:39Z</time>
      </trkpt>
      <trkpt lat="45.85141" lon="4.80772">
        <ele>439</ele>
        <time>2014-10-26T08:01:40Z</time>
      </trkpt>
      <trkpt lat="45.85152" lon="4.80787">
        <ele>440</ele>
        <time>2014-10-26T08:01:46Z</time>
      </trkpt>
      <trkpt lat="45.85155" lon="4.8079">
        <ele>440</ele>
        <time>2014-10-26T08:01:47Z</time>
      </trkpt>
      <trkpt lat="45.85161" lon="4.80801">
        <ele>440</ele>
        <time>2014-10-26T08:01:51Z</time>
      </trkpt>
      <trkpt lat="45.85164" lon="4.80809">
        <ele>440</ele>
        <time>2014-10-26T08:01:54Z</time>
      </trkpt>
      <trkpt lat="45.85164" lon="4.80813">
        <ele>440</ele>
        <time>2014-10-26T08:01:56Z</time>
      </trkpt>
      <trkpt lat="45.85165" lon="4.80816">
        <ele>440</ele>
        <time>2014-10-26T08:01:57Z</time>
      </trkpt>
      <trkpt lat="45.8517" lon="4.80827">
        <ele>428</ele>
        <time>2014-10-26T08:02:01Z</time>
      </trkpt>
      <trkpt lat="45.85174" lon="4.80837">
        <ele>433</ele>
        <time>2014-10-26T08:02:04Z</time>
      </trkpt>
      <trkpt lat="45.8518" lon="4.80842">
        <ele>432</ele>
        <time>2014-10-26T08:02:07Z</time>
      </trkpt>
      <trkpt lat="45.85188" lon="4.80849">
        <ele>430</ele>
        <time>2014-10-26T08:02:11Z</time>
      </trkpt>
      <trkpt lat="45.85191" lon="4.80851">
        <ele>429</ele>
        <time>2014-10-26T08:02:12Z</time>
      </trkpt>
      <trkpt lat="45.852" lon="4.80856">
        <ele>428</ele>
        <time>2014-10-26T08:02:15Z</time>
      </trkpt>
      <trkpt lat="45.85202" lon="4.80857">
        <ele>427</ele>
        <time>2014-10-26T08:02:16Z</time>
      </trkpt>
      <trkpt lat="45.8521" lon="4.80862">
        <ele>426</ele>
        <time>2014-10-26T08:02:19Z</time>
      </trkpt>
      <trkpt lat="45.85218" lon="4.80867">
        <ele>425</ele>
        <time>2014-10-26T08:02:22Z</time>
      </trkpt>
      <trkpt lat="45.85227" lon="4.80875">
        <ele>424</ele>
        <time>2014-10-26T08:02:26Z</time>
      </trkpt>
      <trkpt lat="45.85231" lon="4.80879">
        <ele>424</ele>
        <time>2014-10-26T08:02:28Z</time>
      </trkpt>
      <trkpt lat="45.8524" lon="4.8089">
        <ele>424</ele>
        <time>2014-10-26T08:02:33Z</time>
      </trkpt>
      <trkpt lat="45.85242" lon="4.80891">
        <ele>424</ele>
        <time>2014-10-26T08:02:34Z</time>
      </trkpt>
      <trkpt lat="45.85245" lon="4.80892">
        <ele>423</ele>
        <time>2014-10-26T08:02:37Z</time>
      </trkpt>
      <trkpt lat="45.85245" lon="4.80894">
        <ele>423</ele>
        <time>2014-10-26T08:02:38Z</time>
      </trkpt>
      <trkpt lat="45.85246" lon="4.80895">
        <ele>423</ele>
        <time>2014-10-26T08:02:39Z</time>
      </trkpt>
      <trkpt lat="45.85251" lon="4.80897">
        <ele>406</ele>
        <time>2014-10-26T08:02:43Z</time>
      </trkpt>
      <trkpt lat="45.85252" lon="4.80898">
        <ele>406</ele>
        <time>2014-10-26T08:02:44Z</time>
      </trkpt>
      <trkpt lat="45.85255" lon="4.80905">
        <ele>409</ele>
        <time>2014-10-26T08:02:48Z</time>
      </trkpt>
      <trkpt lat="45.85255" lon="4.80906">
        <ele>410</ele>
        <time>2014-10-26T08:02:49Z</time>
      </trkpt>
      <trkpt lat="45.85257" lon="4.80908">
        <ele>410</ele>
        <time>2014-10-26T08:02:51Z</time>
      </trkpt>
      <trkpt lat="45.85262" lon="4.80911">
        <ele>409</ele>
        <time>2014-10-26T08:02:56Z</time>
      </trkpt>
      <trkpt lat="45.85264" lon="4.80913">
        <ele>408</ele>
        <time>2014-10-26T08:02:58Z</time>
      </trkpt>
      <trkpt lat="45.8527" lon="4.80921">
        <ele>416</ele>
        <time>2014-10-26T08:03:02Z</time>
      </trkpt>
      <trkpt lat="45.85271" lon="4.80924">
        <ele>416</ele>
        <time>2014-10-26T08:03:03Z</time>
      </trkpt>
      <trkpt lat="45.8528" lon="4.80931">
        <ele>415</ele>
        <time>2014-10-26T08:03:08Z</time>
      </trkpt>
      <trkpt lat="45.85283" lon="4.80933">
        <ele>414</ele>
        <time>2014-10-26T08:03:10Z</time>
      </trkpt>
      <trkpt lat="45.85286" lon="4.80937">
        <ele>414</ele>
        <time>2014-10-26T08:03:12Z</time>
      </trkpt>
      <trkpt lat="45.85289" lon="4.80939">
        <ele>413</ele>
        <time>2014-10-26T08:03:13Z</time>
      </trkpt>
      <trkpt lat="45.85302" lon="4.80946">
        <ele>411</ele>
        <time>2014-10-26T08:03:19Z</time>
      </trkpt>
      <trkpt lat="45.85304" lon="4.80947">
        <ele>411</ele>
        <time>2014-10-26T08:03:20Z</time>
      </trkpt>
      <trkpt lat="45.85314" lon="4.80953">
        <ele>410</ele>
        <time>2014-10-26T08:03:24Z</time>
      </trkpt>
      <trkpt lat="45.85324" lon="4.80954">
        <ele>408</ele>
        <time>2014-10-26T08:03:28Z</time>
      </trkpt>
      <trkpt lat="45.85328" lon="4.80954">
        <ele>408</ele>
        <time>2014-10-26T08:03:29Z</time>
      </trkpt>
      <trkpt lat="45.8534" lon="4.80956">
        <ele>387</ele>
        <time>2014-10-26T08:03:33Z</time>
      </trkpt>
      <trkpt lat="45.85341" lon="4.80956">
        <ele>387</ele>
        <time>2014-10-26T08:03:34Z</time>
      </trkpt>
      <trkpt lat="45.85342" lon="4.80956">
        <ele>387</ele>
        <time>2014-10-26T08:03:35Z</time>
      </trkpt>
      <trkpt lat="45.85348" lon="4.80953">
        <ele>386</ele>
        <time>2014-10-26T08:03:38Z</time>
      </trkpt>
      <trkpt lat="45.85352" lon="4.80951">
        <ele>385</ele>
        <time>2014-10-26T08:03:40Z</time>
      </trkpt>
      <trkpt lat="45.85354" lon="4.80951">
        <ele>385</ele>
        <time>2014-10-26T08:03:42Z</time>
      </trkpt>
      <trkpt lat="45.85355" lon="4.8095">
        <ele>385</ele>
        <time>2014-10-26T08:03:43Z</time>
      </trkpt>
      <trkpt lat="45.85356" lon="4.80942">
        <ele>384</ele>
        <time>2014-10-26T08:03:46Z</time>
      </trkpt>
      <trkpt lat="45.85356" lon="4.80939">
        <ele>384</ele>
        <time>2014-10-26T08:03:47Z</time>
      </trkpt>
      <trkpt lat="45.85356" lon="4.80931">
        <ele>384</ele>
        <time>2014-10-26T08:03:49Z</time>
      </trkpt>
      <trkpt lat="45.85352" lon="4.80919">
        <ele>384</ele>
        <time>2014-10-26T08:03:52Z</time>
      </trkpt>
      <trkpt lat="45.85351" lon="4.80915">
        <ele>376</ele>
        <time>2014-10-26T08:03:54Z</time>
      </trkpt>
      <trkpt lat="45.85349" lon="4.80908">
        <ele>376</ele>
        <time>2014-10-26T08:03:57Z</time>
      </trkpt>
      <trkpt lat="45.85348" lon="4.80907">
        <ele>376</ele>
        <time>2014-10-26T08:03:58Z</time>
      </trkpt>
      <trkpt lat="45.85348" lon="4.80891">
        <ele>373</ele>
        <time>2014-10-26T08:04:03Z</time>
      </trkpt>
      <trkpt lat="45.85348" lon="4.80888">
        <ele>372</ele>
        <time>2014-10-26T08:04:04Z</time>
      </trkpt>
      <trkpt lat="45.85348" lon="4.80879">
        <ele>370</ele>
        <time>2014-10-26T08:04:07Z</time>
      </trkpt>
      <trkpt lat="45.85347" lon="4.80877">
        <ele>370</ele>
        <time>2014-10-26T08:04:08Z</time>
      </trkpt>
      <trkpt lat="45.85346" lon="4.80873">
        <ele>369</ele>
        <time>2014-10-26T08:04:15Z</time>
      </trkpt>
      <trkpt lat="45.85345" lon="4.80873">
        <ele>370</ele>
        <time>2014-10-26T08:04:16Z</time>
      </trkpt>
      <trkpt lat="45.8534" lon="4.8087">
        <ele>369</ele>
        <time>2014-10-26T08:04:22Z</time>
      </trkpt>
      <trkpt lat="45.85339" lon="4.8087">
        <ele>370</ele>
        <time>2014-10-26T08:04:24Z</time>
      </trkpt>
      <trkpt lat="45.85339" lon="4.80868">
        <ele>369</ele>
        <time>2014-10-26T08:04:26Z</time>
      </trkpt>
      <trkpt lat="45.85339" lon="4.80865">
        <ele>369</ele>
        <time>2014-10-26T08:04:27Z</time>
      </trkpt>
      <trkpt lat="45.85342" lon="4.80854">
        <ele>368</ele>
        <time>2014-10-26T08:04:31Z</time>
      </trkpt>
      <trkpt lat="45.85342" lon="4.80846">
        <ele>368</ele>
        <time>2014-10-26T08:04:34Z</time>
      </trkpt>
      <trkpt lat="45.85343" lon="4.80844">
        <ele>367</ele>
        <time>2014-10-26T08:04:35Z</time>
      </trkpt>
      <trkpt lat="45.85343" lon="4.80841">
        <ele>367</ele>
        <time>2014-10-26T08:04:36Z</time>
      </trkpt>
      <trkpt lat="45.85348" lon="4.80827">
        <ele>362</ele>
        <time>2014-10-26T08:04:42Z</time>
      </trkpt>
      <trkpt lat="45.85349" lon="4.80826">
        <ele>361</ele>
        <time>2014-10-26T08:04:43Z</time>
      </trkpt>
      <trkpt lat="45.85351" lon="4.80821">
        <ele>360</ele>
        <time>2014-10-26T08:04:46Z</time>
      </trkpt>
      <trkpt lat="45.85352" lon="4.8082">
        <ele>360</ele>
        <time>2014-10-26T08:04:47Z</time>
      </trkpt>
      <trkpt lat="45.8536" lon="4.80811">
        <ele>358</ele>
        <time>2014-10-26T08:04:51Z</time>
      </trkpt>
      <trkpt lat="45.85365" lon="4.80809">
        <ele>357</ele>
        <time>2014-10-26T08:04:53Z</time>
      </trkpt>
      <trkpt lat="45.85367" lon="4.80807">
        <ele>357</ele>
        <time>2014-10-26T08:04:54Z</time>
      </trkpt>
      <trkpt lat="45.85375" lon="4.80798">
        <ele>355</ele>
        <time>2014-10-26T08:04:58Z</time>
      </trkpt>
      <trkpt lat="45.8538" lon="4.80789">
        <ele>354</ele>
        <time>2014-10-26T08:05:01Z</time>
      </trkpt>
      <trkpt lat="45.85387" lon="4.80782">
        <ele>353</ele>
        <time>2014-10-26T08:05:04Z</time>
      </trkpt>
      <trkpt lat="45.85394" lon="4.80771">
        <ele>352</ele>
        <time>2014-10-26T08:05:08Z</time>
      </trkpt>
      <trkpt lat="45.85395" lon="4.80769">
        <ele>352</ele>
        <time>2014-10-26T08:05:09Z</time>
      </trkpt>
      <trkpt lat="45.85396" lon="4.80762">
        <ele>351</ele>
        <time>2014-10-26T08:05:13Z</time>
      </trkpt>
      <trkpt lat="45.85395" lon="4.80762">
        <ele>351</ele>
        <time>2014-10-26T08:05:19Z</time>
      </trkpt>
      <trkpt lat="45.85397" lon="4.80761">
        <ele>351</ele>
        <time>2014-10-26T08:05:31Z</time>
      </trkpt>
      <trkpt lat="45.85398" lon="4.80766">
        <ele>351</ele>
        <time>2014-10-26T08:06:04Z</time>
      </trkpt>
      <trkpt lat="45.85397" lon="4.80766">
        <ele>351</ele>
        <time>2014-10-26T08:06:05Z</time>
      </trkpt>
      <trkpt lat="45.85394" lon="4.80762">
        <ele>351</ele>
        <time>2014-10-26T08:06:09Z</time>
      </trkpt>
      <trkpt lat="45.85394" lon="4.80762">
        <ele>351</ele>
        <time>2014-10-26T08:06:10Z</time>
      </trkpt>
      <trkpt lat="45.85395" lon="4.8076">
        <ele>351</ele>
        <time>2014-10-26T08:06:16Z</time>
      </trkpt>
      <trkpt lat="45.85401" lon="4.8076">
        <ele>350</ele>
        <time>2014-10-26T08:06:21Z</time>
      </trkpt>
      <trkpt lat="45.85404" lon="4.8076">
        <ele>350</ele>
        <time>2014-10-26T08:06:25Z</time>
      </trkpt>
      <trkpt lat="45.85403" lon="4.80761">
        <ele>350</ele>
        <time>2014-10-26T08:06:32Z</time>
      </trkpt>
      <trkpt lat="45.85407" lon="4.80759">
        <ele>349</ele>
        <time>2014-10-26T08:06:38Z</time>
      </trkpt>
      <trkpt lat="45.85408" lon="4.80757">
        <ele>348</ele>
        <time>2014-10-26T08:06:46Z</time>
      </trkpt>
      <trkpt lat="45.85408" lon="4.80757">
        <ele>348</ele>
        <time>2014-10-26T08:06:47Z</time>
      </trkpt>
      <trkpt lat="45.85414" lon="4.80756">
        <ele>347</ele>
        <time>2014-10-26T08:06:50Z</time>
      </trkpt>
      <trkpt lat="45.85426" lon="4.80753">
        <ele>343</ele>
        <time>2014-10-26T08:06:55Z</time>
      </trkpt>
      <trkpt lat="45.85427" lon="4.80753">
        <ele>343</ele>
        <time>2014-10-26T08:06:56Z</time>
      </trkpt>
      <trkpt lat="45.85432" lon="4.80757">
        <ele>342</ele>
        <time>2014-10-26T08:07:01Z</time>
      </trkpt>
      <trkpt lat="45.85433" lon="4.80757">
        <ele>341</ele>
        <time>2014-10-26T08:07:02Z</time>
      </trkpt>
      <trkpt lat="45.85438" lon="4.80757">
        <ele>341</ele>
        <time>2014-10-26T08:07:06Z</time>
      </trkpt>
      <trkpt lat="45.8544" lon="4.80755">
        <ele>340</ele>
        <time>2014-10-26T08:07:08Z</time>
      </trkpt>
      <trkpt lat="45.85444" lon="4.80753">
        <ele>340</ele>
        <time>2014-10-26T08:07:11Z</time>
      </trkpt>
      <trkpt lat="45.85446" lon="4.8075">
        <ele>340</ele>
        <time>2014-10-26T08:07:12Z</time>
      </trkpt>
      <trkpt lat="45.85453" lon="4.80743">
        <ele>334</ele>
        <time>2014-10-26T08:07:18Z</time>
      </trkpt>
      <trkpt lat="45.85459" lon="4.80736">
        <ele>332</ele>
        <time>2014-10-26T08:07:22Z</time>
      </trkpt>
      <trkpt lat="45.85463" lon="4.80731">
        <ele>332</ele>
        <time>2014-10-26T08:07:24Z</time>
      </trkpt>
      <trkpt lat="45.8547" lon="4.80728">
        <ele>331</ele>
        <time>2014-10-26T08:07:27Z</time>
      </trkpt>
      <trkpt lat="45.85473" lon="4.80728">
        <ele>330</ele>
        <time>2014-10-26T08:07:29Z</time>
      </trkpt>
      <trkpt lat="45.85476" lon="4.80731">
        <ele>330</ele>
        <time>2014-10-26T08:07:31Z</time>
      </trkpt>
      <trkpt lat="45.85481" lon="4.80736">
        <ele>330</ele>
        <time>2014-10-26T08:07:34Z</time>
      </trkpt>
      <trkpt lat="45.85487" lon="4.80739">
        <ele>329</ele>
        <time>2014-10-26T08:07:40Z</time>
      </trkpt>
      <trkpt lat="45.85486" lon="4.80737">
        <ele>329</ele>
        <time>2014-10-26T08:07:41Z</time>
      </trkpt>
      <trkpt lat="45.85481" lon="4.80731">
        <ele>330</ele>
        <time>2014-10-26T08:07:45Z</time>
      </trkpt>
      <trkpt lat="45.85478" lon="4.80728">
        <ele>330</ele>
        <time>2014-10-26T08:07:47Z</time>
      </trkpt>
      <trkpt lat="45.85473" lon="4.80724">
        <ele>330</ele>
        <time>2014-10-26T08:07:51Z</time>
      </trkpt>
      <trkpt lat="45.8547" lon="4.80719">
        <ele>330</ele>
        <time>2014-10-26T08:07:53Z</time>
      </trkpt>
      <trkpt lat="45.85471" lon="4.80718">
        <ele>330</ele>
        <time>2014-10-26T08:07:56Z</time>
      </trkpt>
      <trkpt lat="45.85471" lon="4.80711">
        <ele>330</ele>
        <time>2014-10-26T08:08:01Z</time>
      </trkpt>
      <trkpt lat="45.8547" lon="4.80704">
        <ele>329</ele>
        <time>2014-10-26T08:08:05Z</time>
      </trkpt>
      <trkpt lat="45.85466" lon="4.80704">
        <ele>330</ele>
        <time>2014-10-26T08:08:09Z</time>
      </trkpt>
      <trkpt lat="45.85465" lon="4.80704">
        <ele>330</ele>
        <time>2014-10-26T08:08:10Z</time>
      </trkpt>
      <trkpt lat="45.85462" lon="4.80704">
        <ele>330</ele>
        <time>2014-10-26T08:08:15Z</time>
      </trkpt>
      <trkpt lat="45.85466" lon="4.80697">
        <ele>329</ele>
        <time>2014-10-26T08:08:29Z</time>
      </trkpt>
      <trkpt lat="45.85469" lon="4.80692">
        <ele>328</ele>
        <time>2014-10-26T08:08:32Z</time>
      </trkpt>
      <trkpt lat="45.85478" lon="4.80683">
        <ele>326</ele>
        <time>2014-10-26T08:08:35Z</time>
      </trkpt>
      <trkpt lat="45.85482" lon="4.80678">
        <ele>324</ele>
        <time>2014-10-26T08:08:37Z</time>
      </trkpt>
      <trkpt lat="45.85487" lon="4.80677">
        <ele>323</ele>
        <time>2014-10-26T08:08:39Z</time>
      </trkpt>
      <trkpt lat="45.85491" lon="4.80682">
        <ele>323</ele>
        <time>2014-10-26T08:08:41Z</time>
      </trkpt>
      <trkpt lat="45.85493" lon="4.80685">
        <ele>324</ele>
        <time>2014-10-26T08:08:42Z</time>
      </trkpt>
      <trkpt lat="45.85496" lon="4.80685">
        <ele>323</ele>
        <time>2014-10-26T08:08:45Z</time>
      </trkpt>
      <trkpt lat="45.8549" lon="4.8067">
        <ele>321</ele>
        <time>2014-10-26T08:08:49Z</time>
      </trkpt>
      <trkpt lat="45.85488" lon="4.80667">
        <ele>321</ele>
        <time>2014-10-26T08:08:50Z</time>
      </trkpt>
      <trkpt lat="45.85487" lon="4.80656">
        <ele>319</ele>
        <time>2014-10-26T08:08:54Z</time>
      </trkpt>
      <trkpt lat="45.85489" lon="4.80649">
        <ele>319</ele>
        <time>2014-10-26T08:08:58Z</time>
      </trkpt>
      <trkpt lat="45.85491" lon="4.8065">
        <ele>319</ele>
        <time>2014-10-26T08:09:02Z</time>
      </trkpt>
      <trkpt lat="45.8549" lon="4.80651">
        <ele>319</ele>
        <time>2014-10-26T08:09:03Z</time>
      </trkpt>
      <trkpt lat="45.8549" lon="4.80651">
        <ele>319</ele>
        <time>2014-10-26T08:09:04Z</time>
      </trkpt>
      <trkpt lat="45.85489" lon="4.80652">
        <ele>319</ele>
        <time>2014-10-26T08:09:09Z</time>
      </trkpt>
      <trkpt lat="45.85489" lon="4.80646">
        <ele>320</ele>
        <time>2014-10-26T08:09:20Z</time>
      </trkpt>
      <trkpt lat="45.85487" lon="4.80647">
        <ele>320</ele>
        <time>2014-10-26T08:09:22Z</time>
      </trkpt>
      <trkpt lat="45.85485" lon="4.80651">
        <ele>320</ele>
        <time>2014-10-26T08:09:24Z</time>
      </trkpt>
      <trkpt lat="45.8549" lon="4.80651">
        <ele>319</ele>
        <time>2014-10-26T08:09:28Z</time>
      </trkpt>
      <trkpt lat="45.85491" lon="4.8065">
        <ele>319</ele>
        <time>2014-10-26T08:09:29Z</time>
      </trkpt>
      <trkpt lat="45.855" lon="4.80646">
        <ele>319</ele>
        <time>2014-10-26T08:09:32Z</time>
      </trkpt>
      <trkpt lat="45.85512" lon="4.80645">
        <ele>310</ele>
        <time>2014-10-26T08:09:36Z</time>
      </trkpt>
      <trkpt lat="45.85519" lon="4.80646">
        <ele>310</ele>
        <time>2014-10-26T08:09:39Z</time>
      </trkpt>
      <trkpt lat="45.85528" lon="4.80647">
        <ele>309</ele>
        <time>2014-10-26T08:09:43Z</time>
      </trkpt>
      <trkpt lat="45.8553" lon="4.80647">
        <ele>309</ele>
        <time>2014-10-26T08:09:47Z</time>
      </trkpt>
      <trkpt lat="45.85536" lon="4.80647">
        <ele>308</ele>
        <time>2014-10-26T08:10:08Z</time>
      </trkpt>
      <trkpt lat="45.85552" lon="4.80645">
        <ele>307</ele>
        <time>2014-10-26T08:10:14Z</time>
      </trkpt>
      <trkpt lat="45.85555" lon="4.80646">
        <ele>307</ele>
        <time>2014-10-26T08:10:15Z</time>
      </trkpt>
      <trkpt lat="45.85561" lon="4.80652">
        <ele>306</ele>
        <time>2014-10-26T08:10:18Z</time>
      </trkpt>
      <trkpt lat="45.85566" lon="4.80644">
        <ele>306</ele>
        <time>2014-10-26T08:10:21Z</time>
      </trkpt>
      <trkpt lat="45.85566" lon="4.8064">
        <ele>306</ele>
        <time>2014-10-26T08:10:22Z</time>
      </trkpt>
      <trkpt lat="45.85567" lon="4.80633">
        <ele>306</ele>
        <time>2014-10-26T08:10:24Z</time>
      </trkpt>
      <trkpt lat="45.85567" lon="4.80621">
        <ele>306</ele>
        <time>2014-10-26T08:10:27Z</time>
      </trkpt>
      <trkpt lat="45.85568" lon="4.80614">
        <ele>306</ele>
        <time>2014-10-26T08:10:29Z</time>
      </trkpt>
      <trkpt lat="45.8557" lon="4.80596">
        <ele>306</ele>
        <time>2014-10-26T08:10:34Z</time>
      </trkpt>
      <trkpt lat="45.85574" lon="4.80587">
        <ele>305</ele>
        <time>2014-10-26T08:10:37Z</time>
      </trkpt>
      <trkpt lat="45.85575" lon="4.80586">
        <ele>305</ele>
        <time>2014-10-26T08:10:38Z</time>
      </trkpt>
      <trkpt lat="45.85577" lon="4.80586">
        <ele>305</ele>
        <time>2014-10-26T08:10:39Z</time>
      </trkpt>
      <trkpt lat="45.85578" lon="4.80587">
        <ele>305</ele>
        <time>2014-10-26T08:10:43Z</time>
      </trkpt>
      <trkpt lat="45.85583" lon="4.80587">
        <ele>305</ele>
        <time>2014-10-26T08:10:53Z</time>
      </trkpt>
      <trkpt lat="45.85582" lon="4.80588">
        <ele>305</ele>
        <time>2014-10-26T08:10:59Z</time>
      </trkpt>
      <trkpt lat="45.85581" lon="4.80592">
        <ele>305</ele>
        <time>2014-10-26T08:11:04Z</time>
      </trkpt>
      <trkpt lat="45.85584" lon="4.8059">
        <ele>305</ele>
        <time>2014-10-26T08:11:13Z</time>
      </trkpt>
      <trkpt lat="45.85585" lon="4.80589">
        <ele>305</ele>
        <time>2014-10-26T08:11:14Z</time>
      </trkpt>
      <trkpt lat="45.85586" lon="4.80587">
        <ele>305</ele>
        <time>2014-10-26T08:11:15Z</time>
      </trkpt>
      <trkpt lat="45.85587" lon="4.80585">
        <ele>305</ele>
        <time>2014-10-26T08:11:17Z</time>
      </trkpt>
      <trkpt lat="45.85588" lon="4.80584">
        <ele>305</ele>
        <time>2014-10-26T08:11:18Z</time>
      </trkpt>
      <trkpt lat="45.85588" lon="4.80582">
        <ele>306</ele>
        <time>2014-10-26T08:11:22Z</time>
      </trkpt>
      <trkpt lat="45.85588" lon="4.80581">
        <ele>306</ele>
        <time>2014-10-26T08:11:23Z</time>
      </trkpt>
      <trkpt lat="45.85586" lon="4.8058">
        <ele>306</ele>
        <time>2014-10-26T08:11:30Z</time>
      </trkpt>
      <trkpt lat="45.85585" lon="4.80577">
        <ele>306</ele>
        <time>2014-10-26T08:11:37Z</time>
      </trkpt>
      <trkpt lat="45.85582" lon="4.80578">
        <ele>305</ele>
        <time>2014-10-26T08:11:42Z</time>
      </trkpt>
      <trkpt lat="45.85581" lon="4.80582">
        <ele>305</ele>
        <time>2014-10-26T08:11:48Z</time>
      </trkpt>
      <trkpt lat="45.8558" lon="4.80584">
        <ele>304</ele>
        <time>2014-10-26T08:11:53Z</time>
      </trkpt>
      <trkpt lat="45.8558" lon="4.80585">
        <ele>305</ele>
        <time>2014-10-26T08:11:54Z</time>
      </trkpt>
      <trkpt lat="45.8558" lon="4.80585">
        <ele>305</ele>
        <time>2014-10-26T08:11:58Z</time>
      </trkpt>
      <trkpt lat="45.85579" lon="4.80583">
        <ele>305</ele>
        <time>2014-10-26T08:12:16Z</time>
      </trkpt>
      <trkpt lat="45.85581" lon="4.80578">
        <ele>305</ele>
        <time>2014-10-26T08:12:18Z</time>
      </trkpt>
      <trkpt lat="45.85585" lon="4.8057">
        <ele>309</ele>
        <time>2014-10-26T08:12:21Z</time>
      </trkpt>
      <trkpt lat="45.85589" lon="4.80565">
        <ele>310</ele>
        <time>2014-10-26T08:12:23Z</time>
      </trkpt>
      <trkpt lat="45.85599" lon="4.80555">
        <ele>312</ele>
        <time>2014-10-26T08:12:29Z</time>
      </trkpt>
      <trkpt lat="45.85601" lon="4.80553">
        <ele>312</ele>
        <time>2014-10-26T08:12:30Z</time>
      </trkpt>
      <trkpt lat="45.85611" lon="4.8055">
        <ele>314</ele>
        <time>2014-10-26T08:12:35Z</time>
      </trkpt>
      <trkpt lat="45.85618" lon="4.80551">
        <ele>314</ele>
        <time>2014-10-26T08:12:40Z</time>
      </trkpt>
      <trkpt lat="45.85619" lon="4.80552">
        <ele>314</ele>
        <time>2014-10-26T08:12:41Z</time>
      </trkpt>
      <trkpt lat="45.85628" lon="4.80558">
        <ele>315</ele>
        <time>2014-10-26T08:12:48Z</time>
      </trkpt>
      <trkpt lat="45.85629" lon="4.80557">
        <ele>315</ele>
        <time>2014-10-26T08:12:49Z</time>
      </trkpt>
      <trkpt lat="45.85631" lon="4.80556">
        <ele>315</ele>
        <time>2014-10-26T08:12:53Z</time>
      </trkpt>
      <trkpt lat="45.85632" lon="4.80555">
        <ele>315</ele>
        <time>2014-10-26T08:12:55Z</time>
      </trkpt>
      <trkpt lat="45.85634" lon="4.80549">
        <ele>316</ele>
        <time>2014-10-26T08:13:02Z</time>
      </trkpt>
      <trkpt lat="45.85635" lon="4.80548">
        <ele>316</ele>
        <time>2014-10-26T08:13:06Z</time>
      </trkpt>
      <trkpt lat="45.85635" lon="4.80543">
        <ele>316</ele>
        <time>2014-10-26T08:13:09Z</time>
      </trkpt>
      <trkpt lat="45.85636" lon="4.80529">
        <ele>318</ele>
        <time>2014-10-26T08:13:16Z</time>
      </trkpt>
      <trkpt lat="45.85636" lon="4.80527">
        <ele>318</ele>
        <time>2014-10-26T08:13:19Z</time>
      </trkpt>
      <trkpt lat="45.85637" lon="4.80522">
        <ele>318</ele>
        <time>2014-10-26T08:13:22Z</time>
      </trkpt>
      <trkpt lat="45.85637" lon="4.80521">
        <ele>319</ele>
        <time>2014-10-26T08:13:23Z</time>
      </trkpt>
      <trkpt lat="45.85635" lon="4.80516">
        <ele>319</ele>
        <time>2014-10-26T08:13:26Z</time>
      </trkpt>
      <trkpt lat="45.85635" lon="4.80516">
        <ele>319</ele>
        <time>2014-10-26T08:13:27Z</time>
      </trkpt>
      <trkpt lat="45.85635" lon="4.80511">
        <ele>319</ele>
        <time>2014-10-26T08:13:32Z</time>
      </trkpt>
      <trkpt lat="45.85632" lon="4.80504">
        <ele>319</ele>
        <time>2014-10-26T08:13:37Z</time>
      </trkpt>
      <trkpt lat="45.85631" lon="4.80498">
        <ele>326</ele>
        <time>2014-10-26T08:13:43Z</time>
      </trkpt>
      <trkpt lat="45.85631" lon="4.80496">
        <ele>326</ele>
        <time>2014-10-26T08:13:44Z</time>
      </trkpt>
      <trkpt lat="45.85631" lon="4.80495">
        <ele>326</ele>
        <time>2014-10-26T08:13:45Z</time>
      </trkpt>
      <trkpt lat="45.85631" lon="4.80489">
        <ele>326</ele>
        <time>2014-10-26T08:13:49Z</time>
      </trkpt>
      <trkpt lat="45.85632" lon="4.80488">
        <ele>326</ele>
        <time>2014-10-26T08:13:50Z</time>
      </trkpt>
      <trkpt lat="45.85634" lon="4.80485">
        <ele>326</ele>
        <time>2014-10-26T08:13:53Z</time>
      </trkpt>
      <trkpt lat="45.85634" lon="4.80483">
        <ele>327</ele>
        <time>2014-10-26T08:13:55Z</time>
      </trkpt>
      <trkpt lat="45.85634" lon="4.8048">
        <ele>327</ele>
        <time>2014-10-26T08:13:57Z</time>
      </trkpt>
      <trkpt lat="45.85635" lon="4.80478">
        <ele>327</ele>
        <time>2014-10-26T08:14:00Z</time>
      </trkpt>
      <trkpt lat="45.85638" lon="4.80482">
        <ele>327</ele>
        <time>2014-10-26T08:14:03Z</time>
      </trkpt>
      <trkpt lat="45.85639" lon="4.80484">
        <ele>327</ele>
        <time>2014-10-26T08:14:04Z</time>
      </trkpt>
      <trkpt lat="45.85639" lon="4.80485">
        <ele>327</ele>
        <time>2014-10-26T08:14:05Z</time>
      </trkpt>
      <trkpt lat="45.85645" lon="4.80496">
        <ele>328</ele>
        <time>2014-10-26T08:14:12Z</time>
      </trkpt>
      <trkpt lat="45.85648" lon="4.80498">
        <ele>329</ele>
        <time>2014-10-26T08:14:15Z</time>
      </trkpt>
      <trkpt lat="45.85649" lon="4.80499">
        <ele>329</ele>
        <time>2014-10-26T08:14:17Z</time>
      </trkpt>
      <trkpt lat="45.8565" lon="4.80499">
        <ele>329</ele>
        <time>2014-10-26T08:14:18Z</time>
      </trkpt>
      <trkpt lat="45.85656" lon="4.80503">
        <ele>326</ele>
        <time>2014-10-26T08:14:25Z</time>
      </trkpt>
      <trkpt lat="45.85655" lon="4.80501">
        <ele>326</ele>
        <time>2014-10-26T08:14:27Z</time>
      </trkpt>
      <trkpt lat="45.85652" lon="4.80499">
        <ele>329</ele>
        <time>2014-10-26T08:14:31Z</time>
      </trkpt>
      <trkpt lat="45.85648" lon="4.80495">
        <ele>329</ele>
        <time>2014-10-26T08:14:36Z</time>
      </trkpt>
      <trkpt lat="45.85648" lon="4.8049">
        <ele>329</ele>
        <time>2014-10-26T08:14:40Z</time>
      </trkpt>
      <trkpt lat="45.85647" lon="4.80487">
        <ele>328</ele>
        <time>2014-10-26T08:14:42Z</time>
      </trkpt>
      <trkpt lat="45.85648" lon="4.80486">
        <ele>329</ele>
        <time>2014-10-26T08:14:43Z</time>
      </trkpt>
      <trkpt lat="45.8565" lon="4.80484">
        <ele>329</ele>
        <time>2014-10-26T08:14:46Z</time>
      </trkpt>
      <trkpt lat="45.85649" lon="4.80483">
        <ele>329</ele>
        <time>2014-10-26T08:14:48Z</time>
      </trkpt>
      <trkpt lat="45.85649" lon="4.80481">
        <ele>329</ele>
        <time>2014-10-26T08:14:51Z</time>
      </trkpt>
      <trkpt lat="45.85652" lon="4.80476">
        <ele>329</ele>
        <time>2014-10-26T08:14:58Z</time>
      </trkpt>
      <trkpt lat="45.85657" lon="4.80472">
        <ele>330</ele>
        <time>2014-10-26T08:15:04Z</time>
      </trkpt>
      <trkpt lat="45.85658" lon="4.80472">
        <ele>330</ele>
        <time>2014-10-26T08:15:05Z</time>
      </trkpt>
      <trkpt lat="45.8566" lon="4.8047">
        <ele>330</ele>
        <time>2014-10-26T08:15:08Z</time>
      </trkpt>
      <trkpt lat="45.85662" lon="4.8047">
        <ele>330</ele>
        <time>2014-10-26T08:15:11Z</time>
      </trkpt>
      <trkpt lat="45.85663" lon="4.80468">
        <ele>330</ele>
        <time>2014-10-26T08:15:14Z</time>
      </trkpt>
      <trkpt lat="45.85664" lon="4.80467">
        <ele>330</ele>
        <time>2014-10-26T08:15:15Z</time>
      </trkpt>
      <trkpt lat="45.85667" lon="4.80469">
        <ele>344</ele>
        <time>2014-10-26T08:15:20Z</time>
      </trkpt>
      <trkpt lat="45.85672" lon="4.80474">
        <ele>343</ele>
        <time>2014-10-26T08:15:27Z</time>
      </trkpt>
      <trkpt lat="45.85674" lon="4.80477">
        <ele>342</ele>
        <time>2014-10-26T08:15:32Z</time>
      </trkpt>
      <trkpt lat="45.85677" lon="4.80482">
        <ele>341</ele>
        <time>2014-10-26T08:15:37Z</time>
      </trkpt>
      <trkpt lat="45.85682" lon="4.80489">
        <ele>341</ele>
        <time>2014-10-26T08:15:43Z</time>
      </trkpt>
      <trkpt lat="45.85685" lon="4.80492">
        <ele>341</ele>
        <time>2014-10-26T08:15:45Z</time>
      </trkpt>
      <trkpt lat="45.85692" lon="4.80502">
        <ele>335</ele>
        <time>2014-10-26T08:15:50Z</time>
      </trkpt>
      <trkpt lat="45.85697" lon="4.8051">
        <ele>335</ele>
        <time>2014-10-26T08:15:55Z</time>
      </trkpt>
      <trkpt lat="45.85698" lon="4.80511">
        <ele>335</ele>
        <time>2014-10-26T08:15:56Z</time>
      </trkpt>
      <trkpt lat="45.85703" lon="4.80512">
        <ele>336</ele>
        <time>2014-10-26T08:16:01Z</time>
      </trkpt>
      <trkpt lat="45.85709" lon="4.80515">
        <ele>336</ele>
        <time>2014-10-26T08:16:07Z</time>
      </trkpt>
      <trkpt lat="45.8571" lon="4.80516">
        <ele>337</ele>
        <time>2014-10-26T08:16:09Z</time>
      </trkpt>
      <trkpt lat="45.8571" lon="4.80517">
        <ele>336</ele>
        <time>2014-10-26T08:16:13Z</time>
      </trkpt>
      <trkpt lat="45.85707" lon="4.80523">
        <ele>336</ele>
        <time>2014-10-26T08:16:17Z</time>
      </trkpt>
      <trkpt lat="45.85705" lon="4.80528">
        <ele>335</ele>
        <time>2014-10-26T08:16:19Z</time>
      </trkpt>
      <trkpt lat="45.85699" lon="4.80535">
        <ele>334</ele>
        <time>2014-10-26T08:16:24Z</time>
      </trkpt>
      <trkpt lat="45.85697" lon="4.80535">
        <ele>334</ele>
        <time>2014-10-26T08:16:26Z</time>
      </trkpt>
      <trkpt lat="45.85691" lon="4.80536">
        <ele>333</ele>
        <time>2014-10-26T08:16:30Z</time>
      </trkpt>
      <trkpt lat="45.85683" lon="4.80533">
        <ele>332</ele>
        <time>2014-10-26T08:16:34Z</time>
      </trkpt>
      <trkpt lat="45.85679" lon="4.80528">
        <ele>333</ele>
        <time>2014-10-26T08:16:36Z</time>
      </trkpt>
      <trkpt lat="45.85677" lon="4.80525">
        <ele>333</ele>
        <time>2014-10-26T08:16:37Z</time>
      </trkpt>
      <trkpt lat="45.85671" lon="4.80517">
        <ele>333</ele>
        <time>2014-10-26T08:16:40Z</time>
      </trkpt>
      <trkpt lat="45.85662" lon="4.80507">
        <ele>327</ele>
        <time>2014-10-26T08:16:45Z</time>
      </trkpt>
      <trkpt lat="45.8566" lon="4.80506">
        <ele>327</ele>
        <time>2014-10-26T08:16:46Z</time>
      </trkpt>
      <trkpt lat="45.85647" lon="4.80498">
        <ele>328</ele>
        <time>2014-10-26T08:16:52Z</time>
      </trkpt>
      <trkpt lat="45.85646" lon="4.80496">
        <ele>328</ele>
        <time>2014-10-26T08:16:53Z</time>
      </trkpt>
      <trkpt lat="45.8564" lon="4.80488">
        <ele>327</ele>
        <time>2014-10-26T08:16:57Z</time>
      </trkpt>
      <trkpt lat="45.8564" lon="4.80486">
        <ele>327</ele>
        <time>2014-10-26T08:16:58Z</time>
      </trkpt>
      <trkpt lat="45.85637" lon="4.80479">
        <ele>327</ele>
        <time>2014-10-26T08:17:04Z</time>
      </trkpt>
      <trkpt lat="45.85635" lon="4.80475">
        <ele>327</ele>
        <time>2014-10-26T08:17:07Z</time>
      </trkpt>
      <trkpt lat="45.85633" lon="4.8047">
        <ele>327</ele>
        <time>2014-10-26T08:17:09Z</time>
      </trkpt>
      <trkpt lat="45.85624" lon="4.80455">
        <ele>327</ele>
        <time>2014-10-26T08:17:14Z</time>
      </trkpt>
      <trkpt lat="45.85621" lon="4.8044">
        <ele>327</ele>
        <time>2014-10-26T08:17:19Z</time>
      </trkpt>
      <trkpt lat="45.85622" lon="4.80434">
        <ele>327</ele>
        <time>2014-10-26T08:17:21Z</time>
      </trkpt>
      <trkpt lat="45.85622" lon="4.80429">
        <ele>327</ele>
        <time>2014-10-26T08:17:23Z</time>
      </trkpt>
      <trkpt lat="45.85619" lon="4.80417">
        <ele>327</ele>
        <time>2014-10-26T08:17:29Z</time>
      </trkpt>
      <trkpt lat="45.85617" lon="4.80407">
        <ele>333</ele>
        <time>2014-10-26T08:17:34Z</time>
      </trkpt>
      <trkpt lat="45.85618" lon="4.80405">
        <ele>333</ele>
        <time>2014-10-26T08:17:35Z</time>
      </trkpt>
      <trkpt lat="45.85618" lon="4.80403">
        <ele>333</ele>
        <time>2014-10-26T08:17:36Z</time>
      </trkpt>
      <trkpt lat="45.85619" lon="4.80399">
        <ele>333</ele>
        <time>2014-10-26T08:17:40Z</time>
      </trkpt>
      <trkpt lat="45.8562" lon="4.80395">
        <ele>334</ele>
        <time>2014-10-26T08:17:44Z</time>
      </trkpt>
      <trkpt lat="45.85621" lon="4.80395">
        <ele>334</ele>
        <time>2014-10-26T08:17:45Z</time>
      </trkpt>
      <trkpt lat="45.85623" lon="4.80394">
        <ele>335</ele>
        <time>2014-10-26T08:17:50Z</time>
      </trkpt>
      <trkpt lat="45.85625" lon="4.80392">
        <ele>335</ele>
        <time>2014-10-26T08:17:57Z</time>
      </trkpt>
      <trkpt lat="45.85624" lon="4.80388">
        <ele>335</ele>
        <time>2014-10-26T08:18:00Z</time>
      </trkpt>
      <trkpt lat="45.85623" lon="4.80386">
        <ele>335</ele>
        <time>2014-10-26T08:18:01Z</time>
      </trkpt>
      <trkpt lat="45.85622" lon="4.80383">
        <ele>335</ele>
        <time>2014-10-26T08:18:03Z</time>
      </trkpt>
      <trkpt lat="45.85618" lon="4.8037">
        <ele>335</ele>
        <time>2014-10-26T08:18:10Z</time>
      </trkpt>
      <trkpt lat="45.85615" lon="4.80363">
        <ele>335</ele>
        <time>2014-10-26T08:18:13Z</time>
      </trkpt>
      <trkpt lat="45.85614" lon="4.80357">
        <ele>334</ele>
        <time>2014-10-26T08:18:15Z</time>
      </trkpt>
      <trkpt lat="45.85613" lon="4.80349">
        <ele>334</ele>
        <time>2014-10-26T08:18:19Z</time>
      </trkpt>
      <trkpt lat="45.85616" lon="4.80348">
        <ele>335</ele>
        <time>2014-10-26T08:18:23Z</time>
      </trkpt>
      <trkpt lat="45.85618" lon="4.80352">
        <ele>335</ele>
        <time>2014-10-26T08:18:25Z</time>
      </trkpt>
      <trkpt lat="45.85619" lon="4.80355">
        <ele>335</ele>
        <time>2014-10-26T08:18:26Z</time>
      </trkpt>
      <trkpt lat="45.8562" lon="4.80358">
        <ele>336</ele>
        <time>2014-10-26T08:18:27Z</time>
      </trkpt>
      <trkpt lat="45.85622" lon="4.80364">
        <ele>336</ele>
        <time>2014-10-26T08:18:29Z</time>
      </trkpt>
      <trkpt lat="45.85625" lon="4.80367">
        <ele>336</ele>
        <time>2014-10-26T08:18:31Z</time>
      </trkpt>
      <trkpt lat="45.85629" lon="4.80368">
        <ele>337</ele>
        <time>2014-10-26T08:18:35Z</time>
      </trkpt>
      <trkpt lat="45.8563" lon="4.80366">
        <ele>338</ele>
        <time>2014-10-26T08:18:38Z</time>
      </trkpt>
      <trkpt lat="45.85631" lon="4.80363">
        <ele>338</ele>
        <time>2014-10-26T08:18:40Z</time>
      </trkpt>
      <trkpt lat="45.85632" lon="4.80363">
        <ele>338</ele>
        <time>2014-10-26T08:18:41Z</time>
      </trkpt>
      <trkpt lat="45.85633" lon="4.80363">
        <ele>338</ele>
        <time>2014-10-26T08:18:42Z</time>
      </trkpt>
      <trkpt lat="45.85636" lon="4.80367">
        <ele>338</ele>
        <time>2014-10-26T08:18:46Z</time>
      </trkpt>
      <trkpt lat="45.85636" lon="4.80368">
        <ele>338</ele>
        <time>2014-10-26T08:18:47Z</time>
      </trkpt>
      <trkpt lat="45.85635" lon="4.80369">
        <ele>338</ele>
        <time>2014-10-26T08:18:51Z</time>
      </trkpt>
      <trkpt lat="45.85636" lon="4.80374">
        <ele>338</ele>
        <time>2014-10-26T08:18:56Z</time>
      </trkpt>
      <trkpt lat="45.85636" lon="4.80376">
        <ele>338</ele>
        <time>2014-10-26T08:18:59Z</time>
      </trkpt>
      <trkpt lat="45.85635" lon="4.80377">
        <ele>338</ele>
        <time>2014-10-26T08:19:00Z</time>
      </trkpt>
      <trkpt lat="45.85633" lon="4.80375">
        <ele>338</ele>
        <time>2014-10-26T08:19:12Z</time>
      </trkpt>
      <trkpt lat="45.85634" lon="4.80376">
        <ele>338</ele>
        <time>2014-10-26T08:19:39Z</time>
      </trkpt>
      <trkpt lat="45.85632" lon="4.80377">
        <ele>337</ele>
        <time>2014-10-26T08:19:50Z</time>
      </trkpt>
      <trkpt lat="45.85633" lon="4.80376">
        <ele>337</ele>
        <time>2014-10-26T08:19:51Z</time>
      </trkpt>
      <trkpt lat="45.85633" lon="4.80375">
        <ele>338</ele>
        <time>2014-10-26T08:19:54Z</time>
      </trkpt>
      <trkpt lat="45.8563" lon="4.80375">
        <ele>337</ele>
        <time>2014-10-26T08:20:11Z</time>
      </trkpt>
      <trkpt lat="45.85632" lon="4.80373">
        <ele>337</ele>
        <time>2014-10-26T08:20:16Z</time>
      </trkpt>
      <trkpt lat="45.85631" lon="4.80371">
        <ele>337</ele>
        <time>2014-10-26T08:20:17Z</time>
      </trkpt>
      <trkpt lat="45.85633" lon="4.80371">
        <ele>338</ele>
        <time>2014-10-26T08:20:21Z</time>
      </trkpt>
      <trkpt lat="45.85638" lon="4.80371">
        <ele>339</ele>
        <time>2014-10-26T08:20:34Z</time>
      </trkpt>
      <trkpt lat="45.8564" lon="4.80375">
        <ele>339</ele>
        <time>2014-10-26T08:20:38Z</time>
      </trkpt>
      <trkpt lat="45.85639" lon="4.80379">
        <ele>338</ele>
        <time>2014-10-26T08:20:42Z</time>
      </trkpt>
      <trkpt lat="45.85638" lon="4.8038">
        <ele>338</ele>
        <time>2014-10-26T08:20:43Z</time>
      </trkpt>
      <trkpt lat="45.85639" lon="4.80378">
        <ele>338</ele>
        <time>2014-10-26T08:20:49Z</time>
      </trkpt>
      <trkpt lat="45.85641" lon="4.80377">
        <ele>339</ele>
        <time>2014-10-26T08:20:50Z</time>
      </trkpt>
      <trkpt lat="45.85643" lon="4.80376">
        <ele>339</ele>
        <time>2014-10-26T08:20:54Z</time>
      </trkpt>
      <trkpt lat="45.85642" lon="4.80375">
        <ele>339</ele>
        <time>2014-10-26T08:20:55Z</time>
      </trkpt>
      <trkpt lat="45.8564" lon="4.80371">
        <ele>339</ele>
        <time>2014-10-26T08:20:57Z</time>
      </trkpt>
      <trkpt lat="45.85639" lon="4.80363">
        <ele>339</ele>
        <time>2014-10-26T08:20:59Z</time>
      </trkpt>
      <trkpt lat="45.85638" lon="4.8035">
        <ele>341</ele>
        <time>2014-10-26T08:21:03Z</time>
      </trkpt>
      <trkpt lat="45.85639" lon="4.80347">
        <ele>341</ele>
        <time>2014-10-26T08:21:05Z</time>
      </trkpt>
      <trkpt lat="45.85641" lon="4.80337">
        <ele>343</ele>
        <time>2014-10-26T08:21:12Z</time>
      </trkpt>
      <trkpt lat="45.85644" lon="4.80336">
        <ele>344</ele>
        <time>2014-10-26T08:21:15Z</time>
      </trkpt>
      <trkpt lat="45.85646" lon="4.80338">
        <ele>344</ele>
        <time>2014-10-26T08:21:18Z</time>
      </trkpt>
      <trkpt lat="45.85646" lon="4.8034">
        <ele>344</ele>
        <time>2014-10-26T08:21:23Z</time>
      </trkpt>
      <trkpt lat="45.85643" lon="4.80343">
        <ele>343</ele>
        <time>2014-10-26T08:21:26Z</time>
      </trkpt>
      <trkpt lat="45.85643" lon="4.80344">
        <ele>343</ele>
        <time>2014-10-26T08:21:27Z</time>
      </trkpt>
      <trkpt lat="45.85643" lon="4.80351">
        <ele>342</ele>
        <time>2014-10-26T08:21:30Z</time>
      </trkpt>
      <trkpt lat="45.85643" lon="4.80353">
        <ele>342</ele>
        <time>2014-10-26T08:21:31Z</time>
      </trkpt>
      <trkpt lat="45.85644" lon="4.80363">
        <ele>340</ele>
        <time>2014-10-26T08:21:36Z</time>
      </trkpt>
      <trkpt lat="45.85643" lon="4.80367">
        <ele>340</ele>
        <time>2014-10-26T08:21:42Z</time>
      </trkpt>
      <trkpt lat="45.85644" lon="4.80371">
        <ele>340</ele>
        <time>2014-10-26T08:21:48Z</time>
      </trkpt>
      <trkpt lat="45.85644" lon="4.80372">
        <ele>339</ele>
        <time>2014-10-26T08:21:49Z</time>
      </trkpt>
      <trkpt lat="45.85643" lon="4.80368">
        <ele>340</ele>
        <time>2014-10-26T08:21:52Z</time>
      </trkpt>
      <trkpt lat="45.85642" lon="4.80367">
        <ele>340</ele>
        <time>2014-10-26T08:21:53Z</time>
      </trkpt>
      <trkpt lat="45.85642" lon="4.80368">
        <ele>340</ele>
        <time>2014-10-26T08:21:56Z</time>
      </trkpt>
      <trkpt lat="45.85645" lon="4.80375">
        <ele>340</ele>
        <time>2014-10-26T08:22:16Z</time>
      </trkpt>
      <trkpt lat="45.85646" lon="4.80385">
        <ele>339</ele>
        <time>2014-10-26T08:22:22Z</time>
      </trkpt>
      <trkpt lat="45.85649" lon="4.80389">
        <ele>340</ele>
        <time>2014-10-26T08:22:26Z</time>
      </trkpt>
      <trkpt lat="45.85651" lon="4.804">
        <ele>340</ele>
        <time>2014-10-26T08:22:30Z</time>
      </trkpt>
      <trkpt lat="45.85651" lon="4.80403">
        <ele>340</ele>
        <time>2014-10-26T08:22:31Z</time>
      </trkpt>
      <trkpt lat="45.8565" lon="4.80415">
        <ele>341</ele>
        <time>2014-10-26T08:22:36Z</time>
      </trkpt>
      <trkpt lat="45.85649" lon="4.80421">
        <ele>336</ele>
        <time>2014-10-26T08:22:41Z</time>
      </trkpt>
      <trkpt lat="45.85649" lon="4.80422">
        <ele>335</ele>
        <time>2014-10-26T08:22:42Z</time>
      </trkpt>
      <trkpt lat="45.85647" lon="4.80427">
        <ele>334</ele>
        <time>2014-10-26T08:22:47Z</time>
      </trkpt>
      <trkpt lat="45.85646" lon="4.80427">
        <ele>334</ele>
        <time>2014-10-26T08:22:51Z</time>
      </trkpt>
      <trkpt lat="45.85647" lon="4.80423">
        <ele>335</ele>
        <time>2014-10-26T08:22:55Z</time>
      </trkpt>
      <trkpt lat="45.85647" lon="4.8041">
        <ele>340</ele>
        <time>2014-10-26T08:23:02Z</time>
      </trkpt>
      <trkpt lat="45.85646" lon="4.80402">
        <ele>339</ele>
        <time>2014-10-26T08:23:06Z</time>
      </trkpt>
      <trkpt lat="45.85645" lon="4.80397">
        <ele>339</ele>
        <time>2014-10-26T08:23:09Z</time>
      </trkpt>
      <trkpt lat="45.85644" lon="4.80386">
        <ele>339</ele>
        <time>2014-10-26T08:23:15Z</time>
      </trkpt>
      <trkpt lat="45.85643" lon="4.80376">
        <ele>339</ele>
        <time>2014-10-26T08:23:22Z</time>
      </trkpt>
      <trkpt lat="45.85643" lon="4.80374">
        <ele>339</ele>
        <time>2014-10-26T08:23:23Z</time>
      </trkpt>
      <trkpt lat="45.85642" lon="4.80361">
        <ele>340</ele>
        <time>2014-10-26T08:23:29Z</time>
      </trkpt>
      <trkpt lat="45.85642" lon="4.80349">
        <ele>342</ele>
        <time>2014-10-26T08:23:35Z</time>
      </trkpt>
      <trkpt lat="45.85642" lon="4.80346">
        <ele>342</ele>
        <time>2014-10-26T08:23:37Z</time>
      </trkpt>
      <trkpt lat="45.85643" lon="4.80343">
        <ele>343</ele>
        <time>2014-10-26T08:23:39Z</time>
      </trkpt>
      <trkpt lat="45.85646" lon="4.8034">
        <ele>344</ele>
        <time>2014-10-26T08:23:42Z</time>
      </trkpt>
      <trkpt lat="45.85651" lon="4.80338">
        <ele>347</ele>
        <time>2014-10-26T08:23:47Z</time>
      </trkpt>
      <trkpt lat="45.85654" lon="4.80336">
        <ele>348</ele>
        <time>2014-10-26T08:23:49Z</time>
      </trkpt>
      <trkpt lat="45.85656" lon="4.80334">
        <ele>349</ele>
        <time>2014-10-26T08:23:54Z</time>
      </trkpt>
      <trkpt lat="45.85656" lon="4.80334">
        <ele>349</ele>
        <time>2014-10-26T08:23:55Z</time>
      </trkpt>
      <trkpt lat="45.85659" lon="4.80327">
        <ele>353</ele>
        <time>2014-10-26T08:24:11Z</time>
      </trkpt>
      <trkpt lat="45.8566" lon="4.80326">
        <ele>353</ele>
        <time>2014-10-26T08:24:13Z</time>
      </trkpt>
      <trkpt lat="45.8566" lon="4.80323">
        <ele>352</ele>
        <time>2014-10-26T08:24:16Z</time>
      </trkpt>
      <trkpt lat="45.8566" lon="4.80321">
        <ele>352</ele>
        <time>2014-10-26T08:24:17Z</time>
      </trkpt>
      <trkpt lat="45.85661" lon="4.8032">
        <ele>352</ele>
        <time>2014-10-26T08:24:20Z</time>
      </trkpt>
      <trkpt lat="45.85661" lon="4.80319">
        <ele>352</ele>
        <time>2014-10-26T08:24:23Z</time>
      </trkpt>
      <trkpt lat="45.85662" lon="4.80314">
        <ele>351</ele>
        <time>2014-10-26T08:24:29Z</time>
      </trkpt>
      <trkpt lat="45.85664" lon="4.80312">
        <ele>351</ele>
        <time>2014-10-26T08:24:32Z</time>
      </trkpt>
      <trkpt lat="45.85665" lon="4.8031">
        <ele>351</ele>
        <time>2014-10-26T08:24:36Z</time>
      </trkpt>
      <trkpt lat="45.85669" lon="4.80309">
        <ele>366</ele>
        <time>2014-10-26T08:24:42Z</time>
      </trkpt>
      <trkpt lat="45.85674" lon="4.80305">
        <ele>367</ele>
        <time>2014-10-26T08:24:51Z</time>
      </trkpt>
      <trkpt lat="45.85678" lon="4.80303">
        <ele>367</ele>
        <time>2014-10-26T08:24:57Z</time>
      </trkpt>
      <trkpt lat="45.85679" lon="4.80299">
        <ele>368</ele>
        <time>2014-10-26T08:25:03Z</time>
      </trkpt>
      <trkpt lat="45.8568" lon="4.80297">
        <ele>368</ele>
        <time>2014-10-26T08:25:05Z</time>
      </trkpt>
      <trkpt lat="45.85683" lon="4.80294">
        <ele>369</ele>
        <time>2014-10-26T08:25:08Z</time>
      </trkpt>
      <trkpt lat="45.85687" lon="4.8029">
        <ele>370</ele>
        <time>2014-10-26T08:25:12Z</time>
      </trkpt>
      <trkpt lat="45.85689" lon="4.80292">
        <ele>370</ele>
        <time>2014-10-26T08:25:14Z</time>
      </trkpt>
      <trkpt lat="45.85689" lon="4.80296">
        <ele>369</ele>
        <time>2014-10-26T08:25:18Z</time>
      </trkpt>
      <trkpt lat="45.8569" lon="4.80297">
        <ele>369</ele>
        <time>2014-10-26T08:25:20Z</time>
      </trkpt>
      <trkpt lat="45.85689" lon="4.80292">
        <ele>370</ele>
        <time>2014-10-26T08:25:32Z</time>
      </trkpt>
      <trkpt lat="45.85689" lon="4.80289">
        <ele>370</ele>
        <time>2014-10-26T08:25:33Z</time>
      </trkpt>
      <trkpt lat="45.85691" lon="4.8028">
        <ele>370</ele>
        <time>2014-10-26T08:25:39Z</time>
      </trkpt>
      <trkpt lat="45.85695" lon="4.80276">
        <ele>371</ele>
        <time>2014-10-26T08:25:43Z</time>
      </trkpt>
      <trkpt lat="45.85696" lon="4.80275">
        <ele>371</ele>
        <time>2014-10-26T08:25:44Z</time>
      </trkpt>
      <trkpt lat="45.85697" lon="4.80269">
        <ele>371</ele>
        <time>2014-10-26T08:25:48Z</time>
      </trkpt>
      <trkpt lat="45.85699" lon="4.80264">
        <ele>372</ele>
        <time>2014-10-26T08:25:51Z</time>
      </trkpt>
      <trkpt lat="45.85701" lon="4.80258">
        <ele>372</ele>
        <time>2014-10-26T08:25:55Z</time>
      </trkpt>
      <trkpt lat="45.85701" lon="4.80256">
        <ele>372</ele>
        <time>2014-10-26T08:25:56Z</time>
      </trkpt>
      <trkpt lat="45.85701" lon="4.80252">
        <ele>372</ele>
        <time>2014-10-26T08:25:58Z</time>
      </trkpt>
      <trkpt lat="45.85704" lon="4.80249">
        <ele>377</ele>
        <time>2014-10-26T08:26:01Z</time>
      </trkpt>
      <trkpt lat="45.85707" lon="4.80247">
        <ele>377</ele>
        <time>2014-10-26T08:26:04Z</time>
      </trkpt>
      <trkpt lat="45.8571" lon="4.80242">
        <ele>378</ele>
        <time>2014-10-26T08:26:10Z</time>
      </trkpt>
      <trkpt lat="45.8571" lon="4.8024">
        <ele>378</ele>
        <time>2014-10-26T08:26:11Z</time>
      </trkpt>
      <trkpt lat="45.8571" lon="4.80234">
        <ele>378</ele>
        <time>2014-10-26T08:26:16Z</time>
      </trkpt>
      <trkpt lat="45.85713" lon="4.80224">
        <ele>378</ele>
        <time>2014-10-26T08:26:23Z</time>
      </trkpt>
      <trkpt lat="45.85713" lon="4.80222">
        <ele>378</ele>
        <time>2014-10-26T08:26:24Z</time>
      </trkpt>
      <trkpt lat="45.85712" lon="4.80209">
        <ele>379</ele>
        <time>2014-10-26T08:26:31Z</time>
      </trkpt>
      <trkpt lat="45.85713" lon="4.80204">
        <ele>379</ele>
        <time>2014-10-26T08:26:34Z</time>
      </trkpt>
      <trkpt lat="45.85715" lon="4.80202">
        <ele>379</ele>
        <time>2014-10-26T08:26:37Z</time>
      </trkpt>
      <trkpt lat="45.85716" lon="4.80205">
        <ele>379</ele>
        <time>2014-10-26T08:26:39Z</time>
      </trkpt>
      <trkpt lat="45.85719" lon="4.80209">
        <ele>379</ele>
        <time>2014-10-26T08:26:42Z</time>
      </trkpt>
      <trkpt lat="45.85721" lon="4.80215">
        <ele>380</ele>
        <time>2014-10-26T08:26:46Z</time>
      </trkpt>
      <trkpt lat="45.85723" lon="4.80217">
        <ele>380</ele>
        <time>2014-10-26T08:26:48Z</time>
      </trkpt>
      <trkpt lat="45.85727" lon="4.8022">
        <ele>380</ele>
        <time>2014-10-26T08:26:55Z</time>
      </trkpt>
      <trkpt lat="45.85724" lon="4.80216">
        <ele>380</ele>
        <time>2014-10-26T08:27:15Z</time>
      </trkpt>
      <trkpt lat="45.85723" lon="4.80215">
        <ele>380</ele>
        <time>2014-10-26T08:27:19Z</time>
      </trkpt>
      <trkpt lat="45.85721" lon="4.80212">
        <ele>380</ele>
        <time>2014-10-26T08:27:22Z</time>
      </trkpt>
      <trkpt lat="45.85721" lon="4.80212">
        <ele>380</ele>
        <time>2014-10-26T08:27:23Z</time>
      </trkpt>
      <trkpt lat="45.85722" lon="4.8021">
        <ele>380</ele>
        <time>2014-10-26T08:27:27Z</time>
      </trkpt>
      <trkpt lat="45.85715" lon="4.80207">
        <ele>379</ele>
        <time>2014-10-26T08:27:42Z</time>
      </trkpt>
      <trkpt lat="45.85716" lon="4.80209">
        <ele>379</ele>
        <time>2014-10-26T08:27:55Z</time>
      </trkpt>
      <trkpt lat="45.85718" lon="4.8021">
        <ele>379</ele>
        <time>2014-10-26T08:28:00Z</time>
      </trkpt>
      <trkpt lat="45.85721" lon="4.80212">
        <ele>380</ele>
        <time>2014-10-26T08:28:11Z</time>
      </trkpt>
      <trkpt lat="45.85723" lon="4.80214">
        <ele>380</ele>
        <time>2014-10-26T08:28:39Z</time>
      </trkpt>
      <trkpt lat="45.85723" lon="4.80215">
        <ele>380</ele>
        <time>2014-10-26T08:28:40Z</time>
      </trkpt>
      <trkpt lat="45.85722" lon="4.80223">
        <ele>380</ele>
        <time>2014-10-26T08:28:45Z</time>
      </trkpt>
      <trkpt lat="45.85721" lon="4.80228">
        <ele>380</ele>
        <time>2014-10-26T08:28:47Z</time>
      </trkpt>
      <trkpt lat="45.85721" lon="4.8023">
        <ele>380</ele>
        <time>2014-10-26T08:28:48Z</time>
      </trkpt>
      <trkpt lat="45.85722" lon="4.80233">
        <ele>380</ele>
        <time>2014-10-26T08:28:50Z</time>
      </trkpt>
      <trkpt lat="45.85721" lon="4.80239">
        <ele>380</ele>
        <time>2014-10-26T08:28:54Z</time>
      </trkpt>
      <trkpt lat="45.85723" lon="4.80241">
        <ele>380</ele>
        <time>2014-10-26T08:29:05Z</time>
      </trkpt>
      <trkpt lat="45.85727" lon="4.80243">
        <ele>381</ele>
        <time>2014-10-26T08:29:08Z</time>
      </trkpt>
      <trkpt lat="45.85727" lon="4.80242">
        <ele>381</ele>
        <time>2014-10-26T08:29:09Z</time>
      </trkpt>
      <trkpt lat="45.85729" lon="4.8024">
        <ele>381</ele>
        <time>2014-10-26T08:29:13Z</time>
      </trkpt>
      <trkpt lat="45.8573" lon="4.80239">
        <ele>381</ele>
        <time>2014-10-26T08:29:14Z</time>
      </trkpt>
      <trkpt lat="45.8573" lon="4.80239">
        <ele>381</ele>
        <time>2014-10-26T08:29:17Z</time>
      </trkpt>
      <trkpt lat="45.85732" lon="4.80244">
        <ele>382</ele>
        <time>2014-10-26T08:29:19Z</time>
      </trkpt>
      <trkpt lat="45.85735" lon="4.80251">
        <ele>380</ele>
        <time>2014-10-26T08:29:21Z</time>
      </trkpt>
      <trkpt lat="45.85738" lon="4.80258">
        <ele>380</ele>
        <time>2014-10-26T08:29:23Z</time>
      </trkpt>
      <trkpt lat="45.8574" lon="4.80259">
        <ele>381</ele>
        <time>2014-10-26T08:29:24Z</time>
      </trkpt>
      <trkpt lat="45.85745" lon="4.8026">
        <ele>381</ele>
        <time>2014-10-26T08:29:26Z</time>
      </trkpt>
      <trkpt lat="45.8575" lon="4.80257">
        <ele>383</ele>
        <time>2014-10-26T08:29:28Z</time>
      </trkpt>
      <trkpt lat="45.85753" lon="4.80253">
        <ele>387</ele>
        <time>2014-10-26T08:29:30Z</time>
      </trkpt>
      <trkpt lat="45.85756" lon="4.80246">
        <ele>389</ele>
        <time>2014-10-26T08:29:33Z</time>
      </trkpt>
      <trkpt lat="45.85755" lon="4.80247">
        <ele>388</ele>
        <time>2014-10-26T08:29:37Z</time>
      </trkpt>
      <trkpt lat="45.85758" lon="4.80245">
        <ele>389</ele>
        <time>2014-10-26T08:29:43Z</time>
      </trkpt>
      <trkpt lat="45.85759" lon="4.80243">
        <ele>389</ele>
        <time>2014-10-26T08:29:45Z</time>
      </trkpt>
      <trkpt lat="45.85758" lon="4.80242">
        <ele>389</ele>
        <time>2014-10-26T08:29:46Z</time>
      </trkpt>
      <trkpt lat="45.85754" lon="4.8024">
        <ele>389</ele>
        <time>2014-10-26T08:29:51Z</time>
      </trkpt>
      <trkpt lat="45.85754" lon="4.80239">
        <ele>389</ele>
        <time>2014-10-26T08:29:52Z</time>
      </trkpt>
      <trkpt lat="45.8575" lon="4.80234">
        <ele>390</ele>
        <time>2014-10-26T08:29:57Z</time>
      </trkpt>
      <trkpt lat="45.85749" lon="4.80233">
        <ele>383</ele>
        <time>2014-10-26T08:30:00Z</time>
      </trkpt>
      <trkpt lat="45.85747" lon="4.80234">
        <ele>383</ele>
        <time>2014-10-26T08:30:04Z</time>
      </trkpt>
      <trkpt lat="45.85748" lon="4.80234">
        <ele>383</ele>
        <time>2014-10-26T08:30:11Z</time>
      </trkpt>
      <trkpt lat="45.85755" lon="4.80234">
        <ele>390</ele>
        <time>2014-10-26T08:30:40Z</time>
      </trkpt>
      <trkpt lat="45.85753" lon="4.80234">
        <ele>390</ele>
        <time>2014-10-26T08:30:44Z</time>
      </trkpt>
      <trkpt lat="45.85754" lon="4.80231">
        <ele>390</ele>
        <time>2014-10-26T08:30:46Z</time>
      </trkpt>
      <trkpt lat="45.85755" lon="4.80223">
        <ele>391</ele>
        <time>2014-10-26T08:30:56Z</time>
      </trkpt>
      <trkpt lat="45.85753" lon="4.8022">
        <ele>391</ele>
        <time>2014-10-26T08:30:58Z</time>
      </trkpt>
      <trkpt lat="45.85749" lon="4.80216">
        <ele>382</ele>
        <time>2014-10-26T08:31:00Z</time>
      </trkpt>
      <trkpt lat="45.85747" lon="4.80214">
        <ele>382</ele>
        <time>2014-10-26T08:31:01Z</time>
      </trkpt>
      <trkpt lat="45.8574" lon="4.80212">
        <ele>382</ele>
        <time>2014-10-26T08:31:03Z</time>
      </trkpt>
      <trkpt lat="45.85729" lon="4.80211">
        <ele>381</ele>
        <time>2014-10-26T08:31:08Z</time>
      </trkpt>
      <trkpt lat="45.85727" lon="4.8021">
        <ele>380</ele>
        <time>2014-10-26T08:31:09Z</time>
      </trkpt>
      <trkpt lat="45.85726" lon="4.80211">
        <ele>380</ele>
        <time>2014-10-26T08:31:10Z</time>
      </trkpt>
      <trkpt lat="45.85724" lon="4.80211">
        <ele>380</ele>
        <time>2014-10-26T08:31:12Z</time>
      </trkpt>
      <trkpt lat="45.85718" lon="4.80211">
        <ele>379</ele>
        <time>2014-10-26T08:31:18Z</time>
      </trkpt>
      <trkpt lat="45.85716" lon="4.80211">
        <ele>379</ele>
        <time>2014-10-26T08:31:21Z</time>
      </trkpt>
      <trkpt lat="45.85717" lon="4.80212">
        <ele>379</ele>
        <time>2014-10-26T08:31:26Z</time>
      </trkpt>
      <trkpt lat="45.85722" lon="4.80216">
        <ele>380</ele>
        <time>2014-10-26T08:31:29Z</time>
      </trkpt>
      <trkpt lat="45.85727" lon="4.80218">
        <ele>380</ele>
        <time>2014-10-26T08:31:31Z</time>
      </trkpt>
      <trkpt lat="45.85739" lon="4.80227">
        <ele>382</ele>
        <time>2014-10-26T08:31:35Z</time>
      </trkpt>
      <trkpt lat="45.85751" lon="4.80238">
        <ele>389</ele>
        <time>2014-10-26T08:31:40Z</time>
      </trkpt>
      <trkpt lat="45.85755" lon="4.80242">
        <ele>389</ele>
        <time>2014-10-26T08:31:41Z</time>
      </trkpt>
      <trkpt lat="45.85764" lon="4.8025">
        <ele>386</ele>
        <time>2014-10-26T08:31:45Z</time>
      </trkpt>
      <trkpt lat="45.8577" lon="4.80258">
        <ele>386</ele>
        <time>2014-10-26T08:31:49Z</time>
      </trkpt>
      <trkpt lat="45.85772" lon="4.8026">
        <ele>386</ele>
        <time>2014-10-26T08:31:50Z</time>
      </trkpt>
      <trkpt lat="45.85785" lon="4.80269">
        <ele>386</ele>
        <time>2014-10-26T08:31:55Z</time>
      </trkpt>
      <trkpt lat="45.85786" lon="4.80271">
        <ele>386</ele>
        <time>2014-10-26T08:31:56Z</time>
      </trkpt>
      <trkpt lat="45.85796" lon="4.80277">
        <ele>386</ele>
        <time>2014-10-26T08:32:00Z</time>
      </trkpt>
      <trkpt lat="45.85803" lon="4.80285">
        <ele>386</ele>
        <time>2014-10-26T08:32:04Z</time>
      </trkpt>
      <trkpt lat="45.85806" lon="4.80288">
        <ele>385</ele>
        <time>2014-10-26T08:32:05Z</time>
      </trkpt>
      <trkpt lat="45.8582" lon="4.80296">
        <ele>385</ele>
        <time>2014-10-26T08:32:10Z</time>
      </trkpt>
      <trkpt lat="45.85839" lon="4.80308">
        <ele>386</ele>
        <time>2014-10-26T08:32:17Z</time>
      </trkpt>
      <trkpt lat="45.85853" lon="4.80317">
        <ele>386</ele>
        <time>2014-10-26T08:32:23Z</time>
      </trkpt>
      <trkpt lat="45.85858" lon="4.8032">
        <ele>386</ele>
        <time>2014-10-26T08:32:25Z</time>
      </trkpt>
      <trkpt lat="45.85867" lon="4.80326">
        <ele>386</ele>
        <time>2014-10-26T08:32:28Z</time>
      </trkpt>
      <trkpt lat="45.85877" lon="4.80332">
        <ele>386</ele>
        <time>2014-10-26T08:32:32Z</time>
      </trkpt>
      <trkpt lat="45.85881" lon="4.80336">
        <ele>380</ele>
        <time>2014-10-26T08:32:34Z</time>
      </trkpt>
      <trkpt lat="45.85894" lon="4.80345">
        <ele>381</ele>
        <time>2014-10-26T08:32:39Z</time>
      </trkpt>
      <trkpt lat="45.85898" lon="4.80348">
        <ele>381</ele>
        <time>2014-10-26T08:32:41Z</time>
      </trkpt>
      <trkpt lat="45.8591" lon="4.80358">
        <ele>380</ele>
        <time>2014-10-26T08:32:46Z</time>
      </trkpt>
      <trkpt lat="45.85913" lon="4.80361">
        <ele>380</ele>
        <time>2014-10-26T08:32:47Z</time>
      </trkpt>
      <trkpt lat="45.85928" lon="4.80371">
        <ele>380</ele>
        <time>2014-10-26T08:32:53Z</time>
      </trkpt>
      <trkpt lat="45.8594" lon="4.80379">
        <ele>380</ele>
        <time>2014-10-26T08:32:58Z</time>
      </trkpt>
      <trkpt lat="45.85947" lon="4.80382">
        <ele>380</ele>
        <time>2014-10-26T08:33:03Z</time>
      </trkpt>
      <trkpt lat="45.85948" lon="4.80382">
        <ele>380</ele>
        <time>2014-10-26T08:33:04Z</time>
      </trkpt>
      <trkpt lat="45.85953" lon="4.80381">
        <ele>380</ele>
        <time>2014-10-26T08:33:07Z</time>
      </trkpt>
      <trkpt lat="45.85955" lon="4.80379">
        <ele>380</ele>
        <time>2014-10-26T08:33:09Z</time>
      </trkpt>
      <trkpt lat="45.8596" lon="4.80374">
        <ele>381</ele>
        <time>2014-10-26T08:33:14Z</time>
      </trkpt>
      <trkpt lat="45.8596" lon="4.80372">
        <ele>381</ele>
        <time>2014-10-26T08:33:15Z</time>
      </trkpt>
      <trkpt lat="45.85961" lon="4.80369">
        <ele>381</ele>
        <time>2014-10-26T08:33:18Z</time>
      </trkpt>
      <trkpt lat="45.85963" lon="4.80367">
        <ele>382</ele>
        <time>2014-10-26T08:33:20Z</time>
      </trkpt>
      <trkpt lat="45.85968" lon="4.80368">
        <ele>382</ele>
        <time>2014-10-26T08:33:23Z</time>
      </trkpt>
      <trkpt lat="45.85972" lon="4.80369">
        <ele>382</ele>
        <time>2014-10-26T08:33:25Z</time>
      </trkpt>
      <trkpt lat="45.85978" lon="4.80367">
        <ele>382</ele>
        <time>2014-10-26T08:33:29Z</time>
      </trkpt>
      <trkpt lat="45.85979" lon="4.80366">
        <ele>382</ele>
        <time>2014-10-26T08:33:30Z</time>
      </trkpt>
      <trkpt lat="45.85981" lon="4.80365">
        <ele>383</ele>
        <time>2014-10-26T08:33:33Z</time>
      </trkpt>
      <trkpt lat="45.85981" lon="4.80363">
        <ele>383</ele>
        <time>2014-10-26T08:33:35Z</time>
      </trkpt>
      <trkpt lat="45.85984" lon="4.80359">
        <ele>383</ele>
        <time>2014-10-26T08:33:51Z</time>
      </trkpt>
      <trkpt lat="45.85985" lon="4.80354">
        <ele>384</ele>
        <time>2014-10-26T08:33:55Z</time>
      </trkpt>
      <trkpt lat="45.85987" lon="4.80349">
        <ele>385</ele>
        <time>2014-10-26T08:34:00Z</time>
      </trkpt>
      <trkpt lat="45.85988" lon="4.80348">
        <ele>385</ele>
        <time>2014-10-26T08:34:01Z</time>
      </trkpt>
      <trkpt lat="45.85992" lon="4.80351">
        <ele>385</ele>
        <time>2014-10-26T08:34:06Z</time>
      </trkpt>
      <trkpt lat="45.85994" lon="4.80352">
        <ele>385</ele>
        <time>2014-10-26T08:34:07Z</time>
      </trkpt>
      <trkpt lat="45.86001" lon="4.80357">
        <ele>387</ele>
        <time>2014-10-26T08:34:14Z</time>
      </trkpt>
      <trkpt lat="45.86004" lon="4.80358">
        <ele>387</ele>
        <time>2014-10-26T08:34:17Z</time>
      </trkpt>
      <trkpt lat="45.86007" lon="4.80358">
        <ele>387</ele>
        <time>2014-10-26T08:34:21Z</time>
      </trkpt>
      <trkpt lat="45.86009" lon="4.80358">
        <ele>387</ele>
        <time>2014-10-26T08:34:22Z</time>
      </trkpt>
      <trkpt lat="45.86013" lon="4.80359">
        <ele>387</ele>
        <time>2014-10-26T08:34:26Z</time>
      </trkpt>
      <trkpt lat="45.86021" lon="4.80363">
        <ele>386</ele>
        <time>2014-10-26T08:34:33Z</time>
      </trkpt>
      <trkpt lat="45.86026" lon="4.80359">
        <ele>387</ele>
        <time>2014-10-26T08:34:38Z</time>
      </trkpt>
      <trkpt lat="45.86027" lon="4.80358">
        <ele>387</ele>
        <time>2014-10-26T08:34:39Z</time>
      </trkpt>
      <trkpt lat="45.86027" lon="4.80356">
        <ele>387</ele>
        <time>2014-10-26T08:34:40Z</time>
      </trkpt>
      <trkpt lat="45.8603" lon="4.80353">
        <ele>387</ele>
        <time>2014-10-26T08:34:43Z</time>
      </trkpt>
      <trkpt lat="45.8603" lon="4.80352">
        <ele>387</ele>
        <time>2014-10-26T08:34:44Z</time>
      </trkpt>
      <trkpt lat="45.86031" lon="4.80352">
        <ele>387</ele>
        <time>2014-10-26T08:34:49Z</time>
      </trkpt>
      <trkpt lat="45.86033" lon="4.80349">
        <ele>387</ele>
        <time>2014-10-26T08:34:55Z</time>
      </trkpt>
      <trkpt lat="45.86033" lon="4.80346">
        <ele>387</ele>
        <time>2014-10-26T08:35:06Z</time>
      </trkpt>
      <trkpt lat="45.86034" lon="4.80345">
        <ele>388</ele>
        <time>2014-10-26T08:35:09Z</time>
      </trkpt>
      <trkpt lat="45.86036" lon="4.80341">
        <ele>388</ele>
        <time>2014-10-26T08:35:16Z</time>
      </trkpt>
      <trkpt lat="45.86042" lon="4.80339">
        <ele>388</ele>
        <time>2014-10-26T08:35:23Z</time>
      </trkpt>
      <trkpt lat="45.86044" lon="4.80333">
        <ele>395</ele>
        <time>2014-10-26T08:35:28Z</time>
      </trkpt>
      <trkpt lat="45.86046" lon="4.80338">
        <ele>388</ele>
        <time>2014-10-26T08:35:36Z</time>
      </trkpt>
      <trkpt lat="45.86047" lon="4.80341">
        <ele>388</ele>
        <time>2014-10-26T08:35:38Z</time>
      </trkpt>
      <trkpt lat="45.86048" lon="4.80342">
        <ele>388</ele>
        <time>2014-10-26T08:35:41Z</time>
      </trkpt>
      <trkpt lat="45.86051" lon="4.80342">
        <ele>388</ele>
        <time>2014-10-26T08:35:44Z</time>
      </trkpt>
      <trkpt lat="45.86054" lon="4.80349">
        <ele>388</ele>
        <time>2014-10-26T08:35:54Z</time>
      </trkpt>
      <trkpt lat="45.86055" lon="4.80353">
        <ele>388</ele>
        <time>2014-10-26T08:36:01Z</time>
      </trkpt>
      <trkpt lat="45.86056" lon="4.80356">
        <ele>388</ele>
        <time>2014-10-26T08:36:08Z</time>
      </trkpt>
      <trkpt lat="45.86058" lon="4.80359">
        <ele>387</ele>
        <time>2014-10-26T08:36:13Z</time>
      </trkpt>
      <trkpt lat="45.86059" lon="4.8036">
        <ele>387</ele>
        <time>2014-10-26T08:36:15Z</time>
      </trkpt>
      <trkpt lat="45.86059" lon="4.80361">
        <ele>387</ele>
        <time>2014-10-26T08:36:16Z</time>
      </trkpt>
      <trkpt lat="45.86061" lon="4.80363">
        <ele>387</ele>
        <time>2014-10-26T08:36:19Z</time>
      </trkpt>
      <trkpt lat="45.86063" lon="4.80365">
        <ele>387</ele>
        <time>2014-10-26T08:36:24Z</time>
      </trkpt>
      <trkpt lat="45.86064" lon="4.80367">
        <ele>387</ele>
        <time>2014-10-26T08:36:27Z</time>
      </trkpt>
      <trkpt lat="45.86064" lon="4.8037">
        <ele>387</ele>
        <time>2014-10-26T08:36:30Z</time>
      </trkpt>
      <trkpt lat="45.86063" lon="4.80372">
        <ele>386</ele>
        <time>2014-10-26T08:36:33Z</time>
      </trkpt>
      <trkpt lat="45.86064" lon="4.80374">
        <ele>386</ele>
        <time>2014-10-26T08:36:35Z</time>
      </trkpt>
      <trkpt lat="45.86067" lon="4.80379">
        <ele>386</ele>
        <time>2014-10-26T08:36:39Z</time>
      </trkpt>
      <trkpt lat="45.86072" lon="4.80385">
        <ele>385</ele>
        <time>2014-10-26T08:36:44Z</time>
      </trkpt>
      <trkpt lat="45.86074" lon="4.80389">
        <ele>385</ele>
        <time>2014-10-26T08:36:50Z</time>
      </trkpt>
      <trkpt lat="45.86077" lon="4.80392">
        <ele>385</ele>
        <time>2014-10-26T08:36:54Z</time>
      </trkpt>
      <trkpt lat="45.86077" lon="4.80392">
        <ele>385</ele>
        <time>2014-10-26T08:36:55Z</time>
      </trkpt>
      <trkpt lat="45.86081" lon="4.80391">
        <ele>385</ele>
        <time>2014-10-26T08:37:02Z</time>
      </trkpt>
      <trkpt lat="45.86084" lon="4.80389">
        <ele>387</ele>
        <time>2014-10-26T08:37:07Z</time>
      </trkpt>
      <trkpt lat="45.86082" lon="4.80393">
        <ele>385</ele>
        <time>2014-10-26T08:37:18Z</time>
      </trkpt>
      <trkpt lat="45.86081" lon="4.80396">
        <ele>384</ele>
        <time>2014-10-26T08:37:24Z</time>
      </trkpt>
      <trkpt lat="45.8608" lon="4.80398">
        <ele>384</ele>
        <time>2014-10-26T08:37:29Z</time>
      </trkpt>
      <trkpt lat="45.8608" lon="4.80401">
        <ele>384</ele>
        <time>2014-10-26T08:37:35Z</time>
      </trkpt>
      <trkpt lat="45.86082" lon="4.80399">
        <ele>384</ele>
        <time>2014-10-26T08:37:43Z</time>
      </trkpt>
      <trkpt lat="45.86083" lon="4.80398">
        <ele>384</ele>
        <time>2014-10-26T08:37:48Z</time>
      </trkpt>
      <trkpt lat="45.86082" lon="4.80398">
        <ele>384</ele>
        <time>2014-10-26T08:37:58Z</time>
      </trkpt>
      <trkpt lat="45.86083" lon="4.80398">
        <ele>384</ele>
        <time>2014-10-26T08:37:59Z</time>
      </trkpt>
      <trkpt lat="45.86084" lon="4.80397">
        <ele>386</ele>
        <time>2014-10-26T08:38:02Z</time>
      </trkpt>
      <trkpt lat="45.86082" lon="4.80396">
        <ele>384</ele>
        <time>2014-10-26T08:38:10Z</time>
      </trkpt>
      <trkpt lat="45.86086" lon="4.80397">
        <ele>386</ele>
        <time>2014-10-26T08:38:13Z</time>
      </trkpt>
      <trkpt lat="45.86085" lon="4.80401">
        <ele>385</ele>
        <time>2014-10-26T08:38:16Z</time>
      </trkpt>
      <trkpt lat="45.86082" lon="4.80401">
        <ele>384</ele>
        <time>2014-10-26T08:38:17Z</time>
      </trkpt>
      <trkpt lat="45.86079" lon="4.80402">
        <ele>384</ele>
        <time>2014-10-26T08:38:18Z</time>
      </trkpt>
      <trkpt lat="45.8608" lon="4.80403">
        <ele>384</ele>
        <time>2014-10-26T08:38:22Z</time>
      </trkpt>
      <trkpt lat="45.86079" lon="4.80404">
        <ele>384</ele>
        <time>2014-10-26T08:38:26Z</time>
      </trkpt>
      <trkpt lat="45.86081" lon="4.80404">
        <ele>384</ele>
        <time>2014-10-26T08:38:28Z</time>
      </trkpt>
      <trkpt lat="45.86082" lon="4.80403">
        <ele>384</ele>
        <time>2014-10-26T08:38:34Z</time>
      </trkpt>
      <trkpt lat="45.86084" lon="4.80404">
        <ele>385</ele>
        <time>2014-10-26T08:38:40Z</time>
      </trkpt>
      <trkpt lat="45.86086" lon="4.80404">
        <ele>385</ele>
        <time>2014-10-26T08:38:49Z</time>
      </trkpt>
      <trkpt lat="45.86093" lon="4.80399">
        <ele>386</ele>
        <time>2014-10-26T08:38:56Z</time>
      </trkpt>
      <trkpt lat="45.86094" lon="4.80398">
        <ele>386</ele>
        <time>2014-10-26T08:38:57Z</time>
      </trkpt>
      <trkpt lat="45.86096" lon="4.80395">
        <ele>387</ele>
        <time>2014-10-26T08:38:59Z</time>
      </trkpt>
      <trkpt lat="45.86096" lon="4.80392">
        <ele>387</ele>
        <time>2014-10-26T08:39:01Z</time>
      </trkpt>
      <trkpt lat="45.86097" lon="4.80389">
        <ele>387</ele>
        <time>2014-10-26T08:39:03Z</time>
      </trkpt>
      <trkpt lat="45.86101" lon="4.80389">
        <ele>387</ele>
        <time>2014-10-26T08:39:06Z</time>
      </trkpt>
      <trkpt lat="45.86108" lon="4.8039">
        <ele>388</ele>
        <time>2014-10-26T08:39:11Z</time>
      </trkpt>
      <trkpt lat="45.8611" lon="4.80391">
        <ele>388</ele>
        <time>2014-10-26T08:39:13Z</time>
      </trkpt>
      <trkpt lat="45.86112" lon="4.80391">
        <ele>388</ele>
        <time>2014-10-26T08:39:20Z</time>
      </trkpt>
      <trkpt lat="45.86115" lon="4.80392">
        <ele>388</ele>
        <time>2014-10-26T08:39:27Z</time>
      </trkpt>
      <trkpt lat="45.86115" lon="4.80392">
        <ele>388</ele>
        <time>2014-10-26T08:39:37Z</time>
      </trkpt>
      <trkpt lat="45.8612" lon="4.80398">
        <ele>387</ele>
        <time>2014-10-26T08:39:51Z</time>
      </trkpt>
      <trkpt lat="45.86121" lon="4.804">
        <ele>387</ele>
        <time>2014-10-26T08:39:52Z</time>
      </trkpt>
      <trkpt lat="45.86126" lon="4.80406">
        <ele>387</ele>
        <time>2014-10-26T08:39:57Z</time>
      </trkpt>
      <trkpt lat="45.86126" lon="4.80405">
        <ele>387</ele>
        <time>2014-10-26T08:40:02Z</time>
      </trkpt>
      <trkpt lat="45.86124" lon="4.80404">
        <ele>387</ele>
        <time>2014-10-26T08:40:07Z</time>
      </trkpt>
      <trkpt lat="45.86124" lon="4.80402">
        <ele>387</ele>
        <time>2014-10-26T08:40:08Z</time>
      </trkpt>
      <trkpt lat="45.86125" lon="4.80401">
        <ele>387</ele>
        <time>2014-10-26T08:40:14Z</time>
      </trkpt>
      <trkpt lat="45.86125" lon="4.80406">
        <ele>387</ele>
        <time>2014-10-26T08:40:22Z</time>
      </trkpt>
      <trkpt lat="45.86125" lon="4.80408">
        <ele>387</ele>
        <time>2014-10-26T08:40:23Z</time>
      </trkpt>
      <trkpt lat="45.86125" lon="4.8041">
        <ele>387</ele>
        <time>2014-10-26T08:40:24Z</time>
      </trkpt>
      <trkpt lat="45.86126" lon="4.80412">
        <ele>387</ele>
        <time>2014-10-26T08:40:27Z</time>
      </trkpt>
      <trkpt lat="45.86131" lon="4.80412">
        <ele>387</ele>
        <time>2014-10-26T08:40:34Z</time>
      </trkpt>
      <trkpt lat="45.86141" lon="4.80414">
        <ele>387</ele>
        <time>2014-10-26T08:40:42Z</time>
      </trkpt>
      <trkpt lat="45.86142" lon="4.80415">
        <ele>387</ele>
        <time>2014-10-26T08:40:43Z</time>
      </trkpt>
      <trkpt lat="45.86151" lon="4.80418">
        <ele>381</ele>
        <time>2014-10-26T08:40:49Z</time>
      </trkpt>
      <trkpt lat="45.86154" lon="4.8042">
        <ele>381</ele>
        <time>2014-10-26T08:40:51Z</time>
      </trkpt>
      <trkpt lat="45.86157" lon="4.80424">
        <ele>382</ele>
        <time>2014-10-26T08:40:53Z</time>
      </trkpt>
      <trkpt lat="45.86159" lon="4.80426">
        <ele>382</ele>
        <time>2014-10-26T08:40:55Z</time>
      </trkpt>
      <trkpt lat="45.86161" lon="4.80431">
        <ele>381</ele>
        <time>2014-10-26T08:40:58Z</time>
      </trkpt>
      <trkpt lat="45.86161" lon="4.80432">
        <ele>381</ele>
        <time>2014-10-26T08:40:59Z</time>
      </trkpt>
      <trkpt lat="45.86166" lon="4.80435">
        <ele>380</ele>
        <time>2014-10-26T08:41:03Z</time>
      </trkpt>
      <trkpt lat="45.8617" lon="4.80435">
        <ele>379</ele>
        <time>2014-10-26T08:41:09Z</time>
      </trkpt>
      <trkpt lat="45.8617" lon="4.80432">
        <ele>379</ele>
        <time>2014-10-26T08:41:29Z</time>
      </trkpt>
      <trkpt lat="45.8617" lon="4.80432">
        <ele>380</ele>
        <time>2014-10-26T08:41:34Z</time>
      </trkpt>
      <trkpt lat="45.86171" lon="4.80433">
        <ele>379</ele>
        <time>2014-10-26T08:41:39Z</time>
      </trkpt>
      <trkpt lat="45.8617" lon="4.80432">
        <ele>380</ele>
        <time>2014-10-26T08:41:47Z</time>
      </trkpt>
      <trkpt lat="45.8617" lon="4.80431">
        <ele>380</ele>
        <time>2014-10-26T08:41:48Z</time>
      </trkpt>
      <trkpt lat="45.86172" lon="4.80424">
        <ele>382</ele>
        <time>2014-10-26T08:41:52Z</time>
      </trkpt>
      <trkpt lat="45.86174" lon="4.80435">
        <ele>379</ele>
        <time>2014-10-26T08:42:37Z</time>
      </trkpt>
      <trkpt lat="45.86174" lon="4.80433">
        <ele>379</ele>
        <time>2014-10-26T08:42:39Z</time>
      </trkpt>
      <trkpt lat="45.86178" lon="4.80433">
        <ele>379</ele>
        <time>2014-10-26T08:42:43Z</time>
      </trkpt>
      <trkpt lat="45.86179" lon="4.80433">
        <ele>378</ele>
        <time>2014-10-26T08:42:44Z</time>
      </trkpt>
      <trkpt lat="45.86183" lon="4.80432">
        <ele>378</ele>
        <time>2014-10-26T08:42:47Z</time>
      </trkpt>
      <trkpt lat="45.86186" lon="4.8043">
        <ele>378</ele>
        <time>2014-10-26T08:42:50Z</time>
      </trkpt>
      <trkpt lat="45.86187" lon="4.80428">
        <ele>378</ele>
        <time>2014-10-26T08:42:53Z</time>
      </trkpt>
      <trkpt lat="45.86188" lon="4.80428">
        <ele>378</ele>
        <time>2014-10-26T08:42:56Z</time>
      </trkpt>
      <trkpt lat="45.86189" lon="4.80429">
        <ele>378</ele>
        <time>2014-10-26T08:43:00Z</time>
      </trkpt>
      <trkpt lat="45.8619" lon="4.80428">
        <ele>378</ele>
        <time>2014-10-26T08:43:06Z</time>
      </trkpt>
      <trkpt lat="45.86192" lon="4.80428">
        <ele>377</ele>
        <time>2014-10-26T08:43:10Z</time>
      </trkpt>
      <trkpt lat="45.86193" lon="4.80426">
        <ele>377</ele>
        <time>2014-10-26T08:43:17Z</time>
      </trkpt>
      <trkpt lat="45.86197" lon="4.80433">
        <ele>376</ele>
        <time>2014-10-26T08:43:29Z</time>
      </trkpt>
      <trkpt lat="45.862" lon="4.80439">
        <ele>376</ele>
        <time>2014-10-26T08:43:33Z</time>
      </trkpt>
      <trkpt lat="45.862" lon="4.8044">
        <ele>376</ele>
        <time>2014-10-26T08:43:36Z</time>
      </trkpt>
      <trkpt lat="45.86202" lon="4.80442">
        <ele>375</ele>
        <time>2014-10-26T08:43:40Z</time>
      </trkpt>
      <trkpt lat="45.86204" lon="4.80443">
        <ele>375</ele>
        <time>2014-10-26T08:43:49Z</time>
      </trkpt>
      <trkpt lat="45.86204" lon="4.80444">
        <ele>375</ele>
        <time>2014-10-26T08:43:53Z</time>
      </trkpt>
      <trkpt lat="45.86203" lon="4.80446">
        <ele>375</ele>
        <time>2014-10-26T08:43:56Z</time>
      </trkpt>
      <trkpt lat="45.86204" lon="4.80444">
        <ele>375</ele>
        <time>2014-10-26T08:44:02Z</time>
      </trkpt>
      <trkpt lat="45.86206" lon="4.80441">
        <ele>375</ele>
        <time>2014-10-26T08:44:07Z</time>
      </trkpt>
      <trkpt lat="45.86209" lon="4.80437">
        <ele>375</ele>
        <time>2014-10-26T08:44:12Z</time>
      </trkpt>
      <trkpt lat="45.8621" lon="4.80437">
        <ele>375</ele>
        <time>2014-10-26T08:44:13Z</time>
      </trkpt>
      <trkpt lat="45.86212" lon="4.80438">
        <ele>375</ele>
        <time>2014-10-26T08:44:17Z</time>
      </trkpt>
      <trkpt lat="45.86213" lon="4.8044">
        <ele>375</ele>
        <time>2014-10-26T08:44:21Z</time>
      </trkpt>
      <trkpt lat="45.86215" lon="4.80445">
        <ele>374</ele>
        <time>2014-10-26T08:44:27Z</time>
      </trkpt>
      <trkpt lat="45.86218" lon="4.80453">
        <ele>374</ele>
        <time>2014-10-26T08:44:34Z</time>
      </trkpt>
      <trkpt lat="45.86218" lon="4.80454">
        <ele>373</ele>
        <time>2014-10-26T08:44:36Z</time>
      </trkpt>
      <trkpt lat="45.86218" lon="4.80456">
        <ele>373</ele>
        <time>2014-10-26T08:44:39Z</time>
      </trkpt>
      <trkpt lat="45.86219" lon="4.80462">
        <ele>373</ele>
        <time>2014-10-26T08:44:46Z</time>
      </trkpt>
      <trkpt lat="45.86219" lon="4.80463">
        <ele>373</ele>
        <time>2014-10-26T08:44:47Z</time>
      </trkpt>
      <trkpt lat="45.86223" lon="4.80462">
        <ele>372</ele>
        <time>2014-10-26T08:44:55Z</time>
      </trkpt>
      <trkpt lat="45.86224" lon="4.80462">
        <ele>372</ele>
        <time>2014-10-26T08:44:56Z</time>
      </trkpt>
      <trkpt lat="45.86227" lon="4.80459">
        <ele>373</ele>
        <time>2014-10-26T08:45:01Z</time>
      </trkpt>
      <trkpt lat="45.86228" lon="4.80458">
        <ele>373</ele>
        <time>2014-10-26T08:45:04Z</time>
      </trkpt>
      <trkpt lat="45.8623" lon="4.80456">
        <ele>373</ele>
        <time>2014-10-26T08:45:07Z</time>
      </trkpt>
      <trkpt lat="45.8623" lon="4.80454">
        <ele>373</ele>
        <time>2014-10-26T08:45:08Z</time>
      </trkpt>
      <trkpt lat="45.8623" lon="4.80453">
        <ele>373</ele>
        <time>2014-10-26T08:45:09Z</time>
      </trkpt>
      <trkpt lat="45.86232" lon="4.80454">
        <ele>373</ele>
        <time>2014-10-26T08:45:11Z</time>
      </trkpt>
      <trkpt lat="45.86233" lon="4.80455">
        <ele>373</ele>
        <time>2014-10-26T08:45:13Z</time>
      </trkpt>
      <trkpt lat="45.86234" lon="4.80452">
        <ele>373</ele>
        <time>2014-10-26T08:45:18Z</time>
      </trkpt>
      <trkpt lat="45.86238" lon="4.80455">
        <ele>373</ele>
        <time>2014-10-26T08:45:24Z</time>
      </trkpt>
      <trkpt lat="45.8624" lon="4.80451">
        <ele>373</ele>
        <time>2014-10-26T08:45:28Z</time>
      </trkpt>
      <trkpt lat="45.8624" lon="4.80449">
        <ele>373</ele>
        <time>2014-10-26T08:45:30Z</time>
      </trkpt>
      <trkpt lat="45.86244" lon="4.80454">
        <ele>373</ele>
        <time>2014-10-26T08:45:38Z</time>
      </trkpt>
      <trkpt lat="45.86245" lon="4.80458">
        <ele>372</ele>
        <time>2014-10-26T08:45:41Z</time>
      </trkpt>
      <trkpt lat="45.86247" lon="4.80463">
        <ele>371</ele>
        <time>2014-10-26T08:45:46Z</time>
      </trkpt>
      <trkpt lat="45.86248" lon="4.80464">
        <ele>371</ele>
        <time>2014-10-26T08:45:47Z</time>
      </trkpt>
      <trkpt lat="45.86253" lon="4.80466">
        <ele>369</ele>
        <time>2014-10-26T08:45:53Z</time>
      </trkpt>
      <trkpt lat="45.86255" lon="4.80471">
        <ele>369</ele>
        <time>2014-10-26T08:45:56Z</time>
      </trkpt>
      <trkpt lat="45.86257" lon="4.80473">
        <ele>368</ele>
        <time>2014-10-26T08:45:59Z</time>
      </trkpt>
      <trkpt lat="45.86258" lon="4.80475">
        <ele>368</ele>
        <time>2014-10-26T08:46:00Z</time>
      </trkpt>
      <trkpt lat="45.86259" lon="4.80478">
        <ele>368</ele>
        <time>2014-10-26T08:46:02Z</time>
      </trkpt>
      <trkpt lat="45.86259" lon="4.80481">
        <ele>367</ele>
        <time>2014-10-26T08:46:04Z</time>
      </trkpt>
      <trkpt lat="45.8626" lon="4.80486">
        <ele>367</ele>
        <time>2014-10-26T08:46:10Z</time>
      </trkpt>
      <trkpt lat="45.86262" lon="4.80493">
        <ele>366</ele>
        <time>2014-10-26T08:46:19Z</time>
      </trkpt>
      <trkpt lat="45.86263" lon="4.80494">
        <ele>366</ele>
        <time>2014-10-26T08:46:22Z</time>
      </trkpt>
      <trkpt lat="45.86264" lon="4.80494">
        <ele>366</ele>
        <time>2014-10-26T08:46:23Z</time>
      </trkpt>
      <trkpt lat="45.86265" lon="4.80496">
        <ele>366</ele>
        <time>2014-10-26T08:46:25Z</time>
      </trkpt>
      <trkpt lat="45.86267" lon="4.80501">
        <ele>360</ele>
        <time>2014-10-26T08:46:30Z</time>
      </trkpt>
      <trkpt lat="45.86269" lon="4.80505">
        <ele>360</ele>
        <time>2014-10-26T08:46:35Z</time>
      </trkpt>
      <trkpt lat="45.86273" lon="4.80507">
        <ele>359</ele>
        <time>2014-10-26T08:46:38Z</time>
      </trkpt>
      <trkpt lat="45.86278" lon="4.80509">
        <ele>359</ele>
        <time>2014-10-26T08:46:41Z</time>
      </trkpt>
      <trkpt lat="45.86285" lon="4.80513">
        <ele>358</ele>
        <time>2014-10-26T08:46:44Z</time>
      </trkpt>
      <trkpt lat="45.86293" lon="4.80519">
        <ele>358</ele>
        <time>2014-10-26T08:46:47Z</time>
      </trkpt>
      <trkpt lat="45.86301" lon="4.80528">
        <ele>357</ele>
        <time>2014-10-26T08:46:50Z</time>
      </trkpt>
      <trkpt lat="45.86308" lon="4.80538">
        <ele>357</ele>
        <time>2014-10-26T08:46:53Z</time>
      </trkpt>
      <trkpt lat="45.86313" lon="4.80545">
        <ele>356</ele>
        <time>2014-10-26T08:46:55Z</time>
      </trkpt>
      <trkpt lat="45.86323" lon="4.80558">
        <ele>355</ele>
        <time>2014-10-26T08:46:59Z</time>
      </trkpt>
      <trkpt lat="45.86328" lon="4.80563">
        <ele>354</ele>
        <time>2014-10-26T08:47:01Z</time>
      </trkpt>
      <trkpt lat="45.86338" lon="4.80573">
        <ele>356</ele>
        <time>2014-10-26T08:47:05Z</time>
      </trkpt>
      <trkpt lat="45.86342" lon="4.80577">
        <ele>356</ele>
        <time>2014-10-26T08:47:07Z</time>
      </trkpt>
      <trkpt lat="45.86356" lon="4.80587">
        <ele>353</ele>
        <time>2014-10-26T08:47:13Z</time>
      </trkpt>
      <trkpt lat="45.86359" lon="4.80588">
        <ele>353</ele>
        <time>2014-10-26T08:47:15Z</time>
      </trkpt>
      <trkpt lat="45.86369" lon="4.80585">
        <ele>355</ele>
        <time>2014-10-26T08:47:21Z</time>
      </trkpt>
      <trkpt lat="45.86373" lon="4.80587">
        <ele>355</ele>
        <time>2014-10-26T08:47:26Z</time>
      </trkpt>
      <trkpt lat="45.86374" lon="4.80588">
        <ele>355</ele>
        <time>2014-10-26T08:47:27Z</time>
      </trkpt>
      <trkpt lat="45.86375" lon="4.80589">
        <ele>355</ele>
        <time>2014-10-26T08:47:28Z</time>
      </trkpt>
      <trkpt lat="45.86378" lon="4.80593">
        <ele>356</ele>
        <time>2014-10-26T08:47:32Z</time>
      </trkpt>
      <trkpt lat="45.86379" lon="4.80596">
        <ele>356</ele>
        <time>2014-10-26T08:47:35Z</time>
      </trkpt>
      <trkpt lat="45.86379" lon="4.80598">
        <ele>356</ele>
        <time>2014-10-26T08:47:37Z</time>
      </trkpt>
      <trkpt lat="45.86381" lon="4.80601">
        <ele>356</ele>
        <time>2014-10-26T08:47:40Z</time>
      </trkpt>
      <trkpt lat="45.86385" lon="4.80607">
        <ele>356</ele>
        <time>2014-10-26T08:47:43Z</time>
      </trkpt>
      <trkpt lat="45.86385" lon="4.80609">
        <ele>356</ele>
        <time>2014-10-26T08:47:44Z</time>
      </trkpt>
      <trkpt lat="45.86386" lon="4.8061">
        <ele>356</ele>
        <time>2014-10-26T08:47:45Z</time>
      </trkpt>
      <trkpt lat="45.8639" lon="4.80614">
        <ele>356</ele>
        <time>2014-10-26T08:47:49Z</time>
      </trkpt>
      <trkpt lat="45.86392" lon="4.80618">
        <ele>356</ele>
        <time>2014-10-26T08:47:52Z</time>
      </trkpt>
      <trkpt lat="45.86394" lon="4.80621">
        <ele>355</ele>
        <time>2014-10-26T08:47:54Z</time>
      </trkpt>
      <trkpt lat="45.86396" lon="4.80628">
        <ele>355</ele>
        <time>2014-10-26T08:47:59Z</time>
      </trkpt>
      <trkpt lat="45.86396" lon="4.8063">
        <ele>355</ele>
        <time>2014-10-26T08:48:00Z</time>
      </trkpt>
      <trkpt lat="45.86399" lon="4.80635">
        <ele>355</ele>
        <time>2014-10-26T08:48:03Z</time>
      </trkpt>
      <trkpt lat="45.864" lon="4.80636">
        <ele>355</ele>
        <time>2014-10-26T08:48:04Z</time>
      </trkpt>
      <trkpt lat="45.86404" lon="4.80637">
        <ele>355</ele>
        <time>2014-10-26T08:48:08Z</time>
      </trkpt>
      <trkpt lat="45.86407" lon="4.80639">
        <ele>355</ele>
        <time>2014-10-26T08:48:11Z</time>
      </trkpt>
      <trkpt lat="45.86409" lon="4.80641">
        <ele>355</ele>
        <time>2014-10-26T08:48:16Z</time>
      </trkpt>
      <trkpt lat="45.8641" lon="4.80638">
        <ele>355</ele>
        <time>2014-10-26T08:48:22Z</time>
      </trkpt>
      <trkpt lat="45.8641" lon="4.80637">
        <ele>355</ele>
        <time>2014-10-26T08:48:24Z</time>
      </trkpt>
      <trkpt lat="45.86409" lon="4.80632">
        <ele>356</ele>
        <time>2014-10-26T08:48:28Z</time>
      </trkpt>
      <trkpt lat="45.86406" lon="4.80619">
        <ele>356</ele>
        <time>2014-10-26T08:48:36Z</time>
      </trkpt>
      <trkpt lat="45.86404" lon="4.80612">
        <ele>357</ele>
        <time>2014-10-26T08:48:41Z</time>
      </trkpt>
      <trkpt lat="45.86403" lon="4.80608">
        <ele>358</ele>
        <time>2014-10-26T08:48:43Z</time>
      </trkpt>
      <trkpt lat="45.864" lon="4.80597">
        <ele>359</ele>
        <time>2014-10-26T08:48:50Z</time>
      </trkpt>
      <trkpt lat="45.864" lon="4.80585">
        <ele>360</ele>
        <time>2014-10-26T08:48:57Z</time>
      </trkpt>
      <trkpt lat="45.86399" lon="4.80584">
        <ele>360</ele>
        <time>2014-10-26T08:48:58Z</time>
      </trkpt>
      <trkpt lat="45.86399" lon="4.80582">
        <ele>365</ele>
        <time>2014-10-26T08:48:59Z</time>
      </trkpt>
      <trkpt lat="45.86397" lon="4.8057">
        <ele>365</ele>
        <time>2014-10-26T08:49:05Z</time>
      </trkpt>
      <trkpt lat="45.86396" lon="4.80567">
        <ele>365</ele>
        <time>2014-10-26T08:49:06Z</time>
      </trkpt>
      <trkpt lat="45.86395" lon="4.80561">
        <ele>365</ele>
        <time>2014-10-26T08:49:08Z</time>
      </trkpt>
      <trkpt lat="45.86393" lon="4.80555">
        <ele>366</ele>
        <time>2014-10-26T08:49:10Z</time>
      </trkpt>
      <trkpt lat="45.86392" lon="4.8054">
        <ele>367</ele>
        <time>2014-10-26T08:49:15Z</time>
      </trkpt>
      <trkpt lat="45.86391" lon="4.80535">
        <ele>367</ele>
        <time>2014-10-26T08:49:17Z</time>
      </trkpt>
      <trkpt lat="45.86388" lon="4.80528">
        <ele>368</ele>
        <time>2014-10-26T08:49:20Z</time>
      </trkpt>
      <trkpt lat="45.86384" lon="4.80512">
        <ele>368</ele>
        <time>2014-10-26T08:49:26Z</time>
      </trkpt>
      <trkpt lat="45.86381" lon="4.80509">
        <ele>368</ele>
        <time>2014-10-26T08:49:27Z</time>
      </trkpt>
      <trkpt lat="45.86375" lon="4.80498">
        <ele>377</ele>
        <time>2014-10-26T08:49:31Z</time>
      </trkpt>
      <trkpt lat="45.86375" lon="4.80499">
        <ele>377</ele>
        <time>2014-10-26T08:49:32Z</time>
      </trkpt>
      <trkpt lat="45.86375" lon="4.80502">
        <ele>367</ele>
        <time>2014-10-26T08:49:35Z</time>
      </trkpt>
      <trkpt lat="45.86372" lon="4.80497">
        <ele>376</ele>
        <time>2014-10-26T08:49:45Z</time>
      </trkpt>
      <trkpt lat="45.86371" lon="4.80495">
        <ele>376</ele>
        <time>2014-10-26T08:49:46Z</time>
      </trkpt>
      <trkpt lat="45.86368" lon="4.80488">
        <ele>376</ele>
        <time>2014-10-26T08:49:50Z</time>
      </trkpt>
      <trkpt lat="45.86366" lon="4.80485">
        <ele>376</ele>
        <time>2014-10-26T08:49:52Z</time>
      </trkpt>
      <trkpt lat="45.86364" lon="4.80479">
        <ele>376</ele>
        <time>2014-10-26T08:49:54Z</time>
      </trkpt>
      <trkpt lat="45.86362" lon="4.80472">
        <ele>377</ele>
        <time>2014-10-26T08:49:59Z</time>
      </trkpt>
      <trkpt lat="45.86361" lon="4.80468">
        <ele>377</ele>
        <time>2014-10-26T08:50:01Z</time>
      </trkpt>
      <trkpt lat="45.86358" lon="4.80452">
        <ele>379</ele>
        <time>2014-10-26T08:50:09Z</time>
      </trkpt>
      <trkpt lat="45.86356" lon="4.80446">
        <ele>379</ele>
        <time>2014-10-26T08:50:13Z</time>
      </trkpt>
      <trkpt lat="45.86354" lon="4.8044">
        <ele>379</ele>
        <time>2014-10-26T08:50:18Z</time>
      </trkpt>
      <trkpt lat="45.86354" lon="4.8044">
        <ele>379</ele>
        <time>2014-10-26T08:50:19Z</time>
      </trkpt>
      <trkpt lat="45.86353" lon="4.80438">
        <ele>380</ele>
        <time>2014-10-26T08:50:24Z</time>
      </trkpt>
      <trkpt lat="45.86351" lon="4.80429">
        <ele>380</ele>
        <time>2014-10-26T08:50:30Z</time>
      </trkpt>
      <trkpt lat="45.86349" lon="4.80423">
        <ele>380</ele>
        <time>2014-10-26T08:50:33Z</time>
      </trkpt>
      <trkpt lat="45.86347" lon="4.80415">
        <ele>386</ele>
        <time>2014-10-26T08:50:38Z</time>
      </trkpt>
      <trkpt lat="45.86343" lon="4.80401">
        <ele>387</ele>
        <time>2014-10-26T08:50:46Z</time>
      </trkpt>
      <trkpt lat="45.86343" lon="4.80399">
        <ele>388</ele>
        <time>2014-10-26T08:50:47Z</time>
      </trkpt>
      <trkpt lat="45.86338" lon="4.80389">
        <ele>389</ele>
        <time>2014-10-26T08:50:52Z</time>
      </trkpt>
      <trkpt lat="45.86332" lon="4.80375">
        <ele>384</ele>
        <time>2014-10-26T08:50:58Z</time>
      </trkpt>
      <trkpt lat="45.8633" lon="4.80363">
        <ele>385</ele>
        <time>2014-10-26T08:51:05Z</time>
      </trkpt>
      <trkpt lat="45.8633" lon="4.80362">
        <ele>386</ele>
        <time>2014-10-26T08:51:06Z</time>
      </trkpt>
      <trkpt lat="45.86329" lon="4.80354">
        <ele>387</ele>
        <time>2014-10-26T08:51:11Z</time>
      </trkpt>
      <trkpt lat="45.86327" lon="4.80347">
        <ele>388</ele>
        <time>2014-10-26T08:51:14Z</time>
      </trkpt>
      <trkpt lat="45.86327" lon="4.80347">
        <ele>388</ele>
        <time>2014-10-26T08:51:15Z</time>
      </trkpt>
      <trkpt lat="45.86325" lon="4.80341">
        <ele>389</ele>
        <time>2014-10-26T08:51:19Z</time>
      </trkpt>
      <trkpt lat="45.86323" lon="4.80337">
        <ele>389</ele>
        <time>2014-10-26T08:51:22Z</time>
      </trkpt>
      <trkpt lat="45.86322" lon="4.80336">
        <ele>389</ele>
        <time>2014-10-26T08:51:28Z</time>
      </trkpt>
      <trkpt lat="45.8632" lon="4.80332">
        <ele>393</ele>
        <time>2014-10-26T08:51:34Z</time>
      </trkpt>
      <trkpt lat="45.86316" lon="4.80327">
        <ele>393</ele>
        <time>2014-10-26T08:51:39Z</time>
      </trkpt>
      <trkpt lat="45.86314" lon="4.80323">
        <ele>393</ele>
        <time>2014-10-26T08:51:41Z</time>
      </trkpt>
      <trkpt lat="45.86308" lon="4.8031">
        <ele>394</ele>
        <time>2014-10-26T08:51:47Z</time>
      </trkpt>
      <trkpt lat="45.86306" lon="4.80305">
        <ele>394</ele>
        <time>2014-10-26T08:51:52Z</time>
      </trkpt>
      <trkpt lat="45.86305" lon="4.80302">
        <ele>394</ele>
        <time>2014-10-26T08:51:55Z</time>
      </trkpt>
      <trkpt lat="45.86301" lon="4.80292">
        <ele>395</ele>
        <time>2014-10-26T08:52:03Z</time>
      </trkpt>
      <trkpt lat="45.86299" lon="4.80281">
        <ele>396</ele>
        <time>2014-10-26T08:52:10Z</time>
      </trkpt>
      <trkpt lat="45.86299" lon="4.80281">
        <ele>396</ele>
        <time>2014-10-26T08:52:11Z</time>
      </trkpt>
      <trkpt lat="45.86296" lon="4.8027">
        <ele>397</ele>
        <time>2014-10-26T08:52:16Z</time>
      </trkpt>
      <trkpt lat="45.86295" lon="4.80262">
        <ele>397</ele>
        <time>2014-10-26T08:52:22Z</time>
      </trkpt>
      <trkpt lat="45.86295" lon="4.80258">
        <ele>397</ele>
        <time>2014-10-26T08:52:23Z</time>
      </trkpt>
      <trkpt lat="45.86295" lon="4.80255">
        <ele>397</ele>
        <time>2014-10-26T08:52:26Z</time>
      </trkpt>
      <trkpt lat="45.86294" lon="4.8025">
        <ele>405</ele>
        <time>2014-10-26T08:52:29Z</time>
      </trkpt>
      <trkpt lat="45.86291" lon="4.80237">
        <ele>405</ele>
        <time>2014-10-26T08:52:35Z</time>
      </trkpt>
      <trkpt lat="45.8629" lon="4.80227">
        <ele>405</ele>
        <time>2014-10-26T08:52:40Z</time>
      </trkpt>
      <trkpt lat="45.86289" lon="4.80224">
        <ele>405</ele>
        <time>2014-10-26T08:52:42Z</time>
      </trkpt>
      <trkpt lat="45.86285" lon="4.80213">
        <ele>406</ele>
        <time>2014-10-26T08:52:48Z</time>
      </trkpt>
      <trkpt lat="45.86285" lon="4.80212">
        <ele>406</ele>
        <time>2014-10-26T08:52:49Z</time>
      </trkpt>
      <trkpt lat="45.8628" lon="4.80206">
        <ele>406</ele>
        <time>2014-10-26T08:52:53Z</time>
      </trkpt>
      <trkpt lat="45.86279" lon="4.80205">
        <ele>406</ele>
        <time>2014-10-26T08:52:54Z</time>
      </trkpt>
      <trkpt lat="45.86276" lon="4.80202">
        <ele>406</ele>
        <time>2014-10-26T08:52:57Z</time>
      </trkpt>
      <trkpt lat="45.86273" lon="4.80198">
        <ele>406</ele>
        <time>2014-10-26T08:53:00Z</time>
      </trkpt>
      <trkpt lat="45.86273" lon="4.80198">
        <ele>406</ele>
        <time>2014-10-26T08:53:01Z</time>
      </trkpt>
      <trkpt lat="45.86267" lon="4.80187">
        <ele>407</ele>
        <time>2014-10-26T08:53:08Z</time>
      </trkpt>
      <trkpt lat="45.86267" lon="4.80178">
        <ele>407</ele>
        <time>2014-10-26T08:53:16Z</time>
      </trkpt>
      <trkpt lat="45.86267" lon="4.80177">
        <ele>407</ele>
        <time>2014-10-26T08:53:17Z</time>
      </trkpt>
      <trkpt lat="45.86266" lon="4.80171">
        <ele>407</ele>
        <time>2014-10-26T08:53:21Z</time>
      </trkpt>
      <trkpt lat="45.86266" lon="4.8017">
        <ele>408</ele>
        <time>2014-10-26T08:53:22Z</time>
      </trkpt>
      <trkpt lat="45.86266" lon="4.80168">
        <ele>408</ele>
        <time>2014-10-26T08:53:23Z</time>
      </trkpt>
      <trkpt lat="45.86264" lon="4.80159">
        <ele>412</ele>
        <time>2014-10-26T08:53:28Z</time>
      </trkpt>
      <trkpt lat="45.86263" lon="4.80155">
        <ele>412</ele>
        <time>2014-10-26T08:53:31Z</time>
      </trkpt>
      <trkpt lat="45.86261" lon="4.80148">
        <ele>413</ele>
        <time>2014-10-26T08:53:34Z</time>
      </trkpt>
      <trkpt lat="45.86261" lon="4.80148">
        <ele>413</ele>
        <time>2014-10-26T08:53:35Z</time>
      </trkpt>
      <trkpt lat="45.86261" lon="4.80144">
        <ele>413</ele>
        <time>2014-10-26T08:53:36Z</time>
      </trkpt>
      <trkpt lat="45.86258" lon="4.80137">
        <ele>414</ele>
        <time>2014-10-26T08:53:40Z</time>
      </trkpt>
      <trkpt lat="45.86257" lon="4.80133">
        <ele>414</ele>
        <time>2014-10-26T08:53:42Z</time>
      </trkpt>
      <trkpt lat="45.86256" lon="4.80128">
        <ele>415</ele>
        <time>2014-10-26T08:53:45Z</time>
      </trkpt>
      <trkpt lat="45.86256" lon="4.80125">
        <ele>415</ele>
        <time>2014-10-26T08:53:47Z</time>
      </trkpt>
      <trkpt lat="45.86256" lon="4.80125">
        <ele>415</ele>
        <time>2014-10-26T08:53:48Z</time>
      </trkpt>
      <trkpt lat="45.86256" lon="4.80123">
        <ele>415</ele>
        <time>2014-10-26T08:53:50Z</time>
      </trkpt>
      <trkpt lat="45.86254" lon="4.80115">
        <ele>416</ele>
        <time>2014-10-26T08:53:55Z</time>
      </trkpt>
      <trkpt lat="45.86252" lon="4.80112">
        <ele>416</ele>
        <time>2014-10-26T08:53:57Z</time>
      </trkpt>
      <trkpt lat="45.86251" lon="4.80107">
        <ele>417</ele>
        <time>2014-10-26T08:54:00Z</time>
      </trkpt>
      <trkpt lat="45.8625" lon="4.80106">
        <ele>416</ele>
        <time>2014-10-26T08:54:01Z</time>
      </trkpt>
      <trkpt lat="45.86249" lon="4.80101">
        <ele>416</ele>
        <time>2014-10-26T08:54:04Z</time>
      </trkpt>
      <trkpt lat="45.86246" lon="4.80095">
        <ele>417</ele>
        <time>2014-10-26T08:54:08Z</time>
      </trkpt>
      <trkpt lat="45.86247" lon="4.80092">
        <ele>418</ele>
        <time>2014-10-26T08:54:11Z</time>
      </trkpt>
      <trkpt lat="45.86247" lon="4.80089">
        <ele>418</ele>
        <time>2014-10-26T08:54:14Z</time>
      </trkpt>
      <trkpt lat="45.86247" lon="4.80087">
        <ele>418</ele>
        <time>2014-10-26T08:54:16Z</time>
      </trkpt>
      <trkpt lat="45.86246" lon="4.80084">
        <ele>418</ele>
        <time>2014-10-26T08:54:18Z</time>
      </trkpt>
      <trkpt lat="45.86246" lon="4.80083">
        <ele>420</ele>
        <time>2014-10-26T08:54:19Z</time>
      </trkpt>
      <trkpt lat="45.86244" lon="4.80071">
        <ele>422</ele>
        <time>2014-10-26T08:54:26Z</time>
      </trkpt>
      <trkpt lat="45.86243" lon="4.80065">
        <ele>422</ele>
        <time>2014-10-26T08:54:28Z</time>
      </trkpt>
      <trkpt lat="45.86241" lon="4.80057">
        <ele>423</ele>
        <time>2014-10-26T08:54:31Z</time>
      </trkpt>
      <trkpt lat="45.8624" lon="4.80053">
        <ele>424</ele>
        <time>2014-10-26T08:54:33Z</time>
      </trkpt>
      <trkpt lat="45.8624" lon="4.80041">
        <ele>425</ele>
        <time>2014-10-26T08:54:39Z</time>
      </trkpt>
      <trkpt lat="45.86241" lon="4.80037">
        <ele>425</ele>
        <time>2014-10-26T08:54:41Z</time>
      </trkpt>
      <trkpt lat="45.86242" lon="4.80031">
        <ele>425</ele>
        <time>2014-10-26T08:54:44Z</time>
      </trkpt>
      <trkpt lat="45.86242" lon="4.80027">
        <ele>426</ele>
        <time>2014-10-26T08:54:47Z</time>
      </trkpt>
      <trkpt lat="45.86241" lon="4.80014">
        <ele>427</ele>
        <time>2014-10-26T08:54:55Z</time>
      </trkpt>
      <trkpt lat="45.86238" lon="4.80007">
        <ele>427</ele>
        <time>2014-10-26T08:55:00Z</time>
      </trkpt>
      <trkpt lat="45.86238" lon="4.80006">
        <ele>427</ele>
        <time>2014-10-26T08:55:01Z</time>
      </trkpt>
      <trkpt lat="45.86238" lon="4.80002">
        <ele>427</ele>
        <time>2014-10-26T08:55:05Z</time>
      </trkpt>
      <trkpt lat="45.86236" lon="4.8">
        <ele>427</ele>
        <time>2014-10-26T08:55:07Z</time>
      </trkpt>
      <trkpt lat="45.86235" lon="4.79996">
        <ele>432</ele>
        <time>2014-10-26T08:55:11Z</time>
      </trkpt>
      <trkpt lat="45.86234" lon="4.79993">
        <ele>432</ele>
        <time>2014-10-26T08:55:14Z</time>
      </trkpt>
      <trkpt lat="45.86228" lon="4.79987">
        <ele>433</ele>
        <time>2014-10-26T08:55:20Z</time>
      </trkpt>
      <trkpt lat="45.86226" lon="4.79986">
        <ele>433</ele>
        <time>2014-10-26T08:55:22Z</time>
      </trkpt>
      <trkpt lat="45.86223" lon="4.79985">
        <ele>434</ele>
        <time>2014-10-26T08:55:25Z</time>
      </trkpt>
      <trkpt lat="45.86214" lon="4.79978">
        <ele>435</ele>
        <time>2014-10-26T08:55:34Z</time>
      </trkpt>
      <trkpt lat="45.86212" lon="4.79975">
        <ele>435</ele>
        <time>2014-10-26T08:55:37Z</time>
      </trkpt>
      <trkpt lat="45.86211" lon="4.79974">
        <ele>435</ele>
        <time>2014-10-26T08:55:38Z</time>
      </trkpt>
      <trkpt lat="45.86211" lon="4.79969">
        <ele>435</ele>
        <time>2014-10-26T08:55:41Z</time>
      </trkpt>
      <trkpt lat="45.8621" lon="4.79964">
        <ele>436</ele>
        <time>2014-10-26T08:55:43Z</time>
      </trkpt>
      <trkpt lat="45.86212" lon="4.79949">
        <ele>437</ele>
        <time>2014-10-26T08:55:50Z</time>
      </trkpt>
      <trkpt lat="45.86213" lon="4.79941">
        <ele>437</ele>
        <time>2014-10-26T08:55:54Z</time>
      </trkpt>
      <trkpt lat="45.86213" lon="4.79939">
        <ele>438</ele>
        <time>2014-10-26T08:55:55Z</time>
      </trkpt>
      <trkpt lat="45.86214" lon="4.79936">
        <ele>438</ele>
        <time>2014-10-26T08:55:57Z</time>
      </trkpt>
      <trkpt lat="45.86218" lon="4.79921">
        <ele>438</ele>
        <time>2014-10-26T08:56:05Z</time>
      </trkpt>
      <trkpt lat="45.86219" lon="4.79916">
        <ele>446</ele>
        <time>2014-10-26T08:56:08Z</time>
      </trkpt>
      <trkpt lat="45.8622" lon="4.79913">
        <ele>446</ele>
        <time>2014-10-26T08:56:10Z</time>
      </trkpt>
      <trkpt lat="45.86224" lon="4.79912">
        <ele>446</ele>
        <time>2014-10-26T08:56:12Z</time>
      </trkpt>
      <trkpt lat="45.86236" lon="4.79908">
        <ele>445</ele>
        <time>2014-10-26T08:56:17Z</time>
      </trkpt>
      <trkpt lat="45.86238" lon="4.79907">
        <ele>444</ele>
        <time>2014-10-26T08:56:18Z</time>
      </trkpt>
      <trkpt lat="45.8625" lon="4.79899">
        <ele>444</ele>
        <time>2014-10-26T08:56:24Z</time>
      </trkpt>
      <trkpt lat="45.86254" lon="4.79894">
        <ele>444</ele>
        <time>2014-10-26T08:56:26Z</time>
      </trkpt>
      <trkpt lat="45.8626" lon="4.7989">
        <ele>445</ele>
        <time>2014-10-26T08:56:29Z</time>
      </trkpt>
      <trkpt lat="45.86271" lon="4.79882">
        <ele>446</ele>
        <time>2014-10-26T08:56:34Z</time>
      </trkpt>
      <trkpt lat="45.86272" lon="4.79881">
        <ele>446</ele>
        <time>2014-10-26T08:56:35Z</time>
      </trkpt>
      <trkpt lat="45.86278" lon="4.79873">
        <ele>446</ele>
        <time>2014-10-26T08:56:38Z</time>
      </trkpt>
      <trkpt lat="45.86288" lon="4.79866">
        <ele>447</ele>
        <time>2014-10-26T08:56:42Z</time>
      </trkpt>
      <trkpt lat="45.863" lon="4.79859">
        <ele>447</ele>
        <time>2014-10-26T08:56:47Z</time>
      </trkpt>
      <trkpt lat="45.86305" lon="4.79859">
        <ele>447</ele>
        <time>2014-10-26T08:56:49Z</time>
      </trkpt>
      <trkpt lat="45.8631" lon="4.79858">
        <ele>447</ele>
        <time>2014-10-26T08:56:51Z</time>
      </trkpt>
      <trkpt lat="45.86321" lon="4.79855">
        <ele>447</ele>
        <time>2014-10-26T08:56:56Z</time>
      </trkpt>
      <trkpt lat="45.86324" lon="4.79854">
        <ele>447</ele>
        <time>2014-10-26T08:56:57Z</time>
      </trkpt>
      <trkpt lat="45.86328" lon="4.79851">
        <ele>447</ele>
        <time>2014-10-26T08:57:01Z</time>
      </trkpt>
      <trkpt lat="45.86329" lon="4.79852">
        <ele>447</ele>
        <time>2014-10-26T08:57:07Z</time>
      </trkpt>
      <trkpt lat="45.86327" lon="4.79849">
        <ele>447</ele>
        <time>2014-10-26T08:57:12Z</time>
      </trkpt>
      <trkpt lat="45.86329" lon="4.79851">
        <ele>447</ele>
        <time>2014-10-26T08:57:19Z</time>
      </trkpt>
      <trkpt lat="45.86333" lon="4.79853">
        <ele>447</ele>
        <time>2014-10-26T08:57:22Z</time>
      </trkpt>
      <trkpt lat="45.86337" lon="4.79854">
        <ele>447</ele>
        <time>2014-10-26T08:57:24Z</time>
      </trkpt>
      <trkpt lat="45.86337" lon="4.79856">
        <ele>446</ele>
        <time>2014-10-26T08:57:26Z</time>
      </trkpt>
      <trkpt lat="45.86336" lon="4.79857">
        <ele>446</ele>
        <time>2014-10-26T08:57:27Z</time>
      </trkpt>
      <trkpt lat="45.86336" lon="4.79858">
        <ele>446</ele>
        <time>2014-10-26T08:57:28Z</time>
      </trkpt>
      <trkpt lat="45.86339" lon="4.79861">
        <ele>446</ele>
        <time>2014-10-26T08:57:31Z</time>
      </trkpt>
      <trkpt lat="45.86347" lon="4.7986">
        <ele>446</ele>
        <time>2014-10-26T08:57:34Z</time>
      </trkpt>
      <trkpt lat="45.8635" lon="4.7986">
        <ele>446</ele>
        <time>2014-10-26T08:57:35Z</time>
      </trkpt>
      <trkpt lat="45.86353" lon="4.7986">
        <ele>446</ele>
        <time>2014-10-26T08:57:36Z</time>
      </trkpt>
      <trkpt lat="45.86371" lon="4.7986">
        <ele>446</ele>
        <time>2014-10-26T08:57:42Z</time>
      </trkpt>
      <trkpt lat="45.86386" lon="4.79862">
        <ele>447</ele>
        <time>2014-10-26T08:57:48Z</time>
      </trkpt>
      <trkpt lat="45.86392" lon="4.79863">
        <ele>447</ele>
        <time>2014-10-26T08:57:50Z</time>
      </trkpt>
      <trkpt lat="45.86402" lon="4.79867">
        <ele>447</ele>
        <time>2014-10-26T08:57:54Z</time>
      </trkpt>
      <trkpt lat="45.86409" lon="4.79871">
        <ele>447</ele>
        <time>2014-10-26T08:57:57Z</time>
      </trkpt>
      <trkpt lat="45.86418" lon="4.79875">
        <ele>449</ele>
        <time>2014-10-26T08:58:00Z</time>
      </trkpt>
      <trkpt lat="45.86429" lon="4.79881">
        <ele>449</ele>
        <time>2014-10-26T08:58:04Z</time>
      </trkpt>
      <trkpt lat="45.8644" lon="4.79887">
        <ele>448</ele>
        <time>2014-10-26T08:58:08Z</time>
      </trkpt>
      <trkpt lat="45.86448" lon="4.79891">
        <ele>449</ele>
        <time>2014-10-26T08:58:11Z</time>
      </trkpt>
      <trkpt lat="45.86457" lon="4.79895">
        <ele>449</ele>
        <time>2014-10-26T08:58:14Z</time>
      </trkpt>
      <trkpt lat="45.86466" lon="4.79899">
        <ele>449</ele>
        <time>2014-10-26T08:58:18Z</time>
      </trkpt>
      <trkpt lat="45.86471" lon="4.79901">
        <ele>449</ele>
        <time>2014-10-26T08:58:20Z</time>
      </trkpt>
      <trkpt lat="45.86485" lon="4.79906">
        <ele>448</ele>
        <time>2014-10-26T08:58:25Z</time>
      </trkpt>
      <trkpt lat="45.86495" lon="4.7991">
        <ele>448</ele>
        <time>2014-10-26T08:58:29Z</time>
      </trkpt>
      <trkpt lat="45.86504" lon="4.79914">
        <ele>448</ele>
        <time>2014-10-26T08:58:33Z</time>
      </trkpt>
      <trkpt lat="45.86508" lon="4.79915">
        <ele>449</ele>
        <time>2014-10-26T08:58:35Z</time>
      </trkpt>
      <trkpt lat="45.86522" lon="4.79915">
        <ele>450</ele>
        <time>2014-10-26T08:58:41Z</time>
      </trkpt>
      <trkpt lat="45.86524" lon="4.79915">
        <ele>450</ele>
        <time>2014-10-26T08:58:42Z</time>
      </trkpt>
      <trkpt lat="45.86536" lon="4.79914">
        <ele>451</ele>
        <time>2014-10-26T08:58:47Z</time>
      </trkpt>
      <trkpt lat="45.86541" lon="4.79914">
        <ele>451</ele>
        <time>2014-10-26T08:58:49Z</time>
      </trkpt>
      <trkpt lat="45.86551" lon="4.79912">
        <ele>451</ele>
        <time>2014-10-26T08:58:54Z</time>
      </trkpt>
      <trkpt lat="45.8656" lon="4.7991">
        <ele>451</ele>
        <time>2014-10-26T08:58:58Z</time>
      </trkpt>
      <trkpt lat="45.86566" lon="4.79908">
        <ele>451</ele>
        <time>2014-10-26T08:59:01Z</time>
      </trkpt>
      <trkpt lat="45.86572" lon="4.79909">
        <ele>450</ele>
        <time>2014-10-26T08:59:04Z</time>
      </trkpt>
      <trkpt lat="45.86576" lon="4.79912">
        <ele>450</ele>
        <time>2014-10-26T08:59:07Z</time>
      </trkpt>
      <trkpt lat="45.86578" lon="4.79912">
        <ele>450</ele>
        <time>2014-10-26T08:59:08Z</time>
      </trkpt>
      <trkpt lat="45.86579" lon="4.79913">
        <ele>450</ele>
        <time>2014-10-26T08:59:09Z</time>
      </trkpt>
      <trkpt lat="45.86585" lon="4.79917">
        <ele>449</ele>
        <time>2014-10-26T08:59:12Z</time>
      </trkpt>
      <trkpt lat="45.86588" lon="4.79918">
        <ele>448</ele>
        <time>2014-10-26T08:59:13Z</time>
      </trkpt>
      <trkpt lat="45.86595" lon="4.79923">
        <ele>447</ele>
        <time>2014-10-26T08:59:16Z</time>
      </trkpt>
      <trkpt lat="45.86597" lon="4.79924">
        <ele>447</ele>
        <time>2014-10-26T08:59:17Z</time>
      </trkpt>
      <trkpt lat="45.86612" lon="4.79932">
        <ele>446</ele>
        <time>2014-10-26T08:59:22Z</time>
      </trkpt>
      <trkpt lat="45.86614" lon="4.79933">
        <ele>446</ele>
        <time>2014-10-26T08:59:23Z</time>
      </trkpt>
      <trkpt lat="45.86628" lon="4.79941">
        <ele>445</ele>
        <time>2014-10-26T08:59:28Z</time>
      </trkpt>
      <trkpt lat="45.86633" lon="4.79944">
        <ele>445</ele>
        <time>2014-10-26T08:59:30Z</time>
      </trkpt>
      <trkpt lat="45.86643" lon="4.79952">
        <ele>445</ele>
        <time>2014-10-26T08:59:34Z</time>
      </trkpt>
      <trkpt lat="45.86649" lon="4.79957">
        <ele>445</ele>
        <time>2014-10-26T08:59:37Z</time>
      </trkpt>
      <trkpt lat="45.86657" lon="4.79965">
        <ele>445</ele>
        <time>2014-10-26T08:59:41Z</time>
      </trkpt>
      <trkpt lat="45.86663" lon="4.79974">
        <ele>445</ele>
        <time>2014-10-26T08:59:45Z</time>
      </trkpt>
      <trkpt lat="45.86667" lon="4.79979">
        <ele>442</ele>
        <time>2014-10-26T08:59:47Z</time>
      </trkpt>
      <trkpt lat="45.86674" lon="4.79991">
        <ele>443</ele>
        <time>2014-10-26T08:59:52Z</time>
      </trkpt>
      <trkpt lat="45.86676" lon="4.79996">
        <ele>443</ele>
        <time>2014-10-26T08:59:54Z</time>
      </trkpt>
      <trkpt lat="45.86679" lon="4.80003">
        <ele>446</ele>
        <time>2014-10-26T08:59:57Z</time>
      </trkpt>
      <trkpt lat="45.86683" lon="4.80007">
        <ele>446</ele>
        <time>2014-10-26T08:59:59Z</time>
      </trkpt>
      <trkpt lat="45.86687" lon="4.80008">
        <ele>445</ele>
        <time>2014-10-26T09:00:01Z</time>
      </trkpt>
      <trkpt lat="45.86691" lon="4.80009">
        <ele>445</ele>
        <time>2014-10-26T09:00:03Z</time>
      </trkpt>
      <trkpt lat="45.86695" lon="4.80012">
        <ele>445</ele>
        <time>2014-10-26T09:00:05Z</time>
      </trkpt>
      <trkpt lat="45.86699" lon="4.80016">
        <ele>445</ele>
        <time>2014-10-26T09:00:07Z</time>
      </trkpt>
      <trkpt lat="45.86707" lon="4.80025">
        <ele>445</ele>
        <time>2014-10-26T09:00:12Z</time>
      </trkpt>
      <trkpt lat="45.86715" lon="4.80045">
        <ele>446</ele>
        <time>2014-10-26T09:00:18Z</time>
      </trkpt>
      <trkpt lat="45.86715" lon="4.80049">
        <ele>446</ele>
        <time>2014-10-26T09:00:20Z</time>
      </trkpt>
      <trkpt lat="45.86715" lon="4.80052">
        <ele>446</ele>
        <time>2014-10-26T09:00:21Z</time>
      </trkpt>
      <trkpt lat="45.86717" lon="4.80059">
        <ele>447</ele>
        <time>2014-10-26T09:00:23Z</time>
      </trkpt>
      <trkpt lat="45.8672" lon="4.80073">
        <ele>447</ele>
        <time>2014-10-26T09:00:28Z</time>
      </trkpt>
      <trkpt lat="45.86721" lon="4.80076">
        <ele>448</ele>
        <time>2014-10-26T09:00:29Z</time>
      </trkpt>
      <trkpt lat="45.86721" lon="4.80078">
        <ele>448</ele>
        <time>2014-10-26T09:00:30Z</time>
      </trkpt>
      <trkpt lat="45.86723" lon="4.80088">
        <ele>449</ele>
        <time>2014-10-26T09:00:33Z</time>
      </trkpt>
      <trkpt lat="45.86723" lon="4.80093">
        <ele>449</ele>
        <time>2014-10-26T09:00:35Z</time>
      </trkpt>
      <trkpt lat="45.86724" lon="4.801">
        <ele>448</ele>
        <time>2014-10-26T09:00:38Z</time>
      </trkpt>
      <trkpt lat="45.86724" lon="4.80102">
        <ele>448</ele>
        <time>2014-10-26T09:00:39Z</time>
      </trkpt>
      <trkpt lat="45.86726" lon="4.80111">
        <ele>448</ele>
        <time>2014-10-26T09:00:42Z</time>
      </trkpt>
      <trkpt lat="45.86728" lon="4.80119">
        <ele>448</ele>
        <time>2014-10-26T09:00:46Z</time>
      </trkpt>
      <trkpt lat="45.86729" lon="4.80123">
        <ele>448</ele>
        <time>2014-10-26T09:00:48Z</time>
      </trkpt>
      <trkpt lat="45.86731" lon="4.8013">
        <ele>448</ele>
        <time>2014-10-26T09:00:51Z</time>
      </trkpt>
      <trkpt lat="45.86735" lon="4.80137">
        <ele>449</ele>
        <time>2014-10-26T09:00:54Z</time>
      </trkpt>
      <trkpt lat="45.86742" lon="4.80143">
        <ele>450</ele>
        <time>2014-10-26T09:01:00Z</time>
      </trkpt>
      <trkpt lat="45.86744" lon="4.80144">
        <ele>450</ele>
        <time>2014-10-26T09:01:02Z</time>
      </trkpt>
      <trkpt lat="45.86746" lon="4.80143">
        <ele>450</ele>
        <time>2014-10-26T09:01:04Z</time>
      </trkpt>
      <trkpt lat="45.86748" lon="4.80142">
        <ele>450</ele>
        <time>2014-10-26T09:01:05Z</time>
      </trkpt>
      <trkpt lat="45.86749" lon="4.80142">
        <ele>450</ele>
        <time>2014-10-26T09:01:06Z</time>
      </trkpt>
      <trkpt lat="45.86754" lon="4.80136">
        <ele>450</ele>
        <time>2014-10-26T09:01:11Z</time>
      </trkpt>
      <trkpt lat="45.86754" lon="4.80136">
        <ele>449</ele>
        <time>2014-10-26T09:01:12Z</time>
      </trkpt>
      <trkpt lat="45.86756" lon="4.80137">
        <ele>449</ele>
        <time>2014-10-26T09:01:17Z</time>
      </trkpt>
      <trkpt lat="45.86757" lon="4.80136">
        <ele>449</ele>
        <time>2014-10-26T09:01:39Z</time>
      </trkpt>
      <trkpt lat="45.86761" lon="4.80143">
        <ele>450</ele>
        <time>2014-10-26T09:01:56Z</time>
      </trkpt>
      <trkpt lat="45.86761" lon="4.80144">
        <ele>450</ele>
        <time>2014-10-26T09:01:57Z</time>
      </trkpt>
      <trkpt lat="45.8676" lon="4.80144">
        <ele>450</ele>
        <time>2014-10-26T09:02:02Z</time>
      </trkpt>
      <trkpt lat="45.86759" lon="4.80142">
        <ele>450</ele>
        <time>2014-10-26T09:02:03Z</time>
      </trkpt>
      <trkpt lat="45.86758" lon="4.80139">
        <ele>449</ele>
        <time>2014-10-26T09:02:06Z</time>
      </trkpt>
      <trkpt lat="45.86759" lon="4.80142">
        <ele>450</ele>
        <time>2014-10-26T09:02:11Z</time>
      </trkpt>
      <trkpt lat="45.86763" lon="4.80141">
        <ele>449</ele>
        <time>2014-10-26T09:02:17Z</time>
      </trkpt>
      <trkpt lat="45.86766" lon="4.80135">
        <ele>449</ele>
        <time>2014-10-26T09:02:22Z</time>
      </trkpt>
      <trkpt lat="45.86766" lon="4.80134">
        <ele>449</ele>
        <time>2014-10-26T09:02:23Z</time>
      </trkpt>
      <trkpt lat="45.86766" lon="4.8013">
        <ele>449</ele>
        <time>2014-10-26T09:02:29Z</time>
      </trkpt>
      <trkpt lat="45.86769" lon="4.80125">
        <ele>448</ele>
        <time>2014-10-26T09:02:35Z</time>
      </trkpt>
      <trkpt lat="45.86773" lon="4.80123">
        <ele>448</ele>
        <time>2014-10-26T09:02:42Z</time>
      </trkpt>
      <trkpt lat="45.86767" lon="4.80127">
        <ele>448</ele>
        <time>2014-10-26T09:02:52Z</time>
      </trkpt>
      <trkpt lat="45.86766" lon="4.80128">
        <ele>449</ele>
        <time>2014-10-26T09:02:53Z</time>
      </trkpt>
      <trkpt lat="45.86761" lon="4.80132">
        <ele>449</ele>
        <time>2014-10-26T09:02:58Z</time>
      </trkpt>
      <trkpt lat="45.86757" lon="4.80136">
        <ele>449</ele>
        <time>2014-10-26T09:03:02Z</time>
      </trkpt>
      <trkpt lat="45.86757" lon="4.80138">
        <ele>449</ele>
        <time>2014-10-26T09:03:05Z</time>
      </trkpt>
      <trkpt lat="45.86758" lon="4.80142">
        <ele>450</ele>
        <time>2014-10-26T09:03:10Z</time>
      </trkpt>
      <trkpt lat="45.8676" lon="4.80147">
        <ele>450</ele>
        <time>2014-10-26T09:03:13Z</time>
      </trkpt>
      <trkpt lat="45.86763" lon="4.80154">
        <ele>450</ele>
        <time>2014-10-26T09:03:18Z</time>
      </trkpt>
      <trkpt lat="45.86764" lon="4.80155">
        <ele>450</ele>
        <time>2014-10-26T09:03:26Z</time>
      </trkpt>
      <trkpt lat="45.86766" lon="4.80151">
        <ele>450</ele>
        <time>2014-10-26T09:03:41Z</time>
      </trkpt>
      <trkpt lat="45.8677" lon="4.80155">
        <ele>450</ele>
        <time>2014-10-26T09:04:19Z</time>
      </trkpt>
      <trkpt lat="45.86772" lon="4.80158">
        <ele>450</ele>
        <time>2014-10-26T09:04:35Z</time>
      </trkpt>
      <trkpt lat="45.86773" lon="4.80159">
        <ele>450</ele>
        <time>2014-10-26T09:04:36Z</time>
      </trkpt>
      <trkpt lat="45.86776" lon="4.80162">
        <ele>449</ele>
        <time>2014-10-26T09:04:38Z</time>
      </trkpt>
      <trkpt lat="45.86779" lon="4.80168">
        <ele>451</ele>
        <time>2014-10-26T09:04:40Z</time>
      </trkpt>
      <trkpt lat="45.86784" lon="4.80179">
        <ele>450</ele>
        <time>2014-10-26T09:04:44Z</time>
      </trkpt>
      <trkpt lat="45.86788" lon="4.80185">
        <ele>450</ele>
        <time>2014-10-26T09:04:46Z</time>
      </trkpt>
      <trkpt lat="45.86793" lon="4.80205">
        <ele>449</ele>
        <time>2014-10-26T09:04:51Z</time>
      </trkpt>
      <trkpt lat="45.868" lon="4.80217">
        <ele>449</ele>
        <time>2014-10-26T09:04:55Z</time>
      </trkpt>
      <trkpt lat="45.86804" lon="4.80228">
        <ele>449</ele>
        <time>2014-10-26T09:04:59Z</time>
      </trkpt>
      <trkpt lat="45.86811" lon="4.80244">
        <ele>449</ele>
        <time>2014-10-26T09:05:04Z</time>
      </trkpt>
      <trkpt lat="45.86816" lon="4.8025">
        <ele>448</ele>
        <time>2014-10-26T09:05:07Z</time>
      </trkpt>
      <trkpt lat="45.8682" lon="4.80255">
        <ele>448</ele>
        <time>2014-10-26T09:05:10Z</time>
      </trkpt>
      <trkpt lat="45.86821" lon="4.8026">
        <ele>448</ele>
        <time>2014-10-26T09:05:12Z</time>
      </trkpt>
      <trkpt lat="45.8682" lon="4.80268">
        <ele>447</ele>
        <time>2014-10-26T09:05:15Z</time>
      </trkpt>
      <trkpt lat="45.86817" lon="4.80272">
        <ele>447</ele>
        <time>2014-10-26T09:05:17Z</time>
      </trkpt>
      <trkpt lat="45.86816" lon="4.80277">
        <ele>447</ele>
        <time>2014-10-26T09:05:19Z</time>
      </trkpt>
      <trkpt lat="45.8681" lon="4.80291">
        <ele>446</ele>
        <time>2014-10-26T09:05:25Z</time>
      </trkpt>
      <trkpt lat="45.86806" lon="4.80292">
        <ele>446</ele>
        <time>2014-10-26T09:05:27Z</time>
      </trkpt>
      <trkpt lat="45.86804" lon="4.80295">
        <ele>446</ele>
        <time>2014-10-26T09:05:29Z</time>
      </trkpt>
      <trkpt lat="45.868" lon="4.80304">
        <ele>445</ele>
        <time>2014-10-26T09:05:33Z</time>
      </trkpt>
      <trkpt lat="45.86798" lon="4.80306">
        <ele>445</ele>
        <time>2014-10-26T09:05:34Z</time>
      </trkpt>
      <trkpt lat="45.86795" lon="4.80311">
        <ele>445</ele>
        <time>2014-10-26T09:05:36Z</time>
      </trkpt>
      <trkpt lat="45.86793" lon="4.80312">
        <ele>445</ele>
        <time>2014-10-26T09:05:37Z</time>
      </trkpt>
      <trkpt lat="45.86791" lon="4.80314">
        <ele>445</ele>
        <time>2014-10-26T09:05:38Z</time>
      </trkpt>
      <trkpt lat="45.86787" lon="4.80325">
        <ele>444</ele>
        <time>2014-10-26T09:05:42Z</time>
      </trkpt>
      <trkpt lat="45.86791" lon="4.80337">
        <ele>438</ele>
        <time>2014-10-26T09:05:46Z</time>
      </trkpt>
      <trkpt lat="45.86792" lon="4.80341">
        <ele>438</ele>
        <time>2014-10-26T09:05:47Z</time>
      </trkpt>
      <trkpt lat="45.86793" lon="4.80344">
        <ele>438</ele>
        <time>2014-10-26T09:05:48Z</time>
      </trkpt>
      <trkpt lat="45.86798" lon="4.80357">
        <ele>437</ele>
        <time>2014-10-26T09:05:52Z</time>
      </trkpt>
      <trkpt lat="45.86799" lon="4.80362">
        <ele>437</ele>
        <time>2014-10-26T09:05:54Z</time>
      </trkpt>
      <trkpt lat="45.86797" lon="4.80368">
        <ele>436</ele>
        <time>2014-10-26T09:05:56Z</time>
      </trkpt>
      <trkpt lat="45.86795" lon="4.80369">
        <ele>436</ele>
        <time>2014-10-26T09:05:57Z</time>
      </trkpt>
      <trkpt lat="45.86793" lon="4.80377">
        <ele>435</ele>
        <time>2014-10-26T09:06:01Z</time>
      </trkpt>
      <trkpt lat="45.8679" lon="4.80384">
        <ele>435</ele>
        <time>2014-10-26T09:06:03Z</time>
      </trkpt>
      <trkpt lat="45.86788" lon="4.8039">
        <ele>434</ele>
        <time>2014-10-26T09:06:05Z</time>
      </trkpt>
      <trkpt lat="45.86795" lon="4.80398">
        <ele>434</ele>
        <time>2014-10-26T09:06:08Z</time>
      </trkpt>
      <trkpt lat="45.868" lon="4.80402">
        <ele>434</ele>
        <time>2014-10-26T09:06:10Z</time>
      </trkpt>
      <trkpt lat="45.86805" lon="4.80408">
        <ele>434</ele>
        <time>2014-10-26T09:06:13Z</time>
      </trkpt>
      <trkpt lat="45.86809" lon="4.80412">
        <ele>434</ele>
        <time>2014-10-26T09:06:17Z</time>
      </trkpt>
      <trkpt lat="45.86817" lon="4.80413">
        <ele>434</ele>
        <time>2014-10-26T09:06:21Z</time>
      </trkpt>
      <trkpt lat="45.86825" lon="4.80413">
        <ele>434</ele>
        <time>2014-10-26T09:06:26Z</time>
      </trkpt>
      <trkpt lat="45.86822" lon="4.80414">
        <ele>434</ele>
        <time>2014-10-26T09:06:29Z</time>
      </trkpt>
      <trkpt lat="45.86819" lon="4.80414">
        <ele>434</ele>
        <time>2014-10-26T09:06:30Z</time>
      </trkpt>
      <trkpt lat="45.86813" lon="4.80413">
        <ele>434</ele>
        <time>2014-10-26T09:06:32Z</time>
      </trkpt>
      <trkpt lat="45.86811" lon="4.80412">
        <ele>434</ele>
        <time>2014-10-26T09:06:34Z</time>
      </trkpt>
      <trkpt lat="45.8681" lon="4.80413">
        <ele>434</ele>
        <time>2014-10-26T09:06:35Z</time>
      </trkpt>
      <trkpt lat="45.86805" lon="4.80419">
        <ele>426</ele>
        <time>2014-10-26T09:06:38Z</time>
      </trkpt>
      <trkpt lat="45.86799" lon="4.80425">
        <ele>425</ele>
        <time>2014-10-26T09:06:41Z</time>
      </trkpt>
      <trkpt lat="45.86794" lon="4.8043">
        <ele>424</ele>
        <time>2014-10-26T09:06:43Z</time>
      </trkpt>
      <trkpt lat="45.86789" lon="4.80436">
        <ele>423</ele>
        <time>2014-10-26T09:06:46Z</time>
      </trkpt>
      <trkpt lat="45.86786" lon="4.80442">
        <ele>423</ele>
        <time>2014-10-26T09:06:48Z</time>
      </trkpt>
      <trkpt lat="45.86785" lon="4.80444">
        <ele>422</ele>
        <time>2014-10-26T09:06:49Z</time>
      </trkpt>
      <trkpt lat="45.86779" lon="4.80448">
        <ele>422</ele>
        <time>2014-10-26T09:06:52Z</time>
      </trkpt>
      <trkpt lat="45.86778" lon="4.80448">
        <ele>422</ele>
        <time>2014-10-26T09:06:53Z</time>
      </trkpt>
      <trkpt lat="45.86777" lon="4.80448">
        <ele>422</ele>
        <time>2014-10-26T09:06:54Z</time>
      </trkpt>
      <trkpt lat="45.86771" lon="4.80448">
        <ele>422</ele>
        <time>2014-10-26T09:06:58Z</time>
      </trkpt>
      <trkpt lat="45.86768" lon="4.80449">
        <ele>422</ele>
        <time>2014-10-26T09:07:00Z</time>
      </trkpt>
      <trkpt lat="45.86768" lon="4.80453">
        <ele>421</ele>
        <time>2014-10-26T09:07:06Z</time>
      </trkpt>
      <trkpt lat="45.86774" lon="4.80453">
        <ele>421</ele>
        <time>2014-10-26T09:07:36Z</time>
      </trkpt>
      <trkpt lat="45.86775" lon="4.80454">
        <ele>421</ele>
        <time>2014-10-26T09:07:37Z</time>
      </trkpt>
      <trkpt lat="45.86776" lon="4.80457">
        <ele>421</ele>
        <time>2014-10-26T09:07:40Z</time>
      </trkpt>
      <trkpt lat="45.86779" lon="4.80462">
        <ele>421</ele>
        <time>2014-10-26T09:07:43Z</time>
      </trkpt>
      <trkpt lat="45.86782" lon="4.80469">
        <ele>420</ele>
        <time>2014-10-26T09:07:48Z</time>
      </trkpt>
      <trkpt lat="45.86784" lon="4.80471">
        <ele>420</ele>
        <time>2014-10-26T09:07:50Z</time>
      </trkpt>
      <trkpt lat="45.86786" lon="4.80473">
        <ele>420</ele>
        <time>2014-10-26T09:07:52Z</time>
      </trkpt>
      <trkpt lat="45.8679" lon="4.80479">
        <ele>420</ele>
        <time>2014-10-26T09:07:56Z</time>
      </trkpt>
      <trkpt lat="45.86794" lon="4.8049">
        <ele>419</ele>
        <time>2014-10-26T09:08:02Z</time>
      </trkpt>
      <trkpt lat="45.86795" lon="4.80492">
        <ele>419</ele>
        <time>2014-10-26T09:08:08Z</time>
      </trkpt>
      <trkpt lat="45.86798" lon="4.80488">
        <ele>419</ele>
        <time>2014-10-26T09:08:11Z</time>
      </trkpt>
      <trkpt lat="45.86801" lon="4.80485">
        <ele>420</ele>
        <time>2014-10-26T09:08:13Z</time>
      </trkpt>
      <trkpt lat="45.8681" lon="4.80476">
        <ele>420</ele>
        <time>2014-10-26T09:08:19Z</time>
      </trkpt>
      <trkpt lat="45.86812" lon="4.80472">
        <ele>421</ele>
        <time>2014-10-26T09:08:21Z</time>
      </trkpt>
      <trkpt lat="45.86813" lon="4.80471">
        <ele>421</ele>
        <time>2014-10-26T09:08:22Z</time>
      </trkpt>
      <trkpt lat="45.86817" lon="4.80468">
        <ele>421</ele>
        <time>2014-10-26T09:08:24Z</time>
      </trkpt>
      <trkpt lat="45.86817" lon="4.80467">
        <ele>421</ele>
        <time>2014-10-26T09:08:25Z</time>
      </trkpt>
      <trkpt lat="45.86822" lon="4.8046">
        <ele>422</ele>
        <time>2014-10-26T09:08:30Z</time>
      </trkpt>
      <trkpt lat="45.86826" lon="4.80454">
        <ele>423</ele>
        <time>2014-10-26T09:08:35Z</time>
      </trkpt>
      <trkpt lat="45.86826" lon="4.80453">
        <ele>423</ele>
        <time>2014-10-26T09:08:36Z</time>
      </trkpt>
      <trkpt lat="45.8683" lon="4.80445">
        <ele>425</ele>
        <time>2014-10-26T09:08:43Z</time>
      </trkpt>
      <trkpt lat="45.86834" lon="4.80442">
        <ele>426</ele>
        <time>2014-10-26T09:08:46Z</time>
      </trkpt>
      <trkpt lat="45.86836" lon="4.80438">
        <ele>427</ele>
        <time>2014-10-26T09:08:50Z</time>
      </trkpt>
      <trkpt lat="45.86839" lon="4.80435">
        <ele>427</ele>
        <time>2014-10-26T09:08:53Z</time>
      </trkpt>
      <trkpt lat="45.86839" lon="4.80436">
        <ele>427</ele>
        <time>2014-10-26T09:08:55Z</time>
      </trkpt>
      <trkpt lat="45.86844" lon="4.80443">
        <ele>426</ele>
        <time>2014-10-26T09:09:00Z</time>
      </trkpt>
      <trkpt lat="45.86851" lon="4.80448">
        <ele>425</ele>
        <time>2014-10-26T09:09:06Z</time>
      </trkpt>
      <trkpt lat="45.86855" lon="4.80449">
        <ele>424</ele>
        <time>2014-10-26T09:09:08Z</time>
      </trkpt>
      <trkpt lat="45.86861" lon="4.80451">
        <ele>424</ele>
        <time>2014-10-26T09:09:11Z</time>
      </trkpt>
      <trkpt lat="45.86863" lon="4.8045">
        <ele>424</ele>
        <time>2014-10-26T09:09:14Z</time>
      </trkpt>
      <trkpt lat="45.86862" lon="4.80449">
        <ele>424</ele>
        <time>2014-10-26T09:09:16Z</time>
      </trkpt>
      <trkpt lat="45.86862" lon="4.80443">
        <ele>425</ele>
        <time>2014-10-26T09:09:21Z</time>
      </trkpt>
      <trkpt lat="45.86862" lon="4.80443">
        <ele>425</ele>
        <time>2014-10-26T09:09:25Z</time>
      </trkpt>
      <trkpt lat="45.86863" lon="4.80447">
        <ele>424</ele>
        <time>2014-10-26T09:09:27Z</time>
      </trkpt>
      <trkpt lat="45.86864" lon="4.80449">
        <ele>424</ele>
        <time>2014-10-26T09:09:29Z</time>
      </trkpt>
      <trkpt lat="45.86865" lon="4.80452">
        <ele>424</ele>
        <time>2014-10-26T09:09:32Z</time>
      </trkpt>
      <trkpt lat="45.86866" lon="4.80454">
        <ele>424</ele>
        <time>2014-10-26T09:09:34Z</time>
      </trkpt>
      <trkpt lat="45.86876" lon="4.80455">
        <ele>423</ele>
        <time>2014-10-26T09:09:38Z</time>
      </trkpt>
      <trkpt lat="45.86879" lon="4.80455">
        <ele>423</ele>
        <time>2014-10-26T09:09:40Z</time>
      </trkpt>
      <trkpt lat="45.86883" lon="4.80455">
        <ele>423</ele>
        <time>2014-10-26T09:09:42Z</time>
      </trkpt>
      <trkpt lat="45.86884" lon="4.80455">
        <ele>423</ele>
        <time>2014-10-26T09:09:43Z</time>
      </trkpt>
      <trkpt lat="45.86886" lon="4.80454">
        <ele>423</ele>
        <time>2014-10-26T09:09:47Z</time>
      </trkpt>
      <trkpt lat="45.86886" lon="4.80453">
        <ele>423</ele>
        <time>2014-10-26T09:09:52Z</time>
      </trkpt>
      <trkpt lat="45.86887" lon="4.80453">
        <ele>423</ele>
        <time>2014-10-26T09:09:53Z</time>
      </trkpt>
      <trkpt lat="45.86889" lon="4.80454">
        <ele>423</ele>
        <time>2014-10-26T09:09:55Z</time>
      </trkpt>
      <trkpt lat="45.86893" lon="4.80459">
        <ele>423</ele>
        <time>2014-10-26T09:09:59Z</time>
      </trkpt>
      <trkpt lat="45.86898" lon="4.80462">
        <ele>422</ele>
        <time>2014-10-26T09:10:03Z</time>
      </trkpt>
      <trkpt lat="45.869" lon="4.80464">
        <ele>422</ele>
        <time>2014-10-26T09:10:06Z</time>
      </trkpt>
      <trkpt lat="45.86902" lon="4.80466">
        <ele>422</ele>
        <time>2014-10-26T09:10:08Z</time>
      </trkpt>
      <trkpt lat="45.86909" lon="4.80474">
        <ele>421</ele>
        <time>2014-10-26T09:10:12Z</time>
      </trkpt>
      <trkpt lat="45.86918" lon="4.80478">
        <ele>412</ele>
        <time>2014-10-26T09:10:16Z</time>
      </trkpt>
      <trkpt lat="45.86927" lon="4.80483">
        <ele>412</ele>
        <time>2014-10-26T09:10:22Z</time>
      </trkpt>
      <trkpt lat="45.86925" lon="4.80483">
        <ele>412</ele>
        <time>2014-10-26T09:10:26Z</time>
      </trkpt>
      <trkpt lat="45.86924" lon="4.80483">
        <ele>412</ele>
        <time>2014-10-26T09:10:27Z</time>
      </trkpt>
      <trkpt lat="45.8692" lon="4.80481">
        <ele>412</ele>
        <time>2014-10-26T09:10:33Z</time>
      </trkpt>
      <trkpt lat="45.86911" lon="4.80483">
        <ele>420</ele>
        <time>2014-10-26T09:10:40Z</time>
      </trkpt>
      <trkpt lat="45.8691" lon="4.80483">
        <ele>420</ele>
        <time>2014-10-26T09:10:41Z</time>
      </trkpt>
      <trkpt lat="45.86903" lon="4.80486">
        <ele>420</ele>
        <time>2014-10-26T09:10:47Z</time>
      </trkpt>
      <trkpt lat="45.86895" lon="4.80492">
        <ele>420</ele>
        <time>2014-10-26T09:10:52Z</time>
      </trkpt>
      <trkpt lat="45.86893" lon="4.80494">
        <ele>420</ele>
        <time>2014-10-26T09:10:53Z</time>
      </trkpt>
      <trkpt lat="45.8688" lon="4.80504">
        <ele>415</ele>
        <time>2014-10-26T09:10:58Z</time>
      </trkpt>
      <trkpt lat="45.86875" lon="4.80508">
        <ele>415</ele>
        <time>2014-10-26T09:11:00Z</time>
      </trkpt>
      <trkpt lat="45.86866" lon="4.80512">
        <ele>415</ele>
        <time>2014-10-26T09:11:04Z</time>
      </trkpt>
      <trkpt lat="45.86858" lon="4.80516">
        <ele>415</ele>
        <time>2014-10-26T09:11:07Z</time>
      </trkpt>
      <trkpt lat="45.86852" lon="4.8052">
        <ele>415</ele>
        <time>2014-10-26T09:11:10Z</time>
      </trkpt>
      <trkpt lat="45.8684" lon="4.80522">
        <ele>415</ele>
        <time>2014-10-26T09:11:15Z</time>
      </trkpt>
      <trkpt lat="45.86838" lon="4.80523">
        <ele>415</ele>
        <time>2014-10-26T09:11:16Z</time>
      </trkpt>
      <trkpt lat="45.86823" lon="4.80527">
        <ele>411</ele>
        <time>2014-10-26T09:11:22Z</time>
      </trkpt>
      <trkpt lat="45.86821" lon="4.80528">
        <ele>411</ele>
        <time>2014-10-26T09:11:23Z</time>
      </trkpt>
      <trkpt lat="45.86816" lon="4.80531">
        <ele>411</ele>
        <time>2014-10-26T09:11:27Z</time>
      </trkpt>
      <trkpt lat="45.86813" lon="4.80533">
        <ele>410</ele>
        <time>2014-10-26T09:11:33Z</time>
      </trkpt>
      <trkpt lat="45.86808" lon="4.80536">
        <ele>410</ele>
        <time>2014-10-26T09:11:40Z</time>
      </trkpt>
      <trkpt lat="45.86803" lon="4.8054">
        <ele>409</ele>
        <time>2014-10-26T09:11:43Z</time>
      </trkpt>
      <trkpt lat="45.8679" lon="4.80543">
        <ele>409</ele>
        <time>2014-10-26T09:11:48Z</time>
      </trkpt>
      <trkpt lat="45.86783" lon="4.80545">
        <ele>408</ele>
        <time>2014-10-26T09:11:51Z</time>
      </trkpt>
      <trkpt lat="45.8678" lon="4.80547">
        <ele>408</ele>
        <time>2014-10-26T09:11:54Z</time>
      </trkpt>
      <trkpt lat="45.86781" lon="4.80549">
        <ele>408</ele>
        <time>2014-10-26T09:11:58Z</time>
      </trkpt>
      <trkpt lat="45.86782" lon="4.80551">
        <ele>408</ele>
        <time>2014-10-26T09:11:59Z</time>
      </trkpt>
      <trkpt lat="45.86787" lon="4.80557">
        <ele>408</ele>
        <time>2014-10-26T09:12:02Z</time>
      </trkpt>
      <trkpt lat="45.86789" lon="4.80561">
        <ele>407</ele>
        <time>2014-10-26T09:12:04Z</time>
      </trkpt>
      <trkpt lat="45.86789" lon="4.80566">
        <ele>407</ele>
        <time>2014-10-26T09:12:06Z</time>
      </trkpt>
      <trkpt lat="45.86789" lon="4.80567">
        <ele>407</ele>
        <time>2014-10-26T09:12:07Z</time>
      </trkpt>
      <trkpt lat="45.86792" lon="4.80572">
        <ele>407</ele>
        <time>2014-10-26T09:12:11Z</time>
      </trkpt>
      <trkpt lat="45.86794" lon="4.80576">
        <ele>407</ele>
        <time>2014-10-26T09:12:15Z</time>
      </trkpt>
      <trkpt lat="45.86798" lon="4.80581">
        <ele>407</ele>
        <time>2014-10-26T09:12:20Z</time>
      </trkpt>
      <trkpt lat="45.86799" lon="4.80582">
        <ele>407</ele>
        <time>2014-10-26T09:12:21Z</time>
      </trkpt>
      <trkpt lat="45.86805" lon="4.80591">
        <ele>402</ele>
        <time>2014-10-26T09:12:28Z</time>
      </trkpt>
      <trkpt lat="45.86807" lon="4.80606">
        <ele>402</ele>
        <time>2014-10-26T09:12:36Z</time>
      </trkpt>
      <trkpt lat="45.86809" lon="4.8062">
        <ele>401</ele>
        <time>2014-10-26T09:12:43Z</time>
      </trkpt>
      <trkpt lat="45.86809" lon="4.80632">
        <ele>400</ele>
        <time>2014-10-26T09:12:49Z</time>
      </trkpt>
      <trkpt lat="45.86809" lon="4.80636">
        <ele>400</ele>
        <time>2014-10-26T09:12:51Z</time>
      </trkpt>
      <trkpt lat="45.86808" lon="4.80643">
        <ele>400</ele>
        <time>2014-10-26T09:12:55Z</time>
      </trkpt>
      <trkpt lat="45.86808" lon="4.80649">
        <ele>400</ele>
        <time>2014-10-26T09:12:58Z</time>
      </trkpt>
      <trkpt lat="45.86807" lon="4.80652">
        <ele>400</ele>
        <time>2014-10-26T09:12:59Z</time>
      </trkpt>
      <trkpt lat="45.86806" lon="4.8066">
        <ele>400</ele>
        <time>2014-10-26T09:13:01Z</time>
      </trkpt>
      <trkpt lat="45.86807" lon="4.80667">
        <ele>395</ele>
        <time>2014-10-26T09:13:03Z</time>
      </trkpt>
      <trkpt lat="45.86807" lon="4.80688">
        <ele>394</ele>
        <time>2014-10-26T09:13:09Z</time>
      </trkpt>
      <trkpt lat="45.86811" lon="4.8071">
        <ele>393</ele>
        <time>2014-10-26T09:13:15Z</time>
      </trkpt>
      <trkpt lat="45.86811" lon="4.80713">
        <ele>393</ele>
        <time>2014-10-26T09:13:16Z</time>
      </trkpt>
      <trkpt lat="45.86811" lon="4.80723">
        <ele>393</ele>
        <time>2014-10-26T09:13:19Z</time>
      </trkpt>
      <trkpt lat="45.86812" lon="4.80725">
        <ele>393</ele>
        <time>2014-10-26T09:13:20Z</time>
      </trkpt>
      <trkpt lat="45.86811" lon="4.80726">
        <ele>393</ele>
        <time>2014-10-26T09:13:24Z</time>
      </trkpt>
      <trkpt lat="45.86812" lon="4.80727">
        <ele>393</ele>
        <time>2014-10-26T09:13:30Z</time>
      </trkpt>
      <trkpt lat="45.86808" lon="4.8073">
        <ele>393</ele>
        <time>2014-10-26T09:13:34Z</time>
      </trkpt>
      <trkpt lat="45.86806" lon="4.80732">
        <ele>393</ele>
        <time>2014-10-26T09:13:35Z</time>
      </trkpt>
      <trkpt lat="45.86804" lon="4.80735">
        <ele>392</ele>
        <time>2014-10-26T09:13:37Z</time>
      </trkpt>
      <trkpt lat="45.868" lon="4.80737">
        <ele>392</ele>
        <time>2014-10-26T09:13:39Z</time>
      </trkpt>
      <trkpt lat="45.86798" lon="4.80739">
        <ele>391</ele>
        <time>2014-10-26T09:13:40Z</time>
      </trkpt>
      <trkpt lat="45.86793" lon="4.80743">
        <ele>390</ele>
        <time>2014-10-26T09:13:44Z</time>
      </trkpt>
      <trkpt lat="45.86791" lon="4.80744">
        <ele>390</ele>
        <time>2014-10-26T09:13:45Z</time>
      </trkpt>
      <trkpt lat="45.86789" lon="4.80744">
        <ele>389</ele>
        <time>2014-10-26T09:13:46Z</time>
      </trkpt>
      <trkpt lat="45.86784" lon="4.80745">
        <ele>388</ele>
        <time>2014-10-26T09:13:50Z</time>
      </trkpt>
      <trkpt lat="45.86782" lon="4.80745">
        <ele>388</ele>
        <time>2014-10-26T09:13:51Z</time>
      </trkpt>
      <trkpt lat="45.86777" lon="4.80747">
        <ele>387</ele>
        <time>2014-10-26T09:13:54Z</time>
      </trkpt>
      <trkpt lat="45.86776" lon="4.80748">
        <ele>386</ele>
        <time>2014-10-26T09:13:55Z</time>
      </trkpt>
      <trkpt lat="45.86774" lon="4.80747">
        <ele>386</ele>
        <time>2014-10-26T09:13:56Z</time>
      </trkpt>
      <trkpt lat="45.86768" lon="4.80743">
        <ele>384</ele>
        <time>2014-10-26T09:14:00Z</time>
      </trkpt>
      <trkpt lat="45.86764" lon="4.8074">
        <ele>384</ele>
        <time>2014-10-26T09:14:02Z</time>
      </trkpt>
      <trkpt lat="45.8676" lon="4.80737">
        <ele>383</ele>
        <time>2014-10-26T09:14:05Z</time>
      </trkpt>
      <trkpt lat="45.86757" lon="4.80736">
        <ele>383</ele>
        <time>2014-10-26T09:14:07Z</time>
      </trkpt>
      <trkpt lat="45.86751" lon="4.80734">
        <ele>383</ele>
        <time>2014-10-26T09:14:11Z</time>
      </trkpt>
      <trkpt lat="45.86743" lon="4.80729">
        <ele>376</ele>
        <time>2014-10-26T09:14:16Z</time>
      </trkpt>
      <trkpt lat="45.86739" lon="4.80726">
        <ele>376</ele>
        <time>2014-10-26T09:14:18Z</time>
      </trkpt>
      <trkpt lat="45.86733" lon="4.80718">
        <ele>376</ele>
        <time>2014-10-26T09:14:21Z</time>
      </trkpt>
      <trkpt lat="45.86731" lon="4.80718">
        <ele>376</ele>
        <time>2014-10-26T09:14:24Z</time>
      </trkpt>
      <trkpt lat="45.86729" lon="4.80718">
        <ele>376</ele>
        <time>2014-10-26T09:14:25Z</time>
      </trkpt>
      <trkpt lat="45.86725" lon="4.80719">
        <ele>376</ele>
        <time>2014-10-26T09:14:30Z</time>
      </trkpt>
      <trkpt lat="45.86723" lon="4.80719">
        <ele>376</ele>
        <time>2014-10-26T09:14:34Z</time>
      </trkpt>
      <trkpt lat="45.8672" lon="4.80722">
        <ele>376</ele>
        <time>2014-10-26T09:14:39Z</time>
      </trkpt>
      <trkpt lat="45.86715" lon="4.80728">
        <ele>375</ele>
        <time>2014-10-26T09:14:44Z</time>
      </trkpt>
      <trkpt lat="45.86714" lon="4.80728">
        <ele>375</ele>
        <time>2014-10-26T09:14:45Z</time>
      </trkpt>
      <trkpt lat="45.8671" lon="4.80727">
        <ele>375</ele>
        <time>2014-10-26T09:14:51Z</time>
      </trkpt>
      <trkpt lat="45.86708" lon="4.80737">
        <ele>374</ele>
        <time>2014-10-26T09:15:00Z</time>
      </trkpt>
      <trkpt lat="45.86704" lon="4.80738">
        <ele>374</ele>
        <time>2014-10-26T09:15:02Z</time>
      </trkpt>
      <trkpt lat="45.86697" lon="4.80741">
        <ele>373</ele>
        <time>2014-10-26T09:15:07Z</time>
      </trkpt>
      <trkpt lat="45.86691" lon="4.80734">
        <ele>372</ele>
        <time>2014-10-26T09:15:13Z</time>
      </trkpt>
      <trkpt lat="45.86691" lon="4.80734">
        <ele>373</ele>
        <time>2014-10-26T09:15:14Z</time>
      </trkpt>
      <trkpt lat="45.86691" lon="4.8073">
        <ele>373</ele>
        <time>2014-10-26T09:15:20Z</time>
      </trkpt>
      <trkpt lat="45.86691" lon="4.80729">
        <ele>373</ele>
        <time>2014-10-26T09:15:22Z</time>
      </trkpt>
      <trkpt lat="45.86691" lon="4.80724">
        <ele>373</ele>
        <time>2014-10-26T09:15:25Z</time>
      </trkpt>
      <trkpt lat="45.86691" lon="4.80723">
        <ele>373</ele>
        <time>2014-10-26T09:15:26Z</time>
      </trkpt>
      <trkpt lat="45.86692" lon="4.80721">
        <ele>374</ele>
        <time>2014-10-26T09:15:31Z</time>
      </trkpt>
      <trkpt lat="45.86688" lon="4.80716">
        <ele>374</ele>
        <time>2014-10-26T09:15:43Z</time>
      </trkpt>
      <trkpt lat="45.86688" lon="4.80714">
        <ele>374</ele>
        <time>2014-10-26T09:15:47Z</time>
      </trkpt>
      <trkpt lat="45.86686" lon="4.80714">
        <ele>374</ele>
        <time>2014-10-26T09:15:52Z</time>
      </trkpt>
      <trkpt lat="45.86685" lon="4.80713">
        <ele>374</ele>
        <time>2014-10-26T09:15:54Z</time>
      </trkpt>
      <trkpt lat="45.86681" lon="4.80714">
        <ele>374</ele>
        <time>2014-10-26T09:16:12Z</time>
      </trkpt>
      <trkpt lat="45.86685" lon="4.80711">
        <ele>374</ele>
        <time>2014-10-26T09:16:50Z</time>
      </trkpt>
      <trkpt lat="45.86689" lon="4.80713">
        <ele>374</ele>
        <time>2014-10-26T09:16:54Z</time>
      </trkpt>
      <trkpt lat="45.86688" lon="4.8071">
        <ele>374</ele>
        <time>2014-10-26T09:17:16Z</time>
      </trkpt>
      <trkpt lat="45.86693" lon="4.80715">
        <ele>374</ele>
        <time>2014-10-26T09:17:40Z</time>
      </trkpt>
      <trkpt lat="45.86692" lon="4.80716">
        <ele>374</ele>
        <time>2014-10-26T09:17:41Z</time>
      </trkpt>
      <trkpt lat="45.86691" lon="4.80719">
        <ele>374</ele>
        <time>2014-10-26T09:17:45Z</time>
      </trkpt>
      <trkpt lat="45.86692" lon="4.8072">
        <ele>374</ele>
        <time>2014-10-26T09:17:50Z</time>
      </trkpt>
      <trkpt lat="45.86695" lon="4.80719">
        <ele>374</ele>
        <time>2014-10-26T09:17:54Z</time>
      </trkpt>
      <trkpt lat="45.86694" lon="4.80719">
        <ele>374</ele>
        <time>2014-10-26T09:17:55Z</time>
      </trkpt>
      <trkpt lat="45.86687" lon="4.80714">
        <ele>374</ele>
        <time>2014-10-26T09:18:00Z</time>
      </trkpt>
      <trkpt lat="45.86684" lon="4.80713">
        <ele>374</ele>
        <time>2014-10-26T09:18:05Z</time>
      </trkpt>
      <trkpt lat="45.86684" lon="4.80718">
        <ele>373</ele>
        <time>2014-10-26T09:18:11Z</time>
      </trkpt>
      <trkpt lat="45.86684" lon="4.8072">
        <ele>373</ele>
        <time>2014-10-26T09:19:14Z</time>
      </trkpt>
      <trkpt lat="45.86685" lon="4.80721">
        <ele>373</ele>
        <time>2014-10-26T09:19:15Z</time>
      </trkpt>
      <trkpt lat="45.86688" lon="4.80722">
        <ele>373</ele>
        <time>2014-10-26T09:19:18Z</time>
      </trkpt>
      <trkpt lat="45.86688" lon="4.80724">
        <ele>373</ele>
        <time>2014-10-26T09:19:20Z</time>
      </trkpt>
      <trkpt lat="45.8669" lon="4.80724">
        <ele>373</ele>
        <time>2014-10-26T09:19:22Z</time>
      </trkpt>
      <trkpt lat="45.86695" lon="4.80724">
        <ele>374</ele>
        <time>2014-10-26T09:19:29Z</time>
      </trkpt>
      <trkpt lat="45.86697" lon="4.8072">
        <ele>374</ele>
        <time>2014-10-26T09:19:34Z</time>
      </trkpt>
      <trkpt lat="45.86701" lon="4.8072">
        <ele>375</ele>
        <time>2014-10-26T09:19:36Z</time>
      </trkpt>
      <trkpt lat="45.86704" lon="4.80722">
        <ele>375</ele>
        <time>2014-10-26T09:19:38Z</time>
      </trkpt>
      <trkpt lat="45.86707" lon="4.80725">
        <ele>375</ele>
        <time>2014-10-26T09:19:40Z</time>
      </trkpt>
      <trkpt lat="45.86713" lon="4.8073">
        <ele>375</ele>
        <time>2014-10-26T09:19:43Z</time>
      </trkpt>
      <trkpt lat="45.86717" lon="4.80734">
        <ele>375</ele>
        <time>2014-10-26T09:19:47Z</time>
      </trkpt>
      <trkpt lat="45.86716" lon="4.80737">
        <ele>375</ele>
        <time>2014-10-26T09:19:49Z</time>
      </trkpt>
      <trkpt lat="45.86713" lon="4.80742">
        <ele>374</ele>
        <time>2014-10-26T09:19:52Z</time>
      </trkpt>
      <trkpt lat="45.86712" lon="4.80746">
        <ele>374</ele>
        <time>2014-10-26T09:19:54Z</time>
      </trkpt>
      <trkpt lat="45.86709" lon="4.80751">
        <ele>366</ele>
        <time>2014-10-26T09:19:56Z</time>
      </trkpt>
      <trkpt lat="45.86706" lon="4.80754">
        <ele>366</ele>
        <time>2014-10-26T09:19:58Z</time>
      </trkpt>
      <trkpt lat="45.86705" lon="4.80757">
        <ele>366</ele>
        <time>2014-10-26T09:19:59Z</time>
      </trkpt>
      <trkpt lat="45.86703" lon="4.80765">
        <ele>365</ele>
        <time>2014-10-26T09:20:03Z</time>
      </trkpt>
      <trkpt lat="45.86706" lon="4.80778">
        <ele>364</ele>
        <time>2014-10-26T09:20:09Z</time>
      </trkpt>
      <trkpt lat="45.86709" lon="4.80783">
        <ele>364</ele>
        <time>2014-10-26T09:20:11Z</time>
      </trkpt>
      <trkpt lat="45.8671" lon="4.80788">
        <ele>364</ele>
        <time>2014-10-26T09:20:13Z</time>
      </trkpt>
      <trkpt lat="45.8671" lon="4.80792">
        <ele>364</ele>
        <time>2014-10-26T09:20:14Z</time>
      </trkpt>
      <trkpt lat="45.86709" lon="4.808">
        <ele>363</ele>
        <time>2014-10-26T09:20:17Z</time>
      </trkpt>
      <trkpt lat="45.86709" lon="4.80801">
        <ele>363</ele>
        <time>2014-10-26T09:20:18Z</time>
      </trkpt>
      <trkpt lat="45.86709" lon="4.80806">
        <ele>362</ele>
        <time>2014-10-26T09:20:22Z</time>
      </trkpt>
      <trkpt lat="45.86711" lon="4.8081">
        <ele>362</ele>
        <time>2014-10-26T09:20:24Z</time>
      </trkpt>
      <trkpt lat="45.86713" lon="4.80815">
        <ele>362</ele>
        <time>2014-10-26T09:20:26Z</time>
      </trkpt>
      <trkpt lat="45.86715" lon="4.80819">
        <ele>362</ele>
        <time>2014-10-26T09:20:28Z</time>
      </trkpt>
      <trkpt lat="45.86718" lon="4.80826">
        <ele>362</ele>
        <time>2014-10-26T09:20:30Z</time>
      </trkpt>
      <trkpt lat="45.8672" lon="4.80833">
        <ele>362</ele>
        <time>2014-10-26T09:20:32Z</time>
      </trkpt>
      <trkpt lat="45.86721" lon="4.80839">
        <ele>352</ele>
        <time>2014-10-26T09:20:34Z</time>
      </trkpt>
      <trkpt lat="45.86722" lon="4.80844">
        <ele>352</ele>
        <time>2014-10-26T09:20:37Z</time>
      </trkpt>
      <trkpt lat="45.86722" lon="4.80859">
        <ele>350</ele>
        <time>2014-10-26T09:20:43Z</time>
      </trkpt>
      <trkpt lat="45.86718" lon="4.80864">
        <ele>348</ele>
        <time>2014-10-26T09:20:46Z</time>
      </trkpt>
      <trkpt lat="45.86717" lon="4.80864">
        <ele>348</ele>
        <time>2014-10-26T09:20:47Z</time>
      </trkpt>
      <trkpt lat="45.86716" lon="4.80865">
        <ele>348</ele>
        <time>2014-10-26T09:20:48Z</time>
      </trkpt>
      <trkpt lat="45.86714" lon="4.80866">
        <ele>348</ele>
        <time>2014-10-26T09:20:49Z</time>
      </trkpt>
      <trkpt lat="45.86708" lon="4.80863">
        <ele>348</ele>
        <time>2014-10-26T09:20:52Z</time>
      </trkpt>
      <trkpt lat="45.86703" lon="4.80857">
        <ele>348</ele>
        <time>2014-10-26T09:20:55Z</time>
      </trkpt>
      <trkpt lat="45.86701" lon="4.80856">
        <ele>348</ele>
        <time>2014-10-26T09:20:56Z</time>
      </trkpt>
      <trkpt lat="45.86699" lon="4.80855">
        <ele>347</ele>
        <time>2014-10-26T09:20:58Z</time>
      </trkpt>
      <trkpt lat="45.8669" lon="4.80857">
        <ele>347</ele>
        <time>2014-10-26T09:21:06Z</time>
      </trkpt>
      <trkpt lat="45.86688" lon="4.80853">
        <ele>347</ele>
        <time>2014-10-26T09:21:10Z</time>
      </trkpt>
      <trkpt lat="45.86688" lon="4.80852">
        <ele>347</ele>
        <time>2014-10-26T09:21:11Z</time>
      </trkpt>
      <trkpt lat="45.86686" lon="4.80852">
        <ele>347</ele>
        <time>2014-10-26T09:21:15Z</time>
      </trkpt>
      <trkpt lat="45.86685" lon="4.80852">
        <ele>347</ele>
        <time>2014-10-26T09:21:16Z</time>
      </trkpt>
      <trkpt lat="45.86684" lon="4.80851">
        <ele>347</ele>
        <time>2014-10-26T09:21:17Z</time>
      </trkpt>
      <trkpt lat="45.86683" lon="4.80849">
        <ele>347</ele>
        <time>2014-10-26T09:21:20Z</time>
      </trkpt>
      <trkpt lat="45.86682" lon="4.80852">
        <ele>347</ele>
        <time>2014-10-26T09:21:23Z</time>
      </trkpt>
      <trkpt lat="45.86678" lon="4.80857">
        <ele>346</ele>
        <time>2014-10-26T09:21:27Z</time>
      </trkpt>
      <trkpt lat="45.86675" lon="4.80861">
        <ele>345</ele>
        <time>2014-10-26T09:21:31Z</time>
      </trkpt>
      <trkpt lat="45.86673" lon="4.80861">
        <ele>345</ele>
        <time>2014-10-26T09:21:33Z</time>
      </trkpt>
      <trkpt lat="45.86672" lon="4.80862">
        <ele>345</ele>
        <time>2014-10-26T09:21:34Z</time>
      </trkpt>
      <trkpt lat="45.86671" lon="4.80861">
        <ele>345</ele>
        <time>2014-10-26T09:21:35Z</time>
      </trkpt>
      <trkpt lat="45.86671" lon="4.8086">
        <ele>345</ele>
        <time>2014-10-26T09:21:36Z</time>
      </trkpt>
      <trkpt lat="45.86671" lon="4.80859">
        <ele>346</ele>
        <time>2014-10-26T09:21:37Z</time>
      </trkpt>
      <trkpt lat="45.86671" lon="4.80857">
        <ele>346</ele>
        <time>2014-10-26T09:21:39Z</time>
      </trkpt>
      <trkpt lat="45.86671" lon="4.80857">
        <ele>346</ele>
        <time>2014-10-26T09:21:43Z</time>
      </trkpt>
      <trkpt lat="45.86671" lon="4.80858">
        <ele>346</ele>
        <time>2014-10-26T09:22:57Z</time>
      </trkpt>
      <trkpt lat="45.86667" lon="4.80867">
        <ele>344</ele>
        <time>2014-10-26T09:27:06Z</time>
      </trkpt>
      <trkpt lat="45.86664" lon="4.80866">
        <ele>340</ele>
        <time>2014-10-26T09:27:09Z</time>
      </trkpt>
      <trkpt lat="45.86664" lon="4.80865">
        <ele>340</ele>
        <time>2014-10-26T09:27:18Z</time>
      </trkpt>
      <trkpt lat="45.86664" lon="4.80861">
        <ele>341</ele>
        <time>2014-10-26T09:27:29Z</time>
      </trkpt>
      <trkpt lat="45.86665" lon="4.80862">
        <ele>341</ele>
        <time>2014-10-26T09:27:40Z</time>
      </trkpt>
      <trkpt lat="45.86667" lon="4.80866">
        <ele>340</ele>
        <time>2014-10-26T09:27:43Z</time>
      </trkpt>
      <trkpt lat="45.86665" lon="4.80869">
        <ele>339</ele>
        <time>2014-10-26T09:27:47Z</time>
      </trkpt>
      <trkpt lat="45.86663" lon="4.80872">
        <ele>339</ele>
        <time>2014-10-26T09:27:51Z</time>
      </trkpt>
      <trkpt lat="45.8666" lon="4.80874">
        <ele>338</ele>
        <time>2014-10-26T09:27:53Z</time>
      </trkpt>
      <trkpt lat="45.86656" lon="4.80876">
        <ele>338</ele>
        <time>2014-10-26T09:27:57Z</time>
      </trkpt>
      <trkpt lat="45.86649" lon="4.80881">
        <ele>337</ele>
        <time>2014-10-26T09:28:05Z</time>
      </trkpt>
      <trkpt lat="45.86644" lon="4.80886">
        <ele>336</ele>
        <time>2014-10-26T09:28:10Z</time>
      </trkpt>
      <trkpt lat="45.86643" lon="4.80887">
        <ele>336</ele>
        <time>2014-10-26T09:28:11Z</time>
      </trkpt>
      <trkpt lat="45.86639" lon="4.80893">
        <ele>335</ele>
        <time>2014-10-26T09:28:16Z</time>
      </trkpt>
      <trkpt lat="45.86639" lon="4.80895">
        <ele>335</ele>
        <time>2014-10-26T09:28:21Z</time>
      </trkpt>
      <trkpt lat="45.86638" lon="4.80896">
        <ele>335</ele>
        <time>2014-10-26T09:28:24Z</time>
      </trkpt>
      <trkpt lat="45.86635" lon="4.80894">
        <ele>335</ele>
        <time>2014-10-26T09:28:27Z</time>
      </trkpt>
      <trkpt lat="45.86629" lon="4.80894">
        <ele>336</ele>
        <time>2014-10-26T09:28:32Z</time>
      </trkpt>
      <trkpt lat="45.86627" lon="4.80894">
        <ele>336</ele>
        <time>2014-10-26T09:28:33Z</time>
      </trkpt>
      <trkpt lat="45.86625" lon="4.80894">
        <ele>336</ele>
        <time>2014-10-26T09:28:35Z</time>
      </trkpt>
      <trkpt lat="45.86622" lon="4.80895">
        <ele>336</ele>
        <time>2014-10-26T09:28:38Z</time>
      </trkpt>
      <trkpt lat="45.86622" lon="4.80895">
        <ele>336</ele>
        <time>2014-10-26T09:28:43Z</time>
      </trkpt>
      <trkpt lat="45.86626" lon="4.80892">
        <ele>336</ele>
        <time>2014-10-26T09:28:50Z</time>
      </trkpt>
      <trkpt lat="45.8663" lon="4.8089">
        <ele>336</ele>
        <time>2014-10-26T09:28:57Z</time>
      </trkpt>
      <trkpt lat="45.86633" lon="4.8089">
        <ele>336</ele>
        <time>2014-10-26T09:28:59Z</time>
      </trkpt>
      <trkpt lat="45.86641" lon="4.80887">
        <ele>336</ele>
        <time>2014-10-26T09:29:06Z</time>
      </trkpt>
      <trkpt lat="45.86643" lon="4.80886">
        <ele>336</ele>
        <time>2014-10-26T09:29:07Z</time>
      </trkpt>
      <trkpt lat="45.86644" lon="4.80886">
        <ele>336</ele>
        <time>2014-10-26T09:29:09Z</time>
      </trkpt>
      <trkpt lat="45.86646" lon="4.80885">
        <ele>336</ele>
        <time>2014-10-26T09:29:10Z</time>
      </trkpt>
      <trkpt lat="45.86648" lon="4.80883">
        <ele>337</ele>
        <time>2014-10-26T09:29:13Z</time>
      </trkpt>
      <trkpt lat="45.8665" lon="4.80881">
        <ele>337</ele>
        <time>2014-10-26T09:29:15Z</time>
      </trkpt>
      <trkpt lat="45.86652" lon="4.80881">
        <ele>337</ele>
        <time>2014-10-26T09:29:16Z</time>
      </trkpt>
      <trkpt lat="45.86657" lon="4.8088">
        <ele>337</ele>
        <time>2014-10-26T09:29:20Z</time>
      </trkpt>
      <trkpt lat="45.86664" lon="4.80874">
        <ele>338</ele>
        <time>2014-10-26T09:29:24Z</time>
      </trkpt>
      <trkpt lat="45.86665" lon="4.80872">
        <ele>339</ele>
        <time>2014-10-26T09:29:25Z</time>
      </trkpt>
      <trkpt lat="45.86673" lon="4.80867">
        <ele>344</ele>
        <time>2014-10-26T09:29:29Z</time>
      </trkpt>
      <trkpt lat="45.86679" lon="4.80865">
        <ele>345</ele>
        <time>2014-10-26T09:29:34Z</time>
      </trkpt>
      <trkpt lat="45.86682" lon="4.80868">
        <ele>345</ele>
        <time>2014-10-26T09:29:37Z</time>
      </trkpt>
      <trkpt lat="45.86686" lon="4.8087">
        <ele>344</ele>
        <time>2014-10-26T09:29:39Z</time>
      </trkpt>
      <trkpt lat="45.86694" lon="4.80874">
        <ele>345</ele>
        <time>2014-10-26T09:29:45Z</time>
      </trkpt>
      <trkpt lat="45.867" lon="4.80877">
        <ele>345</ele>
        <time>2014-10-26T09:29:48Z</time>
      </trkpt>
      <trkpt lat="45.86704" lon="4.80879">
        <ele>345</ele>
        <time>2014-10-26T09:29:50Z</time>
      </trkpt>
      <trkpt lat="45.86708" lon="4.80879">
        <ele>345</ele>
        <time>2014-10-26T09:29:53Z</time>
      </trkpt>
      <trkpt lat="45.8671" lon="4.80879">
        <ele>346</ele>
        <time>2014-10-26T09:29:54Z</time>
      </trkpt>
      <trkpt lat="45.86718" lon="4.80876">
        <ele>347</ele>
        <time>2014-10-26T09:30:00Z</time>
      </trkpt>
      <trkpt lat="45.86719" lon="4.80877">
        <ele>347</ele>
        <time>2014-10-26T09:30:01Z</time>
      </trkpt>
      <trkpt lat="45.86723" lon="4.80881">
        <ele>347</ele>
        <time>2014-10-26T09:30:05Z</time>
      </trkpt>
      <trkpt lat="45.86725" lon="4.80882">
        <ele>347</ele>
        <time>2014-10-26T09:30:09Z</time>
      </trkpt>
      <trkpt lat="45.86725" lon="4.80884">
        <ele>347</ele>
        <time>2014-10-26T09:30:11Z</time>
      </trkpt>
      <trkpt lat="45.86727" lon="4.80885">
        <ele>347</ele>
        <time>2014-10-26T09:30:14Z</time>
      </trkpt>
      <trkpt lat="45.86728" lon="4.80884">
        <ele>347</ele>
        <time>2014-10-26T09:30:27Z</time>
      </trkpt>
      <trkpt lat="45.86726" lon="4.8089">
        <ele>346</ele>
        <time>2014-10-26T09:30:30Z</time>
      </trkpt>
      <trkpt lat="45.86726" lon="4.80893">
        <ele>346</ele>
        <time>2014-10-26T09:30:32Z</time>
      </trkpt>
      <trkpt lat="45.86727" lon="4.80904">
        <ele>345</ele>
        <time>2014-10-26T09:30:38Z</time>
      </trkpt>
      <trkpt lat="45.86727" lon="4.80908">
        <ele>345</ele>
        <time>2014-10-26T09:30:40Z</time>
      </trkpt>
      <trkpt lat="45.86728" lon="4.80912">
        <ele>345</ele>
        <time>2014-10-26T09:30:42Z</time>
      </trkpt>
      <trkpt lat="45.86728" lon="4.80913">
        <ele>345</ele>
        <time>2014-10-26T09:30:43Z</time>
      </trkpt>
      <trkpt lat="45.86728" lon="4.80919">
        <ele>336</ele>
        <time>2014-10-26T09:30:46Z</time>
      </trkpt>
      <trkpt lat="45.86727" lon="4.80928">
        <ele>334</ele>
        <time>2014-10-26T09:30:49Z</time>
      </trkpt>
      <trkpt lat="45.86729" lon="4.8094">
        <ele>333</ele>
        <time>2014-10-26T09:30:53Z</time>
      </trkpt>
      <trkpt lat="45.86729" lon="4.80945">
        <ele>332</ele>
        <time>2014-10-26T09:30:55Z</time>
      </trkpt>
      <trkpt lat="45.86728" lon="4.80957">
        <ele>331</ele>
        <time>2014-10-26T09:30:59Z</time>
      </trkpt>
      <trkpt lat="45.86734" lon="4.80969">
        <ele>330</ele>
        <time>2014-10-26T09:31:04Z</time>
      </trkpt>
      <trkpt lat="45.86735" lon="4.80972">
        <ele>330</ele>
        <time>2014-10-26T09:31:06Z</time>
      </trkpt>
      <trkpt lat="45.8674" lon="4.80975">
        <ele>330</ele>
        <time>2014-10-26T09:31:10Z</time>
      </trkpt>
      <trkpt lat="45.86746" lon="4.80988">
        <ele>330</ele>
        <time>2014-10-26T09:31:18Z</time>
      </trkpt>
      <trkpt lat="45.86749" lon="4.80991">
        <ele>330</ele>
        <time>2014-10-26T09:31:21Z</time>
      </trkpt>
      <trkpt lat="45.86752" lon="4.80992">
        <ele>339</ele>
        <time>2014-10-26T09:31:24Z</time>
      </trkpt>
      <trkpt lat="45.86753" lon="4.80999">
        <ele>335</ele>
        <time>2014-10-26T09:31:27Z</time>
      </trkpt>
      <trkpt lat="45.86754" lon="4.81005">
        <ele>335</ele>
        <time>2014-10-26T09:31:30Z</time>
      </trkpt>
      <trkpt lat="45.86755" lon="4.81008">
        <ele>336</ele>
        <time>2014-10-26T09:31:32Z</time>
      </trkpt>
      <trkpt lat="45.86755" lon="4.8101">
        <ele>336</ele>
        <time>2014-10-26T09:31:33Z</time>
      </trkpt>
      <trkpt lat="45.86756" lon="4.8101">
        <ele>337</ele>
        <time>2014-10-26T09:31:35Z</time>
      </trkpt>
      <trkpt lat="45.8676" lon="4.8101">
        <ele>338</ele>
        <time>2014-10-26T09:31:44Z</time>
      </trkpt>
      <trkpt lat="45.86761" lon="4.81008">
        <ele>338</ele>
        <time>2014-10-26T09:31:49Z</time>
      </trkpt>
      <trkpt lat="45.86762" lon="4.81007">
        <ele>338</ele>
        <time>2014-10-26T09:31:59Z</time>
      </trkpt>
      <trkpt lat="45.86764" lon="4.81008">
        <ele>339</ele>
        <time>2014-10-26T09:32:08Z</time>
      </trkpt>
      <trkpt lat="45.86763" lon="4.81009">
        <ele>339</ele>
        <time>2014-10-26T09:32:30Z</time>
      </trkpt>
      <trkpt lat="45.86761" lon="4.81019">
        <ele>340</ele>
        <time>2014-10-26T09:32:51Z</time>
      </trkpt>
      <trkpt lat="45.86765" lon="4.81022">
        <ele>341</ele>
        <time>2014-10-26T09:33:18Z</time>
      </trkpt>
      <trkpt lat="45.86767" lon="4.8102">
        <ele>341</ele>
        <time>2014-10-26T09:33:19Z</time>
      </trkpt>
      <trkpt lat="45.86769" lon="4.81018">
        <ele>341</ele>
        <time>2014-10-26T09:33:22Z</time>
      </trkpt>
      <trkpt lat="45.8677" lon="4.81018">
        <ele>342</ele>
        <time>2014-10-26T09:33:23Z</time>
      </trkpt>
      <trkpt lat="45.86772" lon="4.81019">
        <ele>342</ele>
        <time>2014-10-26T09:33:26Z</time>
      </trkpt>
      <trkpt lat="45.86773" lon="4.81024">
        <ele>343</ele>
        <time>2014-10-26T09:33:38Z</time>
      </trkpt>
      <trkpt lat="45.86773" lon="4.81026">
        <ele>343</ele>
        <time>2014-10-26T09:33:41Z</time>
      </trkpt>
      <trkpt lat="45.86779" lon="4.81023">
        <ele>344</ele>
        <time>2014-10-26T09:33:50Z</time>
      </trkpt>
      <trkpt lat="45.86777" lon="4.81023">
        <ele>344</ele>
        <time>2014-10-26T09:34:31Z</time>
      </trkpt>
      <trkpt lat="45.86778" lon="4.81025">
        <ele>344</ele>
        <time>2014-10-26T09:34:36Z</time>
      </trkpt>
      <trkpt lat="45.86779" lon="4.81028">
        <ele>344</ele>
        <time>2014-10-26T09:34:40Z</time>
      </trkpt>
      <trkpt lat="45.8678" lon="4.8103">
        <ele>344</ele>
        <time>2014-10-26T09:34:41Z</time>
      </trkpt>
      <trkpt lat="45.86776" lon="4.81028">
        <ele>344</ele>
        <time>2014-10-26T09:34:44Z</time>
      </trkpt>
      <trkpt lat="45.86775" lon="4.81027">
        <ele>343</ele>
        <time>2014-10-26T09:34:45Z</time>
      </trkpt>
      <trkpt lat="45.86774" lon="4.81029">
        <ele>343</ele>
        <time>2014-10-26T09:34:51Z</time>
      </trkpt>
      <trkpt lat="45.86777" lon="4.81034">
        <ele>343</ele>
        <time>2014-10-26T09:34:57Z</time>
      </trkpt>
      <trkpt lat="45.86773" lon="4.81032">
        <ele>343</ele>
        <time>2014-10-26T09:35:05Z</time>
      </trkpt>
      <trkpt lat="45.86769" lon="4.81029">
        <ele>342</ele>
        <time>2014-10-26T09:35:09Z</time>
      </trkpt>
      <trkpt lat="45.86767" lon="4.81026">
        <ele>341</ele>
        <time>2014-10-26T09:35:18Z</time>
      </trkpt>
      <trkpt lat="45.86766" lon="4.81028">
        <ele>341</ele>
        <time>2014-10-26T09:35:21Z</time>
      </trkpt>
      <trkpt lat="45.86763" lon="4.81026">
        <ele>341</ele>
        <time>2014-10-26T09:35:26Z</time>
      </trkpt>
      <trkpt lat="45.86761" lon="4.81025">
        <ele>340</ele>
        <time>2014-10-26T09:35:51Z</time>
      </trkpt>
      <trkpt lat="45.86763" lon="4.81024">
        <ele>340</ele>
        <time>2014-10-26T09:35:54Z</time>
      </trkpt>
      <trkpt lat="45.86764" lon="4.81024">
        <ele>341</ele>
        <time>2014-10-26T09:35:55Z</time>
      </trkpt>
      <trkpt lat="45.86768" lon="4.8102">
        <ele>341</ele>
        <time>2014-10-26T09:36:05Z</time>
      </trkpt>
      <trkpt lat="45.86769" lon="4.81019">
        <ele>341</ele>
        <time>2014-10-26T09:36:11Z</time>
      </trkpt>
      <trkpt lat="45.8677" lon="4.81017">
        <ele>342</ele>
        <time>2014-10-26T09:36:22Z</time>
      </trkpt>
      <trkpt lat="45.8677" lon="4.81016">
        <ele>341</ele>
        <time>2014-10-26T09:36:23Z</time>
      </trkpt>
      <trkpt lat="45.86769" lon="4.81015">
        <ele>341</ele>
        <time>2014-10-26T09:36:29Z</time>
      </trkpt>
      <trkpt lat="45.86763" lon="4.81023">
        <ele>340</ele>
        <time>2014-10-26T09:36:45Z</time>
      </trkpt>
      <trkpt lat="45.86761" lon="4.8102">
        <ele>340</ele>
        <time>2014-10-26T09:36:48Z</time>
      </trkpt>
      <trkpt lat="45.86759" lon="4.81016">
        <ele>339</ele>
        <time>2014-10-26T09:36:53Z</time>
      </trkpt>
      <trkpt lat="45.86756" lon="4.81016">
        <ele>338</ele>
        <time>2014-10-26T09:36:57Z</time>
      </trkpt>
      <trkpt lat="45.86752" lon="4.81015">
        <ele>337</ele>
        <time>2014-10-26T09:37:01Z</time>
      </trkpt>
      <trkpt lat="45.86752" lon="4.81016">
        <ele>337</ele>
        <time>2014-10-26T09:37:02Z</time>
      </trkpt>
      <trkpt lat="45.86749" lon="4.8102">
        <ele>322</ele>
        <time>2014-10-26T09:37:06Z</time>
      </trkpt>
      <trkpt lat="45.86749" lon="4.81021">
        <ele>322</ele>
        <time>2014-10-26T09:37:07Z</time>
      </trkpt>
      <trkpt lat="45.86749" lon="4.81023">
        <ele>321</ele>
        <time>2014-10-26T09:37:10Z</time>
      </trkpt>
      <trkpt lat="45.86749" lon="4.81024">
        <ele>321</ele>
        <time>2014-10-26T09:37:11Z</time>
      </trkpt>
      <trkpt lat="45.86751" lon="4.81027">
        <ele>339</ele>
        <time>2014-10-26T09:37:16Z</time>
      </trkpt>
      <trkpt lat="45.86752" lon="4.8103">
        <ele>339</ele>
        <time>2014-10-26T09:37:20Z</time>
      </trkpt>
      <trkpt lat="45.86752" lon="4.81031">
        <ele>339</ele>
        <time>2014-10-26T09:37:31Z</time>
      </trkpt>
      <trkpt lat="45.86752" lon="4.81032">
        <ele>339</ele>
        <time>2014-10-26T09:37:36Z</time>
      </trkpt>
      <trkpt lat="45.86753" lon="4.81035">
        <ele>339</ele>
        <time>2014-10-26T09:37:43Z</time>
      </trkpt>
      <trkpt lat="45.86752" lon="4.81033">
        <ele>339</ele>
        <time>2014-10-26T09:37:53Z</time>
      </trkpt>
      <trkpt lat="45.86752" lon="4.81034">
        <ele>339</ele>
        <time>2014-10-26T09:37:58Z</time>
      </trkpt>
      <trkpt lat="45.8675" lon="4.81036">
        <ele>339</ele>
        <time>2014-10-26T09:38:03Z</time>
      </trkpt>
      <trkpt lat="45.8675" lon="4.81038">
        <ele>339</ele>
        <time>2014-10-26T09:38:07Z</time>
      </trkpt>
      <trkpt lat="45.86749" lon="4.81037">
        <ele>319</ele>
        <time>2014-10-26T09:38:10Z</time>
      </trkpt>
      <trkpt lat="45.86747" lon="4.81035">
        <ele>319</ele>
        <time>2014-10-26T09:38:12Z</time>
      </trkpt>
      <trkpt lat="45.86746" lon="4.81032">
        <ele>319</ele>
        <time>2014-10-26T09:38:14Z</time>
      </trkpt>
      <trkpt lat="45.86746" lon="4.81031">
        <ele>319</ele>
        <time>2014-10-26T09:38:15Z</time>
      </trkpt>
      <trkpt lat="45.86746" lon="4.81028">
        <ele>320</ele>
        <time>2014-10-26T09:38:18Z</time>
      </trkpt>
      <trkpt lat="45.86747" lon="4.81027">
        <ele>320</ele>
        <time>2014-10-26T09:38:20Z</time>
      </trkpt>
      <trkpt lat="45.86747" lon="4.81027">
        <ele>320</ele>
        <time>2014-10-26T09:38:23Z</time>
      </trkpt>
      <trkpt lat="45.86748" lon="4.81024">
        <ele>321</ele>
        <time>2014-10-26T09:38:41Z</time>
      </trkpt>
      <trkpt lat="45.86749" lon="4.81023">
        <ele>321</ele>
        <time>2014-10-26T09:38:47Z</time>
      </trkpt>
      <trkpt lat="45.8675" lon="4.81017">
        <ele>338</ele>
        <time>2014-10-26T09:38:52Z</time>
      </trkpt>
      <trkpt lat="45.86751" lon="4.81016">
        <ele>337</ele>
        <time>2014-10-26T09:38:53Z</time>
      </trkpt>
      <trkpt lat="45.86753" lon="4.81012">
        <ele>337</ele>
        <time>2014-10-26T09:38:57Z</time>
      </trkpt>
      <trkpt lat="45.86754" lon="4.81011">
        <ele>336</ele>
        <time>2014-10-26T09:38:58Z</time>
      </trkpt>
      <trkpt lat="45.86753" lon="4.8101">
        <ele>336</ele>
        <time>2014-10-26T09:38:59Z</time>
      </trkpt>
      <trkpt lat="45.86751" lon="4.81008">
        <ele>335</ele>
        <time>2014-10-26T09:39:02Z</time>
      </trkpt>
      <trkpt lat="45.86748" lon="4.81">
        <ele>330</ele>
        <time>2014-10-26T09:39:08Z</time>
      </trkpt>
      <trkpt lat="45.86747" lon="4.80994">
        <ele>330</ele>
        <time>2014-10-26T09:39:12Z</time>
      </trkpt>
      <trkpt lat="45.86747" lon="4.80991">
        <ele>330</ele>
        <time>2014-10-26T09:39:14Z</time>
      </trkpt>
      <trkpt lat="45.86748" lon="4.8099">
        <ele>330</ele>
        <time>2014-10-26T09:39:16Z</time>
      </trkpt>
      <trkpt lat="45.86748" lon="4.80991">
        <ele>330</ele>
        <time>2014-10-26T09:39:21Z</time>
      </trkpt>
      <trkpt lat="45.86753" lon="4.80992">
        <ele>339</ele>
        <time>2014-10-26T09:39:27Z</time>
      </trkpt>
      <trkpt lat="45.86758" lon="4.8099">
        <ele>342</ele>
        <time>2014-10-26T09:39:31Z</time>
      </trkpt>
      <trkpt lat="45.86761" lon="4.80991">
        <ele>343</ele>
        <time>2014-10-26T09:39:35Z</time>
      </trkpt>
      <trkpt lat="45.86761" lon="4.80992">
        <ele>343</ele>
        <time>2014-10-26T09:39:36Z</time>
      </trkpt>
      <trkpt lat="45.86762" lon="4.80993">
        <ele>343</ele>
        <time>2014-10-26T09:39:37Z</time>
      </trkpt>
      <trkpt lat="45.86764" lon="4.80999">
        <ele>343</ele>
        <time>2014-10-26T09:39:42Z</time>
      </trkpt>
      <trkpt lat="45.86765" lon="4.81">
        <ele>343</ele>
        <time>2014-10-26T09:39:43Z</time>
      </trkpt>
      <trkpt lat="45.86765" lon="4.81">
        <ele>339</ele>
        <time>2014-10-26T09:39:44Z</time>
      </trkpt>
      <trkpt lat="45.86765" lon="4.81">
        <ele>339</ele>
        <time>2014-10-26T09:39:47Z</time>
      </trkpt>
      <trkpt lat="45.86765" lon="4.81">
        <ele>339</ele>
        <time>2014-10-26T09:39:49Z</time>
      </trkpt>
      <trkpt lat="45.86763" lon="4.80997">
        <ele>343</ele>
        <time>2014-10-26T09:39:52Z</time>
      </trkpt>
      <trkpt lat="45.86761" lon="4.80994">
        <ele>342</ele>
        <time>2014-10-26T09:39:58Z</time>
      </trkpt>
      <trkpt lat="45.86763" lon="4.80992">
        <ele>344</ele>
        <time>2014-10-26T09:40:02Z</time>
      </trkpt>
      <trkpt lat="45.8676" lon="4.80983">
        <ele>346</ele>
        <time>2014-10-26T09:40:09Z</time>
      </trkpt>
      <trkpt lat="45.86736" lon="4.80962">
        <ele>331</ele>
        <time>2014-10-26T09:41:05Z</time>
      </trkpt>
      <trkpt lat="45.86745" lon="4.80984">
        <ele>330</ele>
        <time>2014-10-26T09:41:10Z</time>
      </trkpt>
      <trkpt lat="45.86745" lon="4.80989">
        <ele>330</ele>
        <time>2014-10-26T09:41:11Z</time>
      </trkpt>
      <trkpt lat="45.86746" lon="4.80992">
        <ele>330</ele>
        <time>2014-10-26T09:41:12Z</time>
      </trkpt>
      <trkpt lat="45.86752" lon="4.80989">
        <ele>341</ele>
        <time>2014-10-26T09:41:14Z</time>
      </trkpt>
      <trkpt lat="45.86754" lon="4.80988">
        <ele>341</ele>
        <time>2014-10-26T09:41:15Z</time>
      </trkpt>
      <trkpt lat="45.86756" lon="4.80986">
        <ele>343</ele>
        <time>2014-10-26T09:41:19Z</time>
      </trkpt>
      <trkpt lat="45.86758" lon="4.80986">
        <ele>344</ele>
        <time>2014-10-26T09:41:31Z</time>
      </trkpt>
      <trkpt lat="45.86762" lon="4.80985">
        <ele>346</ele>
        <time>2014-10-26T09:41:37Z</time>
      </trkpt>
      <trkpt lat="45.86764" lon="4.80985">
        <ele>347</ele>
        <time>2014-10-26T09:41:40Z</time>
      </trkpt>
      <trkpt lat="45.86764" lon="4.80986">
        <ele>346</ele>
        <time>2014-10-26T09:41:41Z</time>
      </trkpt>
      <trkpt lat="45.86765" lon="4.80986">
        <ele>347</ele>
        <time>2014-10-26T09:41:44Z</time>
      </trkpt>
      <trkpt lat="45.86765" lon="4.80989">
        <ele>346</ele>
        <time>2014-10-26T09:41:48Z</time>
      </trkpt>
      <trkpt lat="45.86765" lon="4.80994">
        <ele>344</ele>
        <time>2014-10-26T09:41:51Z</time>
      </trkpt>
      <trkpt lat="45.86765" lon="4.80995">
        <ele>344</ele>
        <time>2014-10-26T09:41:52Z</time>
      </trkpt>
      <trkpt lat="45.86767" lon="4.80991">
        <ele>346</ele>
        <time>2014-10-26T09:41:56Z</time>
      </trkpt>
      <trkpt lat="45.86762" lon="4.81003">
        <ele>338</ele>
        <time>2014-10-26T09:42:17Z</time>
      </trkpt>
      <trkpt lat="45.86763" lon="4.81006">
        <ele>338</ele>
        <time>2014-10-26T09:42:21Z</time>
      </trkpt>
      <trkpt lat="45.86763" lon="4.81004">
        <ele>338</ele>
        <time>2014-10-26T09:42:27Z</time>
      </trkpt>
      <trkpt lat="45.86764" lon="4.81">
        <ele>343</ele>
        <time>2014-10-26T09:43:01Z</time>
      </trkpt>
      <trkpt lat="45.86754" lon="4.8099">
        <ele>341</ele>
        <time>2014-10-26T09:43:53Z</time>
      </trkpt>
      <trkpt lat="45.86754" lon="4.80987">
        <ele>343</ele>
        <time>2014-10-26T09:44:12Z</time>
      </trkpt>
      <trkpt lat="45.8675" lon="4.80982">
        <ele>345</ele>
        <time>2014-10-26T09:44:26Z</time>
      </trkpt>
      <trkpt lat="45.86752" lon="4.8098">
        <ele>346</ele>
        <time>2014-10-26T09:44:33Z</time>
      </trkpt>
      <trkpt lat="45.86755" lon="4.80983">
        <ele>345</ele>
        <time>2014-10-26T09:44:36Z</time>
      </trkpt>
      <trkpt lat="45.86757" lon="4.80984">
        <ele>345</ele>
        <time>2014-10-26T09:44:38Z</time>
      </trkpt>
      <trkpt lat="45.86758" lon="4.80983">
        <ele>345</ele>
        <time>2014-10-26T09:44:43Z</time>
      </trkpt>
      <trkpt lat="45.86752" lon="4.80987">
        <ele>342</ele>
        <time>2014-10-26T09:44:49Z</time>
      </trkpt>
      <trkpt lat="45.86747" lon="4.80988">
        <ele>330</ele>
        <time>2014-10-26T09:44:54Z</time>
      </trkpt>
      <trkpt lat="45.86746" lon="4.80987">
        <ele>330</ele>
        <time>2014-10-26T09:44:57Z</time>
      </trkpt>
      <trkpt lat="45.86746" lon="4.80989">
        <ele>330</ele>
        <time>2014-10-26T09:45:00Z</time>
      </trkpt>
      <trkpt lat="45.86747" lon="4.8099">
        <ele>330</ele>
        <time>2014-10-26T09:45:08Z</time>
      </trkpt>
      <trkpt lat="45.8675" lon="4.80995">
        <ele>336</ele>
        <time>2014-10-26T09:46:45Z</time>
      </trkpt>
      <trkpt lat="45.86751" lon="4.80993">
        <ele>337</ele>
        <time>2014-10-26T09:46:53Z</time>
      </trkpt>
      <trkpt lat="45.8675" lon="4.80992">
        <ele>338</ele>
        <time>2014-10-26T09:46:54Z</time>
      </trkpt>
      <trkpt lat="45.8675" lon="4.8099">
        <ele>340</ele>
        <time>2014-10-26T09:46:56Z</time>
      </trkpt>
      <trkpt lat="45.8675" lon="4.80989">
        <ele>330</ele>
        <time>2014-10-26T09:46:57Z</time>
      </trkpt>
      <trkpt lat="45.86747" lon="4.80988">
        <ele>330</ele>
        <time>2014-10-26T09:47:00Z</time>
      </trkpt>
      <trkpt lat="45.86745" lon="4.80987">
        <ele>330</ele>
        <time>2014-10-26T09:47:01Z</time>
      </trkpt>
      <trkpt lat="45.86742" lon="4.80986">
        <ele>330</ele>
        <time>2014-10-26T09:47:05Z</time>
      </trkpt>
      <trkpt lat="45.86741" lon="4.80984">
        <ele>330</ele>
        <time>2014-10-26T09:47:06Z</time>
      </trkpt>
      <trkpt lat="45.86737" lon="4.80979">
        <ele>330</ele>
        <time>2014-10-26T09:47:12Z</time>
      </trkpt>
      <trkpt lat="45.86735" lon="4.80977">
        <ele>329</ele>
        <time>2014-10-26T09:47:14Z</time>
      </trkpt>
      <trkpt lat="45.86733" lon="4.80976">
        <ele>329</ele>
        <time>2014-10-26T09:47:16Z</time>
      </trkpt>
      <trkpt lat="45.86733" lon="4.80976">
        <ele>329</ele>
        <time>2014-10-26T09:47:17Z</time>
      </trkpt>
      <trkpt lat="45.86733" lon="4.80978">
        <ele>329</ele>
        <time>2014-10-26T09:47:23Z</time>
      </trkpt>
      <trkpt lat="45.86732" lon="4.8098">
        <ele>329</ele>
        <time>2014-10-26T09:47:26Z</time>
      </trkpt>
      <trkpt lat="45.86732" lon="4.80981">
        <ele>329</ele>
        <time>2014-10-26T09:47:28Z</time>
      </trkpt>
      <trkpt lat="45.86732" lon="4.80982">
        <ele>329</ele>
        <time>2014-10-26T09:47:29Z</time>
      </trkpt>
      <trkpt lat="45.86733" lon="4.80995">
        <ele>329</ele>
        <time>2014-10-26T09:47:34Z</time>
      </trkpt>
      <trkpt lat="45.86734" lon="4.80999">
        <ele>329</ele>
        <time>2014-10-26T09:47:36Z</time>
      </trkpt>
      <trkpt lat="45.86738" lon="4.81005">
        <ele>324</ele>
        <time>2014-10-26T09:47:39Z</time>
      </trkpt>
      <trkpt lat="45.86738" lon="4.8101">
        <ele>323</ele>
        <time>2014-10-26T09:47:42Z</time>
      </trkpt>
      <trkpt lat="45.86738" lon="4.81014">
        <ele>322</ele>
        <time>2014-10-26T09:47:44Z</time>
      </trkpt>
      <trkpt lat="45.86732" lon="4.81017">
        <ele>320</ele>
        <time>2014-10-26T09:47:47Z</time>
      </trkpt>
      <trkpt lat="45.86729" lon="4.81019">
        <ele>319</ele>
        <time>2014-10-26T09:47:48Z</time>
      </trkpt>
      <trkpt lat="45.86727" lon="4.81021">
        <ele>318</ele>
        <time>2014-10-26T09:47:49Z</time>
      </trkpt>
      <trkpt lat="45.86715" lon="4.81029">
        <ele>316</ele>
        <time>2014-10-26T09:47:54Z</time>
      </trkpt>
      <trkpt lat="45.86709" lon="4.81035">
        <ele>314</ele>
        <time>2014-10-26T09:47:58Z</time>
      </trkpt>
      <trkpt lat="45.86706" lon="4.81047">
        <ele>313</ele>
        <time>2014-10-26T09:48:02Z</time>
      </trkpt>
      <trkpt lat="45.86707" lon="4.8105">
        <ele>313</ele>
        <time>2014-10-26T09:48:03Z</time>
      </trkpt>
      <trkpt lat="45.8671" lon="4.81071">
        <ele>312</ele>
        <time>2014-10-26T09:48:09Z</time>
      </trkpt>
      <trkpt lat="45.86712" lon="4.81076">
        <ele>312</ele>
        <time>2014-10-26T09:48:11Z</time>
      </trkpt>
      <trkpt lat="45.86717" lon="4.81089">
        <ele>304</ele>
        <time>2014-10-26T09:48:15Z</time>
      </trkpt>
      <trkpt lat="45.86718" lon="4.81104">
        <ele>304</ele>
        <time>2014-10-26T09:48:19Z</time>
      </trkpt>
      <trkpt lat="45.86719" lon="4.81107">
        <ele>303</ele>
        <time>2014-10-26T09:48:20Z</time>
      </trkpt>
      <trkpt lat="45.86722" lon="4.81124">
        <ele>302</ele>
        <time>2014-10-26T09:48:25Z</time>
      </trkpt>
      <trkpt lat="45.86725" lon="4.81131">
        <ele>302</ele>
        <time>2014-10-26T09:48:27Z</time>
      </trkpt>
      <trkpt lat="45.86729" lon="4.81146">
        <ele>302</ele>
        <time>2014-10-26T09:48:31Z</time>
      </trkpt>
      <trkpt lat="45.86731" lon="4.81157">
        <ele>302</ele>
        <time>2014-10-26T09:48:34Z</time>
      </trkpt>
      <trkpt lat="45.86733" lon="4.81165">
        <ele>303</ele>
        <time>2014-10-26T09:48:36Z</time>
      </trkpt>
      <trkpt lat="45.8674" lon="4.81183">
        <ele>295</ele>
        <time>2014-10-26T09:48:41Z</time>
      </trkpt>
      <trkpt lat="45.8675" lon="4.81207">
        <ele>291</ele>
        <time>2014-10-26T09:48:48Z</time>
      </trkpt>
      <trkpt lat="45.86759" lon="4.81227">
        <ele>307</ele>
        <time>2014-10-26T09:48:54Z</time>
      </trkpt>
      <trkpt lat="45.8676" lon="4.81231">
        <ele>306</ele>
        <time>2014-10-26T09:48:55Z</time>
      </trkpt>
      <trkpt lat="45.86763" lon="4.81242">
        <ele>303</ele>
        <time>2014-10-26T09:48:58Z</time>
      </trkpt>
      <trkpt lat="45.86764" lon="4.81249">
        <ele>302</ele>
        <time>2014-10-26T09:49:00Z</time>
      </trkpt>
      <trkpt lat="45.86765" lon="4.81256">
        <ele>295</ele>
        <time>2014-10-26T09:49:02Z</time>
      </trkpt>
      <trkpt lat="45.86768" lon="4.81273">
        <ele>296</ele>
        <time>2014-10-26T09:49:06Z</time>
      </trkpt>
      <trkpt lat="45.86771" lon="4.8128">
        <ele>296</ele>
        <time>2014-10-26T09:49:08Z</time>
      </trkpt>
      <trkpt lat="45.86773" lon="4.81283">
        <ele>296</ele>
        <time>2014-10-26T09:49:09Z</time>
      </trkpt>
      <trkpt lat="45.86776" lon="4.81295">
        <ele>295</ele>
        <time>2014-10-26T09:49:12Z</time>
      </trkpt>
      <trkpt lat="45.86778" lon="4.81298">
        <ele>295</ele>
        <time>2014-10-26T09:49:13Z</time>
      </trkpt>
      <trkpt lat="45.8678" lon="4.81308">
        <ele>294</ele>
        <time>2014-10-26T09:49:16Z</time>
      </trkpt>
      <trkpt lat="45.86781" lon="4.81312">
        <ele>294</ele>
        <time>2014-10-26T09:49:17Z</time>
      </trkpt>
      <trkpt lat="45.86782" lon="4.81315">
        <ele>294</ele>
        <time>2014-10-26T09:49:18Z</time>
      </trkpt>
      <trkpt lat="45.86787" lon="4.81332">
        <ele>294</ele>
        <time>2014-10-26T09:49:22Z</time>
      </trkpt>
      <trkpt lat="45.86787" lon="4.81337">
        <ele>282</ele>
        <time>2014-10-26T09:49:23Z</time>
      </trkpt>
      <trkpt lat="45.86787" lon="4.81341">
        <ele>282</ele>
        <time>2014-10-26T09:49:24Z</time>
      </trkpt>
      <trkpt lat="45.86792" lon="4.81358">
        <ele>283</ele>
        <time>2014-10-26T09:49:28Z</time>
      </trkpt>
      <trkpt lat="45.86793" lon="4.81362">
        <ele>283</ele>
        <time>2014-10-26T09:49:29Z</time>
      </trkpt>
      <trkpt lat="45.86797" lon="4.81382">
        <ele>282</ele>
        <time>2014-10-26T09:49:34Z</time>
      </trkpt>
      <trkpt lat="45.86798" lon="4.81386">
        <ele>281</ele>
        <time>2014-10-26T09:49:35Z</time>
      </trkpt>
      <trkpt lat="45.86801" lon="4.81402">
        <ele>281</ele>
        <time>2014-10-26T09:49:39Z</time>
      </trkpt>
      <trkpt lat="45.86803" lon="4.81414">
        <ele>282</ele>
        <time>2014-10-26T09:49:42Z</time>
      </trkpt>
      <trkpt lat="45.86805" lon="4.81422">
        <ele>274</ele>
        <time>2014-10-26T09:49:44Z</time>
      </trkpt>
      <trkpt lat="45.8681" lon="4.81442">
        <ele>273</ele>
        <time>2014-10-26T09:49:50Z</time>
      </trkpt>
      <trkpt lat="45.86815" lon="4.81456">
        <ele>272</ele>
        <time>2014-10-26T09:49:55Z</time>
      </trkpt>
      <trkpt lat="45.86817" lon="4.81466">
        <ele>272</ele>
        <time>2014-10-26T09:49:58Z</time>
      </trkpt>
      <trkpt lat="45.86819" lon="4.81473">
        <ele>272</ele>
        <time>2014-10-26T09:50:00Z</time>
      </trkpt>
      <trkpt lat="45.86823" lon="4.81487">
        <ele>273</ele>
        <time>2014-10-26T09:50:04Z</time>
      </trkpt>
      <trkpt lat="45.86824" lon="4.81493">
        <ele>274</ele>
        <time>2014-10-26T09:50:06Z</time>
      </trkpt>
      <trkpt lat="45.86827" lon="4.81499">
        <ele>276</ele>
        <time>2014-10-26T09:50:08Z</time>
      </trkpt>
      <trkpt lat="45.86828" lon="4.81502">
        <ele>273</ele>
        <time>2014-10-26T09:50:09Z</time>
      </trkpt>
      <trkpt lat="45.86827" lon="4.81514">
        <ele>268</ele>
        <time>2014-10-26T09:50:13Z</time>
      </trkpt>
      <trkpt lat="45.86827" lon="4.81518">
        <ele>267</ele>
        <time>2014-10-26T09:50:14Z</time>
      </trkpt>
      <trkpt lat="45.86828" lon="4.81536">
        <ele>263</ele>
        <time>2014-10-26T09:50:18Z</time>
      </trkpt>
      <trkpt lat="45.86829" lon="4.81546">
        <ele>262</ele>
        <time>2014-10-26T09:50:21Z</time>
      </trkpt>
      <trkpt lat="45.8683" lon="4.81552">
        <ele>261</ele>
        <time>2014-10-26T09:50:23Z</time>
      </trkpt>
      <trkpt lat="45.8683" lon="4.81573">
        <ele>263</ele>
        <time>2014-10-26T09:50:29Z</time>
      </trkpt>
      <trkpt lat="45.86831" lon="4.81588">
        <ele>262</ele>
        <time>2014-10-26T09:50:33Z</time>
      </trkpt>
      <trkpt lat="45.86831" lon="4.81592">
        <ele>261</ele>
        <time>2014-10-26T09:50:34Z</time>
      </trkpt>
      <trkpt lat="45.86832" lon="4.81599">
        <ele>258</ele>
        <time>2014-10-26T09:50:36Z</time>
      </trkpt>
      <trkpt lat="45.86832" lon="4.81603">
        <ele>256</ele>
        <time>2014-10-26T09:50:37Z</time>
      </trkpt>
      <trkpt lat="45.86831" lon="4.81614">
        <ele>254</ele>
        <time>2014-10-26T09:50:40Z</time>
      </trkpt>
      <trkpt lat="45.86831" lon="4.81626">
        <ele>252</ele>
        <time>2014-10-26T09:50:43Z</time>
      </trkpt>
      <trkpt lat="45.8683" lon="4.81638">
        <ele>251</ele>
        <time>2014-10-26T09:50:46Z</time>
      </trkpt>
      <trkpt lat="45.86829" lon="4.81652">
        <ele>252</ele>
        <time>2014-10-26T09:50:50Z</time>
      </trkpt>
      <trkpt lat="45.86828" lon="4.8166">
        <ele>252</ele>
        <time>2014-10-26T09:50:52Z</time>
      </trkpt>
      <trkpt lat="45.86828" lon="4.81674">
        <ele>250</ele>
        <time>2014-10-26T09:50:56Z</time>
      </trkpt>
      <trkpt lat="45.86827" lon="4.81681">
        <ele>248</ele>
        <time>2014-10-26T09:50:58Z</time>
      </trkpt>
      <trkpt lat="45.86824" lon="4.81694">
        <ele>245</ele>
        <time>2014-10-26T09:51:02Z</time>
      </trkpt>
      <trkpt lat="45.86823" lon="4.81708">
        <ele>243</ele>
        <time>2014-10-26T09:51:06Z</time>
      </trkpt>
      <trkpt lat="45.86821" lon="4.81723">
        <ele>241</ele>
        <time>2014-10-26T09:51:11Z</time>
      </trkpt>
      <trkpt lat="45.8682" lon="4.81734">
        <ele>240</ele>
        <time>2014-10-26T09:51:14Z</time>
      </trkpt>
      <trkpt lat="45.8682" lon="4.81741">
        <ele>240</ele>
        <time>2014-10-26T09:51:16Z</time>
      </trkpt>
      <trkpt lat="45.86823" lon="4.81763">
        <ele>237</ele>
        <time>2014-10-26T09:51:22Z</time>
      </trkpt>
      <trkpt lat="45.86828" lon="4.81785">
        <ele>236</ele>
        <time>2014-10-26T09:51:28Z</time>
      </trkpt>
      <trkpt lat="45.86829" lon="4.81789">
        <ele>236</ele>
        <time>2014-10-26T09:51:29Z</time>
      </trkpt>
      <trkpt lat="45.8683" lon="4.818">
        <ele>235</ele>
        <time>2014-10-26T09:51:32Z</time>
      </trkpt>
      <trkpt lat="45.86832" lon="4.81815">
        <ele>234</ele>
        <time>2014-10-26T09:51:36Z</time>
      </trkpt>
      <trkpt lat="45.86833" lon="4.81818">
        <ele>233</ele>
        <time>2014-10-26T09:51:37Z</time>
      </trkpt>
      <trkpt lat="45.8684" lon="4.81837">
        <ele>230</ele>
        <time>2014-10-26T09:51:42Z</time>
      </trkpt>
      <trkpt lat="45.86841" lon="4.8184">
        <ele>230</ele>
        <time>2014-10-26T09:51:43Z</time>
      </trkpt>
      <trkpt lat="45.86848" lon="4.81856">
        <ele>231</ele>
        <time>2014-10-26T09:51:48Z</time>
      </trkpt>
      <trkpt lat="45.86851" lon="4.81862">
        <ele>232</ele>
        <time>2014-10-26T09:51:50Z</time>
      </trkpt>
      <trkpt lat="45.86859" lon="4.81878">
        <ele>232</ele>
        <time>2014-10-26T09:51:55Z</time>
      </trkpt>
      <trkpt lat="45.86862" lon="4.81884">
        <ele>232</ele>
        <time>2014-10-26T09:51:57Z</time>
      </trkpt>
      <trkpt lat="45.86863" lon="4.81892">
        <ele>232</ele>
        <time>2014-10-26T09:52:00Z</time>
      </trkpt>
      <trkpt lat="45.86862" lon="4.81893">
        <ele>232</ele>
        <time>2014-10-26T09:52:01Z</time>
      </trkpt>
      <trkpt lat="45.86861" lon="4.81895">
        <ele>232</ele>
        <time>2014-10-26T09:52:05Z</time>
      </trkpt>
      <trkpt lat="45.86859" lon="4.81894">
        <ele>232</ele>
        <time>2014-10-26T09:52:09Z</time>
      </trkpt>
      <trkpt lat="45.8686" lon="4.81897">
        <ele>232</ele>
        <time>2014-10-26T09:52:11Z</time>
      </trkpt>
      <trkpt lat="45.8686" lon="4.81902">
        <ele>232</ele>
        <time>2014-10-26T09:52:14Z</time>
      </trkpt>
      <trkpt lat="45.86859" lon="4.81904">
        <ele>232</ele>
        <time>2014-10-26T09:52:15Z</time>
      </trkpt>
      <trkpt lat="45.86858" lon="4.81905">
        <ele>232</ele>
        <time>2014-10-26T09:52:16Z</time>
      </trkpt>
      <trkpt lat="45.86852" lon="4.8191">
        <ele>233</ele>
        <time>2014-10-26T09:52:21Z</time>
      </trkpt>
      <trkpt lat="45.86849" lon="4.81914">
        <ele>233</ele>
        <time>2014-10-26T09:52:23Z</time>
      </trkpt>
      <trkpt lat="45.86845" lon="4.81919">
        <ele>234</ele>
        <time>2014-10-26T09:52:26Z</time>
      </trkpt>
      <trkpt lat="45.86845" lon="4.8192">
        <ele>234</ele>
        <time>2014-10-26T09:52:27Z</time>
      </trkpt>
      <trkpt lat="45.86844" lon="4.8192">
        <ele>234</ele>
        <time>2014-10-26T09:52:28Z</time>
      </trkpt>
      <trkpt lat="45.86842" lon="4.81924">
        <ele>234</ele>
        <time>2014-10-26T09:52:30Z</time>
      </trkpt>
      <trkpt lat="45.86839" lon="4.81926">
        <ele>234</ele>
        <time>2014-10-26T09:52:33Z</time>
      </trkpt>
      <trkpt lat="45.86837" lon="4.81926">
        <ele>235</ele>
        <time>2014-10-26T09:52:35Z</time>
      </trkpt>
      <trkpt lat="45.8683" lon="4.81924">
        <ele>238</ele>
        <time>2014-10-26T09:52:40Z</time>
      </trkpt>
      <trkpt lat="45.86826" lon="4.81923">
        <ele>238</ele>
        <time>2014-10-26T09:52:44Z</time>
      </trkpt>
      <trkpt lat="45.86823" lon="4.81919">
        <ele>239</ele>
        <time>2014-10-26T09:52:47Z</time>
      </trkpt>
      <trkpt lat="45.86816" lon="4.81911">
        <ele>237</ele>
        <time>2014-10-26T09:52:54Z</time>
      </trkpt>
      <trkpt lat="45.86812" lon="4.81907">
        <ele>238</ele>
        <time>2014-10-26T09:52:59Z</time>
      </trkpt>
      <trkpt lat="45.86811" lon="4.81905">
        <ele>238</ele>
        <time>2014-10-26T09:53:01Z</time>
      </trkpt>
      <trkpt lat="45.86806" lon="4.819">
        <ele>238</ele>
        <time>2014-10-26T09:53:06Z</time>
      </trkpt>
      <trkpt lat="45.86806" lon="4.819">
        <ele>238</ele>
        <time>2014-10-26T09:53:07Z</time>
      </trkpt>
      <trkpt lat="45.86802" lon="4.81897">
        <ele>239</ele>
        <time>2014-10-26T09:53:10Z</time>
      </trkpt>
      <trkpt lat="45.86799" lon="4.81892">
        <ele>239</ele>
        <time>2014-10-26T09:53:13Z</time>
      </trkpt>
      <trkpt lat="45.86796" lon="4.8189">
        <ele>239</ele>
        <time>2014-10-26T09:53:15Z</time>
      </trkpt>
      <trkpt lat="45.86793" lon="4.81885">
        <ele>239</ele>
        <time>2014-10-26T09:53:18Z</time>
      </trkpt>
      <trkpt lat="45.86789" lon="4.81877">
        <ele>239</ele>
        <time>2014-10-26T09:53:24Z</time>
      </trkpt>
      <trkpt lat="45.86788" lon="4.81876">
        <ele>239</ele>
        <time>2014-10-26T09:53:25Z</time>
      </trkpt>
      <trkpt lat="45.86783" lon="4.8187">
        <ele>240</ele>
        <time>2014-10-26T09:53:30Z</time>
      </trkpt>
      <trkpt lat="45.8678" lon="4.81867">
        <ele>240</ele>
        <time>2014-10-26T09:53:32Z</time>
      </trkpt>
      <trkpt lat="45.86774" lon="4.81859">
        <ele>240</ele>
        <time>2014-10-26T09:53:38Z</time>
      </trkpt>
      <trkpt lat="45.8677" lon="4.81855">
        <ele>241</ele>
        <time>2014-10-26T09:53:43Z</time>
      </trkpt>
      <trkpt lat="45.86768" lon="4.81852">
        <ele>241</ele>
        <time>2014-10-26T09:53:45Z</time>
      </trkpt>
      <trkpt lat="45.8676" lon="4.81843">
        <ele>242</ele>
        <time>2014-10-26T09:53:51Z</time>
      </trkpt>
      <trkpt lat="45.86754" lon="4.81835">
        <ele>244</ele>
        <time>2014-10-26T09:53:58Z</time>
      </trkpt>
      <trkpt lat="45.86752" lon="4.81829">
        <ele>244</ele>
        <time>2014-10-26T09:54:02Z</time>
      </trkpt>
      <trkpt lat="45.86751" lon="4.81824">
        <ele>243</ele>
        <time>2014-10-26T09:54:04Z</time>
      </trkpt>
      <trkpt lat="45.86751" lon="4.81812">
        <ele>241</ele>
        <time>2014-10-26T09:54:11Z</time>
      </trkpt>
      <trkpt lat="45.86751" lon="4.81809">
        <ele>240</ele>
        <time>2014-10-26T09:54:12Z</time>
      </trkpt>
      <trkpt lat="45.8675" lon="4.81802">
        <ele>240</ele>
        <time>2014-10-26T09:54:15Z</time>
      </trkpt>
      <trkpt lat="45.86749" lon="4.81796">
        <ele>250</ele>
        <time>2014-10-26T09:54:18Z</time>
      </trkpt>
      <trkpt lat="45.86747" lon="4.81791">
        <ele>249</ele>
        <time>2014-10-26T09:54:20Z</time>
      </trkpt>
      <trkpt lat="45.86746" lon="4.81782">
        <ele>249</ele>
        <time>2014-10-26T09:54:23Z</time>
      </trkpt>
      <trkpt lat="45.86745" lon="4.8178">
        <ele>248</ele>
        <time>2014-10-26T09:54:24Z</time>
      </trkpt>
      <trkpt lat="45.86742" lon="4.81768">
        <ele>246</ele>
        <time>2014-10-26T09:54:28Z</time>
      </trkpt>
      <trkpt lat="45.86742" lon="4.81765">
        <ele>246</ele>
        <time>2014-10-26T09:54:29Z</time>
      </trkpt>
      <trkpt lat="45.86742" lon="4.81755">
        <ele>243</ele>
        <time>2014-10-26T09:54:32Z</time>
      </trkpt>
      <trkpt lat="45.8674" lon="4.81749">
        <ele>241</ele>
        <time>2014-10-26T09:54:34Z</time>
      </trkpt>
      <trkpt lat="45.86735" lon="4.81739">
        <ele>243</ele>
        <time>2014-10-26T09:54:39Z</time>
      </trkpt>
      <trkpt lat="45.86734" lon="4.81738">
        <ele>243</ele>
        <time>2014-10-26T09:54:40Z</time>
      </trkpt>
      <trkpt lat="45.86732" lon="4.81732">
        <ele>244</ele>
        <time>2014-10-26T09:54:43Z</time>
      </trkpt>
      <trkpt lat="45.8673" lon="4.81728">
        <ele>245</ele>
        <time>2014-10-26T09:54:45Z</time>
      </trkpt>
      <trkpt lat="45.86726" lon="4.81716">
        <ele>245</ele>
        <time>2014-10-26T09:54:50Z</time>
      </trkpt>
      <trkpt lat="45.86726" lon="4.81714">
        <ele>245</ele>
        <time>2014-10-26T09:54:51Z</time>
      </trkpt>
      <trkpt lat="45.86723" lon="4.81708">
        <ele>245</ele>
        <time>2014-10-26T09:54:53Z</time>
      </trkpt>
      <trkpt lat="45.86721" lon="4.81705">
        <ele>245</ele>
        <time>2014-10-26T09:54:54Z</time>
      </trkpt>
      <trkpt lat="45.86715" lon="4.81693">
        <ele>246</ele>
        <time>2014-10-26T09:54:59Z</time>
      </trkpt>
      <trkpt lat="45.86709" lon="4.81687">
        <ele>246</ele>
        <time>2014-10-26T09:55:01Z</time>
      </trkpt>
      <trkpt lat="45.86706" lon="4.8168">
        <ele>247</ele>
        <time>2014-10-26T09:55:03Z</time>
      </trkpt>
      <trkpt lat="45.86702" lon="4.81672">
        <ele>247</ele>
        <time>2014-10-26T09:55:07Z</time>
      </trkpt>
      <trkpt lat="45.867" lon="4.81668">
        <ele>248</ele>
        <time>2014-10-26T09:55:09Z</time>
      </trkpt>
      <trkpt lat="45.86697" lon="4.81664">
        <ele>246</ele>
        <time>2014-10-26T09:55:11Z</time>
      </trkpt>
      <trkpt lat="45.86693" lon="4.8166">
        <ele>246</ele>
        <time>2014-10-26T09:55:14Z</time>
      </trkpt>
      <trkpt lat="45.86692" lon="4.81659">
        <ele>246</ele>
        <time>2014-10-26T09:55:15Z</time>
      </trkpt>
      <trkpt lat="45.86684" lon="4.81651">
        <ele>247</ele>
        <time>2014-10-26T09:55:19Z</time>
      </trkpt>
      <trkpt lat="45.86682" lon="4.8165">
        <ele>247</ele>
        <time>2014-10-26T09:55:20Z</time>
      </trkpt>
      <trkpt lat="45.86676" lon="4.81645">
        <ele>248</ele>
        <time>2014-10-26T09:55:24Z</time>
      </trkpt>
      <trkpt lat="45.86673" lon="4.81642">
        <ele>247</ele>
        <time>2014-10-26T09:55:27Z</time>
      </trkpt>
      <trkpt lat="45.86672" lon="4.81641">
        <ele>247</ele>
        <time>2014-10-26T09:55:29Z</time>
      </trkpt>
      <trkpt lat="45.8667" lon="4.81639">
        <ele>247</ele>
        <time>2014-10-26T09:55:31Z</time>
      </trkpt>
      <trkpt lat="45.86666" lon="4.81635">
        <ele>260</ele>
        <time>2014-10-26T09:55:34Z</time>
      </trkpt>
      <trkpt lat="45.86664" lon="4.81635">
        <ele>261</ele>
        <time>2014-10-26T09:55:35Z</time>
      </trkpt>
      <trkpt lat="45.86657" lon="4.81633">
        <ele>261</ele>
        <time>2014-10-26T09:55:40Z</time>
      </trkpt>
      <trkpt lat="45.86651" lon="4.81635">
        <ele>262</ele>
        <time>2014-10-26T09:55:46Z</time>
      </trkpt>
      <trkpt lat="45.86649" lon="4.8164">
        <ele>262</ele>
        <time>2014-10-26T09:55:52Z</time>
      </trkpt>
      <trkpt lat="45.86648" lon="4.8164">
        <ele>262</ele>
        <time>2014-10-26T09:55:54Z</time>
      </trkpt>
      <trkpt lat="45.86647" lon="4.81642">
        <ele>262</ele>
        <time>2014-10-26T09:55:56Z</time>
      </trkpt>
      <trkpt lat="45.8664" lon="4.81642">
        <ele>264</ele>
        <time>2014-10-26T09:56:01Z</time>
      </trkpt>
      <trkpt lat="45.86637" lon="4.81642">
        <ele>264</ele>
        <time>2014-10-26T09:56:03Z</time>
      </trkpt>
      <trkpt lat="45.86629" lon="4.81641">
        <ele>266</ele>
        <time>2014-10-26T09:56:07Z</time>
      </trkpt>
      <trkpt lat="45.86627" lon="4.81656">
        <ele>267</ele>
        <time>2014-10-26T09:56:21Z</time>
      </trkpt>
      <trkpt lat="45.86631" lon="4.81662">
        <ele>266</ele>
        <time>2014-10-26T09:56:25Z</time>
      </trkpt>
      <trkpt lat="45.86631" lon="4.81666">
        <ele>266</ele>
        <time>2014-10-26T09:56:27Z</time>
      </trkpt>
      <trkpt lat="45.86633" lon="4.81669">
        <ele>270</ele>
        <time>2014-10-26T09:56:29Z</time>
      </trkpt>
      <trkpt lat="45.86632" lon="4.81672">
        <ele>270</ele>
        <time>2014-10-26T09:56:31Z</time>
      </trkpt>
      <trkpt lat="45.86633" lon="4.81677">
        <ele>270</ele>
        <time>2014-10-26T09:56:36Z</time>
      </trkpt>
      <trkpt lat="45.8663" lon="4.81683">
        <ele>271</ele>
        <time>2014-10-26T09:56:41Z</time>
      </trkpt>
      <trkpt lat="45.8663" lon="4.81685">
        <ele>271</ele>
        <time>2014-10-26T09:56:44Z</time>
      </trkpt>
      <trkpt lat="45.86632" lon="4.81689">
        <ele>271</ele>
        <time>2014-10-26T09:56:50Z</time>
      </trkpt>
      <trkpt lat="45.86632" lon="4.81692">
        <ele>271</ele>
        <time>2014-10-26T09:56:52Z</time>
      </trkpt>
      <trkpt lat="45.86632" lon="4.81694">
        <ele>271</ele>
        <time>2014-10-26T09:56:53Z</time>
      </trkpt>
      <trkpt lat="45.86631" lon="4.81695">
        <ele>271</ele>
        <time>2014-10-26T09:56:55Z</time>
      </trkpt>
      <trkpt lat="45.8663" lon="4.81697">
        <ele>272</ele>
        <time>2014-10-26T09:56:59Z</time>
      </trkpt>
      <trkpt lat="45.86628" lon="4.81699">
        <ele>272</ele>
        <time>2014-10-26T09:57:03Z</time>
      </trkpt>
      <trkpt lat="45.86628" lon="4.81715">
        <ele>273</ele>
        <time>2014-10-26T09:57:23Z</time>
      </trkpt>
      <trkpt lat="45.8663" lon="4.81718">
        <ele>272</ele>
        <time>2014-10-26T09:57:25Z</time>
      </trkpt>
      <trkpt lat="45.8663" lon="4.8172">
        <ele>272</ele>
        <time>2014-10-26T09:57:26Z</time>
      </trkpt>
      <trkpt lat="45.86627" lon="4.81725">
        <ele>273</ele>
        <time>2014-10-26T09:57:29Z</time>
      </trkpt>
      <trkpt lat="45.86625" lon="4.81724">
        <ele>273</ele>
        <time>2014-10-26T09:57:33Z</time>
      </trkpt>
      <trkpt lat="45.86623" lon="4.8172">
        <ele>274</ele>
        <time>2014-10-26T09:57:36Z</time>
      </trkpt>
      <trkpt lat="45.86623" lon="4.81719">
        <ele>274</ele>
        <time>2014-10-26T09:57:37Z</time>
      </trkpt>
      <trkpt lat="45.86618" lon="4.81716">
        <ele>274</ele>
        <time>2014-10-26T09:57:42Z</time>
      </trkpt>
      <trkpt lat="45.86616" lon="4.81717">
        <ele>275</ele>
        <time>2014-10-26T09:57:43Z</time>
      </trkpt>
      <trkpt lat="45.86616" lon="4.81717">
        <ele>275</ele>
        <time>2014-10-26T09:57:45Z</time>
      </trkpt>
      <trkpt lat="45.86615" lon="4.81718">
        <ele>275</ele>
        <time>2014-10-26T09:57:47Z</time>
      </trkpt>
      <trkpt lat="45.86609" lon="4.81732">
        <ele>277</ele>
        <time>2014-10-26T09:57:56Z</time>
      </trkpt>
      <trkpt lat="45.86606" lon="4.81739">
        <ele>278</ele>
        <time>2014-10-26T09:58:05Z</time>
      </trkpt>
      <trkpt lat="45.86606" lon="4.81729">
        <ele>277</ele>
        <time>2014-10-26T09:58:11Z</time>
      </trkpt>
      <trkpt lat="45.86606" lon="4.81728">
        <ele>277</ele>
        <time>2014-10-26T09:58:12Z</time>
      </trkpt>
      <trkpt lat="45.86606" lon="4.8172">
        <ele>277</ele>
        <time>2014-10-26T09:58:16Z</time>
      </trkpt>
      <trkpt lat="45.86603" lon="4.81707">
        <ele>277</ele>
        <time>2014-10-26T09:58:23Z</time>
      </trkpt>
      <trkpt lat="45.86602" lon="4.81703">
        <ele>277</ele>
        <time>2014-10-26T09:58:26Z</time>
      </trkpt>
      <trkpt lat="45.866" lon="4.817">
        <ele>277</ele>
        <time>2014-10-26T09:58:29Z</time>
      </trkpt>
      <trkpt lat="45.86597" lon="4.81693">
        <ele>278</ele>
        <time>2014-10-26T09:58:34Z</time>
      </trkpt>
      <trkpt lat="45.86596" lon="4.81692">
        <ele>278</ele>
        <time>2014-10-26T09:58:35Z</time>
      </trkpt>
      <trkpt lat="45.86593" lon="4.81687">
        <ele>279</ele>
        <time>2014-10-26T09:58:39Z</time>
      </trkpt>
      <trkpt lat="45.8659" lon="4.81684">
        <ele>280</ele>
        <time>2014-10-26T09:58:42Z</time>
      </trkpt>
      <trkpt lat="45.86589" lon="4.81683">
        <ele>280</ele>
        <time>2014-10-26T09:58:43Z</time>
      </trkpt>
      <trkpt lat="45.86583" lon="4.81683">
        <ele>291</ele>
        <time>2014-10-26T09:58:47Z</time>
      </trkpt>
      <trkpt lat="45.86581" lon="4.81685">
        <ele>291</ele>
        <time>2014-10-26T09:58:49Z</time>
      </trkpt>
      <trkpt lat="45.8658" lon="4.81688">
        <ele>292</ele>
        <time>2014-10-26T09:58:51Z</time>
      </trkpt>
      <trkpt lat="45.8658" lon="4.81695">
        <ele>292</ele>
        <time>2014-10-26T09:58:55Z</time>
      </trkpt>
      <trkpt lat="45.8658" lon="4.81696">
        <ele>292</ele>
        <time>2014-10-26T09:58:56Z</time>
      </trkpt>
      <trkpt lat="45.8658" lon="4.81701">
        <ele>293</ele>
        <time>2014-10-26T09:59:00Z</time>
      </trkpt>
      <trkpt lat="45.86581" lon="4.81703">
        <ele>293</ele>
        <time>2014-10-26T09:59:01Z</time>
      </trkpt>
      <trkpt lat="45.86582" lon="4.81707">
        <ele>293</ele>
        <time>2014-10-26T09:59:04Z</time>
      </trkpt>
      <trkpt lat="45.86583" lon="4.81712">
        <ele>293</ele>
        <time>2014-10-26T09:59:07Z</time>
      </trkpt>
      <trkpt lat="45.86584" lon="4.81715">
        <ele>279</ele>
        <time>2014-10-26T09:59:09Z</time>
      </trkpt>
      <trkpt lat="45.86583" lon="4.81724">
        <ele>292</ele>
        <time>2014-10-26T09:59:13Z</time>
      </trkpt>
      <trkpt lat="45.86583" lon="4.81729">
        <ele>292</ele>
        <time>2014-10-26T09:59:15Z</time>
      </trkpt>
      <trkpt lat="45.86582" lon="4.81733">
        <ele>291</ele>
        <time>2014-10-26T09:59:17Z</time>
      </trkpt>
      <trkpt lat="45.86582" lon="4.81739">
        <ele>291</ele>
        <time>2014-10-26T09:59:20Z</time>
      </trkpt>
      <trkpt lat="45.86585" lon="4.81752">
        <ele>287</ele>
        <time>2014-10-26T09:59:24Z</time>
      </trkpt>
      <trkpt lat="45.86585" lon="4.81755">
        <ele>286</ele>
        <time>2014-10-26T09:59:25Z</time>
      </trkpt>
      <trkpt lat="45.86586" lon="4.81765">
        <ele>284</ele>
        <time>2014-10-26T09:59:28Z</time>
      </trkpt>
      <trkpt lat="45.86588" lon="4.81783">
        <ele>282</ele>
        <time>2014-10-26T09:59:33Z</time>
      </trkpt>
      <trkpt lat="45.86591" lon="4.81801">
        <ele>282</ele>
        <time>2014-10-26T09:59:39Z</time>
      </trkpt>
      <trkpt lat="45.86591" lon="4.8181">
        <ele>283</ele>
        <time>2014-10-26T09:59:42Z</time>
      </trkpt>
      <trkpt lat="45.86591" lon="4.81816">
        <ele>284</ele>
        <time>2014-10-26T09:59:44Z</time>
      </trkpt>
      <trkpt lat="45.86585" lon="4.81828">
        <ele>288</ele>
        <time>2014-10-26T09:59:49Z</time>
      </trkpt>
      <trkpt lat="45.86582" lon="4.81832">
        <ele>290</ele>
        <time>2014-10-26T09:59:51Z</time>
      </trkpt>
      <trkpt lat="45.86576" lon="4.81835">
        <ele>289</ele>
        <time>2014-10-26T09:59:54Z</time>
      </trkpt>
      <trkpt lat="45.86569" lon="4.81844">
        <ele>289</ele>
        <time>2014-10-26T09:59:59Z</time>
      </trkpt>
      <trkpt lat="45.86566" lon="4.81846">
        <ele>289</ele>
        <time>2014-10-26T10:00:01Z</time>
      </trkpt>
      <trkpt lat="45.86562" lon="4.81849">
        <ele>288</ele>
        <time>2014-10-26T10:00:05Z</time>
      </trkpt>
      <trkpt lat="45.86551" lon="4.81849">
        <ele>289</ele>
        <time>2014-10-26T10:00:13Z</time>
      </trkpt>
      <trkpt lat="45.86549" lon="4.81849">
        <ele>289</ele>
        <time>2014-10-26T10:00:16Z</time>
      </trkpt>
      <trkpt lat="45.8654" lon="4.81847">
        <ele>289</ele>
        <time>2014-10-26T10:00:23Z</time>
      </trkpt>
      <trkpt lat="45.86533" lon="4.81846">
        <ele>290</ele>
        <time>2014-10-26T10:00:29Z</time>
      </trkpt>
      <trkpt lat="45.86531" lon="4.81845">
        <ele>290</ele>
        <time>2014-10-26T10:00:31Z</time>
      </trkpt>
      <trkpt lat="45.86526" lon="4.81844">
        <ele>291</ele>
        <time>2014-10-26T10:00:35Z</time>
      </trkpt>
      <trkpt lat="45.86519" lon="4.81839">
        <ele>292</ele>
        <time>2014-10-26T10:00:42Z</time>
      </trkpt>
      <trkpt lat="45.86513" lon="4.81838">
        <ele>293</ele>
        <time>2014-10-26T10:00:47Z</time>
      </trkpt>
      <trkpt lat="45.86512" lon="4.81838">
        <ele>294</ele>
        <time>2014-10-26T10:00:48Z</time>
      </trkpt>
      <trkpt lat="45.86502" lon="4.81835">
        <ele>297</ele>
        <time>2014-10-26T10:00:56Z</time>
      </trkpt>
      <trkpt lat="45.86495" lon="4.81832">
        <ele>299</ele>
        <time>2014-10-26T10:01:02Z</time>
      </trkpt>
      <trkpt lat="45.86485" lon="4.81828">
        <ele>300</ele>
        <time>2014-10-26T10:01:09Z</time>
      </trkpt>
      <trkpt lat="45.86484" lon="4.81828">
        <ele>300</ele>
        <time>2014-10-26T10:01:10Z</time>
      </trkpt>
      <trkpt lat="45.86479" lon="4.81824">
        <ele>301</ele>
        <time>2014-10-26T10:01:15Z</time>
      </trkpt>
      <trkpt lat="45.86478" lon="4.81823">
        <ele>301</ele>
        <time>2014-10-26T10:01:16Z</time>
      </trkpt>
      <trkpt lat="45.86477" lon="4.81822">
        <ele>301</ele>
        <time>2014-10-26T10:01:17Z</time>
      </trkpt>
      <trkpt lat="45.86474" lon="4.81819">
        <ele>301</ele>
        <time>2014-10-26T10:01:21Z</time>
      </trkpt>
      <trkpt lat="45.86473" lon="4.81817">
        <ele>301</ele>
        <time>2014-10-26T10:01:22Z</time>
      </trkpt>
      <trkpt lat="45.8647" lon="4.81814">
        <ele>301</ele>
        <time>2014-10-26T10:01:24Z</time>
      </trkpt>
      <trkpt lat="45.86467" lon="4.81812">
        <ele>302</ele>
        <time>2014-10-26T10:01:26Z</time>
      </trkpt>
      <trkpt lat="45.86462" lon="4.81807">
        <ele>302</ele>
        <time>2014-10-26T10:01:31Z</time>
      </trkpt>
      <trkpt lat="45.8646" lon="4.81805">
        <ele>302</ele>
        <time>2014-10-26T10:01:33Z</time>
      </trkpt>
      <trkpt lat="45.86453" lon="4.818">
        <ele>302</ele>
        <time>2014-10-26T10:01:39Z</time>
      </trkpt>
      <trkpt lat="45.86445" lon="4.81797">
        <ele>303</ele>
        <time>2014-10-26T10:01:46Z</time>
      </trkpt>
      <trkpt lat="45.86434" lon="4.81792">
        <ele>303</ele>
        <time>2014-10-26T10:01:54Z</time>
      </trkpt>
      <trkpt lat="45.86429" lon="4.81786">
        <ele>304</ele>
        <time>2014-10-26T10:02:00Z</time>
      </trkpt>
      <trkpt lat="45.86428" lon="4.81785">
        <ele>304</ele>
        <time>2014-10-26T10:02:01Z</time>
      </trkpt>
      <trkpt lat="45.86426" lon="4.81783">
        <ele>305</ele>
        <time>2014-10-26T10:02:02Z</time>
      </trkpt>
      <trkpt lat="45.86425" lon="4.8178">
        <ele>305</ele>
        <time>2014-10-26T10:02:04Z</time>
      </trkpt>
      <trkpt lat="45.86424" lon="4.81777">
        <ele>305</ele>
        <time>2014-10-26T10:02:06Z</time>
      </trkpt>
      <trkpt lat="45.86424" lon="4.8177">
        <ele>307</ele>
        <time>2014-10-26T10:02:11Z</time>
      </trkpt>
      <trkpt lat="45.86424" lon="4.81762">
        <ele>308</ele>
        <time>2014-10-26T10:02:16Z</time>
      </trkpt>
      <trkpt lat="45.86424" lon="4.81761">
        <ele>308</ele>
        <time>2014-10-26T10:02:17Z</time>
      </trkpt>
      <trkpt lat="45.86424" lon="4.81758">
        <ele>309</ele>
        <time>2014-10-26T10:02:18Z</time>
      </trkpt>
      <trkpt lat="45.86424" lon="4.81748">
        <ele>312</ele>
        <time>2014-10-26T10:02:24Z</time>
      </trkpt>
      <trkpt lat="45.86426" lon="4.81743">
        <ele>312</ele>
        <time>2014-10-26T10:02:27Z</time>
      </trkpt>
      <trkpt lat="45.86427" lon="4.81738">
        <ele>312</ele>
        <time>2014-10-26T10:02:30Z</time>
      </trkpt>
      <trkpt lat="45.86428" lon="4.81736">
        <ele>312</ele>
        <time>2014-10-26T10:02:32Z</time>
      </trkpt>
      <trkpt lat="45.86429" lon="4.81735">
        <ele>312</ele>
        <time>2014-10-26T10:02:33Z</time>
      </trkpt>
      <trkpt lat="45.86429" lon="4.81727">
        <ele>312</ele>
        <time>2014-10-26T10:02:38Z</time>
      </trkpt>
      <trkpt lat="45.86431" lon="4.81716">
        <ele>313</ele>
        <time>2014-10-26T10:02:45Z</time>
      </trkpt>
      <trkpt lat="45.86431" lon="4.81714">
        <ele>313</ele>
        <time>2014-10-26T10:02:46Z</time>
      </trkpt>
      <trkpt lat="45.86431" lon="4.81712">
        <ele>313</ele>
        <time>2014-10-26T10:02:47Z</time>
      </trkpt>
      <trkpt lat="45.8643" lon="4.81708">
        <ele>314</ele>
        <time>2014-10-26T10:02:48Z</time>
      </trkpt>
      <trkpt lat="45.86431" lon="4.81702">
        <ele>314</ele>
        <time>2014-10-26T10:02:50Z</time>
      </trkpt>
      <trkpt lat="45.86433" lon="4.81688">
        <ele>316</ele>
        <time>2014-10-26T10:02:55Z</time>
      </trkpt>
      <trkpt lat="45.86433" lon="4.81682">
        <ele>317</ele>
        <time>2014-10-26T10:02:57Z</time>
      </trkpt>
      <trkpt lat="45.86435" lon="4.81674">
        <ele>318</ele>
        <time>2014-10-26T10:03:00Z</time>
      </trkpt>
      <trkpt lat="45.86436" lon="4.81663">
        <ele>321</ele>
        <time>2014-10-26T10:03:05Z</time>
      </trkpt>
      <trkpt lat="45.86438" lon="4.81656">
        <ele>320</ele>
        <time>2014-10-26T10:03:08Z</time>
      </trkpt>
      <trkpt lat="45.86438" lon="4.81648">
        <ele>320</ele>
        <time>2014-10-26T10:03:11Z</time>
      </trkpt>
      <trkpt lat="45.86441" lon="4.81633">
        <ele>319</ele>
        <time>2014-10-26T10:03:18Z</time>
      </trkpt>
      <trkpt lat="45.86442" lon="4.81631">
        <ele>319</ele>
        <time>2014-10-26T10:03:19Z</time>
      </trkpt>
      <trkpt lat="45.86441" lon="4.81619">
        <ele>319</ele>
        <time>2014-10-26T10:03:23Z</time>
      </trkpt>
      <trkpt lat="45.86441" lon="4.81603">
        <ele>321</ele>
        <time>2014-10-26T10:03:30Z</time>
      </trkpt>
      <trkpt lat="45.8644" lon="4.816">
        <ele>321</ele>
        <time>2014-10-26T10:03:31Z</time>
      </trkpt>
      <trkpt lat="45.86435" lon="4.81584">
        <ele>323</ele>
        <time>2014-10-26T10:03:36Z</time>
      </trkpt>
      <trkpt lat="45.86434" lon="4.81579">
        <ele>321</ele>
        <time>2014-10-26T10:03:38Z</time>
      </trkpt>
      <trkpt lat="45.8643" lon="4.81571">
        <ele>320</ele>
        <time>2014-10-26T10:03:41Z</time>
      </trkpt>
      <trkpt lat="45.86425" lon="4.8156">
        <ele>318</ele>
        <time>2014-10-26T10:03:47Z</time>
      </trkpt>
      <trkpt lat="45.86424" lon="4.8156">
        <ele>318</ele>
        <time>2014-10-26T10:03:48Z</time>
      </trkpt>
      <trkpt lat="45.86422" lon="4.8156">
        <ele>319</ele>
        <time>2014-10-26T10:03:51Z</time>
      </trkpt>
      <trkpt lat="45.86422" lon="4.81562">
        <ele>319</ele>
        <time>2014-10-26T10:03:53Z</time>
      </trkpt>
      <trkpt lat="45.86422" lon="4.81566">
        <ele>321</ele>
        <time>2014-10-26T10:03:56Z</time>
      </trkpt>
      <trkpt lat="45.86422" lon="4.81569">
        <ele>322</ele>
        <time>2014-10-26T10:03:58Z</time>
      </trkpt>
      <trkpt lat="45.86422" lon="4.8157">
        <ele>322</ele>
        <time>2014-10-26T10:03:59Z</time>
      </trkpt>
      <trkpt lat="45.86422" lon="4.81574">
        <ele>324</ele>
        <time>2014-10-26T10:04:02Z</time>
      </trkpt>
      <trkpt lat="45.86422" lon="4.81575">
        <ele>325</ele>
        <time>2014-10-26T10:04:03Z</time>
      </trkpt>
      <trkpt lat="45.8642" lon="4.8158">
        <ele>328</ele>
        <time>2014-10-26T10:04:06Z</time>
      </trkpt>
      <trkpt lat="45.86418" lon="4.81586">
        <ele>330</ele>
        <time>2014-10-26T10:04:09Z</time>
      </trkpt>
      <trkpt lat="45.86418" lon="4.81587">
        <ele>330</ele>
        <time>2014-10-26T10:04:10Z</time>
      </trkpt>
      <trkpt lat="45.86417" lon="4.81588">
        <ele>329</ele>
        <time>2014-10-26T10:04:11Z</time>
      </trkpt>
      <trkpt lat="45.86415" lon="4.816">
        <ele>332</ele>
        <time>2014-10-26T10:04:18Z</time>
      </trkpt>
      <trkpt lat="45.8641" lon="4.8161">
        <ele>332</ele>
        <time>2014-10-26T10:04:24Z</time>
      </trkpt>
      <trkpt lat="45.86409" lon="4.81611">
        <ele>332</ele>
        <time>2014-10-26T10:04:25Z</time>
      </trkpt>
      <trkpt lat="45.86399" lon="4.81618">
        <ele>332</ele>
        <time>2014-10-26T10:04:33Z</time>
      </trkpt>
      <trkpt lat="45.86392" lon="4.81621">
        <ele>332</ele>
        <time>2014-10-26T10:04:38Z</time>
      </trkpt>
      <trkpt lat="45.86388" lon="4.81621">
        <ele>332</ele>
        <time>2014-10-26T10:04:41Z</time>
      </trkpt>
      <trkpt lat="45.86378" lon="4.8162">
        <ele>333</ele>
        <time>2014-10-26T10:04:48Z</time>
      </trkpt>
      <trkpt lat="45.86374" lon="4.81618">
        <ele>333</ele>
        <time>2014-10-26T10:04:52Z</time>
      </trkpt>
      <trkpt lat="45.86372" lon="4.81616">
        <ele>334</ele>
        <time>2014-10-26T10:04:56Z</time>
      </trkpt>
      <trkpt lat="45.86372" lon="4.81608">
        <ele>334</ele>
        <time>2014-10-26T10:05:02Z</time>
      </trkpt>
      <trkpt lat="45.8637" lon="4.81604">
        <ele>335</ele>
        <time>2014-10-26T10:05:04Z</time>
      </trkpt>
      <trkpt lat="45.86367" lon="4.81597">
        <ele>335</ele>
        <time>2014-10-26T10:05:08Z</time>
      </trkpt>
      <trkpt lat="45.86366" lon="4.81595">
        <ele>336</ele>
        <time>2014-10-26T10:05:09Z</time>
      </trkpt>
      <trkpt lat="45.86364" lon="4.81593">
        <ele>336</ele>
        <time>2014-10-26T10:05:11Z</time>
      </trkpt>
      <trkpt lat="45.86361" lon="4.81588">
        <ele>337</ele>
        <time>2014-10-26T10:05:14Z</time>
      </trkpt>
      <trkpt lat="45.86354" lon="4.81577">
        <ele>338</ele>
        <time>2014-10-26T10:05:22Z</time>
      </trkpt>
      <trkpt lat="45.86353" lon="4.81576">
        <ele>338</ele>
        <time>2014-10-26T10:05:23Z</time>
      </trkpt>
      <trkpt lat="45.86348" lon="4.81571">
        <ele>339</ele>
        <time>2014-10-26T10:05:28Z</time>
      </trkpt>
      <trkpt lat="45.86347" lon="4.81571">
        <ele>339</ele>
        <time>2014-10-26T10:05:29Z</time>
      </trkpt>
      <trkpt lat="45.86344" lon="4.81569">
        <ele>339</ele>
        <time>2014-10-26T10:05:33Z</time>
      </trkpt>
      <trkpt lat="45.86343" lon="4.81569">
        <ele>339</ele>
        <time>2014-10-26T10:05:41Z</time>
      </trkpt>
      <trkpt lat="45.86337" lon="4.81567">
        <ele>339</ele>
        <time>2014-10-26T10:05:45Z</time>
      </trkpt>
      <trkpt lat="45.86332" lon="4.81564">
        <ele>344</ele>
        <time>2014-10-26T10:05:49Z</time>
      </trkpt>
      <trkpt lat="45.86322" lon="4.81552">
        <ele>344</ele>
        <time>2014-10-26T10:05:55Z</time>
      </trkpt>
      <trkpt lat="45.86311" lon="4.81546">
        <ele>344</ele>
        <time>2014-10-26T10:06:00Z</time>
      </trkpt>
      <trkpt lat="45.86304" lon="4.81542">
        <ele>344</ele>
        <time>2014-10-26T10:06:03Z</time>
      </trkpt>
      <trkpt lat="45.86298" lon="4.8154">
        <ele>344</ele>
        <time>2014-10-26T10:06:06Z</time>
      </trkpt>
      <trkpt lat="45.86287" lon="4.81534">
        <ele>344</ele>
        <time>2014-10-26T10:06:12Z</time>
      </trkpt>
      <trkpt lat="45.86274" lon="4.81528">
        <ele>345</ele>
        <time>2014-10-26T10:06:18Z</time>
      </trkpt>
      <trkpt lat="45.86269" lon="4.81524">
        <ele>346</ele>
        <time>2014-10-26T10:06:21Z</time>
      </trkpt>
      <trkpt lat="45.86264" lon="4.81523">
        <ele>346</ele>
        <time>2014-10-26T10:06:23Z</time>
      </trkpt>
      <trkpt lat="45.86253" lon="4.81519">
        <ele>347</ele>
        <time>2014-10-26T10:06:28Z</time>
      </trkpt>
      <trkpt lat="45.86251" lon="4.81517">
        <ele>347</ele>
        <time>2014-10-26T10:06:29Z</time>
      </trkpt>
      <trkpt lat="45.86244" lon="4.81516">
        <ele>347</ele>
        <time>2014-10-26T10:06:32Z</time>
      </trkpt>
      <trkpt lat="45.86238" lon="4.81514">
        <ele>347</ele>
        <time>2014-10-26T10:06:35Z</time>
      </trkpt>
      <trkpt lat="45.86233" lon="4.81513">
        <ele>347</ele>
        <time>2014-10-26T10:06:37Z</time>
      </trkpt>
      <trkpt lat="45.86231" lon="4.81512">
        <ele>346</ele>
        <time>2014-10-26T10:06:38Z</time>
      </trkpt>
      <trkpt lat="45.86222" lon="4.81507">
        <ele>346</ele>
        <time>2014-10-26T10:06:42Z</time>
      </trkpt>
      <trkpt lat="45.86213" lon="4.81502">
        <ele>346</ele>
        <time>2014-10-26T10:06:46Z</time>
      </trkpt>
      <trkpt lat="45.86211" lon="4.81502">
        <ele>346</ele>
        <time>2014-10-26T10:06:47Z</time>
      </trkpt>
      <trkpt lat="45.86209" lon="4.81501">
        <ele>346</ele>
        <time>2014-10-26T10:06:48Z</time>
      </trkpt>
      <trkpt lat="45.86209" lon="4.81499">
        <ele>341</ele>
        <time>2014-10-26T10:06:50Z</time>
      </trkpt>
      <trkpt lat="45.86205" lon="4.81498">
        <ele>341</ele>
        <time>2014-10-26T10:06:56Z</time>
      </trkpt>
      <trkpt lat="45.86195" lon="4.81494">
        <ele>342</ele>
        <time>2014-10-26T10:07:01Z</time>
      </trkpt>
      <trkpt lat="45.86192" lon="4.81493">
        <ele>342</ele>
        <time>2014-10-26T10:07:02Z</time>
      </trkpt>
      <trkpt lat="45.8618" lon="4.81489">
        <ele>343</ele>
        <time>2014-10-26T10:07:07Z</time>
      </trkpt>
      <trkpt lat="45.86177" lon="4.81488">
        <ele>343</ele>
        <time>2014-10-26T10:07:08Z</time>
      </trkpt>
      <trkpt lat="45.86168" lon="4.81482">
        <ele>343</ele>
        <time>2014-10-26T10:07:11Z</time>
      </trkpt>
      <trkpt lat="45.86158" lon="4.81476">
        <ele>343</ele>
        <time>2014-10-26T10:07:15Z</time>
      </trkpt>
      <trkpt lat="45.86153" lon="4.81473">
        <ele>342</ele>
        <time>2014-10-26T10:07:17Z</time>
      </trkpt>
      <trkpt lat="45.86141" lon="4.8147">
        <ele>341</ele>
        <time>2014-10-26T10:07:22Z</time>
      </trkpt>
      <trkpt lat="45.86139" lon="4.81469">
        <ele>341</ele>
        <time>2014-10-26T10:07:23Z</time>
      </trkpt>
      <trkpt lat="45.86131" lon="4.81468">
        <ele>341</ele>
        <time>2014-10-26T10:07:26Z</time>
      </trkpt>
      <trkpt lat="45.86129" lon="4.81466">
        <ele>341</ele>
        <time>2014-10-26T10:07:27Z</time>
      </trkpt>
      <trkpt lat="45.86121" lon="4.8146">
        <ele>340</ele>
        <time>2014-10-26T10:07:30Z</time>
      </trkpt>
      <trkpt lat="45.86118" lon="4.81459">
        <ele>340</ele>
        <time>2014-10-26T10:07:31Z</time>
      </trkpt>
      <trkpt lat="45.86104" lon="4.81454">
        <ele>340</ele>
        <time>2014-10-26T10:07:36Z</time>
      </trkpt>
      <trkpt lat="45.86101" lon="4.81452">
        <ele>340</ele>
        <time>2014-10-26T10:07:37Z</time>
      </trkpt>
      <trkpt lat="45.86089" lon="4.81446">
        <ele>340</ele>
        <time>2014-10-26T10:07:41Z</time>
      </trkpt>
      <trkpt lat="45.86082" lon="4.81443">
        <ele>344</ele>
        <time>2014-10-26T10:07:44Z</time>
      </trkpt>
      <trkpt lat="45.86077" lon="4.81441">
        <ele>344</ele>
        <time>2014-10-26T10:07:46Z</time>
      </trkpt>
      <trkpt lat="45.86064" lon="4.81438">
        <ele>344</ele>
        <time>2014-10-26T10:07:51Z</time>
      </trkpt>
      <trkpt lat="45.86051" lon="4.81436">
        <ele>345</ele>
        <time>2014-10-26T10:07:56Z</time>
      </trkpt>
      <trkpt lat="45.86044" lon="4.81435">
        <ele>346</ele>
        <time>2014-10-26T10:07:59Z</time>
      </trkpt>
      <trkpt lat="45.86038" lon="4.81434">
        <ele>346</ele>
        <time>2014-10-26T10:08:01Z</time>
      </trkpt>
      <trkpt lat="45.86025" lon="4.8143">
        <ele>348</ele>
        <time>2014-10-26T10:08:06Z</time>
      </trkpt>
      <trkpt lat="45.86022" lon="4.81428">
        <ele>348</ele>
        <time>2014-10-26T10:08:07Z</time>
      </trkpt>
      <trkpt lat="45.86012" lon="4.81424">
        <ele>351</ele>
        <time>2014-10-26T10:08:11Z</time>
      </trkpt>
      <trkpt lat="45.86007" lon="4.81422">
        <ele>352</ele>
        <time>2014-10-26T10:08:13Z</time>
      </trkpt>
      <trkpt lat="45.86003" lon="4.8142">
        <ele>353</ele>
        <time>2014-10-26T10:08:15Z</time>
      </trkpt>
      <trkpt lat="45.85993" lon="4.81413">
        <ele>355</ele>
        <time>2014-10-26T10:08:20Z</time>
      </trkpt>
      <trkpt lat="45.8599" lon="4.81412">
        <ele>355</ele>
        <time>2014-10-26T10:08:21Z</time>
      </trkpt>
      <trkpt lat="45.85977" lon="4.81404">
        <ele>355</ele>
        <time>2014-10-26T10:08:27Z</time>
      </trkpt>
      <trkpt lat="45.85972" lon="4.814">
        <ele>355</ele>
        <time>2014-10-26T10:08:29Z</time>
      </trkpt>
      <trkpt lat="45.85966" lon="4.81396">
        <ele>355</ele>
        <time>2014-10-26T10:08:32Z</time>
      </trkpt>
      <trkpt lat="45.85955" lon="4.81389">
        <ele>356</ele>
        <time>2014-10-26T10:08:37Z</time>
      </trkpt>
      <trkpt lat="45.85942" lon="4.81379">
        <ele>357</ele>
        <time>2014-10-26T10:08:42Z</time>
      </trkpt>
      <trkpt lat="45.85938" lon="4.81377">
        <ele>357</ele>
        <time>2014-10-26T10:08:44Z</time>
      </trkpt>
      <trkpt lat="45.8593" lon="4.81372">
        <ele>358</ele>
        <time>2014-10-26T10:08:48Z</time>
      </trkpt>
      <trkpt lat="45.85926" lon="4.81369">
        <ele>358</ele>
        <time>2014-10-26T10:08:50Z</time>
      </trkpt>
      <trkpt lat="45.85921" lon="4.81366">
        <ele>358</ele>
        <time>2014-10-26T10:08:52Z</time>
      </trkpt>
      <trkpt lat="45.85918" lon="4.81365">
        <ele>358</ele>
        <time>2014-10-26T10:08:54Z</time>
      </trkpt>
      <trkpt lat="45.85909" lon="4.81358">
        <ele>370</ele>
        <time>2014-10-26T10:08:59Z</time>
      </trkpt>
      <trkpt lat="45.85906" lon="4.81356">
        <ele>370</ele>
        <time>2014-10-26T10:09:01Z</time>
      </trkpt>
      <trkpt lat="45.85904" lon="4.81355">
        <ele>370</ele>
        <time>2014-10-26T10:09:03Z</time>
      </trkpt>
      <trkpt lat="45.859" lon="4.81351">
        <ele>371</ele>
        <time>2014-10-26T10:09:09Z</time>
      </trkpt>
      <trkpt lat="45.85894" lon="4.81347">
        <ele>371</ele>
        <time>2014-10-26T10:09:14Z</time>
      </trkpt>
      <trkpt lat="45.85888" lon="4.81341">
        <ele>372</ele>
        <time>2014-10-26T10:09:20Z</time>
      </trkpt>
      <trkpt lat="45.85878" lon="4.81336">
        <ele>374</ele>
        <time>2014-10-26T10:09:27Z</time>
      </trkpt>
      <trkpt lat="45.85871" lon="4.81334">
        <ele>375</ele>
        <time>2014-10-26T10:09:33Z</time>
      </trkpt>
      <trkpt lat="45.85871" lon="4.81335">
        <ele>375</ele>
        <time>2014-10-26T10:09:34Z</time>
      </trkpt>
      <trkpt lat="45.85862" lon="4.81337">
        <ele>377</ele>
        <time>2014-10-26T10:09:41Z</time>
      </trkpt>
      <trkpt lat="45.85859" lon="4.81338">
        <ele>377</ele>
        <time>2014-10-26T10:09:44Z</time>
      </trkpt>
      <trkpt lat="45.85854" lon="4.8134">
        <ele>378</ele>
        <time>2014-10-26T10:09:48Z</time>
      </trkpt>
      <trkpt lat="45.85853" lon="4.81341">
        <ele>379</ele>
        <time>2014-10-26T10:09:49Z</time>
      </trkpt>
      <trkpt lat="45.85846" lon="4.81342">
        <ele>380</ele>
        <time>2014-10-26T10:09:55Z</time>
      </trkpt>
      <trkpt lat="45.85843" lon="4.81343">
        <ele>380</ele>
        <time>2014-10-26T10:09:57Z</time>
      </trkpt>
      <trkpt lat="45.8584" lon="4.81347">
        <ele>380</ele>
        <time>2014-10-26T10:10:01Z</time>
      </trkpt>
      <trkpt lat="45.85837" lon="4.8135">
        <ele>380</ele>
        <time>2014-10-26T10:10:05Z</time>
      </trkpt>
      <trkpt lat="45.85833" lon="4.81357">
        <ele>390</ele>
        <time>2014-10-26T10:10:09Z</time>
      </trkpt>
      <trkpt lat="45.85828" lon="4.81366">
        <ele>392</ele>
        <time>2014-10-26T10:10:16Z</time>
      </trkpt>
      <trkpt lat="45.85826" lon="4.81372">
        <ele>393</ele>
        <time>2014-10-26T10:10:21Z</time>
      </trkpt>
      <trkpt lat="45.85825" lon="4.81374">
        <ele>393</ele>
        <time>2014-10-26T10:10:22Z</time>
      </trkpt>
      <trkpt lat="45.85823" lon="4.81379">
        <ele>393</ele>
        <time>2014-10-26T10:10:25Z</time>
      </trkpt>
      <trkpt lat="45.85821" lon="4.81385">
        <ele>394</ele>
        <time>2014-10-26T10:10:29Z</time>
      </trkpt>
      <trkpt lat="45.8582" lon="4.81389">
        <ele>394</ele>
        <time>2014-10-26T10:10:32Z</time>
      </trkpt>
      <trkpt lat="45.85818" lon="4.81393">
        <ele>394</ele>
        <time>2014-10-26T10:10:35Z</time>
      </trkpt>
      <trkpt lat="45.85817" lon="4.81396">
        <ele>394</ele>
        <time>2014-10-26T10:10:37Z</time>
      </trkpt>
      <trkpt lat="45.85816" lon="4.81401">
        <ele>394</ele>
        <time>2014-10-26T10:10:40Z</time>
      </trkpt>
      <trkpt lat="45.85815" lon="4.81404">
        <ele>394</ele>
        <time>2014-10-26T10:10:42Z</time>
      </trkpt>
      <trkpt lat="45.85814" lon="4.81408">
        <ele>394</ele>
        <time>2014-10-26T10:10:46Z</time>
      </trkpt>
      <trkpt lat="45.85807" lon="4.81418">
        <ele>395</ele>
        <time>2014-10-26T10:10:54Z</time>
      </trkpt>
      <trkpt lat="45.85799" lon="4.81426">
        <ele>396</ele>
        <time>2014-10-26T10:11:02Z</time>
      </trkpt>
      <trkpt lat="45.85798" lon="4.81427">
        <ele>396</ele>
        <time>2014-10-26T10:11:06Z</time>
      </trkpt>
      <trkpt lat="45.85793" lon="4.81429">
        <ele>396</ele>
        <time>2014-10-26T10:11:11Z</time>
      </trkpt>
      <trkpt lat="45.85791" lon="4.81429">
        <ele>397</ele>
        <time>2014-10-26T10:11:13Z</time>
      </trkpt>
      <trkpt lat="45.8579" lon="4.81428">
        <ele>397</ele>
        <time>2014-10-26T10:11:15Z</time>
      </trkpt>
      <trkpt lat="45.85784" lon="4.81428">
        <ele>398</ele>
        <time>2014-10-26T10:11:21Z</time>
      </trkpt>
      <trkpt lat="45.85782" lon="4.81429">
        <ele>398</ele>
        <time>2014-10-26T10:11:23Z</time>
      </trkpt>
      <trkpt lat="45.85778" lon="4.81427">
        <ele>399</ele>
        <time>2014-10-26T10:11:27Z</time>
      </trkpt>
      <trkpt lat="45.85774" lon="4.81424">
        <ele>400</ele>
        <time>2014-10-26T10:11:31Z</time>
      </trkpt>
      <trkpt lat="45.85773" lon="4.81425">
        <ele>401</ele>
        <time>2014-10-26T10:11:32Z</time>
      </trkpt>
      <trkpt lat="45.8577" lon="4.81425">
        <ele>401</ele>
        <time>2014-10-26T10:11:34Z</time>
      </trkpt>
      <trkpt lat="45.85764" lon="4.81426">
        <ele>402</ele>
        <time>2014-10-26T10:11:38Z</time>
      </trkpt>
      <trkpt lat="45.85763" lon="4.81426">
        <ele>403</ele>
        <time>2014-10-26T10:11:40Z</time>
      </trkpt>
      <trkpt lat="45.85756" lon="4.81423">
        <ele>405</ele>
        <time>2014-10-26T10:11:46Z</time>
      </trkpt>
      <trkpt lat="45.85754" lon="4.81422">
        <ele>407</ele>
        <time>2014-10-26T10:11:48Z</time>
      </trkpt>
      <trkpt lat="45.85751" lon="4.81418">
        <ele>409</ele>
        <time>2014-10-26T10:11:52Z</time>
      </trkpt>
      <trkpt lat="45.85746" lon="4.81414">
        <ele>410</ele>
        <time>2014-10-26T10:11:57Z</time>
      </trkpt>
      <trkpt lat="45.85744" lon="4.81413">
        <ele>410</ele>
        <time>2014-10-26T10:11:59Z</time>
      </trkpt>
      <trkpt lat="45.85742" lon="4.81413">
        <ele>410</ele>
        <time>2014-10-26T10:12:01Z</time>
      </trkpt>
      <trkpt lat="45.85738" lon="4.8141">
        <ele>410</ele>
        <time>2014-10-26T10:12:05Z</time>
      </trkpt>
      <trkpt lat="45.85737" lon="4.81409">
        <ele>410</ele>
        <time>2014-10-26T10:12:06Z</time>
      </trkpt>
      <trkpt lat="45.85734" lon="4.81407">
        <ele>409</ele>
        <time>2014-10-26T10:12:11Z</time>
      </trkpt>
      <trkpt lat="45.85733" lon="4.81406">
        <ele>409</ele>
        <time>2014-10-26T10:12:13Z</time>
      </trkpt>
      <trkpt lat="45.85732" lon="4.81406">
        <ele>409</ele>
        <time>2014-10-26T10:12:14Z</time>
      </trkpt>
      <trkpt lat="45.8573" lon="4.81404">
        <ele>409</ele>
        <time>2014-10-26T10:12:16Z</time>
      </trkpt>
      <trkpt lat="45.85722" lon="4.81401">
        <ele>410</ele>
        <time>2014-10-26T10:12:23Z</time>
      </trkpt>
      <trkpt lat="45.85719" lon="4.81399">
        <ele>410</ele>
        <time>2014-10-26T10:12:25Z</time>
      </trkpt>
      <trkpt lat="45.85714" lon="4.81399">
        <ele>410</ele>
        <time>2014-10-26T10:12:29Z</time>
      </trkpt>
      <trkpt lat="45.8571" lon="4.81398">
        <ele>410</ele>
        <time>2014-10-26T10:12:32Z</time>
      </trkpt>
      <trkpt lat="45.85708" lon="4.81396">
        <ele>410</ele>
        <time>2014-10-26T10:12:34Z</time>
      </trkpt>
      <trkpt lat="45.85701" lon="4.81393">
        <ele>410</ele>
        <time>2014-10-26T10:12:39Z</time>
      </trkpt>
      <trkpt lat="45.85692" lon="4.81388">
        <ele>410</ele>
        <time>2014-10-26T10:12:46Z</time>
      </trkpt>
      <trkpt lat="45.85684" lon="4.81383">
        <ele>411</ele>
        <time>2014-10-26T10:12:53Z</time>
      </trkpt>
      <trkpt lat="45.85683" lon="4.81382">
        <ele>411</ele>
        <time>2014-10-26T10:12:55Z</time>
      </trkpt>
      <trkpt lat="45.8568" lon="4.8138">
        <ele>411</ele>
        <time>2014-10-26T10:12:58Z</time>
      </trkpt>
      <trkpt lat="45.85679" lon="4.81379">
        <ele>411</ele>
        <time>2014-10-26T10:12:59Z</time>
      </trkpt>
      <trkpt lat="45.85675" lon="4.81378">
        <ele>411</ele>
        <time>2014-10-26T10:13:02Z</time>
      </trkpt>
      <trkpt lat="45.85673" lon="4.81376">
        <ele>411</ele>
        <time>2014-10-26T10:13:04Z</time>
      </trkpt>
      <trkpt lat="45.85669" lon="4.81372">
        <ele>411</ele>
        <time>2014-10-26T10:13:08Z</time>
      </trkpt>
      <trkpt lat="45.85667" lon="4.81371">
        <ele>411</ele>
        <time>2014-10-26T10:13:09Z</time>
      </trkpt>
      <trkpt lat="45.85663" lon="4.81366">
        <ele>417</ele>
        <time>2014-10-26T10:13:13Z</time>
      </trkpt>
      <trkpt lat="45.85654" lon="4.81359">
        <ele>417</ele>
        <time>2014-10-26T10:13:20Z</time>
      </trkpt>
      <trkpt lat="45.8565" lon="4.81358">
        <ele>417</ele>
        <time>2014-10-26T10:13:23Z</time>
      </trkpt>
      <trkpt lat="45.85646" lon="4.81357">
        <ele>417</ele>
        <time>2014-10-26T10:13:26Z</time>
      </trkpt>
      <trkpt lat="45.85639" lon="4.81354">
        <ele>418</ele>
        <time>2014-10-26T10:13:33Z</time>
      </trkpt>
      <trkpt lat="45.85631" lon="4.81351">
        <ele>418</ele>
        <time>2014-10-26T10:13:40Z</time>
      </trkpt>
      <trkpt lat="45.85629" lon="4.8135">
        <ele>418</ele>
        <time>2014-10-26T10:13:42Z</time>
      </trkpt>
      <trkpt lat="45.85625" lon="4.81347">
        <ele>419</ele>
        <time>2014-10-26T10:13:46Z</time>
      </trkpt>
      <trkpt lat="45.85622" lon="4.81345">
        <ele>419</ele>
        <time>2014-10-26T10:13:49Z</time>
      </trkpt>
      <trkpt lat="45.85618" lon="4.81342">
        <ele>420</ele>
        <time>2014-10-26T10:13:53Z</time>
      </trkpt>
      <trkpt lat="45.85616" lon="4.81341">
        <ele>420</ele>
        <time>2014-10-26T10:13:55Z</time>
      </trkpt>
      <trkpt lat="45.85615" lon="4.8134">
        <ele>420</ele>
        <time>2014-10-26T10:13:56Z</time>
      </trkpt>
      <trkpt lat="45.85609" lon="4.81338">
        <ele>421</ele>
        <time>2014-10-26T10:14:00Z</time>
      </trkpt>
      <trkpt lat="45.85601" lon="4.81333">
        <ele>419</ele>
        <time>2014-10-26T10:14:06Z</time>
      </trkpt>
      <trkpt lat="45.85599" lon="4.81332">
        <ele>419</ele>
        <time>2014-10-26T10:14:07Z</time>
      </trkpt>
      <trkpt lat="45.85597" lon="4.81331">
        <ele>420</ele>
        <time>2014-10-26T10:14:09Z</time>
      </trkpt>
      <trkpt lat="45.85594" lon="4.81331">
        <ele>421</ele>
        <time>2014-10-26T10:14:11Z</time>
      </trkpt>
      <trkpt lat="45.85593" lon="4.81329">
        <ele>421</ele>
        <time>2014-10-26T10:14:12Z</time>
      </trkpt>
      <trkpt lat="45.85584" lon="4.81324">
        <ele>422</ele>
        <time>2014-10-26T10:14:19Z</time>
      </trkpt>
      <trkpt lat="45.8558" lon="4.81323">
        <ele>427</ele>
        <time>2014-10-26T10:14:22Z</time>
      </trkpt>
      <trkpt lat="45.85576" lon="4.81321">
        <ele>427</ele>
        <time>2014-10-26T10:14:25Z</time>
      </trkpt>
      <trkpt lat="45.85567" lon="4.81315">
        <ele>427</ele>
        <time>2014-10-26T10:14:32Z</time>
      </trkpt>
      <trkpt lat="45.85565" lon="4.81314">
        <ele>427</ele>
        <time>2014-10-26T10:14:33Z</time>
      </trkpt>
      <trkpt lat="45.85563" lon="4.81313">
        <ele>427</ele>
        <time>2014-10-26T10:14:35Z</time>
      </trkpt>
      <trkpt lat="45.8556" lon="4.81311">
        <ele>427</ele>
        <time>2014-10-26T10:14:37Z</time>
      </trkpt>
      <trkpt lat="45.85556" lon="4.8131">
        <ele>427</ele>
        <time>2014-10-26T10:14:40Z</time>
      </trkpt>
      <trkpt lat="45.85551" lon="4.81307">
        <ele>427</ele>
        <time>2014-10-26T10:14:44Z</time>
      </trkpt>
      <trkpt lat="45.85545" lon="4.81304">
        <ele>427</ele>
        <time>2014-10-26T10:14:49Z</time>
      </trkpt>
      <trkpt lat="45.85541" lon="4.81303">
        <ele>428</ele>
        <time>2014-10-26T10:14:51Z</time>
      </trkpt>
      <trkpt lat="45.85535" lon="4.81299">
        <ele>428</ele>
        <time>2014-10-26T10:14:56Z</time>
      </trkpt>
      <trkpt lat="45.85528" lon="4.81295">
        <ele>428</ele>
        <time>2014-10-26T10:15:02Z</time>
      </trkpt>
      <trkpt lat="45.85526" lon="4.81294">
        <ele>429</ele>
        <time>2014-10-26T10:15:03Z</time>
      </trkpt>
      <trkpt lat="45.85519" lon="4.81291">
        <ele>429</ele>
        <time>2014-10-26T10:15:08Z</time>
      </trkpt>
      <trkpt lat="45.8551" lon="4.81285">
        <ele>429</ele>
        <time>2014-10-26T10:15:16Z</time>
      </trkpt>
      <trkpt lat="45.85509" lon="4.81285">
        <ele>429</ele>
        <time>2014-10-26T10:15:17Z</time>
      </trkpt>
      <trkpt lat="45.85503" lon="4.81287">
        <ele>430</ele>
        <time>2014-10-26T10:15:21Z</time>
      </trkpt>
      <trkpt lat="45.85499" lon="4.81288">
        <ele>440</ele>
        <time>2014-10-26T10:15:25Z</time>
      </trkpt>
      <trkpt lat="45.85491" lon="4.81291">
        <ele>441</ele>
        <time>2014-10-26T10:15:33Z</time>
      </trkpt>
      <trkpt lat="45.85489" lon="4.81291">
        <ele>441</ele>
        <time>2014-10-26T10:15:35Z</time>
      </trkpt>
      <trkpt lat="45.85485" lon="4.81289">
        <ele>441</ele>
        <time>2014-10-26T10:15:39Z</time>
      </trkpt>
      <trkpt lat="45.85484" lon="4.81289">
        <ele>441</ele>
        <time>2014-10-26T10:15:40Z</time>
      </trkpt>
      <trkpt lat="45.85482" lon="4.81288">
        <ele>441</ele>
        <time>2014-10-26T10:15:45Z</time>
      </trkpt>
      <trkpt lat="45.85476" lon="4.81287">
        <ele>442</ele>
        <time>2014-10-26T10:15:57Z</time>
      </trkpt>
      <trkpt lat="45.85474" lon="4.81285">
        <ele>442</ele>
        <time>2014-10-26T10:15:59Z</time>
      </trkpt>
      <trkpt lat="45.85473" lon="4.81284">
        <ele>442</ele>
        <time>2014-10-26T10:16:00Z</time>
      </trkpt>
      <trkpt lat="45.85469" lon="4.81283">
        <ele>442</ele>
        <time>2014-10-26T10:16:03Z</time>
      </trkpt>
      <trkpt lat="45.8546" lon="4.81281">
        <ele>443</ele>
        <time>2014-10-26T10:16:11Z</time>
      </trkpt>
      <trkpt lat="45.85454" lon="4.8128">
        <ele>444</ele>
        <time>2014-10-26T10:16:16Z</time>
      </trkpt>
      <trkpt lat="45.85453" lon="4.8128">
        <ele>444</ele>
        <time>2014-10-26T10:16:17Z</time>
      </trkpt>
      <trkpt lat="45.85447" lon="4.81278">
        <ele>445</ele>
        <time>2014-10-26T10:16:22Z</time>
      </trkpt>
      <trkpt lat="45.85443" lon="4.81277">
        <ele>445</ele>
        <time>2014-10-26T10:16:24Z</time>
      </trkpt>
      <trkpt lat="45.85436" lon="4.81277">
        <ele>446</ele>
        <time>2014-10-26T10:16:30Z</time>
      </trkpt>
      <trkpt lat="45.85435" lon="4.81276">
        <ele>446</ele>
        <time>2014-10-26T10:16:31Z</time>
      </trkpt>
      <trkpt lat="45.85435" lon="4.81276">
        <ele>446</ele>
        <time>2014-10-26T10:16:32Z</time>
      </trkpt>
      <trkpt lat="45.85426" lon="4.81274">
        <ele>447</ele>
        <time>2014-10-26T10:16:39Z</time>
      </trkpt>
      <trkpt lat="45.85418" lon="4.81271">
        <ele>448</ele>
        <time>2014-10-26T10:16:45Z</time>
      </trkpt>
      <trkpt lat="45.85418" lon="4.81271">
        <ele>448</ele>
        <time>2014-10-26T10:16:46Z</time>
      </trkpt>
      <trkpt lat="45.85414" lon="4.8127">
        <ele>456</ele>
        <time>2014-10-26T10:16:50Z</time>
      </trkpt>
      <trkpt lat="45.85411" lon="4.81269">
        <ele>456</ele>
        <time>2014-10-26T10:16:52Z</time>
      </trkpt>
      <trkpt lat="45.85406" lon="4.81265">
        <ele>456</ele>
        <time>2014-10-26T10:16:57Z</time>
      </trkpt>
      <trkpt lat="45.85404" lon="4.81263">
        <ele>456</ele>
        <time>2014-10-26T10:16:59Z</time>
      </trkpt>
      <trkpt lat="45.85403" lon="4.81263">
        <ele>456</ele>
        <time>2014-10-26T10:17:00Z</time>
      </trkpt>
      <trkpt lat="45.85402" lon="4.81263">
        <ele>456</ele>
        <time>2014-10-26T10:17:01Z</time>
      </trkpt>
      <trkpt lat="45.85398" lon="4.81261">
        <ele>457</ele>
        <time>2014-10-26T10:17:05Z</time>
      </trkpt>
      <trkpt lat="45.85397" lon="4.8126">
        <ele>457</ele>
        <time>2014-10-26T10:17:07Z</time>
      </trkpt>
      <trkpt lat="45.85393" lon="4.81259">
        <ele>457</ele>
        <time>2014-10-26T10:17:11Z</time>
      </trkpt>
      <trkpt lat="45.85388" lon="4.81256">
        <ele>458</ele>
        <time>2014-10-26T10:17:14Z</time>
      </trkpt>
      <trkpt lat="45.85384" lon="4.81253">
        <ele>458</ele>
        <time>2014-10-26T10:17:17Z</time>
      </trkpt>
      <trkpt lat="45.8538" lon="4.81249">
        <ele>454</ele>
        <time>2014-10-26T10:17:21Z</time>
      </trkpt>
      <trkpt lat="45.85373" lon="4.81246">
        <ele>455</ele>
        <time>2014-10-26T10:17:27Z</time>
      </trkpt>
      <trkpt lat="45.85369" lon="4.81242">
        <ele>456</ele>
        <time>2014-10-26T10:17:32Z</time>
      </trkpt>
      <trkpt lat="45.85368" lon="4.81241">
        <ele>456</ele>
        <time>2014-10-26T10:17:33Z</time>
      </trkpt>
      <trkpt lat="45.85362" lon="4.81234">
        <ele>456</ele>
        <time>2014-10-26T10:17:39Z</time>
      </trkpt>
      <trkpt lat="45.85354" lon="4.81227">
        <ele>457</ele>
        <time>2014-10-26T10:17:46Z</time>
      </trkpt>
      <trkpt lat="45.85353" lon="4.81226">
        <ele>457</ele>
        <time>2014-10-26T10:17:47Z</time>
      </trkpt>
      <trkpt lat="45.85346" lon="4.8122">
        <ele>457</ele>
        <time>2014-10-26T10:17:53Z</time>
      </trkpt>
      <trkpt lat="45.85338" lon="4.81213">
        <ele>456</ele>
        <time>2014-10-26T10:18:00Z</time>
      </trkpt>
      <trkpt lat="45.85337" lon="4.81213">
        <ele>456</ele>
        <time>2014-10-26T10:18:01Z</time>
      </trkpt>
      <trkpt lat="45.85331" lon="4.8121">
        <ele>464</ele>
        <time>2014-10-26T10:18:07Z</time>
      </trkpt>
      <trkpt lat="45.85324" lon="4.81205">
        <ele>464</ele>
        <time>2014-10-26T10:18:13Z</time>
      </trkpt>
      <trkpt lat="45.85319" lon="4.81204">
        <ele>464</ele>
        <time>2014-10-26T10:18:17Z</time>
      </trkpt>
      <trkpt lat="45.85318" lon="4.81203">
        <ele>464</ele>
        <time>2014-10-26T10:18:18Z</time>
      </trkpt>
      <trkpt lat="45.85314" lon="4.81201">
        <ele>464</ele>
        <time>2014-10-26T10:18:21Z</time>
      </trkpt>
      <trkpt lat="45.85309" lon="4.81197">
        <ele>464</ele>
        <time>2014-10-26T10:18:25Z</time>
      </trkpt>
      <trkpt lat="45.85303" lon="4.8119">
        <ele>464</ele>
        <time>2014-10-26T10:18:28Z</time>
      </trkpt>
      <trkpt lat="45.853" lon="4.81186">
        <ele>464</ele>
        <time>2014-10-26T10:18:30Z</time>
      </trkpt>
      <trkpt lat="45.85289" lon="4.81172">
        <ele>465</ele>
        <time>2014-10-26T10:18:36Z</time>
      </trkpt>
      <trkpt lat="45.85286" lon="4.81167">
        <ele>466</ele>
        <time>2014-10-26T10:18:38Z</time>
      </trkpt>
      <trkpt lat="45.85281" lon="4.8116">
        <ele>461</ele>
        <time>2014-10-26T10:18:41Z</time>
      </trkpt>
      <trkpt lat="45.85277" lon="4.81153">
        <ele>462</ele>
        <time>2014-10-26T10:18:44Z</time>
      </trkpt>
      <trkpt lat="45.85275" lon="4.8115">
        <ele>462</ele>
        <time>2014-10-26T10:18:45Z</time>
      </trkpt>
      <trkpt lat="45.85273" lon="4.81148">
        <ele>462</ele>
        <time>2014-10-26T10:18:46Z</time>
      </trkpt>
      <trkpt lat="45.85263" lon="4.81136">
        <ele>462</ele>
        <time>2014-10-26T10:18:51Z</time>
      </trkpt>
      <trkpt lat="45.85261" lon="4.81134">
        <ele>462</ele>
        <time>2014-10-26T10:18:52Z</time>
      </trkpt>
      <trkpt lat="45.8525" lon="4.81122">
        <ele>462</ele>
        <time>2014-10-26T10:18:57Z</time>
      </trkpt>
      <trkpt lat="45.85247" lon="4.81119">
        <ele>471</ele>
        <time>2014-10-26T10:18:59Z</time>
      </trkpt>
      <trkpt lat="45.85242" lon="4.81114">
        <ele>471</ele>
        <time>2014-10-26T10:19:02Z</time>
      </trkpt>
      <trkpt lat="45.85232" lon="4.81108">
        <ele>472</ele>
        <time>2014-10-26T10:19:07Z</time>
      </trkpt>
      <trkpt lat="45.85229" lon="4.81106">
        <ele>472</ele>
        <time>2014-10-26T10:19:08Z</time>
      </trkpt>
      <trkpt lat="45.85222" lon="4.81099">
        <ele>472</ele>
        <time>2014-10-26T10:19:12Z</time>
      </trkpt>
      <trkpt lat="45.85219" lon="4.81096">
        <ele>472</ele>
        <time>2014-10-26T10:19:14Z</time>
      </trkpt>
      <trkpt lat="45.85216" lon="4.81093">
        <ele>473</ele>
        <time>2014-10-26T10:19:16Z</time>
      </trkpt>
      <trkpt lat="45.85213" lon="4.8109">
        <ele>473</ele>
        <time>2014-10-26T10:19:18Z</time>
      </trkpt>
      <trkpt lat="45.85206" lon="4.81084">
        <ele>474</ele>
        <time>2014-10-26T10:19:22Z</time>
      </trkpt>
      <trkpt lat="45.85198" lon="4.81076">
        <ele>472</ele>
        <time>2014-10-26T10:19:28Z</time>
      </trkpt>
      <trkpt lat="45.85197" lon="4.81075">
        <ele>472</ele>
        <time>2014-10-26T10:19:29Z</time>
      </trkpt>
      <trkpt lat="45.85191" lon="4.81067">
        <ele>472</ele>
        <time>2014-10-26T10:19:34Z</time>
      </trkpt>
      <trkpt lat="45.85189" lon="4.81065">
        <ele>472</ele>
        <time>2014-10-26T10:19:35Z</time>
      </trkpt>
      <trkpt lat="45.85184" lon="4.81056">
        <ele>472</ele>
        <time>2014-10-26T10:19:39Z</time>
      </trkpt>
      <trkpt lat="45.85182" lon="4.81053">
        <ele>472</ele>
        <time>2014-10-26T10:19:40Z</time>
      </trkpt>
      <trkpt lat="45.85177" lon="4.81044">
        <ele>472</ele>
        <time>2014-10-26T10:19:45Z</time>
      </trkpt>
      <trkpt lat="45.85176" lon="4.81042">
        <ele>472</ele>
        <time>2014-10-26T10:19:46Z</time>
      </trkpt>
      <trkpt lat="45.85172" lon="4.81034">
        <ele>472</ele>
        <time>2014-10-26T10:19:49Z</time>
      </trkpt>
      <trkpt lat="45.85171" lon="4.8103">
        <ele>472</ele>
        <time>2014-10-26T10:19:51Z</time>
      </trkpt>
      <trkpt lat="45.85169" lon="4.81026">
        <ele>472</ele>
        <time>2014-10-26T10:19:53Z</time>
      </trkpt>
      <trkpt lat="45.85164" lon="4.81018">
        <ele>480</ele>
        <time>2014-10-26T10:19:57Z</time>
      </trkpt>
      <trkpt lat="45.85161" lon="4.81014">
        <ele>480</ele>
        <time>2014-10-26T10:19:59Z</time>
      </trkpt>
      <trkpt lat="45.85155" lon="4.81005">
        <ele>480</ele>
        <time>2014-10-26T10:20:03Z</time>
      </trkpt>
      <trkpt lat="45.85146" lon="4.80999">
        <ele>478</ele>
        <time>2014-10-26T10:20:07Z</time>
      </trkpt>
      <trkpt lat="45.85145" lon="4.80997">
        <ele>478</ele>
        <time>2014-10-26T10:20:08Z</time>
      </trkpt>
      <trkpt lat="45.85142" lon="4.80996">
        <ele>478</ele>
        <time>2014-10-26T10:20:09Z</time>
      </trkpt>
      <trkpt lat="45.85131" lon="4.80988">
        <ele>479</ele>
        <time>2014-10-26T10:20:14Z</time>
      </trkpt>
      <trkpt lat="45.85129" lon="4.80987">
        <ele>479</ele>
        <time>2014-10-26T10:20:15Z</time>
      </trkpt>
      <trkpt lat="45.85124" lon="4.80983">
        <ele>479</ele>
        <time>2014-10-26T10:20:18Z</time>
      </trkpt>
      <trkpt lat="45.85118" lon="4.80972">
        <ele>479</ele>
        <time>2014-10-26T10:20:23Z</time>
      </trkpt>
      <trkpt lat="45.85116" lon="4.80969">
        <ele>479</ele>
        <time>2014-10-26T10:20:24Z</time>
      </trkpt>
      <trkpt lat="45.85111" lon="4.80965">
        <ele>479</ele>
        <time>2014-10-26T10:20:28Z</time>
      </trkpt>
      <trkpt lat="45.85107" lon="4.80966">
        <ele>480</ele>
        <time>2014-10-26T10:20:32Z</time>
      </trkpt>
      <trkpt lat="45.85104" lon="4.80968">
        <ele>480</ele>
        <time>2014-10-26T10:20:36Z</time>
      </trkpt>
      <trkpt lat="45.851" lon="4.80968">
        <ele>480</ele>
        <time>2014-10-26T10:20:40Z</time>
      </trkpt>
      <trkpt lat="45.85091" lon="4.80962">
        <ele>481</ele>
        <time>2014-10-26T10:20:47Z</time>
      </trkpt>
      <trkpt lat="45.85085" lon="4.80962">
        <ele>481</ele>
        <time>2014-10-26T10:20:52Z</time>
      </trkpt>
      <trkpt lat="45.85082" lon="4.8096">
        <ele>486</ele>
        <time>2014-10-26T10:20:54Z</time>
      </trkpt>
      <trkpt lat="45.85079" lon="4.80958">
        <ele>486</ele>
        <time>2014-10-26T10:21:01Z</time>
      </trkpt>
      <trkpt lat="45.85083" lon="4.8096">
        <ele>481</ele>
        <time>2014-10-26T10:21:08Z</time>
      </trkpt>
      <trkpt lat="45.85086" lon="4.80962">
        <ele>481</ele>
        <time>2014-10-26T10:21:10Z</time>
      </trkpt>
      <trkpt lat="45.85089" lon="4.80959">
        <ele>481</ele>
        <time>2014-10-26T10:21:13Z</time>
      </trkpt>
      <trkpt lat="45.85092" lon="4.80956">
        <ele>481</ele>
        <time>2014-10-26T10:21:16Z</time>
      </trkpt>
      <trkpt lat="45.85095" lon="4.80952">
        <ele>481</ele>
        <time>2014-10-26T10:21:19Z</time>
      </trkpt>
      <trkpt lat="45.85096" lon="4.80946">
        <ele>481</ele>
        <time>2014-10-26T10:21:24Z</time>
      </trkpt>
      <trkpt lat="45.85091" lon="4.80938">
        <ele>482</ele>
        <time>2014-10-26T10:21:29Z</time>
      </trkpt>
      <trkpt lat="45.8509" lon="4.80936">
        <ele>482</ele>
        <time>2014-10-26T10:21:30Z</time>
      </trkpt>
      <trkpt lat="45.85086" lon="4.80931">
        <ele>483</ele>
        <time>2014-10-26T10:21:32Z</time>
      </trkpt>
      <trkpt lat="45.85083" lon="4.80927">
        <ele>487</ele>
        <time>2014-10-26T10:21:34Z</time>
      </trkpt>
      <trkpt lat="45.85079" lon="4.8092">
        <ele>487</ele>
        <time>2014-10-26T10:21:37Z</time>
      </trkpt>
      <trkpt lat="45.85076" lon="4.80915">
        <ele>487</ele>
        <time>2014-10-26T10:21:39Z</time>
      </trkpt>
      <trkpt lat="45.85074" lon="4.80912">
        <ele>487</ele>
        <time>2014-10-26T10:21:40Z</time>
      </trkpt>
      <trkpt lat="45.85067" lon="4.80898">
        <ele>486</ele>
        <time>2014-10-26T10:21:45Z</time>
      </trkpt>
      <trkpt lat="45.85063" lon="4.80892">
        <ele>486</ele>
        <time>2014-10-26T10:21:47Z</time>
      </trkpt>
      <trkpt lat="45.85058" lon="4.80884">
        <ele>486</ele>
        <time>2014-10-26T10:21:50Z</time>
      </trkpt>
      <trkpt lat="45.8505" lon="4.80871">
        <ele>486</ele>
        <time>2014-10-26T10:21:55Z</time>
      </trkpt>
      <trkpt lat="45.85041" lon="4.8086">
        <ele>487</ele>
        <time>2014-10-26T10:22:00Z</time>
      </trkpt>
      <trkpt lat="45.85037" lon="4.80851">
        <ele>487</ele>
        <time>2014-10-26T10:22:04Z</time>
      </trkpt>
      <trkpt lat="45.85034" lon="4.80846">
        <ele>487</ele>
        <time>2014-10-26T10:22:06Z</time>
      </trkpt>
      <trkpt lat="45.85025" lon="4.8083">
        <ele>485</ele>
        <time>2014-10-26T10:22:12Z</time>
      </trkpt>
      <trkpt lat="45.85024" lon="4.80828">
        <ele>485</ele>
        <time>2014-10-26T10:22:13Z</time>
      </trkpt>
      <trkpt lat="45.85017" lon="4.80815">
        <ele>485</ele>
        <time>2014-10-26T10:22:18Z</time>
      </trkpt>
      <trkpt lat="45.85015" lon="4.80809">
        <ele>484</ele>
        <time>2014-10-26T10:22:20Z</time>
      </trkpt>
      <trkpt lat="45.85012" lon="4.80805">
        <ele>484</ele>
        <time>2014-10-26T10:22:22Z</time>
      </trkpt>
      <trkpt lat="45.8501" lon="4.80803">
        <ele>484</ele>
        <time>2014-10-26T10:22:23Z</time>
      </trkpt>
      <trkpt lat="45.85005" lon="4.80796">
        <ele>484</ele>
        <time>2014-10-26T10:22:26Z</time>
      </trkpt>
      <trkpt lat="45.85003" lon="4.80793">
        <ele>484</ele>
        <time>2014-10-26T10:22:27Z</time>
      </trkpt>
      <trkpt lat="45.85002" lon="4.8079">
        <ele>484</ele>
        <time>2014-10-26T10:22:28Z</time>
      </trkpt>
      <trkpt lat="45.84996" lon="4.80777">
        <ele>491</ele>
        <time>2014-10-26T10:22:33Z</time>
      </trkpt>
      <trkpt lat="45.84994" lon="4.80772">
        <ele>491</ele>
        <time>2014-10-26T10:22:35Z</time>
      </trkpt>
      <trkpt lat="45.84993" lon="4.80766">
        <ele>490</ele>
        <time>2014-10-26T10:22:37Z</time>
      </trkpt>
      <trkpt lat="45.8499" lon="4.80758">
        <ele>490</ele>
        <time>2014-10-26T10:22:39Z</time>
      </trkpt>
      <trkpt lat="45.84988" lon="4.80755">
        <ele>490</ele>
        <time>2014-10-26T10:22:40Z</time>
      </trkpt>
      <trkpt lat="45.84983" lon="4.80745">
        <ele>488</ele>
        <time>2014-10-26T10:22:43Z</time>
      </trkpt>
      <trkpt lat="45.84982" lon="4.80742">
        <ele>488</ele>
        <time>2014-10-26T10:22:44Z</time>
      </trkpt>
      <trkpt lat="45.84975" lon="4.80726">
        <ele>488</ele>
        <time>2014-10-26T10:22:49Z</time>
      </trkpt>
      <trkpt lat="45.84973" lon="4.80719">
        <ele>488</ele>
        <time>2014-10-26T10:22:51Z</time>
      </trkpt>
      <trkpt lat="45.84967" lon="4.80704">
        <ele>487</ele>
        <time>2014-10-26T10:22:55Z</time>
      </trkpt>
      <trkpt lat="45.84964" lon="4.80695">
        <ele>487</ele>
        <time>2014-10-26T10:22:57Z</time>
      </trkpt>
      <trkpt lat="45.84958" lon="4.80682">
        <ele>488</ele>
        <time>2014-10-26T10:23:01Z</time>
      </trkpt>
      <trkpt lat="45.84951" lon="4.80675">
        <ele>488</ele>
        <time>2014-10-26T10:23:04Z</time>
      </trkpt>
      <trkpt lat="45.84944" lon="4.80671">
        <ele>490</ele>
        <time>2014-10-26T10:23:07Z</time>
      </trkpt>
      <trkpt lat="45.84932" lon="4.80667">
        <ele>492</ele>
        <time>2014-10-26T10:23:12Z</time>
      </trkpt>
      <trkpt lat="45.84929" lon="4.80667">
        <ele>491</ele>
        <time>2014-10-26T10:23:13Z</time>
      </trkpt>
      <trkpt lat="45.84915" lon="4.80663">
        <ele>496</ele>
        <time>2014-10-26T10:23:18Z</time>
      </trkpt>
      <trkpt lat="45.84913" lon="4.80663">
        <ele>496</ele>
        <time>2014-10-26T10:23:19Z</time>
      </trkpt>
      <trkpt lat="45.84911" lon="4.80663">
        <ele>496</ele>
        <time>2014-10-26T10:23:20Z</time>
      </trkpt>
      <trkpt lat="45.84904" lon="4.8066">
        <ele>496</ele>
        <time>2014-10-26T10:23:23Z</time>
      </trkpt>
      <trkpt lat="45.84893" lon="4.80657">
        <ele>497</ele>
        <time>2014-10-26T10:23:28Z</time>
      </trkpt>
      <trkpt lat="45.84875" lon="4.80652">
        <ele>497</ele>
        <time>2014-10-26T10:23:35Z</time>
      </trkpt>
      <trkpt lat="45.84862" lon="4.80645">
        <ele>497</ele>
        <time>2014-10-26T10:23:41Z</time>
      </trkpt>
      <trkpt lat="45.84857" lon="4.80644">
        <ele>497</ele>
        <time>2014-10-26T10:23:43Z</time>
      </trkpt>
      <trkpt lat="45.84847" lon="4.80641">
        <ele>497</ele>
        <time>2014-10-26T10:23:47Z</time>
      </trkpt>
      <trkpt lat="45.84839" lon="4.8064">
        <ele>497</ele>
        <time>2014-10-26T10:23:50Z</time>
      </trkpt>
      <trkpt lat="45.84834" lon="4.80639">
        <ele>497</ele>
        <time>2014-10-26T10:23:52Z</time>
      </trkpt>
      <trkpt lat="45.84823" lon="4.80637">
        <ele>497</ele>
        <time>2014-10-26T10:23:57Z</time>
      </trkpt>
      <trkpt lat="45.8482" lon="4.80636">
        <ele>497</ele>
        <time>2014-10-26T10:23:58Z</time>
      </trkpt>
      <trkpt lat="45.84815" lon="4.80635">
        <ele>497</ele>
        <time>2014-10-26T10:24:00Z</time>
      </trkpt>
      <trkpt lat="45.84813" lon="4.80634">
        <ele>497</ele>
        <time>2014-10-26T10:24:01Z</time>
      </trkpt>
      <trkpt lat="45.84801" lon="4.80633">
        <ele>497</ele>
        <time>2014-10-26T10:24:05Z</time>
      </trkpt>
      <trkpt lat="45.84798" lon="4.80633">
        <ele>497</ele>
        <time>2014-10-26T10:24:06Z</time>
      </trkpt>
      <trkpt lat="45.84783" lon="4.80632">
        <ele>497</ele>
        <time>2014-10-26T10:24:12Z</time>
      </trkpt>
      <trkpt lat="45.84781" lon="4.80632">
        <ele>497</ele>
        <time>2014-10-26T10:24:13Z</time>
      </trkpt>
      <trkpt lat="45.84763" lon="4.80635">
        <ele>496</ele>
        <time>2014-10-26T10:24:20Z</time>
      </trkpt>
      <trkpt lat="45.84761" lon="4.80635">
        <ele>496</ele>
        <time>2014-10-26T10:24:21Z</time>
      </trkpt>
      <trkpt lat="45.84754" lon="4.80636">
        <ele>496</ele>
        <time>2014-10-26T10:24:24Z</time>
      </trkpt>
      <trkpt lat="45.84743" lon="4.80639">
        <ele>495</ele>
        <time>2014-10-26T10:24:29Z</time>
      </trkpt>
      <trkpt lat="45.84737" lon="4.80639">
        <ele>495</ele>
        <time>2014-10-26T10:24:31Z</time>
      </trkpt>
      <trkpt lat="45.84734" lon="4.80639">
        <ele>495</ele>
        <time>2014-10-26T10:24:32Z</time>
      </trkpt>
      <trkpt lat="45.84726" lon="4.8064">
        <ele>495</ele>
        <time>2014-10-26T10:24:35Z</time>
      </trkpt>
      <trkpt lat="45.84723" lon="4.80641">
        <ele>495</ele>
        <time>2014-10-26T10:24:36Z</time>
      </trkpt>
      <trkpt lat="45.84712" lon="4.80641">
        <ele>495</ele>
        <time>2014-10-26T10:24:40Z</time>
      </trkpt>
      <trkpt lat="45.84704" lon="4.80643">
        <ele>495</ele>
        <time>2014-10-26T10:24:43Z</time>
      </trkpt>
      <trkpt lat="45.84696" lon="4.80645">
        <ele>495</ele>
        <time>2014-10-26T10:24:46Z</time>
      </trkpt>
      <trkpt lat="45.84686" lon="4.80648">
        <ele>494</ele>
        <time>2014-10-26T10:24:50Z</time>
      </trkpt>
      <trkpt lat="45.84683" lon="4.80648">
        <ele>494</ele>
        <time>2014-10-26T10:24:51Z</time>
      </trkpt>
      <trkpt lat="45.84671" lon="4.80644">
        <ele>494</ele>
        <time>2014-10-26T10:24:56Z</time>
      </trkpt>
      <trkpt lat="45.84666" lon="4.80642">
        <ele>492</ele>
        <time>2014-10-26T10:24:58Z</time>
      </trkpt>
      <trkpt lat="45.84664" lon="4.80641">
        <ele>492</ele>
        <time>2014-10-26T10:24:59Z</time>
      </trkpt>
      <trkpt lat="45.84661" lon="4.8064">
        <ele>493</ele>
        <time>2014-10-26T10:25:00Z</time>
      </trkpt>
      <trkpt lat="45.84651" lon="4.80638">
        <ele>493</ele>
        <time>2014-10-26T10:25:04Z</time>
      </trkpt>
      <trkpt lat="45.84646" lon="4.80637">
        <ele>493</ele>
        <time>2014-10-26T10:25:06Z</time>
      </trkpt>
      <trkpt lat="45.84641" lon="4.80636">
        <ele>492</ele>
        <time>2014-10-26T10:25:08Z</time>
      </trkpt>
      <trkpt lat="45.84626" lon="4.80637">
        <ele>492</ele>
        <time>2014-10-26T10:25:13Z</time>
      </trkpt>
      <trkpt lat="45.84613" lon="4.80637">
        <ele>491</ele>
        <time>2014-10-26T10:25:18Z</time>
      </trkpt>
      <trkpt lat="45.84608" lon="4.80636">
        <ele>491</ele>
        <time>2014-10-26T10:25:20Z</time>
      </trkpt>
      <trkpt lat="45.84599" lon="4.80632">
        <ele>491</ele>
        <time>2014-10-26T10:25:24Z</time>
      </trkpt>
      <trkpt lat="45.84592" lon="4.80624">
        <ele>492</ele>
        <time>2014-10-26T10:25:28Z</time>
      </trkpt>
      <trkpt lat="45.8459" lon="4.80621">
        <ele>492</ele>
        <time>2014-10-26T10:25:29Z</time>
      </trkpt>
      <trkpt lat="45.84581" lon="4.80599">
        <ele>491</ele>
        <time>2014-10-26T10:25:35Z</time>
      </trkpt>
      <trkpt lat="45.84573" lon="4.80577">
        <ele>496</ele>
        <time>2014-10-26T10:25:41Z</time>
      </trkpt>
      <trkpt lat="45.84571" lon="4.80573">
        <ele>497</ele>
        <time>2014-10-26T10:25:42Z</time>
      </trkpt>
      <trkpt lat="45.84566" lon="4.80565">
        <ele>498</ele>
        <time>2014-10-26T10:25:45Z</time>
      </trkpt>
      <trkpt lat="45.84554" lon="4.80561">
        <ele>499</ele>
        <time>2014-10-26T10:25:49Z</time>
      </trkpt>
      <trkpt lat="45.84551" lon="4.8056">
        <ele>499</ele>
        <time>2014-10-26T10:25:50Z</time>
      </trkpt>
      <trkpt lat="45.84539" lon="4.80561">
        <ele>499</ele>
        <time>2014-10-26T10:25:55Z</time>
      </trkpt>
      <trkpt lat="45.84534" lon="4.80565">
        <ele>498</ele>
        <time>2014-10-26T10:25:57Z</time>
      </trkpt>
      <trkpt lat="45.84527" lon="4.80569">
        <ele>498</ele>
        <time>2014-10-26T10:26:00Z</time>
      </trkpt>
      <trkpt lat="45.84517" lon="4.80577">
        <ele>497</ele>
        <time>2014-10-26T10:26:05Z</time>
      </trkpt>
      <trkpt lat="45.84509" lon="4.8058">
        <ele>495</ele>
        <time>2014-10-26T10:26:09Z</time>
      </trkpt>
      <trkpt lat="45.84507" lon="4.80581">
        <ele>495</ele>
        <time>2014-10-26T10:26:10Z</time>
      </trkpt>
      <trkpt lat="45.84499" lon="4.80587">
        <ele>492</ele>
        <time>2014-10-26T10:26:13Z</time>
      </trkpt>
      <trkpt lat="45.84495" lon="4.80589">
        <ele>492</ele>
        <time>2014-10-26T10:26:15Z</time>
      </trkpt>
      <trkpt lat="45.84481" lon="4.80594">
        <ele>491</ele>
        <time>2014-10-26T10:26:21Z</time>
      </trkpt>
      <trkpt lat="45.8447" lon="4.806">
        <ele>490</ele>
        <time>2014-10-26T10:26:26Z</time>
      </trkpt>
      <trkpt lat="45.84463" lon="4.806">
        <ele>490</ele>
        <time>2014-10-26T10:26:29Z</time>
      </trkpt>
      <trkpt lat="45.84459" lon="4.80599">
        <ele>490</ele>
        <time>2014-10-26T10:26:31Z</time>
      </trkpt>
      <trkpt lat="45.84449" lon="4.80597">
        <ele>491</ele>
        <time>2014-10-26T10:26:36Z</time>
      </trkpt>
      <trkpt lat="45.84444" lon="4.80596">
        <ele>491</ele>
        <time>2014-10-26T10:26:38Z</time>
      </trkpt>
      <trkpt lat="45.84436" lon="4.80591">
        <ele>493</ele>
        <time>2014-10-26T10:26:42Z</time>
      </trkpt>
      <trkpt lat="45.84433" lon="4.8059">
        <ele>493</ele>
        <time>2014-10-26T10:26:43Z</time>
      </trkpt>
      <trkpt lat="45.84426" lon="4.80587">
        <ele>494</ele>
        <time>2014-10-26T10:26:46Z</time>
      </trkpt>
      <trkpt lat="45.84424" lon="4.80586">
        <ele>495</ele>
        <time>2014-10-26T10:26:47Z</time>
      </trkpt>
      <trkpt lat="45.84411" lon="4.8058">
        <ele>498</ele>
        <time>2014-10-26T10:26:53Z</time>
      </trkpt>
      <trkpt lat="45.84409" lon="4.80579">
        <ele>498</ele>
        <time>2014-10-26T10:26:54Z</time>
      </trkpt>
      <trkpt lat="45.84407" lon="4.80579">
        <ele>498</ele>
        <time>2014-10-26T10:26:55Z</time>
      </trkpt>
      <trkpt lat="45.84403" lon="4.80578">
        <ele>498</ele>
        <time>2014-10-26T10:26:57Z</time>
      </trkpt>
      <trkpt lat="45.844" lon="4.80577">
        <ele>499</ele>
        <time>2014-10-26T10:26:59Z</time>
      </trkpt>
      <trkpt lat="45.84394" lon="4.80573">
        <ele>499</ele>
        <time>2014-10-26T10:27:02Z</time>
      </trkpt>
      <trkpt lat="45.84389" lon="4.8057">
        <ele>499</ele>
        <time>2014-10-26T10:27:04Z</time>
      </trkpt>
      <trkpt lat="45.8438" lon="4.80566">
        <ele>499</ele>
        <time>2014-10-26T10:27:08Z</time>
      </trkpt>
      <trkpt lat="45.84371" lon="4.80563">
        <ele>499</ele>
        <time>2014-10-26T10:27:12Z</time>
      </trkpt>
      <trkpt lat="45.84358" lon="4.80557">
        <ele>499</ele>
        <time>2014-10-26T10:27:18Z</time>
      </trkpt>
      <trkpt lat="45.84355" lon="4.80557">
        <ele>499</ele>
        <time>2014-10-26T10:27:19Z</time>
      </trkpt>
      <trkpt lat="45.84352" lon="4.80558">
        <ele>499</ele>
        <time>2014-10-26T10:27:21Z</time>
      </trkpt>
      <trkpt lat="45.84344" lon="4.80558">
        <ele>499</ele>
        <time>2014-10-26T10:27:25Z</time>
      </trkpt>
      <trkpt lat="45.84342" lon="4.80558">
        <ele>499</ele>
        <time>2014-10-26T10:27:26Z</time>
      </trkpt>
      <trkpt lat="45.84332" lon="4.80561">
        <ele>497</ele>
        <time>2014-10-26T10:27:30Z</time>
      </trkpt>
      <trkpt lat="45.84329" lon="4.80563">
        <ele>497</ele>
        <time>2014-10-26T10:27:31Z</time>
      </trkpt>
      <trkpt lat="45.84314" lon="4.80571">
        <ele>497</ele>
        <time>2014-10-26T10:27:37Z</time>
      </trkpt>
      <trkpt lat="45.84301" lon="4.80579">
        <ele>497</ele>
        <time>2014-10-26T10:27:42Z</time>
      </trkpt>
      <trkpt lat="45.84297" lon="4.80581">
        <ele>496</ele>
        <time>2014-10-26T10:27:44Z</time>
      </trkpt>
      <trkpt lat="45.84292" lon="4.80583">
        <ele>496</ele>
        <time>2014-10-26T10:27:46Z</time>
      </trkpt>
      <trkpt lat="45.8428" lon="4.80586">
        <ele>491</ele>
        <time>2014-10-26T10:27:51Z</time>
      </trkpt>
      <trkpt lat="45.84277" lon="4.80587">
        <ele>491</ele>
        <time>2014-10-26T10:27:52Z</time>
      </trkpt>
      <trkpt lat="45.84265" lon="4.80596">
        <ele>490</ele>
        <time>2014-10-26T10:27:57Z</time>
      </trkpt>
      <trkpt lat="45.84263" lon="4.80599">
        <ele>490</ele>
        <time>2014-10-26T10:27:58Z</time>
      </trkpt>
      <trkpt lat="45.84263" lon="4.80604">
        <ele>490</ele>
        <time>2014-10-26T10:27:59Z</time>
      </trkpt>
      <trkpt lat="45.84262" lon="4.80612">
        <ele>490</ele>
        <time>2014-10-26T10:28:01Z</time>
      </trkpt>
      <trkpt lat="45.84261" lon="4.80621">
        <ele>489</ele>
        <time>2014-10-26T10:28:04Z</time>
      </trkpt>
      <trkpt lat="45.8426" lon="4.80622">
        <ele>489</ele>
        <time>2014-10-26T10:28:05Z</time>
      </trkpt>
      <trkpt lat="45.84256" lon="4.80628">
        <ele>488</ele>
        <time>2014-10-26T10:28:07Z</time>
      </trkpt>
      <trkpt lat="45.84251" lon="4.80633">
        <ele>488</ele>
        <time>2014-10-26T10:28:09Z</time>
      </trkpt>
      <trkpt lat="45.84248" lon="4.8064">
        <ele>485</ele>
        <time>2014-10-26T10:28:11Z</time>
      </trkpt>
      <trkpt lat="45.84245" lon="4.80648">
        <ele>484</ele>
        <time>2014-10-26T10:28:13Z</time>
      </trkpt>
      <trkpt lat="45.84244" lon="4.80652">
        <ele>484</ele>
        <time>2014-10-26T10:28:14Z</time>
      </trkpt>
      <trkpt lat="45.84241" lon="4.80674">
        <ele>482</ele>
        <time>2014-10-26T10:28:19Z</time>
      </trkpt>
      <trkpt lat="45.8424" lon="4.80698">
        <ele>480</ele>
        <time>2014-10-26T10:28:25Z</time>
      </trkpt>
      <trkpt lat="45.8424" lon="4.80703">
        <ele>480</ele>
        <time>2014-10-26T10:28:26Z</time>
      </trkpt>
      <trkpt lat="45.84239" lon="4.80719">
        <ele>478</ele>
        <time>2014-10-26T10:28:30Z</time>
      </trkpt>
      <trkpt lat="45.84238" lon="4.8073">
        <ele>478</ele>
        <time>2014-10-26T10:28:33Z</time>
      </trkpt>
      <trkpt lat="45.84236" lon="4.80738">
        <ele>477</ele>
        <time>2014-10-26T10:28:35Z</time>
      </trkpt>
      <trkpt lat="45.84235" lon="4.80744">
        <ele>477</ele>
        <time>2014-10-26T10:28:37Z</time>
      </trkpt>
      <trkpt lat="45.84234" lon="4.80754">
        <ele>474</ele>
        <time>2014-10-26T10:28:40Z</time>
      </trkpt>
      <trkpt lat="45.84233" lon="4.80757">
        <ele>474</ele>
        <time>2014-10-26T10:28:41Z</time>
      </trkpt>
      <trkpt lat="45.84227" lon="4.80777">
        <ele>474</ele>
        <time>2014-10-26T10:28:47Z</time>
      </trkpt>
      <trkpt lat="45.84224" lon="4.8078">
        <ele>474</ele>
        <time>2014-10-26T10:28:48Z</time>
      </trkpt>
      <trkpt lat="45.84212" lon="4.80796">
        <ele>473</ele>
        <time>2014-10-26T10:28:53Z</time>
      </trkpt>
      <trkpt lat="45.84209" lon="4.80799">
        <ele>473</ele>
        <time>2014-10-26T10:28:54Z</time>
      </trkpt>
      <trkpt lat="45.84201" lon="4.80813">
        <ele>473</ele>
        <time>2014-10-26T10:28:58Z</time>
      </trkpt>
      <trkpt lat="45.84197" lon="4.8082">
        <ele>472</ele>
        <time>2014-10-26T10:29:00Z</time>
      </trkpt>
      <trkpt lat="45.84191" lon="4.80829">
        <ele>472</ele>
        <time>2014-10-26T10:29:03Z</time>
      </trkpt>
      <trkpt lat="45.84184" lon="4.80838">
        <ele>468</ele>
        <time>2014-10-26T10:29:06Z</time>
      </trkpt>
      <trkpt lat="45.84178" lon="4.80848">
        <ele>468</ele>
        <time>2014-10-26T10:29:09Z</time>
      </trkpt>
      <trkpt lat="45.84173" lon="4.80859">
        <ele>467</ele>
        <time>2014-10-26T10:29:12Z</time>
      </trkpt>
      <trkpt lat="45.8417" lon="4.8087">
        <ele>467</ele>
        <time>2014-10-26T10:29:15Z</time>
      </trkpt>
      <trkpt lat="45.84166" lon="4.80883">
        <ele>464</ele>
        <time>2014-10-26T10:29:18Z</time>
      </trkpt>
      <trkpt lat="45.84161" lon="4.80891">
        <ele>464</ele>
        <time>2014-10-26T10:29:20Z</time>
      </trkpt>
      <trkpt lat="45.84153" lon="4.80903">
        <ele>463</ele>
        <time>2014-10-26T10:29:24Z</time>
      </trkpt>
      <trkpt lat="45.8415" lon="4.80905">
        <ele>463</ele>
        <time>2014-10-26T10:29:25Z</time>
      </trkpt>
      <trkpt lat="45.84141" lon="4.80917">
        <ele>460</ele>
        <time>2014-10-26T10:29:30Z</time>
      </trkpt>
      <trkpt lat="45.84139" lon="4.8092">
        <ele>460</ele>
        <time>2014-10-26T10:29:31Z</time>
      </trkpt>
      <trkpt lat="45.84133" lon="4.80935">
        <ele>459</ele>
        <time>2014-10-26T10:29:35Z</time>
      </trkpt>
      <trkpt lat="45.8413" lon="4.80946">
        <ele>459</ele>
        <time>2014-10-26T10:29:38Z</time>
      </trkpt>
      <trkpt lat="45.84127" lon="4.80953">
        <ele>458</ele>
        <time>2014-10-26T10:29:40Z</time>
      </trkpt>
      <trkpt lat="45.8412" lon="4.80971">
        <ele>457</ele>
        <time>2014-10-26T10:29:45Z</time>
      </trkpt>
      <trkpt lat="45.8411" lon="4.80987">
        <ele>457</ele>
        <time>2014-10-26T10:29:50Z</time>
      </trkpt>
      <trkpt lat="45.84107" lon="4.80993">
        <ele>456</ele>
        <time>2014-10-26T10:29:52Z</time>
      </trkpt>
      <trkpt lat="45.84102" lon="4.81001">
        <ele>454</ele>
        <time>2014-10-26T10:29:55Z</time>
      </trkpt>
      <trkpt lat="45.84092" lon="4.81009">
        <ele>454</ele>
        <time>2014-10-26T10:29:59Z</time>
      </trkpt>
      <trkpt lat="45.84078" lon="4.81011">
        <ele>451</ele>
        <time>2014-10-26T10:30:04Z</time>
      </trkpt>
      <trkpt lat="45.84073" lon="4.81009">
        <ele>451</ele>
        <time>2014-10-26T10:30:06Z</time>
      </trkpt>
      <trkpt lat="45.84062" lon="4.81008">
        <ele>450</ele>
        <time>2014-10-26T10:30:10Z</time>
      </trkpt>
      <trkpt lat="45.84053" lon="4.81006">
        <ele>449</ele>
        <time>2014-10-26T10:30:13Z</time>
      </trkpt>
      <trkpt lat="45.8405" lon="4.81004">
        <ele>448</ele>
        <time>2014-10-26T10:30:14Z</time>
      </trkpt>
      <trkpt lat="45.84042" lon="4.81001">
        <ele>447</ele>
        <time>2014-10-26T10:30:17Z</time>
      </trkpt>
      <trkpt lat="45.84039" lon="4.81002">
        <ele>447</ele>
        <time>2014-10-26T10:30:18Z</time>
      </trkpt>
      <trkpt lat="45.84034" lon="4.81003">
        <ele>447</ele>
        <time>2014-10-26T10:30:20Z</time>
      </trkpt>
      <trkpt lat="45.84027" lon="4.81003">
        <ele>446</ele>
        <time>2014-10-26T10:30:23Z</time>
      </trkpt>
      <trkpt lat="45.84014" lon="4.81002">
        <ele>445</ele>
        <time>2014-10-26T10:30:28Z</time>
      </trkpt>
      <trkpt lat="45.83999" lon="4.80999">
        <ele>442</ele>
        <time>2014-10-26T10:30:34Z</time>
      </trkpt>
      <trkpt lat="45.83996" lon="4.80999">
        <ele>441</ele>
        <time>2014-10-26T10:30:35Z</time>
      </trkpt>
      <trkpt lat="45.83982" lon="4.80998">
        <ele>436</ele>
        <time>2014-10-26T10:30:40Z</time>
      </trkpt>
      <trkpt lat="45.83976" lon="4.80998">
        <ele>435</ele>
        <time>2014-10-26T10:30:42Z</time>
      </trkpt>
      <trkpt lat="45.83965" lon="4.81">
        <ele>433</ele>
        <time>2014-10-26T10:30:46Z</time>
      </trkpt>
      <trkpt lat="45.83956" lon="4.80996">
        <ele>431</ele>
        <time>2014-10-26T10:30:49Z</time>
      </trkpt>
      <trkpt lat="45.83953" lon="4.80991">
        <ele>430</ele>
        <time>2014-10-26T10:30:51Z</time>
      </trkpt>
      <trkpt lat="45.8395" lon="4.80974">
        <ele>430</ele>
        <time>2014-10-26T10:30:56Z</time>
      </trkpt>
      <trkpt lat="45.8395" lon="4.8097">
        <ele>430</ele>
        <time>2014-10-26T10:30:57Z</time>
      </trkpt>
      <trkpt lat="45.83947" lon="4.80955">
        <ele>429</ele>
        <time>2014-10-26T10:31:01Z</time>
      </trkpt>
      <trkpt lat="45.83947" lon="4.80943">
        <ele>429</ele>
        <time>2014-10-26T10:31:04Z</time>
      </trkpt>
      <trkpt lat="45.83949" lon="4.80935">
        <ele>429</ele>
        <time>2014-10-26T10:31:06Z</time>
      </trkpt>
      <trkpt lat="45.83949" lon="4.80927">
        <ele>429</ele>
        <time>2014-10-26T10:31:08Z</time>
      </trkpt>
      <trkpt lat="45.83951" lon="4.80915">
        <ele>432</ele>
        <time>2014-10-26T10:31:11Z</time>
      </trkpt>
      <trkpt lat="45.83954" lon="4.80905">
        <ele>433</ele>
        <time>2014-10-26T10:31:15Z</time>
      </trkpt>
      <trkpt lat="45.83956" lon="4.80898">
        <ele>433</ele>
        <time>2014-10-26T10:31:16Z</time>
      </trkpt>
      <trkpt lat="45.83957" lon="4.8089">
        <ele>434</ele>
        <time>2014-10-26T10:31:18Z</time>
      </trkpt>
      <trkpt lat="45.83958" lon="4.80878">
        <ele>434</ele>
        <time>2014-10-26T10:31:21Z</time>
      </trkpt>
      <trkpt lat="45.8396" lon="4.80864">
        <ele>435</ele>
        <time>2014-10-26T10:31:25Z</time>
      </trkpt>
      <trkpt lat="45.8396" lon="4.8086">
        <ele>435</ele>
        <time>2014-10-26T10:31:26Z</time>
      </trkpt>
      <trkpt lat="45.8396" lon="4.80855">
        <ele>435</ele>
        <time>2014-10-26T10:31:27Z</time>
      </trkpt>
      <trkpt lat="45.83955" lon="4.80846">
        <ele>435</ele>
        <time>2014-10-26T10:31:30Z</time>
      </trkpt>
      <trkpt lat="45.83949" lon="4.80846">
        <ele>435</ele>
        <time>2014-10-26T10:31:32Z</time>
      </trkpt>
      <trkpt lat="45.83942" lon="4.80844">
        <ele>435</ele>
        <time>2014-10-26T10:31:35Z</time>
      </trkpt>
      <trkpt lat="45.83935" lon="4.80843">
        <ele>435</ele>
        <time>2014-10-26T10:31:38Z</time>
      </trkpt>
      <trkpt lat="45.8393" lon="4.80843">
        <ele>435</ele>
        <time>2014-10-26T10:31:41Z</time>
      </trkpt>
      <trkpt lat="45.83926" lon="4.80844">
        <ele>434</ele>
        <time>2014-10-26T10:31:42Z</time>
      </trkpt>
      <trkpt lat="45.83913" lon="4.80844">
        <ele>430</ele>
        <time>2014-10-26T10:31:46Z</time>
      </trkpt>
      <trkpt lat="45.83911" lon="4.80844">
        <ele>429</ele>
        <time>2014-10-26T10:31:47Z</time>
      </trkpt>
      <trkpt lat="45.839" lon="4.80843">
        <ele>427</ele>
        <time>2014-10-26T10:31:51Z</time>
      </trkpt>
      <trkpt lat="45.83892" lon="4.80842">
        <ele>426</ele>
        <time>2014-10-26T10:31:55Z</time>
      </trkpt>
      <trkpt lat="45.83884" lon="4.80842">
        <ele>424</ele>
        <time>2014-10-26T10:31:58Z</time>
      </trkpt>
      <trkpt lat="45.83872" lon="4.80844">
        <ele>423</ele>
        <time>2014-10-26T10:32:02Z</time>
      </trkpt>
      <trkpt lat="45.83858" lon="4.80842">
        <ele>422</ele>
        <time>2014-10-26T10:32:07Z</time>
      </trkpt>
      <trkpt lat="45.83854" lon="4.80846">
        <ele>422</ele>
        <time>2014-10-26T10:32:12Z</time>
      </trkpt>
      <trkpt lat="45.83854" lon="4.80843">
        <ele>422</ele>
        <time>2014-10-26T10:32:17Z</time>
      </trkpt>
      <trkpt lat="45.83854" lon="4.80842">
        <ele>422</ele>
        <time>2014-10-26T10:32:18Z</time>
      </trkpt>
      <trkpt lat="45.83849" lon="4.8084">
        <ele>422</ele>
        <time>2014-10-26T10:32:20Z</time>
      </trkpt>
      <trkpt lat="45.83847" lon="4.8084">
        <ele>422</ele>
        <time>2014-10-26T10:32:21Z</time>
      </trkpt>
      <trkpt lat="45.83839" lon="4.80841">
        <ele>422</ele>
        <time>2014-10-26T10:32:26Z</time>
      </trkpt>
      <trkpt lat="45.83834" lon="4.80839">
        <ele>422</ele>
        <time>2014-10-26T10:32:27Z</time>
      </trkpt>
      <trkpt lat="45.83825" lon="4.80832">
        <ele>423</ele>
        <time>2014-10-26T10:32:32Z</time>
      </trkpt>
      <trkpt lat="45.83818" lon="4.80823">
        <ele>423</ele>
        <time>2014-10-26T10:32:35Z</time>
      </trkpt>
      <trkpt lat="45.83815" lon="4.80816">
        <ele>423</ele>
        <time>2014-10-26T10:32:37Z</time>
      </trkpt>
      <trkpt lat="45.83811" lon="4.80801">
        <ele>423</ele>
        <time>2014-10-26T10:32:41Z</time>
      </trkpt>
      <trkpt lat="45.8381" lon="4.80797">
        <ele>423</ele>
        <time>2014-10-26T10:32:42Z</time>
      </trkpt>
      <trkpt lat="45.83802" lon="4.80782">
        <ele>424</ele>
        <time>2014-10-26T10:32:47Z</time>
      </trkpt>
      <trkpt lat="45.83799" lon="4.80776">
        <ele>424</ele>
        <time>2014-10-26T10:32:49Z</time>
      </trkpt>
      <trkpt lat="45.8379" lon="4.80763">
        <ele>424</ele>
        <time>2014-10-26T10:32:54Z</time>
      </trkpt>
      <trkpt lat="45.83786" lon="4.80758">
        <ele>423</ele>
        <time>2014-10-26T10:32:56Z</time>
      </trkpt>
      <trkpt lat="45.83777" lon="4.80748">
        <ele>427</ele>
        <time>2014-10-26T10:33:00Z</time>
      </trkpt>
      <trkpt lat="45.83771" lon="4.80741">
        <ele>426</ele>
        <time>2014-10-26T10:33:02Z</time>
      </trkpt>
      <trkpt lat="45.83767" lon="4.80735">
        <ele>426</ele>
        <time>2014-10-26T10:33:04Z</time>
      </trkpt>
      <trkpt lat="45.83757" lon="4.80722">
        <ele>427</ele>
        <time>2014-10-26T10:33:10Z</time>
      </trkpt>
      <trkpt lat="45.83747" lon="4.80706">
        <ele>421</ele>
        <time>2014-10-26T10:33:15Z</time>
      </trkpt>
      <trkpt lat="45.83743" lon="4.80702">
        <ele>422</ele>
        <time>2014-10-26T10:33:17Z</time>
      </trkpt>
      <trkpt lat="45.83737" lon="4.80699">
        <ele>422</ele>
        <time>2014-10-26T10:33:20Z</time>
      </trkpt>
      <trkpt lat="45.83726" lon="4.807">
        <ele>422</ele>
        <time>2014-10-26T10:33:25Z</time>
      </trkpt>
      <trkpt lat="45.83725" lon="4.80699">
        <ele>422</ele>
        <time>2014-10-26T10:33:26Z</time>
      </trkpt>
      <trkpt lat="45.83722" lon="4.80693">
        <ele>422</ele>
        <time>2014-10-26T10:33:30Z</time>
      </trkpt>
      <trkpt lat="45.83721" lon="4.80681">
        <ele>423</ele>
        <time>2014-10-26T10:33:36Z</time>
      </trkpt>
      <trkpt lat="45.8372" lon="4.80673">
        <ele>423</ele>
        <time>2014-10-26T10:33:40Z</time>
      </trkpt>
      <trkpt lat="45.8372" lon="4.80669">
        <ele>423</ele>
        <time>2014-10-26T10:33:42Z</time>
      </trkpt>
      <trkpt lat="45.83719" lon="4.80651">
        <ele>431</ele>
        <time>2014-10-26T10:33:50Z</time>
      </trkpt>
      <trkpt lat="45.83718" lon="4.80648">
        <ele>431</ele>
        <time>2014-10-26T10:33:53Z</time>
      </trkpt>
      <trkpt lat="45.83718" lon="4.80647">
        <ele>431</ele>
        <time>2014-10-26T10:33:54Z</time>
      </trkpt>
      <trkpt lat="45.83718" lon="4.80637">
        <ele>432</ele>
        <time>2014-10-26T10:33:59Z</time>
      </trkpt>
      <trkpt lat="45.83716" lon="4.8063">
        <ele>433</ele>
        <time>2014-10-26T10:34:04Z</time>
      </trkpt>
      <trkpt lat="45.83716" lon="4.80623">
        <ele>434</ele>
        <time>2014-10-26T10:34:08Z</time>
      </trkpt>
      <trkpt lat="45.83715" lon="4.80619">
        <ele>434</ele>
        <time>2014-10-26T10:34:10Z</time>
      </trkpt>
      <trkpt lat="45.83713" lon="4.80603">
        <ele>435</ele>
        <time>2014-10-26T10:34:18Z</time>
      </trkpt>
      <trkpt lat="45.83713" lon="4.80596">
        <ele>436</ele>
        <time>2014-10-26T10:34:22Z</time>
      </trkpt>
      <trkpt lat="45.83712" lon="4.80588">
        <ele>436</ele>
        <time>2014-10-26T10:34:26Z</time>
      </trkpt>
      <trkpt lat="45.83711" lon="4.80577">
        <ele>445</ele>
        <time>2014-10-26T10:34:33Z</time>
      </trkpt>
      <trkpt lat="45.8371" lon="4.80571">
        <ele>445</ele>
        <time>2014-10-26T10:34:37Z</time>
      </trkpt>
      <trkpt lat="45.8371" lon="4.80566">
        <ele>446</ele>
        <time>2014-10-26T10:34:40Z</time>
      </trkpt>
      <trkpt lat="45.83708" lon="4.80558">
        <ele>446</ele>
        <time>2014-10-26T10:34:45Z</time>
      </trkpt>
      <trkpt lat="45.83708" lon="4.80555">
        <ele>446</ele>
        <time>2014-10-26T10:34:47Z</time>
      </trkpt>
      <trkpt lat="45.83712" lon="4.80553">
        <ele>446</ele>
        <time>2014-10-26T10:34:51Z</time>
      </trkpt>
      <trkpt lat="45.83714" lon="4.80552">
        <ele>446</ele>
        <time>2014-10-26T10:34:53Z</time>
      </trkpt>
      <trkpt lat="45.83722" lon="4.8055">
        <ele>446</ele>
        <time>2014-10-26T10:34:59Z</time>
      </trkpt>
      <trkpt lat="45.83731" lon="4.80545">
        <ele>446</ele>
        <time>2014-10-26T10:35:06Z</time>
      </trkpt>
      <trkpt lat="45.83732" lon="4.80544">
        <ele>446</ele>
        <time>2014-10-26T10:35:07Z</time>
      </trkpt>
      <trkpt lat="45.8374" lon="4.8054">
        <ele>446</ele>
        <time>2014-10-26T10:35:14Z</time>
      </trkpt>
      <trkpt lat="45.8375" lon="4.80538">
        <ele>447</ele>
        <time>2014-10-26T10:35:21Z</time>
      </trkpt>
      <trkpt lat="45.83753" lon="4.80537">
        <ele>451</ele>
        <time>2014-10-26T10:35:23Z</time>
      </trkpt>
      <trkpt lat="45.83756" lon="4.80536">
        <ele>451</ele>
        <time>2014-10-26T10:35:26Z</time>
      </trkpt>
      <trkpt lat="45.83755" lon="4.80535">
        <ele>451</ele>
        <time>2014-10-26T10:35:28Z</time>
      </trkpt>
      <trkpt lat="45.83754" lon="4.80535">
        <ele>451</ele>
        <time>2014-10-26T10:35:29Z</time>
      </trkpt>
      <trkpt lat="45.83744" lon="4.80537">
        <ele>447</ele>
        <time>2014-10-26T10:35:34Z</time>
      </trkpt>
      <trkpt lat="45.83732" lon="4.8054">
        <ele>447</ele>
        <time>2014-10-26T10:35:39Z</time>
      </trkpt>
      <trkpt lat="45.83727" lon="4.80539">
        <ele>447</ele>
        <time>2014-10-26T10:35:41Z</time>
      </trkpt>
      <trkpt lat="45.83725" lon="4.80538">
        <ele>447</ele>
        <time>2014-10-26T10:35:42Z</time>
      </trkpt>
      <trkpt lat="45.8372" lon="4.80538">
        <ele>447</ele>
        <time>2014-10-26T10:35:44Z</time>
      </trkpt>
      <trkpt lat="45.83707" lon="4.80537">
        <ele>448</ele>
        <time>2014-10-26T10:35:49Z</time>
      </trkpt>
      <trkpt lat="45.83699" lon="4.80536">
        <ele>448</ele>
        <time>2014-10-26T10:35:53Z</time>
      </trkpt>
      <trkpt lat="45.83693" lon="4.80539">
        <ele>448</ele>
        <time>2014-10-26T10:35:57Z</time>
      </trkpt>
      <trkpt lat="45.83692" lon="4.8054">
        <ele>448</ele>
        <time>2014-10-26T10:35:58Z</time>
      </trkpt>
      <trkpt lat="45.83689" lon="4.80544">
        <ele>448</ele>
        <time>2014-10-26T10:36:01Z</time>
      </trkpt>
      <trkpt lat="45.83688" lon="4.80545">
        <ele>448</ele>
        <time>2014-10-26T10:36:02Z</time>
      </trkpt>
      <trkpt lat="45.83686" lon="4.80548">
        <ele>447</ele>
        <time>2014-10-26T10:36:04Z</time>
      </trkpt>
      <trkpt lat="45.83678" lon="4.80559">
        <ele>446</ele>
        <time>2014-10-26T10:36:12Z</time>
      </trkpt>
      <trkpt lat="45.83682" lon="4.80559">
        <ele>446</ele>
        <time>2014-10-26T10:36:21Z</time>
      </trkpt>
      <trkpt lat="45.83683" lon="4.80554">
        <ele>447</ele>
        <time>2014-10-26T10:36:24Z</time>
      </trkpt>
      <trkpt lat="45.83684" lon="4.80552">
        <ele>447</ele>
        <time>2014-10-26T10:36:25Z</time>
      </trkpt>
      <trkpt lat="45.83692" lon="4.80545">
        <ele>447</ele>
        <time>2014-10-26T10:36:31Z</time>
      </trkpt>
    </trkseg>
  </trk>
</gpx>